<?xml version="1.0" encoding="UTF-8" standalone="no" ?>
<gpx xmlns="http://www.topografix.com/GPX/1/1" xmlns:xsi="http://www.w3.org/2001/XMLSchema-instance" xsi:schemaLocation="http://www.topografix.com/GPX/1/1 http://www.topografix.com/GPX/1/1/gpx.xsd" version="1.1" creator="VisuGPX - https://www.visugpx.com">
  <metadata>
    <name>La Milliacoise 2017 48km (écourté à 41)</name>
    <desc><![CDATA[Randonnée "La Milliacoise 2017" parcours de 48km raccourci à 41km]]></desc>
  </metadata>
  <trk>
    <name><![CDATA[2017-11-19 09:19]]></name>
    <desc><![CDATA[<p>Heure de départ: 11/19/2017 09:22</p><p>Heure d'arrivée: 11/19/2017 12:24</p><p>Distance: 40,8 km (03:02)</p><p>Temps déplacement: 02:44</p><p>Vitesse moyenne: 13,43 km/h</p><p>Vitesse moyenne mouv.: 14,89 km/h</p><p>Vitesse Max.: 33,28km/h</p><p>Altitude minimale: 54 m</p><p>Altitude maximale: 137 m</p><p>Vitesse de montée: 883,9 m/h</p><p>Vitesse de descente: -783,3 m/h</p><p>Gain d'altitude: 1170 m</p><p>Perte d'altitude: -1168 m</p><p>Temps de montée: 01:19</p><p>Temps de descente: 01:29</p><hr align="center" width="480" style="height: 2px; width: 517px"/>]]></desc>
    <trkseg>
      <trkpt lat="48.38285" lon="2.4702">
        <ele>82</ele>
        <time>2017-11-19T08:22:02Z</time>
      </trkpt>
      <trkpt lat="48.3829" lon="2.47023">
        <ele>83</ele>
        <time>2017-11-19T08:22:11Z</time>
      </trkpt>
      <trkpt lat="48.38287" lon="2.47017">
        <ele>83</ele>
        <time>2017-11-19T08:22:51Z</time>
      </trkpt>
      <trkpt lat="48.38281" lon="2.47012">
        <ele>83</ele>
        <time>2017-11-19T08:22:55Z</time>
      </trkpt>
      <trkpt lat="48.38278" lon="2.47">
        <ele>85</ele>
        <time>2017-11-19T08:22:59Z</time>
      </trkpt>
      <trkpt lat="48.38284" lon="2.46991">
        <ele>85</ele>
        <time>2017-11-19T08:23:03Z</time>
      </trkpt>
      <trkpt lat="48.38288" lon="2.46986">
        <ele>85</ele>
        <time>2017-11-19T08:23:05Z</time>
      </trkpt>
      <trkpt lat="48.3829" lon="2.46979">
        <ele>86</ele>
        <time>2017-11-19T08:23:07Z</time>
      </trkpt>
      <trkpt lat="48.38291" lon="2.4697">
        <ele>86</ele>
        <time>2017-11-19T08:23:09Z</time>
      </trkpt>
      <trkpt lat="48.38293" lon="2.46959">
        <ele>86</ele>
        <time>2017-11-19T08:23:11Z</time>
      </trkpt>
      <trkpt lat="48.38296" lon="2.46948">
        <ele>86</ele>
        <time>2017-11-19T08:23:13Z</time>
      </trkpt>
      <trkpt lat="48.383" lon="2.46939">
        <ele>87</ele>
        <time>2017-11-19T08:23:15Z</time>
      </trkpt>
      <trkpt lat="48.38301" lon="2.46926">
        <ele>87</ele>
        <time>2017-11-19T08:23:17Z</time>
      </trkpt>
      <trkpt lat="48.38301" lon="2.46916">
        <ele>89</ele>
        <time>2017-11-19T08:23:19Z</time>
      </trkpt>
      <trkpt lat="48.38307" lon="2.46912">
        <ele>89</ele>
        <time>2017-11-19T08:23:21Z</time>
      </trkpt>
      <trkpt lat="48.38311" lon="2.46908">
        <ele>89</ele>
        <time>2017-11-19T08:23:23Z</time>
      </trkpt>
      <trkpt lat="48.38318" lon="2.46896">
        <ele>89</ele>
        <time>2017-11-19T08:23:27Z</time>
      </trkpt>
      <trkpt lat="48.38323" lon="2.46886">
        <ele>89</ele>
        <time>2017-11-19T08:23:31Z</time>
      </trkpt>
      <trkpt lat="48.38328" lon="2.46875">
        <ele>90</ele>
        <time>2017-11-19T08:23:35Z</time>
      </trkpt>
      <trkpt lat="48.38333" lon="2.46866">
        <ele>90</ele>
        <time>2017-11-19T08:23:39Z</time>
      </trkpt>
      <trkpt lat="48.38336" lon="2.46856">
        <ele>94</ele>
        <time>2017-11-19T08:23:43Z</time>
      </trkpt>
      <trkpt lat="48.38338" lon="2.46849">
        <ele>95</ele>
        <time>2017-11-19T08:23:45Z</time>
      </trkpt>
      <trkpt lat="48.38343" lon="2.46839">
        <ele>95</ele>
        <time>2017-11-19T08:23:49Z</time>
      </trkpt>
      <trkpt lat="48.38346" lon="2.4683">
        <ele>97</ele>
        <time>2017-11-19T08:23:53Z</time>
      </trkpt>
      <trkpt lat="48.3835" lon="2.46821">
        <ele>99</ele>
        <time>2017-11-19T08:23:57Z</time>
      </trkpt>
      <trkpt lat="48.38351" lon="2.46812">
        <ele>99</ele>
        <time>2017-11-19T08:24:01Z</time>
      </trkpt>
      <trkpt lat="48.38347" lon="2.46801">
        <ele>100</ele>
        <time>2017-11-19T08:24:05Z</time>
      </trkpt>
      <trkpt lat="48.38344" lon="2.46794">
        <ele>100</ele>
        <time>2017-11-19T08:24:07Z</time>
      </trkpt>
      <trkpt lat="48.38342" lon="2.46787">
        <ele>101</ele>
        <time>2017-11-19T08:24:09Z</time>
      </trkpt>
      <trkpt lat="48.38337" lon="2.46774">
        <ele>101</ele>
        <time>2017-11-19T08:24:13Z</time>
      </trkpt>
      <trkpt lat="48.38333" lon="2.46765">
        <ele>101</ele>
        <time>2017-11-19T08:24:15Z</time>
      </trkpt>
      <trkpt lat="48.38333" lon="2.46757">
        <ele>98</ele>
        <time>2017-11-19T08:24:17Z</time>
      </trkpt>
      <trkpt lat="48.38335" lon="2.46747">
        <ele>101</ele>
        <time>2017-11-19T08:24:21Z</time>
      </trkpt>
      <trkpt lat="48.38332" lon="2.46736">
        <ele>99</ele>
        <time>2017-11-19T08:24:25Z</time>
      </trkpt>
      <trkpt lat="48.38333" lon="2.46723">
        <ele>98</ele>
        <time>2017-11-19T08:24:29Z</time>
      </trkpt>
      <trkpt lat="48.38335" lon="2.46714">
        <ele>106</ele>
        <time>2017-11-19T08:24:33Z</time>
      </trkpt>
      <trkpt lat="48.38337" lon="2.46706">
        <ele>107</ele>
        <time>2017-11-19T08:24:37Z</time>
      </trkpt>
      <trkpt lat="48.38341" lon="2.46703">
        <ele>107</ele>
        <time>2017-11-19T08:24:41Z</time>
      </trkpt>
      <trkpt lat="48.38344" lon="2.46696">
        <ele>107</ele>
        <time>2017-11-19T08:24:47Z</time>
      </trkpt>
      <trkpt lat="48.38348" lon="2.46691">
        <ele>107</ele>
        <time>2017-11-19T08:24:53Z</time>
      </trkpt>
      <trkpt lat="48.38351" lon="2.46681">
        <ele>107</ele>
        <time>2017-11-19T08:24:59Z</time>
      </trkpt>
      <trkpt lat="48.38347" lon="2.46676">
        <ele>107</ele>
        <time>2017-11-19T08:25:01Z</time>
      </trkpt>
      <trkpt lat="48.38344" lon="2.46669">
        <ele>106</ele>
        <time>2017-11-19T08:25:03Z</time>
      </trkpt>
      <trkpt lat="48.38342" lon="2.46663">
        <ele>107</ele>
        <time>2017-11-19T08:25:05Z</time>
      </trkpt>
      <trkpt lat="48.38339" lon="2.46656">
        <ele>108</ele>
        <time>2017-11-19T08:25:09Z</time>
      </trkpt>
      <trkpt lat="48.38332" lon="2.46655">
        <ele>103</ele>
        <time>2017-11-19T08:25:13Z</time>
      </trkpt>
      <trkpt lat="48.38327" lon="2.46658">
        <ele>103</ele>
        <time>2017-11-19T08:25:15Z</time>
      </trkpt>
      <trkpt lat="48.38322" lon="2.46663">
        <ele>103</ele>
        <time>2017-11-19T08:25:17Z</time>
      </trkpt>
      <trkpt lat="48.38316" lon="2.46661">
        <ele>102</ele>
        <time>2017-11-19T08:25:19Z</time>
      </trkpt>
      <trkpt lat="48.38311" lon="2.46656">
        <ele>102</ele>
        <time>2017-11-19T08:25:21Z</time>
      </trkpt>
      <trkpt lat="48.38304" lon="2.46648">
        <ele>101</ele>
        <time>2017-11-19T08:25:23Z</time>
      </trkpt>
      <trkpt lat="48.38297" lon="2.46645">
        <ele>101</ele>
        <time>2017-11-19T08:25:25Z</time>
      </trkpt>
      <trkpt lat="48.38287" lon="2.4665">
        <ele>100</ele>
        <time>2017-11-19T08:25:27Z</time>
      </trkpt>
      <trkpt lat="48.3828" lon="2.4665">
        <ele>99</ele>
        <time>2017-11-19T08:25:29Z</time>
      </trkpt>
      <trkpt lat="48.38277" lon="2.46644">
        <ele>99</ele>
        <time>2017-11-19T08:25:31Z</time>
      </trkpt>
      <trkpt lat="48.38273" lon="2.46639">
        <ele>99</ele>
        <time>2017-11-19T08:25:33Z</time>
      </trkpt>
      <trkpt lat="48.38269" lon="2.46633">
        <ele>99</ele>
        <time>2017-11-19T08:25:35Z</time>
      </trkpt>
      <trkpt lat="48.38265" lon="2.46626">
        <ele>99</ele>
        <time>2017-11-19T08:25:37Z</time>
      </trkpt>
      <trkpt lat="48.38258" lon="2.46617">
        <ele>99</ele>
        <time>2017-11-19T08:25:39Z</time>
      </trkpt>
      <trkpt lat="48.38252" lon="2.4661">
        <ele>99</ele>
        <time>2017-11-19T08:25:41Z</time>
      </trkpt>
      <trkpt lat="48.38246" lon="2.46603">
        <ele>94</ele>
        <time>2017-11-19T08:25:43Z</time>
      </trkpt>
      <trkpt lat="48.38241" lon="2.46595">
        <ele>95</ele>
        <time>2017-11-19T08:25:45Z</time>
      </trkpt>
      <trkpt lat="48.38236" lon="2.46586">
        <ele>95</ele>
        <time>2017-11-19T08:25:47Z</time>
      </trkpt>
      <trkpt lat="48.38234" lon="2.46576">
        <ele>97</ele>
        <time>2017-11-19T08:25:49Z</time>
      </trkpt>
      <trkpt lat="48.38239" lon="2.46567">
        <ele>97</ele>
        <time>2017-11-19T08:25:53Z</time>
      </trkpt>
      <trkpt lat="48.38244" lon="2.4656">
        <ele>97</ele>
        <time>2017-11-19T08:25:57Z</time>
      </trkpt>
      <trkpt lat="48.38249" lon="2.46553">
        <ele>97</ele>
        <time>2017-11-19T08:26:01Z</time>
      </trkpt>
      <trkpt lat="48.38253" lon="2.46546">
        <ele>105</ele>
        <time>2017-11-19T08:26:05Z</time>
      </trkpt>
      <trkpt lat="48.38255" lon="2.4654">
        <ele>105</ele>
        <time>2017-11-19T08:26:09Z</time>
      </trkpt>
      <trkpt lat="48.38257" lon="2.46533">
        <ele>105</ele>
        <time>2017-11-19T08:26:13Z</time>
      </trkpt>
      <trkpt lat="48.38258" lon="2.46526">
        <ele>106</ele>
        <time>2017-11-19T08:26:17Z</time>
      </trkpt>
      <trkpt lat="48.38262" lon="2.46522">
        <ele>106</ele>
        <time>2017-11-19T08:26:21Z</time>
      </trkpt>
      <trkpt lat="48.38264" lon="2.46515">
        <ele>106</ele>
        <time>2017-11-19T08:26:25Z</time>
      </trkpt>
      <trkpt lat="48.38263" lon="2.46506">
        <ele>106</ele>
        <time>2017-11-19T08:26:29Z</time>
      </trkpt>
      <trkpt lat="48.3826" lon="2.46499">
        <ele>107</ele>
        <time>2017-11-19T08:26:31Z</time>
      </trkpt>
      <trkpt lat="48.38257" lon="2.4649">
        <ele>108</ele>
        <time>2017-11-19T08:26:33Z</time>
      </trkpt>
      <trkpt lat="48.38255" lon="2.46484">
        <ele>109</ele>
        <time>2017-11-19T08:26:35Z</time>
      </trkpt>
      <trkpt lat="48.38255" lon="2.46476">
        <ele>110</ele>
        <time>2017-11-19T08:26:39Z</time>
      </trkpt>
      <trkpt lat="48.38259" lon="2.46469">
        <ele>111</ele>
        <time>2017-11-19T08:26:43Z</time>
      </trkpt>
      <trkpt lat="48.38261" lon="2.46463">
        <ele>111</ele>
        <time>2017-11-19T08:26:47Z</time>
      </trkpt>
      <trkpt lat="48.38265" lon="2.46455">
        <ele>112</ele>
        <time>2017-11-19T08:26:53Z</time>
      </trkpt>
      <trkpt lat="48.38268" lon="2.46446">
        <ele>112</ele>
        <time>2017-11-19T08:26:59Z</time>
      </trkpt>
      <trkpt lat="48.38272" lon="2.46437">
        <ele>113</ele>
        <time>2017-11-19T08:27:05Z</time>
      </trkpt>
      <trkpt lat="48.38276" lon="2.4643">
        <ele>113</ele>
        <time>2017-11-19T08:27:11Z</time>
      </trkpt>
      <trkpt lat="48.38279" lon="2.46425">
        <ele>113</ele>
        <time>2017-11-19T08:27:15Z</time>
      </trkpt>
      <trkpt lat="48.38282" lon="2.46416">
        <ele>117</ele>
        <time>2017-11-19T08:27:19Z</time>
      </trkpt>
      <trkpt lat="48.38286" lon="2.46409">
        <ele>117</ele>
        <time>2017-11-19T08:27:23Z</time>
      </trkpt>
      <trkpt lat="48.38288" lon="2.46399">
        <ele>118</ele>
        <time>2017-11-19T08:27:27Z</time>
      </trkpt>
      <trkpt lat="48.38286" lon="2.46391">
        <ele>118</ele>
        <time>2017-11-19T08:27:31Z</time>
      </trkpt>
      <trkpt lat="48.38281" lon="2.46386">
        <ele>118</ele>
        <time>2017-11-19T08:27:33Z</time>
      </trkpt>
      <trkpt lat="48.38275" lon="2.4638">
        <ele>118</ele>
        <time>2017-11-19T08:27:37Z</time>
      </trkpt>
      <trkpt lat="48.3827" lon="2.4638">
        <ele>118</ele>
        <time>2017-11-19T08:27:39Z</time>
      </trkpt>
      <trkpt lat="48.38263" lon="2.46376">
        <ele>118</ele>
        <time>2017-11-19T08:27:41Z</time>
      </trkpt>
      <trkpt lat="48.38259" lon="2.4637">
        <ele>118</ele>
        <time>2017-11-19T08:27:43Z</time>
      </trkpt>
      <trkpt lat="48.3826" lon="2.46359">
        <ele>118</ele>
        <time>2017-11-19T08:27:47Z</time>
      </trkpt>
      <trkpt lat="48.38262" lon="2.4635">
        <ele>119</ele>
        <time>2017-11-19T08:27:51Z</time>
      </trkpt>
      <trkpt lat="48.38267" lon="2.46345">
        <ele>119</ele>
        <time>2017-11-19T08:27:55Z</time>
      </trkpt>
      <trkpt lat="48.38271" lon="2.46338">
        <ele>119</ele>
        <time>2017-11-19T08:27:59Z</time>
      </trkpt>
      <trkpt lat="48.38274" lon="2.46331">
        <ele>121</ele>
        <time>2017-11-19T08:28:03Z</time>
      </trkpt>
      <trkpt lat="48.38278" lon="2.46323">
        <ele>121</ele>
        <time>2017-11-19T08:28:07Z</time>
      </trkpt>
      <trkpt lat="48.38281" lon="2.46319">
        <ele>121</ele>
        <time>2017-11-19T08:28:09Z</time>
      </trkpt>
      <trkpt lat="48.38286" lon="2.46308">
        <ele>122</ele>
        <time>2017-11-19T08:28:13Z</time>
      </trkpt>
      <trkpt lat="48.38289" lon="2.46303">
        <ele>122</ele>
        <time>2017-11-19T08:28:15Z</time>
      </trkpt>
      <trkpt lat="48.38291" lon="2.46296">
        <ele>122</ele>
        <time>2017-11-19T08:28:17Z</time>
      </trkpt>
      <trkpt lat="48.38294" lon="2.46289">
        <ele>122</ele>
        <time>2017-11-19T08:28:19Z</time>
      </trkpt>
      <trkpt lat="48.38296" lon="2.46281">
        <ele>122</ele>
        <time>2017-11-19T08:28:21Z</time>
      </trkpt>
      <trkpt lat="48.38299" lon="2.46274">
        <ele>122</ele>
        <time>2017-11-19T08:28:23Z</time>
      </trkpt>
      <trkpt lat="48.38301" lon="2.46266">
        <ele>122</ele>
        <time>2017-11-19T08:28:25Z</time>
      </trkpt>
      <trkpt lat="48.38304" lon="2.46258">
        <ele>122</ele>
        <time>2017-11-19T08:28:27Z</time>
      </trkpt>
      <trkpt lat="48.38306" lon="2.46251">
        <ele>122</ele>
        <time>2017-11-19T08:28:29Z</time>
      </trkpt>
      <trkpt lat="48.38307" lon="2.46244">
        <ele>123</ele>
        <time>2017-11-19T08:28:31Z</time>
      </trkpt>
      <trkpt lat="48.38308" lon="2.46237">
        <ele>123</ele>
        <time>2017-11-19T08:28:33Z</time>
      </trkpt>
      <trkpt lat="48.38307" lon="2.46229">
        <ele>123</ele>
        <time>2017-11-19T08:28:35Z</time>
      </trkpt>
      <trkpt lat="48.38304" lon="2.4622">
        <ele>123</ele>
        <time>2017-11-19T08:28:37Z</time>
      </trkpt>
      <trkpt lat="48.38301" lon="2.46212">
        <ele>123</ele>
        <time>2017-11-19T08:28:39Z</time>
      </trkpt>
      <trkpt lat="48.38297" lon="2.46202">
        <ele>123</ele>
        <time>2017-11-19T08:28:41Z</time>
      </trkpt>
      <trkpt lat="48.38293" lon="2.46191">
        <ele>123</ele>
        <time>2017-11-19T08:28:43Z</time>
      </trkpt>
      <trkpt lat="48.38289" lon="2.46181">
        <ele>123</ele>
        <time>2017-11-19T08:28:45Z</time>
      </trkpt>
      <trkpt lat="48.38284" lon="2.46171">
        <ele>123</ele>
        <time>2017-11-19T08:28:47Z</time>
      </trkpt>
      <trkpt lat="48.3828" lon="2.46161">
        <ele>123</ele>
        <time>2017-11-19T08:28:49Z</time>
      </trkpt>
      <trkpt lat="48.38275" lon="2.46151">
        <ele>123</ele>
        <time>2017-11-19T08:28:51Z</time>
      </trkpt>
      <trkpt lat="48.3827" lon="2.46141">
        <ele>123</ele>
        <time>2017-11-19T08:28:53Z</time>
      </trkpt>
      <trkpt lat="48.38264" lon="2.46131">
        <ele>123</ele>
        <time>2017-11-19T08:28:55Z</time>
      </trkpt>
      <trkpt lat="48.38259" lon="2.4612">
        <ele>123</ele>
        <time>2017-11-19T08:28:57Z</time>
      </trkpt>
      <trkpt lat="48.38254" lon="2.46109">
        <ele>123</ele>
        <time>2017-11-19T08:28:59Z</time>
      </trkpt>
      <trkpt lat="48.38248" lon="2.46098">
        <ele>121</ele>
        <time>2017-11-19T08:29:01Z</time>
      </trkpt>
      <trkpt lat="48.38241" lon="2.46086">
        <ele>121</ele>
        <time>2017-11-19T08:29:03Z</time>
      </trkpt>
      <trkpt lat="48.38235" lon="2.46075">
        <ele>121</ele>
        <time>2017-11-19T08:29:05Z</time>
      </trkpt>
      <trkpt lat="48.38229" lon="2.46064">
        <ele>121</ele>
        <time>2017-11-19T08:29:07Z</time>
      </trkpt>
      <trkpt lat="48.38224" lon="2.46052">
        <ele>121</ele>
        <time>2017-11-19T08:29:09Z</time>
      </trkpt>
      <trkpt lat="48.38218" lon="2.46041">
        <ele>121</ele>
        <time>2017-11-19T08:29:11Z</time>
      </trkpt>
      <trkpt lat="48.38212" lon="2.4603">
        <ele>121</ele>
        <time>2017-11-19T08:29:13Z</time>
      </trkpt>
      <trkpt lat="48.38207" lon="2.4602">
        <ele>122</ele>
        <time>2017-11-19T08:29:15Z</time>
      </trkpt>
      <trkpt lat="48.38201" lon="2.46009">
        <ele>122</ele>
        <time>2017-11-19T08:29:17Z</time>
      </trkpt>
      <trkpt lat="48.38196" lon="2.45997">
        <ele>123</ele>
        <time>2017-11-19T08:29:19Z</time>
      </trkpt>
      <trkpt lat="48.38191" lon="2.45987">
        <ele>123</ele>
        <time>2017-11-19T08:29:21Z</time>
      </trkpt>
      <trkpt lat="48.38185" lon="2.45977">
        <ele>123</ele>
        <time>2017-11-19T08:29:23Z</time>
      </trkpt>
      <trkpt lat="48.3818" lon="2.45968">
        <ele>123</ele>
        <time>2017-11-19T08:29:25Z</time>
      </trkpt>
      <trkpt lat="48.38174" lon="2.45959">
        <ele>123</ele>
        <time>2017-11-19T08:29:27Z</time>
      </trkpt>
      <trkpt lat="48.38167" lon="2.45949">
        <ele>123</ele>
        <time>2017-11-19T08:29:29Z</time>
      </trkpt>
      <trkpt lat="48.38161" lon="2.45939">
        <ele>124</ele>
        <time>2017-11-19T08:29:31Z</time>
      </trkpt>
      <trkpt lat="48.38154" lon="2.4593">
        <ele>124</ele>
        <time>2017-11-19T08:29:33Z</time>
      </trkpt>
      <trkpt lat="48.38147" lon="2.4592">
        <ele>124</ele>
        <time>2017-11-19T08:29:35Z</time>
      </trkpt>
      <trkpt lat="48.3814" lon="2.45911">
        <ele>124</ele>
        <time>2017-11-19T08:29:37Z</time>
      </trkpt>
      <trkpt lat="48.38132" lon="2.45902">
        <ele>124</ele>
        <time>2017-11-19T08:29:39Z</time>
      </trkpt>
      <trkpt lat="48.38124" lon="2.45892">
        <ele>124</ele>
        <time>2017-11-19T08:29:41Z</time>
      </trkpt>
      <trkpt lat="48.38116" lon="2.45882">
        <ele>124</ele>
        <time>2017-11-19T08:29:43Z</time>
      </trkpt>
      <trkpt lat="48.38107" lon="2.4587">
        <ele>123</ele>
        <time>2017-11-19T08:29:45Z</time>
      </trkpt>
      <trkpt lat="48.38098" lon="2.45859">
        <ele>123</ele>
        <time>2017-11-19T08:29:47Z</time>
      </trkpt>
      <trkpt lat="48.38089" lon="2.45851">
        <ele>123</ele>
        <time>2017-11-19T08:29:49Z</time>
      </trkpt>
      <trkpt lat="48.3808" lon="2.45838">
        <ele>123</ele>
        <time>2017-11-19T08:29:51Z</time>
      </trkpt>
      <trkpt lat="48.38072" lon="2.45828">
        <ele>122</ele>
        <time>2017-11-19T08:29:53Z</time>
      </trkpt>
      <trkpt lat="48.38062" lon="2.45816">
        <ele>122</ele>
        <time>2017-11-19T08:29:55Z</time>
      </trkpt>
      <trkpt lat="48.38052" lon="2.45804">
        <ele>122</ele>
        <time>2017-11-19T08:29:57Z</time>
      </trkpt>
      <trkpt lat="48.38041" lon="2.45791">
        <ele>122</ele>
        <time>2017-11-19T08:29:59Z</time>
      </trkpt>
      <trkpt lat="48.38031" lon="2.45778">
        <ele>122</ele>
        <time>2017-11-19T08:30:01Z</time>
      </trkpt>
      <trkpt lat="48.38021" lon="2.45766">
        <ele>122</ele>
        <time>2017-11-19T08:30:03Z</time>
      </trkpt>
      <trkpt lat="48.38011" lon="2.45753">
        <ele>122</ele>
        <time>2017-11-19T08:30:05Z</time>
      </trkpt>
      <trkpt lat="48.38001" lon="2.4574">
        <ele>122</ele>
        <time>2017-11-19T08:30:07Z</time>
      </trkpt>
      <trkpt lat="48.3799" lon="2.45728">
        <ele>119</ele>
        <time>2017-11-19T08:30:09Z</time>
      </trkpt>
      <trkpt lat="48.37981" lon="2.45714">
        <ele>119</ele>
        <time>2017-11-19T08:30:11Z</time>
      </trkpt>
      <trkpt lat="48.37972" lon="2.457">
        <ele>118</ele>
        <time>2017-11-19T08:30:13Z</time>
      </trkpt>
      <trkpt lat="48.37964" lon="2.45686">
        <ele>118</ele>
        <time>2017-11-19T08:30:15Z</time>
      </trkpt>
      <trkpt lat="48.37957" lon="2.4567">
        <ele>118</ele>
        <time>2017-11-19T08:30:17Z</time>
      </trkpt>
      <trkpt lat="48.37951" lon="2.45654">
        <ele>118</ele>
        <time>2017-11-19T08:30:19Z</time>
      </trkpt>
      <trkpt lat="48.37944" lon="2.45637">
        <ele>118</ele>
        <time>2017-11-19T08:30:21Z</time>
      </trkpt>
      <trkpt lat="48.37937" lon="2.45619">
        <ele>119</ele>
        <time>2017-11-19T08:30:23Z</time>
      </trkpt>
      <trkpt lat="48.37931" lon="2.45602">
        <ele>119</ele>
        <time>2017-11-19T08:30:25Z</time>
      </trkpt>
      <trkpt lat="48.37923" lon="2.45587">
        <ele>119</ele>
        <time>2017-11-19T08:30:27Z</time>
      </trkpt>
      <trkpt lat="48.37916" lon="2.45573">
        <ele>119</ele>
        <time>2017-11-19T08:30:29Z</time>
      </trkpt>
      <trkpt lat="48.37908" lon="2.4556">
        <ele>118</ele>
        <time>2017-11-19T08:30:31Z</time>
      </trkpt>
      <trkpt lat="48.379" lon="2.4555">
        <ele>118</ele>
        <time>2017-11-19T08:30:33Z</time>
      </trkpt>
      <trkpt lat="48.37892" lon="2.45539">
        <ele>118</ele>
        <time>2017-11-19T08:30:35Z</time>
      </trkpt>
      <trkpt lat="48.37884" lon="2.45528">
        <ele>118</ele>
        <time>2017-11-19T08:30:37Z</time>
      </trkpt>
      <trkpt lat="48.37877" lon="2.45518">
        <ele>118</ele>
        <time>2017-11-19T08:30:39Z</time>
      </trkpt>
      <trkpt lat="48.37869" lon="2.45507">
        <ele>118</ele>
        <time>2017-11-19T08:30:41Z</time>
      </trkpt>
      <trkpt lat="48.37861" lon="2.45497">
        <ele>119</ele>
        <time>2017-11-19T08:30:43Z</time>
      </trkpt>
      <trkpt lat="48.37854" lon="2.45487">
        <ele>118</ele>
        <time>2017-11-19T08:30:45Z</time>
      </trkpt>
      <trkpt lat="48.37847" lon="2.45478">
        <ele>118</ele>
        <time>2017-11-19T08:30:47Z</time>
      </trkpt>
      <trkpt lat="48.37839" lon="2.4548">
        <ele>118</ele>
        <time>2017-11-19T08:30:49Z</time>
      </trkpt>
      <trkpt lat="48.37831" lon="2.45491">
        <ele>118</ele>
        <time>2017-11-19T08:30:51Z</time>
      </trkpt>
      <trkpt lat="48.37822" lon="2.45504">
        <ele>117</ele>
        <time>2017-11-19T08:30:53Z</time>
      </trkpt>
      <trkpt lat="48.37811" lon="2.45517">
        <ele>117</ele>
        <time>2017-11-19T08:30:55Z</time>
      </trkpt>
      <trkpt lat="48.37801" lon="2.4553">
        <ele>117</ele>
        <time>2017-11-19T08:30:57Z</time>
      </trkpt>
      <trkpt lat="48.37789" lon="2.45543">
        <ele>117</ele>
        <time>2017-11-19T08:30:59Z</time>
      </trkpt>
      <trkpt lat="48.37779" lon="2.45554">
        <ele>117</ele>
        <time>2017-11-19T08:31:01Z</time>
      </trkpt>
      <trkpt lat="48.3777" lon="2.45566">
        <ele>117</ele>
        <time>2017-11-19T08:31:03Z</time>
      </trkpt>
      <trkpt lat="48.37768" lon="2.45581">
        <ele>117</ele>
        <time>2017-11-19T08:31:05Z</time>
      </trkpt>
      <trkpt lat="48.37768" lon="2.45596">
        <ele>114</ele>
        <time>2017-11-19T08:31:07Z</time>
      </trkpt>
      <trkpt lat="48.37771" lon="2.45618">
        <ele>113</ele>
        <time>2017-11-19T08:31:09Z</time>
      </trkpt>
      <trkpt lat="48.3777" lon="2.45641">
        <ele>112</ele>
        <time>2017-11-19T08:31:11Z</time>
      </trkpt>
      <trkpt lat="48.37774" lon="2.45667">
        <ele>112</ele>
        <time>2017-11-19T08:31:13Z</time>
      </trkpt>
      <trkpt lat="48.37777" lon="2.45693">
        <ele>108</ele>
        <time>2017-11-19T08:31:15Z</time>
      </trkpt>
      <trkpt lat="48.37782" lon="2.45719">
        <ele>107</ele>
        <time>2017-11-19T08:31:17Z</time>
      </trkpt>
      <trkpt lat="48.37786" lon="2.45747">
        <ele>106</ele>
        <time>2017-11-19T08:31:19Z</time>
      </trkpt>
      <trkpt lat="48.3779" lon="2.45773">
        <ele>103</ele>
        <time>2017-11-19T08:31:21Z</time>
      </trkpt>
      <trkpt lat="48.37789" lon="2.45794">
        <ele>102</ele>
        <time>2017-11-19T08:31:23Z</time>
      </trkpt>
      <trkpt lat="48.37786" lon="2.45817">
        <ele>102</ele>
        <time>2017-11-19T08:31:25Z</time>
      </trkpt>
      <trkpt lat="48.37783" lon="2.45839">
        <ele>98</ele>
        <time>2017-11-19T08:31:27Z</time>
      </trkpt>
      <trkpt lat="48.37786" lon="2.45866">
        <ele>97</ele>
        <time>2017-11-19T08:31:29Z</time>
      </trkpt>
      <trkpt lat="48.37791" lon="2.45885">
        <ele>96</ele>
        <time>2017-11-19T08:31:31Z</time>
      </trkpt>
      <trkpt lat="48.37793" lon="2.459">
        <ele>95</ele>
        <time>2017-11-19T08:31:33Z</time>
      </trkpt>
      <trkpt lat="48.37788" lon="2.45914">
        <ele>95</ele>
        <time>2017-11-19T08:31:35Z</time>
      </trkpt>
      <trkpt lat="48.37773" lon="2.45925">
        <ele>90</ele>
        <time>2017-11-19T08:31:37Z</time>
      </trkpt>
      <trkpt lat="48.37764" lon="2.45937">
        <ele>90</ele>
        <time>2017-11-19T08:31:39Z</time>
      </trkpt>
      <trkpt lat="48.37754" lon="2.45949">
        <ele>89</ele>
        <time>2017-11-19T08:31:41Z</time>
      </trkpt>
      <trkpt lat="48.37746" lon="2.45962">
        <ele>88</ele>
        <time>2017-11-19T08:31:43Z</time>
      </trkpt>
      <trkpt lat="48.37735" lon="2.45973">
        <ele>87</ele>
        <time>2017-11-19T08:31:45Z</time>
      </trkpt>
      <trkpt lat="48.37724" lon="2.45982">
        <ele>86</ele>
        <time>2017-11-19T08:31:47Z</time>
      </trkpt>
      <trkpt lat="48.37711" lon="2.45989">
        <ele>86</ele>
        <time>2017-11-19T08:31:49Z</time>
      </trkpt>
      <trkpt lat="48.37699" lon="2.45992">
        <ele>86</ele>
        <time>2017-11-19T08:31:51Z</time>
      </trkpt>
      <trkpt lat="48.37687" lon="2.45991">
        <ele>85</ele>
        <time>2017-11-19T08:31:53Z</time>
      </trkpt>
      <trkpt lat="48.37675" lon="2.4599">
        <ele>85</ele>
        <time>2017-11-19T08:31:55Z</time>
      </trkpt>
      <trkpt lat="48.37663" lon="2.4599">
        <ele>84</ele>
        <time>2017-11-19T08:31:57Z</time>
      </trkpt>
      <trkpt lat="48.37651" lon="2.45989">
        <ele>84</ele>
        <time>2017-11-19T08:31:59Z</time>
      </trkpt>
      <trkpt lat="48.37642" lon="2.4599">
        <ele>84</ele>
        <time>2017-11-19T08:32:01Z</time>
      </trkpt>
      <trkpt lat="48.37636" lon="2.45997">
        <ele>84</ele>
        <time>2017-11-19T08:32:03Z</time>
      </trkpt>
      <trkpt lat="48.37633" lon="2.46009">
        <ele>82</ele>
        <time>2017-11-19T08:32:05Z</time>
      </trkpt>
      <trkpt lat="48.37634" lon="2.46025">
        <ele>81</ele>
        <time>2017-11-19T08:32:07Z</time>
      </trkpt>
      <trkpt lat="48.37634" lon="2.46042">
        <ele>81</ele>
        <time>2017-11-19T08:32:09Z</time>
      </trkpt>
      <trkpt lat="48.37635" lon="2.4606">
        <ele>81</ele>
        <time>2017-11-19T08:32:11Z</time>
      </trkpt>
      <trkpt lat="48.37635" lon="2.46079">
        <ele>81</ele>
        <time>2017-11-19T08:32:13Z</time>
      </trkpt>
      <trkpt lat="48.37637" lon="2.46098">
        <ele>79</ele>
        <time>2017-11-19T08:32:15Z</time>
      </trkpt>
      <trkpt lat="48.37639" lon="2.46117">
        <ele>79</ele>
        <time>2017-11-19T08:32:17Z</time>
      </trkpt>
      <trkpt lat="48.3764" lon="2.46136">
        <ele>78</ele>
        <time>2017-11-19T08:32:19Z</time>
      </trkpt>
      <trkpt lat="48.3764" lon="2.46154">
        <ele>78</ele>
        <time>2017-11-19T08:32:21Z</time>
      </trkpt>
      <trkpt lat="48.37641" lon="2.46173">
        <ele>77</ele>
        <time>2017-11-19T08:32:23Z</time>
      </trkpt>
      <trkpt lat="48.37641" lon="2.46192">
        <ele>77</ele>
        <time>2017-11-19T08:32:25Z</time>
      </trkpt>
      <trkpt lat="48.37642" lon="2.46211">
        <ele>77</ele>
        <time>2017-11-19T08:32:27Z</time>
      </trkpt>
      <trkpt lat="48.37642" lon="2.4623">
        <ele>77</ele>
        <time>2017-11-19T08:32:29Z</time>
      </trkpt>
      <trkpt lat="48.37642" lon="2.4625">
        <ele>77</ele>
        <time>2017-11-19T08:32:31Z</time>
      </trkpt>
      <trkpt lat="48.37642" lon="2.46269">
        <ele>76</ele>
        <time>2017-11-19T08:32:33Z</time>
      </trkpt>
      <trkpt lat="48.37641" lon="2.46288">
        <ele>76</ele>
        <time>2017-11-19T08:32:35Z</time>
      </trkpt>
      <trkpt lat="48.3764" lon="2.46307">
        <ele>76</ele>
        <time>2017-11-19T08:32:37Z</time>
      </trkpt>
      <trkpt lat="48.3764" lon="2.46326">
        <ele>76</ele>
        <time>2017-11-19T08:32:39Z</time>
      </trkpt>
      <trkpt lat="48.37639" lon="2.46344">
        <ele>76</ele>
        <time>2017-11-19T08:32:41Z</time>
      </trkpt>
      <trkpt lat="48.37637" lon="2.46364">
        <ele>75</ele>
        <time>2017-11-19T08:32:43Z</time>
      </trkpt>
      <trkpt lat="48.37636" lon="2.46382">
        <ele>75</ele>
        <time>2017-11-19T08:32:45Z</time>
      </trkpt>
      <trkpt lat="48.37635" lon="2.46402">
        <ele>75</ele>
        <time>2017-11-19T08:32:47Z</time>
      </trkpt>
      <trkpt lat="48.37634" lon="2.46421">
        <ele>74</ele>
        <time>2017-11-19T08:32:49Z</time>
      </trkpt>
      <trkpt lat="48.37633" lon="2.46441">
        <ele>74</ele>
        <time>2017-11-19T08:32:51Z</time>
      </trkpt>
      <trkpt lat="48.37632" lon="2.46461">
        <ele>74</ele>
        <time>2017-11-19T08:32:53Z</time>
      </trkpt>
      <trkpt lat="48.3763" lon="2.4648">
        <ele>74</ele>
        <time>2017-11-19T08:32:55Z</time>
      </trkpt>
      <trkpt lat="48.37629" lon="2.46499">
        <ele>74</ele>
        <time>2017-11-19T08:32:57Z</time>
      </trkpt>
      <trkpt lat="48.37628" lon="2.46519">
        <ele>74</ele>
        <time>2017-11-19T08:32:59Z</time>
      </trkpt>
      <trkpt lat="48.37628" lon="2.46536">
        <ele>74</ele>
        <time>2017-11-19T08:33:01Z</time>
      </trkpt>
      <trkpt lat="48.37627" lon="2.46555">
        <ele>73</ele>
        <time>2017-11-19T08:33:03Z</time>
      </trkpt>
      <trkpt lat="48.37628" lon="2.46573">
        <ele>73</ele>
        <time>2017-11-19T08:33:05Z</time>
      </trkpt>
      <trkpt lat="48.37629" lon="2.46591">
        <ele>72</ele>
        <time>2017-11-19T08:33:07Z</time>
      </trkpt>
      <trkpt lat="48.37631" lon="2.4661">
        <ele>72</ele>
        <time>2017-11-19T08:33:09Z</time>
      </trkpt>
      <trkpt lat="48.37632" lon="2.46629">
        <ele>72</ele>
        <time>2017-11-19T08:33:11Z</time>
      </trkpt>
      <trkpt lat="48.37634" lon="2.46649">
        <ele>72</ele>
        <time>2017-11-19T08:33:13Z</time>
      </trkpt>
      <trkpt lat="48.37635" lon="2.46669">
        <ele>71</ele>
        <time>2017-11-19T08:33:15Z</time>
      </trkpt>
      <trkpt lat="48.37635" lon="2.46689">
        <ele>71</ele>
        <time>2017-11-19T08:33:17Z</time>
      </trkpt>
      <trkpt lat="48.37636" lon="2.46709">
        <ele>71</ele>
        <time>2017-11-19T08:33:19Z</time>
      </trkpt>
      <trkpt lat="48.37636" lon="2.46729">
        <ele>71</ele>
        <time>2017-11-19T08:33:21Z</time>
      </trkpt>
      <trkpt lat="48.37636" lon="2.46749">
        <ele>71</ele>
        <time>2017-11-19T08:33:23Z</time>
      </trkpt>
      <trkpt lat="48.37636" lon="2.46768">
        <ele>70</ele>
        <time>2017-11-19T08:33:25Z</time>
      </trkpt>
      <trkpt lat="48.37637" lon="2.46787">
        <ele>70</ele>
        <time>2017-11-19T08:33:27Z</time>
      </trkpt>
      <trkpt lat="48.37638" lon="2.46805">
        <ele>70</ele>
        <time>2017-11-19T08:33:29Z</time>
      </trkpt>
      <trkpt lat="48.37641" lon="2.46823">
        <ele>70</ele>
        <time>2017-11-19T08:33:31Z</time>
      </trkpt>
      <trkpt lat="48.37644" lon="2.46841">
        <ele>70</ele>
        <time>2017-11-19T08:33:33Z</time>
      </trkpt>
      <trkpt lat="48.37648" lon="2.46858">
        <ele>70</ele>
        <time>2017-11-19T08:33:35Z</time>
      </trkpt>
      <trkpt lat="48.37653" lon="2.46875">
        <ele>70</ele>
        <time>2017-11-19T08:33:37Z</time>
      </trkpt>
      <trkpt lat="48.37657" lon="2.46892">
        <ele>69</ele>
        <time>2017-11-19T08:33:39Z</time>
      </trkpt>
      <trkpt lat="48.37662" lon="2.46907">
        <ele>69</ele>
        <time>2017-11-19T08:33:41Z</time>
      </trkpt>
      <trkpt lat="48.37668" lon="2.46923">
        <ele>69</ele>
        <time>2017-11-19T08:33:43Z</time>
      </trkpt>
      <trkpt lat="48.37674" lon="2.46937">
        <ele>70</ele>
        <time>2017-11-19T08:33:45Z</time>
      </trkpt>
      <trkpt lat="48.37681" lon="2.4695">
        <ele>70</ele>
        <time>2017-11-19T08:33:47Z</time>
      </trkpt>
      <trkpt lat="48.37688" lon="2.46962">
        <ele>70</ele>
        <time>2017-11-19T08:33:49Z</time>
      </trkpt>
      <trkpt lat="48.37697" lon="2.46975">
        <ele>70</ele>
        <time>2017-11-19T08:33:51Z</time>
      </trkpt>
      <trkpt lat="48.37705" lon="2.46985">
        <ele>70</ele>
        <time>2017-11-19T08:33:53Z</time>
      </trkpt>
      <trkpt lat="48.37713" lon="2.46996">
        <ele>70</ele>
        <time>2017-11-19T08:33:55Z</time>
      </trkpt>
      <trkpt lat="48.37722" lon="2.47006">
        <ele>70</ele>
        <time>2017-11-19T08:33:57Z</time>
      </trkpt>
      <trkpt lat="48.37729" lon="2.47018">
        <ele>70</ele>
        <time>2017-11-19T08:33:59Z</time>
      </trkpt>
      <trkpt lat="48.37737" lon="2.4703">
        <ele>70</ele>
        <time>2017-11-19T08:34:01Z</time>
      </trkpt>
      <trkpt lat="48.37744" lon="2.47043">
        <ele>70</ele>
        <time>2017-11-19T08:34:03Z</time>
      </trkpt>
      <trkpt lat="48.3775" lon="2.47057">
        <ele>70</ele>
        <time>2017-11-19T08:34:05Z</time>
      </trkpt>
      <trkpt lat="48.37755" lon="2.47073">
        <ele>70</ele>
        <time>2017-11-19T08:34:07Z</time>
      </trkpt>
      <trkpt lat="48.37759" lon="2.47087">
        <ele>70</ele>
        <time>2017-11-19T08:34:09Z</time>
      </trkpt>
      <trkpt lat="48.37764" lon="2.47103">
        <ele>70</ele>
        <time>2017-11-19T08:34:11Z</time>
      </trkpt>
      <trkpt lat="48.37769" lon="2.47119">
        <ele>70</ele>
        <time>2017-11-19T08:34:13Z</time>
      </trkpt>
      <trkpt lat="48.37773" lon="2.47134">
        <ele>70</ele>
        <time>2017-11-19T08:34:15Z</time>
      </trkpt>
      <trkpt lat="48.37778" lon="2.47148">
        <ele>70</ele>
        <time>2017-11-19T08:34:17Z</time>
      </trkpt>
      <trkpt lat="48.37782" lon="2.47162">
        <ele>70</ele>
        <time>2017-11-19T08:34:19Z</time>
      </trkpt>
      <trkpt lat="48.37787" lon="2.47176">
        <ele>69</ele>
        <time>2017-11-19T08:34:21Z</time>
      </trkpt>
      <trkpt lat="48.37792" lon="2.47189">
        <ele>69</ele>
        <time>2017-11-19T08:34:23Z</time>
      </trkpt>
      <trkpt lat="48.37794" lon="2.472">
        <ele>69</ele>
        <time>2017-11-19T08:34:25Z</time>
      </trkpt>
      <trkpt lat="48.37789" lon="2.4721">
        <ele>69</ele>
        <time>2017-11-19T08:34:27Z</time>
      </trkpt>
      <trkpt lat="48.3778" lon="2.47215">
        <ele>69</ele>
        <time>2017-11-19T08:34:29Z</time>
      </trkpt>
      <trkpt lat="48.37771" lon="2.4722">
        <ele>69</ele>
        <time>2017-11-19T08:34:31Z</time>
      </trkpt>
      <trkpt lat="48.37761" lon="2.47226">
        <ele>68</ele>
        <time>2017-11-19T08:34:33Z</time>
      </trkpt>
      <trkpt lat="48.37751" lon="2.47232">
        <ele>68</ele>
        <time>2017-11-19T08:34:35Z</time>
      </trkpt>
      <trkpt lat="48.37742" lon="2.47238">
        <ele>69</ele>
        <time>2017-11-19T08:34:37Z</time>
      </trkpt>
      <trkpt lat="48.37733" lon="2.47242">
        <ele>69</ele>
        <time>2017-11-19T08:34:39Z</time>
      </trkpt>
      <trkpt lat="48.37725" lon="2.47248">
        <ele>69</ele>
        <time>2017-11-19T08:34:41Z</time>
      </trkpt>
      <trkpt lat="48.37718" lon="2.47253">
        <ele>69</ele>
        <time>2017-11-19T08:34:43Z</time>
      </trkpt>
      <trkpt lat="48.3771" lon="2.47258">
        <ele>69</ele>
        <time>2017-11-19T08:34:45Z</time>
      </trkpt>
      <trkpt lat="48.37702" lon="2.47263">
        <ele>69</ele>
        <time>2017-11-19T08:34:47Z</time>
      </trkpt>
      <trkpt lat="48.37694" lon="2.47267">
        <ele>69</ele>
        <time>2017-11-19T08:34:49Z</time>
      </trkpt>
      <trkpt lat="48.37686" lon="2.4727">
        <ele>69</ele>
        <time>2017-11-19T08:34:51Z</time>
      </trkpt>
      <trkpt lat="48.37678" lon="2.47269">
        <ele>69</ele>
        <time>2017-11-19T08:34:53Z</time>
      </trkpt>
      <trkpt lat="48.3767" lon="2.47267">
        <ele>69</ele>
        <time>2017-11-19T08:34:55Z</time>
      </trkpt>
      <trkpt lat="48.37663" lon="2.47264">
        <ele>70</ele>
        <time>2017-11-19T08:34:57Z</time>
      </trkpt>
      <trkpt lat="48.37656" lon="2.4726">
        <ele>70</ele>
        <time>2017-11-19T08:34:59Z</time>
      </trkpt>
      <trkpt lat="48.37649" lon="2.47258">
        <ele>70</ele>
        <time>2017-11-19T08:35:01Z</time>
      </trkpt>
      <trkpt lat="48.37642" lon="2.47254">
        <ele>70</ele>
        <time>2017-11-19T08:35:03Z</time>
      </trkpt>
      <trkpt lat="48.37635" lon="2.4725">
        <ele>70</ele>
        <time>2017-11-19T08:35:05Z</time>
      </trkpt>
      <trkpt lat="48.37629" lon="2.47247">
        <ele>70</ele>
        <time>2017-11-19T08:35:07Z</time>
      </trkpt>
      <trkpt lat="48.37622" lon="2.47245">
        <ele>70</ele>
        <time>2017-11-19T08:35:09Z</time>
      </trkpt>
      <trkpt lat="48.37616" lon="2.47241">
        <ele>70</ele>
        <time>2017-11-19T08:35:11Z</time>
      </trkpt>
      <trkpt lat="48.3761" lon="2.47238">
        <ele>70</ele>
        <time>2017-11-19T08:35:13Z</time>
      </trkpt>
      <trkpt lat="48.37605" lon="2.47235">
        <ele>70</ele>
        <time>2017-11-19T08:35:15Z</time>
      </trkpt>
      <trkpt lat="48.37599" lon="2.47232">
        <ele>70</ele>
        <time>2017-11-19T08:35:17Z</time>
      </trkpt>
      <trkpt lat="48.37593" lon="2.47228">
        <ele>71</ele>
        <time>2017-11-19T08:35:19Z</time>
      </trkpt>
      <trkpt lat="48.37587" lon="2.47224">
        <ele>71</ele>
        <time>2017-11-19T08:35:21Z</time>
      </trkpt>
      <trkpt lat="48.37581" lon="2.47221">
        <ele>70</ele>
        <time>2017-11-19T08:35:23Z</time>
      </trkpt>
      <trkpt lat="48.37574" lon="2.47218">
        <ele>70</ele>
        <time>2017-11-19T08:35:25Z</time>
      </trkpt>
      <trkpt lat="48.37568" lon="2.47214">
        <ele>70</ele>
        <time>2017-11-19T08:35:27Z</time>
      </trkpt>
      <trkpt lat="48.37562" lon="2.47212">
        <ele>70</ele>
        <time>2017-11-19T08:35:29Z</time>
      </trkpt>
      <trkpt lat="48.37556" lon="2.47209">
        <ele>70</ele>
        <time>2017-11-19T08:35:31Z</time>
      </trkpt>
      <trkpt lat="48.3755" lon="2.47213">
        <ele>70</ele>
        <time>2017-11-19T08:35:33Z</time>
      </trkpt>
      <trkpt lat="48.37548" lon="2.47223">
        <ele>70</ele>
        <time>2017-11-19T08:35:35Z</time>
      </trkpt>
      <trkpt lat="48.37549" lon="2.47234">
        <ele>70</ele>
        <time>2017-11-19T08:35:37Z</time>
      </trkpt>
      <trkpt lat="48.37553" lon="2.47246">
        <ele>70</ele>
        <time>2017-11-19T08:35:39Z</time>
      </trkpt>
      <trkpt lat="48.37556" lon="2.47258">
        <ele>70</ele>
        <time>2017-11-19T08:35:41Z</time>
      </trkpt>
      <trkpt lat="48.37559" lon="2.47271">
        <ele>70</ele>
        <time>2017-11-19T08:35:43Z</time>
      </trkpt>
      <trkpt lat="48.37562" lon="2.47283">
        <ele>70</ele>
        <time>2017-11-19T08:35:45Z</time>
      </trkpt>
      <trkpt lat="48.37565" lon="2.47297">
        <ele>69</ele>
        <time>2017-11-19T08:35:47Z</time>
      </trkpt>
      <trkpt lat="48.37569" lon="2.4731">
        <ele>69</ele>
        <time>2017-11-19T08:35:49Z</time>
      </trkpt>
      <trkpt lat="48.37573" lon="2.47322">
        <ele>69</ele>
        <time>2017-11-19T08:35:51Z</time>
      </trkpt>
      <trkpt lat="48.37576" lon="2.47337">
        <ele>69</ele>
        <time>2017-11-19T08:35:53Z</time>
      </trkpt>
      <trkpt lat="48.37579" lon="2.4735">
        <ele>69</ele>
        <time>2017-11-19T08:35:55Z</time>
      </trkpt>
      <trkpt lat="48.37583" lon="2.47363">
        <ele>69</ele>
        <time>2017-11-19T08:35:57Z</time>
      </trkpt>
      <trkpt lat="48.37586" lon="2.47376">
        <ele>69</ele>
        <time>2017-11-19T08:35:59Z</time>
      </trkpt>
      <trkpt lat="48.37589" lon="2.47387">
        <ele>69</ele>
        <time>2017-11-19T08:36:01Z</time>
      </trkpt>
      <trkpt lat="48.37593" lon="2.47397">
        <ele>69</ele>
        <time>2017-11-19T08:36:03Z</time>
      </trkpt>
      <trkpt lat="48.37596" lon="2.47408">
        <ele>69</ele>
        <time>2017-11-19T08:36:05Z</time>
      </trkpt>
      <trkpt lat="48.37598" lon="2.47417">
        <ele>69</ele>
        <time>2017-11-19T08:36:07Z</time>
      </trkpt>
      <trkpt lat="48.37599" lon="2.47426">
        <ele>69</ele>
        <time>2017-11-19T08:36:09Z</time>
      </trkpt>
      <trkpt lat="48.37602" lon="2.47435">
        <ele>69</ele>
        <time>2017-11-19T08:36:11Z</time>
      </trkpt>
      <trkpt lat="48.37605" lon="2.47444">
        <ele>68</ele>
        <time>2017-11-19T08:36:13Z</time>
      </trkpt>
      <trkpt lat="48.37608" lon="2.47454">
        <ele>68</ele>
        <time>2017-11-19T08:36:15Z</time>
      </trkpt>
      <trkpt lat="48.3761" lon="2.47463">
        <ele>68</ele>
        <time>2017-11-19T08:36:17Z</time>
      </trkpt>
      <trkpt lat="48.37613" lon="2.47474">
        <ele>68</ele>
        <time>2017-11-19T08:36:19Z</time>
      </trkpt>
      <trkpt lat="48.37617" lon="2.47485">
        <ele>68</ele>
        <time>2017-11-19T08:36:21Z</time>
      </trkpt>
      <trkpt lat="48.37621" lon="2.47499">
        <ele>68</ele>
        <time>2017-11-19T08:36:23Z</time>
      </trkpt>
      <trkpt lat="48.37624" lon="2.47513">
        <ele>68</ele>
        <time>2017-11-19T08:36:25Z</time>
      </trkpt>
      <trkpt lat="48.37629" lon="2.47528">
        <ele>68</ele>
        <time>2017-11-19T08:36:27Z</time>
      </trkpt>
      <trkpt lat="48.37634" lon="2.47544">
        <ele>68</ele>
        <time>2017-11-19T08:36:29Z</time>
      </trkpt>
      <trkpt lat="48.37639" lon="2.47561">
        <ele>68</ele>
        <time>2017-11-19T08:36:31Z</time>
      </trkpt>
      <trkpt lat="48.37643" lon="2.47577">
        <ele>68</ele>
        <time>2017-11-19T08:36:33Z</time>
      </trkpt>
      <trkpt lat="48.37648" lon="2.47594">
        <ele>68</ele>
        <time>2017-11-19T08:36:35Z</time>
      </trkpt>
      <trkpt lat="48.37653" lon="2.4761">
        <ele>68</ele>
        <time>2017-11-19T08:36:37Z</time>
      </trkpt>
      <trkpt lat="48.37658" lon="2.47626">
        <ele>68</ele>
        <time>2017-11-19T08:36:39Z</time>
      </trkpt>
      <trkpt lat="48.37661" lon="2.4764">
        <ele>68</ele>
        <time>2017-11-19T08:36:41Z</time>
      </trkpt>
      <trkpt lat="48.37656" lon="2.47648">
        <ele>67</ele>
        <time>2017-11-19T08:36:43Z</time>
      </trkpt>
      <trkpt lat="48.37648" lon="2.4765">
        <ele>67</ele>
        <time>2017-11-19T08:36:45Z</time>
      </trkpt>
      <trkpt lat="48.37641" lon="2.47654">
        <ele>67</ele>
        <time>2017-11-19T08:36:47Z</time>
      </trkpt>
      <trkpt lat="48.37633" lon="2.47658">
        <ele>67</ele>
        <time>2017-11-19T08:36:49Z</time>
      </trkpt>
      <trkpt lat="48.37625" lon="2.47662">
        <ele>67</ele>
        <time>2017-11-19T08:36:51Z</time>
      </trkpt>
      <trkpt lat="48.37616" lon="2.47667">
        <ele>67</ele>
        <time>2017-11-19T08:36:53Z</time>
      </trkpt>
      <trkpt lat="48.37607" lon="2.47671">
        <ele>67</ele>
        <time>2017-11-19T08:36:55Z</time>
      </trkpt>
      <trkpt lat="48.37598" lon="2.47676">
        <ele>67</ele>
        <time>2017-11-19T08:36:57Z</time>
      </trkpt>
      <trkpt lat="48.3759" lon="2.47681">
        <ele>67</ele>
        <time>2017-11-19T08:36:59Z</time>
      </trkpt>
      <trkpt lat="48.37582" lon="2.47686">
        <ele>67</ele>
        <time>2017-11-19T08:37:01Z</time>
      </trkpt>
      <trkpt lat="48.37574" lon="2.4769">
        <ele>67</ele>
        <time>2017-11-19T08:37:03Z</time>
      </trkpt>
      <trkpt lat="48.37566" lon="2.47695">
        <ele>67</ele>
        <time>2017-11-19T08:37:05Z</time>
      </trkpt>
      <trkpt lat="48.37558" lon="2.47701">
        <ele>67</ele>
        <time>2017-11-19T08:37:07Z</time>
      </trkpt>
      <trkpt lat="48.37549" lon="2.47706">
        <ele>67</ele>
        <time>2017-11-19T08:37:09Z</time>
      </trkpt>
      <trkpt lat="48.37541" lon="2.47712">
        <ele>67</ele>
        <time>2017-11-19T08:37:11Z</time>
      </trkpt>
      <trkpt lat="48.37532" lon="2.47717">
        <ele>67</ele>
        <time>2017-11-19T08:37:13Z</time>
      </trkpt>
      <trkpt lat="48.37525" lon="2.47723">
        <ele>67</ele>
        <time>2017-11-19T08:37:15Z</time>
      </trkpt>
      <trkpt lat="48.37519" lon="2.47731">
        <ele>67</ele>
        <time>2017-11-19T08:37:17Z</time>
      </trkpt>
      <trkpt lat="48.37512" lon="2.4774">
        <ele>67</ele>
        <time>2017-11-19T08:37:19Z</time>
      </trkpt>
      <trkpt lat="48.37505" lon="2.4775">
        <ele>67</ele>
        <time>2017-11-19T08:37:21Z</time>
      </trkpt>
      <trkpt lat="48.37498" lon="2.47759">
        <ele>67</ele>
        <time>2017-11-19T08:37:23Z</time>
      </trkpt>
      <trkpt lat="48.37492" lon="2.47768">
        <ele>67</ele>
        <time>2017-11-19T08:37:25Z</time>
      </trkpt>
      <trkpt lat="48.37486" lon="2.47776">
        <ele>67</ele>
        <time>2017-11-19T08:37:27Z</time>
      </trkpt>
      <trkpt lat="48.37479" lon="2.47784">
        <ele>67</ele>
        <time>2017-11-19T08:37:29Z</time>
      </trkpt>
      <trkpt lat="48.37473" lon="2.47793">
        <ele>67</ele>
        <time>2017-11-19T08:37:31Z</time>
      </trkpt>
      <trkpt lat="48.37466" lon="2.47802">
        <ele>67</ele>
        <time>2017-11-19T08:37:33Z</time>
      </trkpt>
      <trkpt lat="48.3746" lon="2.4781">
        <ele>67</ele>
        <time>2017-11-19T08:37:35Z</time>
      </trkpt>
      <trkpt lat="48.37454" lon="2.47818">
        <ele>67</ele>
        <time>2017-11-19T08:37:37Z</time>
      </trkpt>
      <trkpt lat="48.37447" lon="2.47826">
        <ele>67</ele>
        <time>2017-11-19T08:37:39Z</time>
      </trkpt>
      <trkpt lat="48.37441" lon="2.47834">
        <ele>66</ele>
        <time>2017-11-19T08:37:41Z</time>
      </trkpt>
      <trkpt lat="48.37435" lon="2.47843">
        <ele>66</ele>
        <time>2017-11-19T08:37:43Z</time>
      </trkpt>
      <trkpt lat="48.37428" lon="2.47851">
        <ele>66</ele>
        <time>2017-11-19T08:37:45Z</time>
      </trkpt>
      <trkpt lat="48.37422" lon="2.47859">
        <ele>66</ele>
        <time>2017-11-19T08:37:47Z</time>
      </trkpt>
      <trkpt lat="48.37417" lon="2.47868">
        <ele>66</ele>
        <time>2017-11-19T08:37:49Z</time>
      </trkpt>
      <trkpt lat="48.37411" lon="2.47876">
        <ele>66</ele>
        <time>2017-11-19T08:37:51Z</time>
      </trkpt>
      <trkpt lat="48.37407" lon="2.47883">
        <ele>66</ele>
        <time>2017-11-19T08:37:53Z</time>
      </trkpt>
      <trkpt lat="48.37402" lon="2.4789">
        <ele>66</ele>
        <time>2017-11-19T08:37:55Z</time>
      </trkpt>
      <trkpt lat="48.37396" lon="2.47897">
        <ele>66</ele>
        <time>2017-11-19T08:37:57Z</time>
      </trkpt>
      <trkpt lat="48.37391" lon="2.47905">
        <ele>66</ele>
        <time>2017-11-19T08:37:59Z</time>
      </trkpt>
      <trkpt lat="48.37386" lon="2.47914">
        <ele>66</ele>
        <time>2017-11-19T08:38:01Z</time>
      </trkpt>
      <trkpt lat="48.3738" lon="2.47921">
        <ele>67</ele>
        <time>2017-11-19T08:38:03Z</time>
      </trkpt>
      <trkpt lat="48.37374" lon="2.47928">
        <ele>67</ele>
        <time>2017-11-19T08:38:05Z</time>
      </trkpt>
      <trkpt lat="48.37368" lon="2.47936">
        <ele>67</ele>
        <time>2017-11-19T08:38:07Z</time>
      </trkpt>
      <trkpt lat="48.37362" lon="2.47944">
        <ele>67</ele>
        <time>2017-11-19T08:38:09Z</time>
      </trkpt>
      <trkpt lat="48.37356" lon="2.47951">
        <ele>68</ele>
        <time>2017-11-19T08:38:11Z</time>
      </trkpt>
      <trkpt lat="48.37351" lon="2.47958">
        <ele>68</ele>
        <time>2017-11-19T08:38:13Z</time>
      </trkpt>
      <trkpt lat="48.37345" lon="2.47965">
        <ele>68</ele>
        <time>2017-11-19T08:38:15Z</time>
      </trkpt>
      <trkpt lat="48.3734" lon="2.47973">
        <ele>68</ele>
        <time>2017-11-19T08:38:17Z</time>
      </trkpt>
      <trkpt lat="48.37334" lon="2.47981">
        <ele>68</ele>
        <time>2017-11-19T08:38:19Z</time>
      </trkpt>
      <trkpt lat="48.37329" lon="2.47988">
        <ele>69</ele>
        <time>2017-11-19T08:38:21Z</time>
      </trkpt>
      <trkpt lat="48.37323" lon="2.47996">
        <ele>69</ele>
        <time>2017-11-19T08:38:23Z</time>
      </trkpt>
      <trkpt lat="48.37318" lon="2.48003">
        <ele>70</ele>
        <time>2017-11-19T08:38:25Z</time>
      </trkpt>
      <trkpt lat="48.37312" lon="2.48011">
        <ele>70</ele>
        <time>2017-11-19T08:38:27Z</time>
      </trkpt>
      <trkpt lat="48.37307" lon="2.48018">
        <ele>70</ele>
        <time>2017-11-19T08:38:29Z</time>
      </trkpt>
      <trkpt lat="48.37302" lon="2.48025">
        <ele>70</ele>
        <time>2017-11-19T08:38:31Z</time>
      </trkpt>
      <trkpt lat="48.37298" lon="2.48032">
        <ele>70</ele>
        <time>2017-11-19T08:38:33Z</time>
      </trkpt>
      <trkpt lat="48.37295" lon="2.48039">
        <ele>70</ele>
        <time>2017-11-19T08:38:35Z</time>
      </trkpt>
      <trkpt lat="48.3729" lon="2.48046">
        <ele>71</ele>
        <time>2017-11-19T08:38:37Z</time>
      </trkpt>
      <trkpt lat="48.37285" lon="2.48053">
        <ele>71</ele>
        <time>2017-11-19T08:38:39Z</time>
      </trkpt>
      <trkpt lat="48.37281" lon="2.4806">
        <ele>71</ele>
        <time>2017-11-19T08:38:41Z</time>
      </trkpt>
      <trkpt lat="48.37278" lon="2.4807">
        <ele>71</ele>
        <time>2017-11-19T08:38:43Z</time>
      </trkpt>
      <trkpt lat="48.37281" lon="2.4808">
        <ele>71</ele>
        <time>2017-11-19T08:38:45Z</time>
      </trkpt>
      <trkpt lat="48.37287" lon="2.48089">
        <ele>73</ele>
        <time>2017-11-19T08:38:47Z</time>
      </trkpt>
      <trkpt lat="48.37293" lon="2.48099">
        <ele>73</ele>
        <time>2017-11-19T08:38:49Z</time>
      </trkpt>
      <trkpt lat="48.37299" lon="2.48108">
        <ele>73</ele>
        <time>2017-11-19T08:38:51Z</time>
      </trkpt>
      <trkpt lat="48.37304" lon="2.48118">
        <ele>73</ele>
        <time>2017-11-19T08:38:53Z</time>
      </trkpt>
      <trkpt lat="48.3731" lon="2.48128">
        <ele>73</ele>
        <time>2017-11-19T08:38:55Z</time>
      </trkpt>
      <trkpt lat="48.37316" lon="2.48138">
        <ele>73</ele>
        <time>2017-11-19T08:38:57Z</time>
      </trkpt>
      <trkpt lat="48.37322" lon="2.48148">
        <ele>73</ele>
        <time>2017-11-19T08:38:59Z</time>
      </trkpt>
      <trkpt lat="48.37328" lon="2.48158">
        <ele>72</ele>
        <time>2017-11-19T08:39:01Z</time>
      </trkpt>
      <trkpt lat="48.37333" lon="2.48168">
        <ele>72</ele>
        <time>2017-11-19T08:39:03Z</time>
      </trkpt>
      <trkpt lat="48.37338" lon="2.48177">
        <ele>72</ele>
        <time>2017-11-19T08:39:05Z</time>
      </trkpt>
      <trkpt lat="48.37344" lon="2.48186">
        <ele>72</ele>
        <time>2017-11-19T08:39:07Z</time>
      </trkpt>
      <trkpt lat="48.3735" lon="2.48194">
        <ele>72</ele>
        <time>2017-11-19T08:39:09Z</time>
      </trkpt>
      <trkpt lat="48.37357" lon="2.48203">
        <ele>72</ele>
        <time>2017-11-19T08:39:11Z</time>
      </trkpt>
      <trkpt lat="48.37363" lon="2.48213">
        <ele>72</ele>
        <time>2017-11-19T08:39:13Z</time>
      </trkpt>
      <trkpt lat="48.37369" lon="2.48222">
        <ele>72</ele>
        <time>2017-11-19T08:39:15Z</time>
      </trkpt>
      <trkpt lat="48.37376" lon="2.48232">
        <ele>72</ele>
        <time>2017-11-19T08:39:17Z</time>
      </trkpt>
      <trkpt lat="48.37383" lon="2.48242">
        <ele>72</ele>
        <time>2017-11-19T08:39:19Z</time>
      </trkpt>
      <trkpt lat="48.37389" lon="2.48253">
        <ele>74</ele>
        <time>2017-11-19T08:39:21Z</time>
      </trkpt>
      <trkpt lat="48.37398" lon="2.48262">
        <ele>74</ele>
        <time>2017-11-19T08:39:23Z</time>
      </trkpt>
      <trkpt lat="48.37405" lon="2.48271">
        <ele>74</ele>
        <time>2017-11-19T08:39:25Z</time>
      </trkpt>
      <trkpt lat="48.37413" lon="2.48275">
        <ele>74</ele>
        <time>2017-11-19T08:39:27Z</time>
      </trkpt>
      <trkpt lat="48.3742" lon="2.48281">
        <ele>72</ele>
        <time>2017-11-19T08:39:29Z</time>
      </trkpt>
      <trkpt lat="48.37427" lon="2.48287">
        <ele>72</ele>
        <time>2017-11-19T08:39:31Z</time>
      </trkpt>
      <trkpt lat="48.37435" lon="2.48295">
        <ele>72</ele>
        <time>2017-11-19T08:39:33Z</time>
      </trkpt>
      <trkpt lat="48.37441" lon="2.48307">
        <ele>73</ele>
        <time>2017-11-19T08:39:35Z</time>
      </trkpt>
      <trkpt lat="48.37446" lon="2.48317">
        <ele>73</ele>
        <time>2017-11-19T08:39:37Z</time>
      </trkpt>
      <trkpt lat="48.37447" lon="2.48326">
        <ele>73</ele>
        <time>2017-11-19T08:39:39Z</time>
      </trkpt>
      <trkpt lat="48.37444" lon="2.48331">
        <ele>73</ele>
        <time>2017-11-19T08:39:41Z</time>
      </trkpt>
      <trkpt lat="48.3744" lon="2.48341">
        <ele>74</ele>
        <time>2017-11-19T08:39:45Z</time>
      </trkpt>
      <trkpt lat="48.37438" lon="2.48348">
        <ele>74</ele>
        <time>2017-11-19T08:39:47Z</time>
      </trkpt>
      <trkpt lat="48.37435" lon="2.48355">
        <ele>74</ele>
        <time>2017-11-19T08:39:49Z</time>
      </trkpt>
      <trkpt lat="48.37432" lon="2.48364">
        <ele>74</ele>
        <time>2017-11-19T08:39:51Z</time>
      </trkpt>
      <trkpt lat="48.37428" lon="2.48371">
        <ele>74</ele>
        <time>2017-11-19T08:39:53Z</time>
      </trkpt>
      <trkpt lat="48.37425" lon="2.4838">
        <ele>74</ele>
        <time>2017-11-19T08:39:55Z</time>
      </trkpt>
      <trkpt lat="48.37422" lon="2.48387">
        <ele>75</ele>
        <time>2017-11-19T08:39:57Z</time>
      </trkpt>
      <trkpt lat="48.3742" lon="2.48395">
        <ele>75</ele>
        <time>2017-11-19T08:39:59Z</time>
      </trkpt>
      <trkpt lat="48.37419" lon="2.48405">
        <ele>75</ele>
        <time>2017-11-19T08:40:01Z</time>
      </trkpt>
      <trkpt lat="48.37419" lon="2.48416">
        <ele>76</ele>
        <time>2017-11-19T08:40:03Z</time>
      </trkpt>
      <trkpt lat="48.37417" lon="2.48427">
        <ele>76</ele>
        <time>2017-11-19T08:40:05Z</time>
      </trkpt>
      <trkpt lat="48.37416" lon="2.48439">
        <ele>79</ele>
        <time>2017-11-19T08:40:07Z</time>
      </trkpt>
      <trkpt lat="48.37415" lon="2.48453">
        <ele>79</ele>
        <time>2017-11-19T08:40:09Z</time>
      </trkpt>
      <trkpt lat="48.37414" lon="2.48468">
        <ele>79</ele>
        <time>2017-11-19T08:40:11Z</time>
      </trkpt>
      <trkpt lat="48.37413" lon="2.48482">
        <ele>78</ele>
        <time>2017-11-19T08:40:13Z</time>
      </trkpt>
      <trkpt lat="48.37412" lon="2.48499">
        <ele>76</ele>
        <time>2017-11-19T08:40:15Z</time>
      </trkpt>
      <trkpt lat="48.37411" lon="2.48516">
        <ele>76</ele>
        <time>2017-11-19T08:40:17Z</time>
      </trkpt>
      <trkpt lat="48.37412" lon="2.48529">
        <ele>76</ele>
        <time>2017-11-19T08:40:19Z</time>
      </trkpt>
      <trkpt lat="48.37414" lon="2.48538">
        <ele>75</ele>
        <time>2017-11-19T08:40:21Z</time>
      </trkpt>
      <trkpt lat="48.37412" lon="2.48548">
        <ele>75</ele>
        <time>2017-11-19T08:40:23Z</time>
      </trkpt>
      <trkpt lat="48.37406" lon="2.48555">
        <ele>74</ele>
        <time>2017-11-19T08:40:25Z</time>
      </trkpt>
      <trkpt lat="48.374" lon="2.48558">
        <ele>74</ele>
        <time>2017-11-19T08:40:27Z</time>
      </trkpt>
      <trkpt lat="48.37392" lon="2.48559">
        <ele>75</ele>
        <time>2017-11-19T08:40:29Z</time>
      </trkpt>
      <trkpt lat="48.37385" lon="2.48563">
        <ele>75</ele>
        <time>2017-11-19T08:40:31Z</time>
      </trkpt>
      <trkpt lat="48.37377" lon="2.48568">
        <ele>75</ele>
        <time>2017-11-19T08:40:33Z</time>
      </trkpt>
      <trkpt lat="48.37369" lon="2.48573">
        <ele>76</ele>
        <time>2017-11-19T08:40:35Z</time>
      </trkpt>
      <trkpt lat="48.37361" lon="2.48578">
        <ele>76</ele>
        <time>2017-11-19T08:40:37Z</time>
      </trkpt>
      <trkpt lat="48.37353" lon="2.48582">
        <ele>76</ele>
        <time>2017-11-19T08:40:39Z</time>
      </trkpt>
      <trkpt lat="48.37347" lon="2.48584">
        <ele>74</ele>
        <time>2017-11-19T08:40:41Z</time>
      </trkpt>
      <trkpt lat="48.37339" lon="2.48589">
        <ele>75</ele>
        <time>2017-11-19T08:40:43Z</time>
      </trkpt>
      <trkpt lat="48.37331" lon="2.48596">
        <ele>76</ele>
        <time>2017-11-19T08:40:45Z</time>
      </trkpt>
      <trkpt lat="48.37324" lon="2.486">
        <ele>76</ele>
        <time>2017-11-19T08:40:47Z</time>
      </trkpt>
      <trkpt lat="48.37317" lon="2.48605">
        <ele>76</ele>
        <time>2017-11-19T08:40:49Z</time>
      </trkpt>
      <trkpt lat="48.37311" lon="2.48612">
        <ele>76</ele>
        <time>2017-11-19T08:40:51Z</time>
      </trkpt>
      <trkpt lat="48.37303" lon="2.48619">
        <ele>76</ele>
        <time>2017-11-19T08:40:53Z</time>
      </trkpt>
      <trkpt lat="48.37297" lon="2.48625">
        <ele>76</ele>
        <time>2017-11-19T08:40:55Z</time>
      </trkpt>
      <trkpt lat="48.37291" lon="2.4863">
        <ele>77</ele>
        <time>2017-11-19T08:40:57Z</time>
      </trkpt>
      <trkpt lat="48.37286" lon="2.48635">
        <ele>77</ele>
        <time>2017-11-19T08:40:59Z</time>
      </trkpt>
      <trkpt lat="48.37281" lon="2.4864">
        <ele>77</ele>
        <time>2017-11-19T08:41:01Z</time>
      </trkpt>
      <trkpt lat="48.37277" lon="2.48646">
        <ele>77</ele>
        <time>2017-11-19T08:41:03Z</time>
      </trkpt>
      <trkpt lat="48.37273" lon="2.48653">
        <ele>78</ele>
        <time>2017-11-19T08:41:05Z</time>
      </trkpt>
      <trkpt lat="48.37271" lon="2.48664">
        <ele>78</ele>
        <time>2017-11-19T08:41:07Z</time>
      </trkpt>
      <trkpt lat="48.37268" lon="2.48673">
        <ele>76</ele>
        <time>2017-11-19T08:41:09Z</time>
      </trkpt>
      <trkpt lat="48.37266" lon="2.48683">
        <ele>76</ele>
        <time>2017-11-19T08:41:11Z</time>
      </trkpt>
      <trkpt lat="48.37264" lon="2.48693">
        <ele>76</ele>
        <time>2017-11-19T08:41:13Z</time>
      </trkpt>
      <trkpt lat="48.37262" lon="2.48702">
        <ele>75</ele>
        <time>2017-11-19T08:41:15Z</time>
      </trkpt>
      <trkpt lat="48.37261" lon="2.48711">
        <ele>75</ele>
        <time>2017-11-19T08:41:17Z</time>
      </trkpt>
      <trkpt lat="48.37259" lon="2.4872">
        <ele>75</ele>
        <time>2017-11-19T08:41:19Z</time>
      </trkpt>
      <trkpt lat="48.37257" lon="2.4873">
        <ele>75</ele>
        <time>2017-11-19T08:41:21Z</time>
      </trkpt>
      <trkpt lat="48.37254" lon="2.4874">
        <ele>76</ele>
        <time>2017-11-19T08:41:23Z</time>
      </trkpt>
      <trkpt lat="48.37252" lon="2.48746">
        <ele>76</ele>
        <time>2017-11-19T08:41:25Z</time>
      </trkpt>
      <trkpt lat="48.37251" lon="2.48754">
        <ele>76</ele>
        <time>2017-11-19T08:41:27Z</time>
      </trkpt>
      <trkpt lat="48.3725" lon="2.48763">
        <ele>74</ele>
        <time>2017-11-19T08:41:29Z</time>
      </trkpt>
      <trkpt lat="48.3725" lon="2.48772">
        <ele>73</ele>
        <time>2017-11-19T08:41:31Z</time>
      </trkpt>
      <trkpt lat="48.37249" lon="2.48781">
        <ele>82</ele>
        <time>2017-11-19T08:41:33Z</time>
      </trkpt>
      <trkpt lat="48.37247" lon="2.48791">
        <ele>82</ele>
        <time>2017-11-19T08:41:35Z</time>
      </trkpt>
      <trkpt lat="48.37245" lon="2.48799">
        <ele>82</ele>
        <time>2017-11-19T08:41:37Z</time>
      </trkpt>
      <trkpt lat="48.37244" lon="2.48806">
        <ele>81</ele>
        <time>2017-11-19T08:41:39Z</time>
      </trkpt>
      <trkpt lat="48.37241" lon="2.48813">
        <ele>80</ele>
        <time>2017-11-19T08:41:41Z</time>
      </trkpt>
      <trkpt lat="48.37238" lon="2.48826">
        <ele>79</ele>
        <time>2017-11-19T08:41:45Z</time>
      </trkpt>
      <trkpt lat="48.37236" lon="2.48833">
        <ele>79</ele>
        <time>2017-11-19T08:41:47Z</time>
      </trkpt>
      <trkpt lat="48.37234" lon="2.4884">
        <ele>78</ele>
        <time>2017-11-19T08:41:49Z</time>
      </trkpt>
      <trkpt lat="48.37232" lon="2.48847">
        <ele>79</ele>
        <time>2017-11-19T08:41:51Z</time>
      </trkpt>
      <trkpt lat="48.3723" lon="2.48856">
        <ele>80</ele>
        <time>2017-11-19T08:41:53Z</time>
      </trkpt>
      <trkpt lat="48.37229" lon="2.48863">
        <ele>81</ele>
        <time>2017-11-19T08:41:55Z</time>
      </trkpt>
      <trkpt lat="48.37228" lon="2.48871">
        <ele>81</ele>
        <time>2017-11-19T08:41:57Z</time>
      </trkpt>
      <trkpt lat="48.37227" lon="2.4888">
        <ele>81</ele>
        <time>2017-11-19T08:41:59Z</time>
      </trkpt>
      <trkpt lat="48.37227" lon="2.48888">
        <ele>81</ele>
        <time>2017-11-19T08:42:01Z</time>
      </trkpt>
      <trkpt lat="48.37226" lon="2.48898">
        <ele>81</ele>
        <time>2017-11-19T08:42:03Z</time>
      </trkpt>
      <trkpt lat="48.37226" lon="2.48905">
        <ele>80</ele>
        <time>2017-11-19T08:42:05Z</time>
      </trkpt>
      <trkpt lat="48.37227" lon="2.48912">
        <ele>80</ele>
        <time>2017-11-19T08:42:07Z</time>
      </trkpt>
      <trkpt lat="48.37226" lon="2.48926">
        <ele>80</ele>
        <time>2017-11-19T08:42:11Z</time>
      </trkpt>
      <trkpt lat="48.37226" lon="2.48938">
        <ele>80</ele>
        <time>2017-11-19T08:42:13Z</time>
      </trkpt>
      <trkpt lat="48.37225" lon="2.48951">
        <ele>81</ele>
        <time>2017-11-19T08:42:15Z</time>
      </trkpt>
      <trkpt lat="48.37227" lon="2.48963">
        <ele>81</ele>
        <time>2017-11-19T08:42:17Z</time>
      </trkpt>
      <trkpt lat="48.37226" lon="2.4898">
        <ele>80</ele>
        <time>2017-11-19T08:42:19Z</time>
      </trkpt>
      <trkpt lat="48.37226" lon="2.48995">
        <ele>80</ele>
        <time>2017-11-19T08:42:21Z</time>
      </trkpt>
      <trkpt lat="48.37226" lon="2.4901">
        <ele>78</ele>
        <time>2017-11-19T08:42:23Z</time>
      </trkpt>
      <trkpt lat="48.37226" lon="2.49025">
        <ele>79</ele>
        <time>2017-11-19T08:42:25Z</time>
      </trkpt>
      <trkpt lat="48.37225" lon="2.4904">
        <ele>78</ele>
        <time>2017-11-19T08:42:27Z</time>
      </trkpt>
      <trkpt lat="48.37225" lon="2.49055">
        <ele>78</ele>
        <time>2017-11-19T08:42:29Z</time>
      </trkpt>
      <trkpt lat="48.37224" lon="2.49069">
        <ele>77</ele>
        <time>2017-11-19T08:42:31Z</time>
      </trkpt>
      <trkpt lat="48.37224" lon="2.49083">
        <ele>77</ele>
        <time>2017-11-19T08:42:33Z</time>
      </trkpt>
      <trkpt lat="48.37226" lon="2.49095">
        <ele>75</ele>
        <time>2017-11-19T08:42:35Z</time>
      </trkpt>
      <trkpt lat="48.3723" lon="2.49108">
        <ele>75</ele>
        <time>2017-11-19T08:42:37Z</time>
      </trkpt>
      <trkpt lat="48.37235" lon="2.49119">
        <ele>74</ele>
        <time>2017-11-19T08:42:39Z</time>
      </trkpt>
      <trkpt lat="48.3724" lon="2.49128">
        <ele>74</ele>
        <time>2017-11-19T08:42:41Z</time>
      </trkpt>
      <trkpt lat="48.37247" lon="2.49139">
        <ele>73</ele>
        <time>2017-11-19T08:42:43Z</time>
      </trkpt>
      <trkpt lat="48.37254" lon="2.4915">
        <ele>68</ele>
        <time>2017-11-19T08:42:45Z</time>
      </trkpt>
      <trkpt lat="48.37261" lon="2.4916">
        <ele>68</ele>
        <time>2017-11-19T08:42:47Z</time>
      </trkpt>
      <trkpt lat="48.37269" lon="2.49168">
        <ele>68</ele>
        <time>2017-11-19T08:42:49Z</time>
      </trkpt>
      <trkpt lat="48.37276" lon="2.49176">
        <ele>68</ele>
        <time>2017-11-19T08:42:51Z</time>
      </trkpt>
      <trkpt lat="48.37284" lon="2.49183">
        <ele>68</ele>
        <time>2017-11-19T08:42:53Z</time>
      </trkpt>
      <trkpt lat="48.37291" lon="2.49192">
        <ele>68</ele>
        <time>2017-11-19T08:42:55Z</time>
      </trkpt>
      <trkpt lat="48.37296" lon="2.49201">
        <ele>67</ele>
        <time>2017-11-19T08:42:57Z</time>
      </trkpt>
      <trkpt lat="48.37301" lon="2.4921">
        <ele>67</ele>
        <time>2017-11-19T08:42:59Z</time>
      </trkpt>
      <trkpt lat="48.37305" lon="2.49221">
        <ele>67</ele>
        <time>2017-11-19T08:43:01Z</time>
      </trkpt>
      <trkpt lat="48.37309" lon="2.49233">
        <ele>67</ele>
        <time>2017-11-19T08:43:03Z</time>
      </trkpt>
      <trkpt lat="48.37313" lon="2.49245">
        <ele>67</ele>
        <time>2017-11-19T08:43:05Z</time>
      </trkpt>
      <trkpt lat="48.37318" lon="2.49258">
        <ele>67</ele>
        <time>2017-11-19T08:43:07Z</time>
      </trkpt>
      <trkpt lat="48.37323" lon="2.49271">
        <ele>67</ele>
        <time>2017-11-19T08:43:09Z</time>
      </trkpt>
      <trkpt lat="48.37328" lon="2.49286">
        <ele>67</ele>
        <time>2017-11-19T08:43:11Z</time>
      </trkpt>
      <trkpt lat="48.37332" lon="2.493">
        <ele>67</ele>
        <time>2017-11-19T08:43:13Z</time>
      </trkpt>
      <trkpt lat="48.37337" lon="2.49313">
        <ele>66</ele>
        <time>2017-11-19T08:43:15Z</time>
      </trkpt>
      <trkpt lat="48.3734" lon="2.49328">
        <ele>66</ele>
        <time>2017-11-19T08:43:17Z</time>
      </trkpt>
      <trkpt lat="48.37343" lon="2.49343">
        <ele>66</ele>
        <time>2017-11-19T08:43:19Z</time>
      </trkpt>
      <trkpt lat="48.37344" lon="2.49358">
        <ele>66</ele>
        <time>2017-11-19T08:43:21Z</time>
      </trkpt>
      <trkpt lat="48.37345" lon="2.49373">
        <ele>66</ele>
        <time>2017-11-19T08:43:23Z</time>
      </trkpt>
      <trkpt lat="48.37346" lon="2.49388">
        <ele>66</ele>
        <time>2017-11-19T08:43:25Z</time>
      </trkpt>
      <trkpt lat="48.37346" lon="2.49403">
        <ele>66</ele>
        <time>2017-11-19T08:43:27Z</time>
      </trkpt>
      <trkpt lat="48.37346" lon="2.49418">
        <ele>67</ele>
        <time>2017-11-19T08:43:29Z</time>
      </trkpt>
      <trkpt lat="48.37347" lon="2.49432">
        <ele>67</ele>
        <time>2017-11-19T08:43:31Z</time>
      </trkpt>
      <trkpt lat="48.37348" lon="2.49446">
        <ele>67</ele>
        <time>2017-11-19T08:43:33Z</time>
      </trkpt>
      <trkpt lat="48.37348" lon="2.49461">
        <ele>67</ele>
        <time>2017-11-19T08:43:35Z</time>
      </trkpt>
      <trkpt lat="48.37348" lon="2.49475">
        <ele>67</ele>
        <time>2017-11-19T08:43:37Z</time>
      </trkpt>
      <trkpt lat="48.37347" lon="2.49488">
        <ele>67</ele>
        <time>2017-11-19T08:43:39Z</time>
      </trkpt>
      <trkpt lat="48.37346" lon="2.49501">
        <ele>68</ele>
        <time>2017-11-19T08:43:41Z</time>
      </trkpt>
      <trkpt lat="48.37344" lon="2.49515">
        <ele>68</ele>
        <time>2017-11-19T08:43:43Z</time>
      </trkpt>
      <trkpt lat="48.37342" lon="2.49528">
        <ele>68</ele>
        <time>2017-11-19T08:43:45Z</time>
      </trkpt>
      <trkpt lat="48.37339" lon="2.49542">
        <ele>68</ele>
        <time>2017-11-19T08:43:47Z</time>
      </trkpt>
      <trkpt lat="48.37336" lon="2.49555">
        <ele>68</ele>
        <time>2017-11-19T08:43:49Z</time>
      </trkpt>
      <trkpt lat="48.37333" lon="2.49569">
        <ele>68</ele>
        <time>2017-11-19T08:43:51Z</time>
      </trkpt>
      <trkpt lat="48.3733" lon="2.49582">
        <ele>68</ele>
        <time>2017-11-19T08:43:53Z</time>
      </trkpt>
      <trkpt lat="48.37328" lon="2.49596">
        <ele>68</ele>
        <time>2017-11-19T08:43:55Z</time>
      </trkpt>
      <trkpt lat="48.37332" lon="2.49607">
        <ele>68</ele>
        <time>2017-11-19T08:43:57Z</time>
      </trkpt>
      <trkpt lat="48.3734" lon="2.49613">
        <ele>68</ele>
        <time>2017-11-19T08:43:59Z</time>
      </trkpt>
      <trkpt lat="48.37351" lon="2.49615">
        <ele>67</ele>
        <time>2017-11-19T08:44:01Z</time>
      </trkpt>
      <trkpt lat="48.37362" lon="2.49619">
        <ele>67</ele>
        <time>2017-11-19T08:44:03Z</time>
      </trkpt>
      <trkpt lat="48.37372" lon="2.49622">
        <ele>67</ele>
        <time>2017-11-19T08:44:05Z</time>
      </trkpt>
      <trkpt lat="48.37383" lon="2.49625">
        <ele>67</ele>
        <time>2017-11-19T08:44:07Z</time>
      </trkpt>
      <trkpt lat="48.37393" lon="2.49628">
        <ele>67</ele>
        <time>2017-11-19T08:44:09Z</time>
      </trkpt>
      <trkpt lat="48.37404" lon="2.49631">
        <ele>67</ele>
        <time>2017-11-19T08:44:11Z</time>
      </trkpt>
      <trkpt lat="48.37416" lon="2.49634">
        <ele>67</ele>
        <time>2017-11-19T08:44:13Z</time>
      </trkpt>
      <trkpt lat="48.37427" lon="2.49637">
        <ele>66</ele>
        <time>2017-11-19T08:44:15Z</time>
      </trkpt>
      <trkpt lat="48.37439" lon="2.4964">
        <ele>66</ele>
        <time>2017-11-19T08:44:17Z</time>
      </trkpt>
      <trkpt lat="48.37451" lon="2.49644">
        <ele>66</ele>
        <time>2017-11-19T08:44:19Z</time>
      </trkpt>
      <trkpt lat="48.37462" lon="2.49647">
        <ele>66</ele>
        <time>2017-11-19T08:44:21Z</time>
      </trkpt>
      <trkpt lat="48.37473" lon="2.49649">
        <ele>66</ele>
        <time>2017-11-19T08:44:23Z</time>
      </trkpt>
      <trkpt lat="48.37485" lon="2.4965">
        <ele>66</ele>
        <time>2017-11-19T08:44:25Z</time>
      </trkpt>
      <trkpt lat="48.37496" lon="2.49651">
        <ele>67</ele>
        <time>2017-11-19T08:44:27Z</time>
      </trkpt>
      <trkpt lat="48.37507" lon="2.49652">
        <ele>67</ele>
        <time>2017-11-19T08:44:29Z</time>
      </trkpt>
      <trkpt lat="48.37519" lon="2.49652">
        <ele>67</ele>
        <time>2017-11-19T08:44:31Z</time>
      </trkpt>
      <trkpt lat="48.3753" lon="2.49653">
        <ele>67</ele>
        <time>2017-11-19T08:44:33Z</time>
      </trkpt>
      <trkpt lat="48.37542" lon="2.49654">
        <ele>67</ele>
        <time>2017-11-19T08:44:35Z</time>
      </trkpt>
      <trkpt lat="48.37554" lon="2.49655">
        <ele>67</ele>
        <time>2017-11-19T08:44:37Z</time>
      </trkpt>
      <trkpt lat="48.37565" lon="2.49656">
        <ele>68</ele>
        <time>2017-11-19T08:44:39Z</time>
      </trkpt>
      <trkpt lat="48.37576" lon="2.49657">
        <ele>68</ele>
        <time>2017-11-19T08:44:41Z</time>
      </trkpt>
      <trkpt lat="48.37587" lon="2.49658">
        <ele>68</ele>
        <time>2017-11-19T08:44:43Z</time>
      </trkpt>
      <trkpt lat="48.376" lon="2.4966">
        <ele>68</ele>
        <time>2017-11-19T08:44:45Z</time>
      </trkpt>
      <trkpt lat="48.37612" lon="2.49659">
        <ele>69</ele>
        <time>2017-11-19T08:44:47Z</time>
      </trkpt>
      <trkpt lat="48.37623" lon="2.49659">
        <ele>69</ele>
        <time>2017-11-19T08:44:49Z</time>
      </trkpt>
      <trkpt lat="48.37635" lon="2.49661">
        <ele>69</ele>
        <time>2017-11-19T08:44:51Z</time>
      </trkpt>
      <trkpt lat="48.37647" lon="2.49662">
        <ele>69</ele>
        <time>2017-11-19T08:44:53Z</time>
      </trkpt>
      <trkpt lat="48.37658" lon="2.49663">
        <ele>68</ele>
        <time>2017-11-19T08:44:55Z</time>
      </trkpt>
      <trkpt lat="48.37669" lon="2.49664">
        <ele>68</ele>
        <time>2017-11-19T08:44:57Z</time>
      </trkpt>
      <trkpt lat="48.3768" lon="2.49665">
        <ele>69</ele>
        <time>2017-11-19T08:44:59Z</time>
      </trkpt>
      <trkpt lat="48.37688" lon="2.49665">
        <ele>69</ele>
        <time>2017-11-19T08:45:01Z</time>
      </trkpt>
      <trkpt lat="48.37698" lon="2.49671">
        <ele>69</ele>
        <time>2017-11-19T08:45:03Z</time>
      </trkpt>
      <trkpt lat="48.37708" lon="2.49676">
        <ele>69</ele>
        <time>2017-11-19T08:45:05Z</time>
      </trkpt>
      <trkpt lat="48.37718" lon="2.49685">
        <ele>69</ele>
        <time>2017-11-19T08:45:07Z</time>
      </trkpt>
      <trkpt lat="48.37726" lon="2.49696">
        <ele>69</ele>
        <time>2017-11-19T08:45:09Z</time>
      </trkpt>
      <trkpt lat="48.37734" lon="2.49708">
        <ele>70</ele>
        <time>2017-11-19T08:45:11Z</time>
      </trkpt>
      <trkpt lat="48.37741" lon="2.49719">
        <ele>70</ele>
        <time>2017-11-19T08:45:13Z</time>
      </trkpt>
      <trkpt lat="48.37747" lon="2.49731">
        <ele>70</ele>
        <time>2017-11-19T08:45:15Z</time>
      </trkpt>
      <trkpt lat="48.37753" lon="2.49744">
        <ele>72</ele>
        <time>2017-11-19T08:45:17Z</time>
      </trkpt>
      <trkpt lat="48.37758" lon="2.49757">
        <ele>72</ele>
        <time>2017-11-19T08:45:19Z</time>
      </trkpt>
      <trkpt lat="48.37764" lon="2.49768">
        <ele>73</ele>
        <time>2017-11-19T08:45:21Z</time>
      </trkpt>
      <trkpt lat="48.3777" lon="2.4978">
        <ele>73</ele>
        <time>2017-11-19T08:45:23Z</time>
      </trkpt>
      <trkpt lat="48.37775" lon="2.49792">
        <ele>73</ele>
        <time>2017-11-19T08:45:25Z</time>
      </trkpt>
      <trkpt lat="48.3778" lon="2.49805">
        <ele>73</ele>
        <time>2017-11-19T08:45:27Z</time>
      </trkpt>
      <trkpt lat="48.37785" lon="2.49817">
        <ele>73</ele>
        <time>2017-11-19T08:45:29Z</time>
      </trkpt>
      <trkpt lat="48.37788" lon="2.49829">
        <ele>74</ele>
        <time>2017-11-19T08:45:31Z</time>
      </trkpt>
      <trkpt lat="48.37794" lon="2.49841">
        <ele>73</ele>
        <time>2017-11-19T08:45:33Z</time>
      </trkpt>
      <trkpt lat="48.37799" lon="2.49852">
        <ele>73</ele>
        <time>2017-11-19T08:45:35Z</time>
      </trkpt>
      <trkpt lat="48.37803" lon="2.49864">
        <ele>73</ele>
        <time>2017-11-19T08:45:37Z</time>
      </trkpt>
      <trkpt lat="48.37806" lon="2.49877">
        <ele>73</ele>
        <time>2017-11-19T08:45:39Z</time>
      </trkpt>
      <trkpt lat="48.37811" lon="2.49888">
        <ele>73</ele>
        <time>2017-11-19T08:45:41Z</time>
      </trkpt>
      <trkpt lat="48.37816" lon="2.49898">
        <ele>73</ele>
        <time>2017-11-19T08:45:43Z</time>
      </trkpt>
      <trkpt lat="48.3782" lon="2.4991">
        <ele>73</ele>
        <time>2017-11-19T08:45:45Z</time>
      </trkpt>
      <trkpt lat="48.37825" lon="2.4992">
        <ele>74</ele>
        <time>2017-11-19T08:45:47Z</time>
      </trkpt>
      <trkpt lat="48.37828" lon="2.49931">
        <ele>74</ele>
        <time>2017-11-19T08:45:49Z</time>
      </trkpt>
      <trkpt lat="48.37832" lon="2.49943">
        <ele>73</ele>
        <time>2017-11-19T08:45:51Z</time>
      </trkpt>
      <trkpt lat="48.37836" lon="2.49955">
        <ele>76</ele>
        <time>2017-11-19T08:45:53Z</time>
      </trkpt>
      <trkpt lat="48.37841" lon="2.49964">
        <ele>76</ele>
        <time>2017-11-19T08:45:55Z</time>
      </trkpt>
      <trkpt lat="48.37845" lon="2.4997">
        <ele>76</ele>
        <time>2017-11-19T08:45:57Z</time>
      </trkpt>
      <trkpt lat="48.37851" lon="2.49977">
        <ele>76</ele>
        <time>2017-11-19T08:45:59Z</time>
      </trkpt>
      <trkpt lat="48.37856" lon="2.49984">
        <ele>76</ele>
        <time>2017-11-19T08:46:01Z</time>
      </trkpt>
      <trkpt lat="48.3786" lon="2.49994">
        <ele>76</ele>
        <time>2017-11-19T08:46:03Z</time>
      </trkpt>
      <trkpt lat="48.37863" lon="2.50007">
        <ele>76</ele>
        <time>2017-11-19T08:46:05Z</time>
      </trkpt>
      <trkpt lat="48.37865" lon="2.50019">
        <ele>76</ele>
        <time>2017-11-19T08:46:07Z</time>
      </trkpt>
      <trkpt lat="48.37869" lon="2.50031">
        <ele>76</ele>
        <time>2017-11-19T08:46:09Z</time>
      </trkpt>
      <trkpt lat="48.37874" lon="2.50044">
        <ele>76</ele>
        <time>2017-11-19T08:46:11Z</time>
      </trkpt>
      <trkpt lat="48.37876" lon="2.50056">
        <ele>77</ele>
        <time>2017-11-19T08:46:13Z</time>
      </trkpt>
      <trkpt lat="48.3788" lon="2.50071">
        <ele>77</ele>
        <time>2017-11-19T08:46:15Z</time>
      </trkpt>
      <trkpt lat="48.37882" lon="2.50088">
        <ele>77</ele>
        <time>2017-11-19T08:46:17Z</time>
      </trkpt>
      <trkpt lat="48.37884" lon="2.50106">
        <ele>77</ele>
        <time>2017-11-19T08:46:19Z</time>
      </trkpt>
      <trkpt lat="48.37888" lon="2.50123">
        <ele>77</ele>
        <time>2017-11-19T08:46:21Z</time>
      </trkpt>
      <trkpt lat="48.3789" lon="2.50141">
        <ele>77</ele>
        <time>2017-11-19T08:46:23Z</time>
      </trkpt>
      <trkpt lat="48.37892" lon="2.50157">
        <ele>77</ele>
        <time>2017-11-19T08:46:25Z</time>
      </trkpt>
      <trkpt lat="48.37893" lon="2.50172">
        <ele>77</ele>
        <time>2017-11-19T08:46:27Z</time>
      </trkpt>
      <trkpt lat="48.37894" lon="2.50188">
        <ele>77</ele>
        <time>2017-11-19T08:46:29Z</time>
      </trkpt>
      <trkpt lat="48.37896" lon="2.50202">
        <ele>77</ele>
        <time>2017-11-19T08:46:31Z</time>
      </trkpt>
      <trkpt lat="48.37897" lon="2.50217">
        <ele>77</ele>
        <time>2017-11-19T08:46:33Z</time>
      </trkpt>
      <trkpt lat="48.37898" lon="2.50232">
        <ele>77</ele>
        <time>2017-11-19T08:46:35Z</time>
      </trkpt>
      <trkpt lat="48.379" lon="2.50247">
        <ele>77</ele>
        <time>2017-11-19T08:46:37Z</time>
      </trkpt>
      <trkpt lat="48.37903" lon="2.50261">
        <ele>78</ele>
        <time>2017-11-19T08:46:39Z</time>
      </trkpt>
      <trkpt lat="48.37909" lon="2.50276">
        <ele>78</ele>
        <time>2017-11-19T08:46:41Z</time>
      </trkpt>
      <trkpt lat="48.37917" lon="2.50288">
        <ele>77</ele>
        <time>2017-11-19T08:46:43Z</time>
      </trkpt>
      <trkpt lat="48.37926" lon="2.50298">
        <ele>77</ele>
        <time>2017-11-19T08:46:45Z</time>
      </trkpt>
      <trkpt lat="48.37934" lon="2.50308">
        <ele>77</ele>
        <time>2017-11-19T08:46:47Z</time>
      </trkpt>
      <trkpt lat="48.37944" lon="2.50317">
        <ele>77</ele>
        <time>2017-11-19T08:46:49Z</time>
      </trkpt>
      <trkpt lat="48.37952" lon="2.50328">
        <ele>77</ele>
        <time>2017-11-19T08:46:51Z</time>
      </trkpt>
      <trkpt lat="48.37958" lon="2.50337">
        <ele>77</ele>
        <time>2017-11-19T08:46:53Z</time>
      </trkpt>
      <trkpt lat="48.37964" lon="2.50346">
        <ele>77</ele>
        <time>2017-11-19T08:46:55Z</time>
      </trkpt>
      <trkpt lat="48.37969" lon="2.50354">
        <ele>77</ele>
        <time>2017-11-19T08:46:57Z</time>
      </trkpt>
      <trkpt lat="48.37977" lon="2.50361">
        <ele>77</ele>
        <time>2017-11-19T08:46:59Z</time>
      </trkpt>
      <trkpt lat="48.37985" lon="2.50366">
        <ele>77</ele>
        <time>2017-11-19T08:47:01Z</time>
      </trkpt>
      <trkpt lat="48.37992" lon="2.5037">
        <ele>77</ele>
        <time>2017-11-19T08:47:03Z</time>
      </trkpt>
      <trkpt lat="48.37999" lon="2.50371">
        <ele>77</ele>
        <time>2017-11-19T08:47:05Z</time>
      </trkpt>
      <trkpt lat="48.38007" lon="2.50373">
        <ele>77</ele>
        <time>2017-11-19T08:47:07Z</time>
      </trkpt>
      <trkpt lat="48.38017" lon="2.50378">
        <ele>77</ele>
        <time>2017-11-19T08:47:09Z</time>
      </trkpt>
      <trkpt lat="48.38027" lon="2.50385">
        <ele>77</ele>
        <time>2017-11-19T08:47:11Z</time>
      </trkpt>
      <trkpt lat="48.38035" lon="2.50394">
        <ele>77</ele>
        <time>2017-11-19T08:47:13Z</time>
      </trkpt>
      <trkpt lat="48.38044" lon="2.50405">
        <ele>77</ele>
        <time>2017-11-19T08:47:15Z</time>
      </trkpt>
      <trkpt lat="48.38054" lon="2.50416">
        <ele>77</ele>
        <time>2017-11-19T08:47:17Z</time>
      </trkpt>
      <trkpt lat="48.38059" lon="2.50433">
        <ele>78</ele>
        <time>2017-11-19T08:47:19Z</time>
      </trkpt>
      <trkpt lat="48.38067" lon="2.50447">
        <ele>78</ele>
        <time>2017-11-19T08:47:21Z</time>
      </trkpt>
      <trkpt lat="48.38073" lon="2.50463">
        <ele>79</ele>
        <time>2017-11-19T08:47:23Z</time>
      </trkpt>
      <trkpt lat="48.38078" lon="2.50478">
        <ele>79</ele>
        <time>2017-11-19T08:47:25Z</time>
      </trkpt>
      <trkpt lat="48.38084" lon="2.50492">
        <ele>77</ele>
        <time>2017-11-19T08:47:27Z</time>
      </trkpt>
      <trkpt lat="48.38087" lon="2.50506">
        <ele>77</ele>
        <time>2017-11-19T08:47:29Z</time>
      </trkpt>
      <trkpt lat="48.38096" lon="2.50521">
        <ele>77</ele>
        <time>2017-11-19T08:47:31Z</time>
      </trkpt>
      <trkpt lat="48.381" lon="2.50535">
        <ele>76</ele>
        <time>2017-11-19T08:47:33Z</time>
      </trkpt>
      <trkpt lat="48.38106" lon="2.50548">
        <ele>76</ele>
        <time>2017-11-19T08:47:35Z</time>
      </trkpt>
      <trkpt lat="48.38112" lon="2.5056">
        <ele>76</ele>
        <time>2017-11-19T08:47:37Z</time>
      </trkpt>
      <trkpt lat="48.38113" lon="2.50572">
        <ele>76</ele>
        <time>2017-11-19T08:47:39Z</time>
      </trkpt>
      <trkpt lat="48.38113" lon="2.50584">
        <ele>76</ele>
        <time>2017-11-19T08:47:41Z</time>
      </trkpt>
      <trkpt lat="48.38105" lon="2.50587">
        <ele>76</ele>
        <time>2017-11-19T08:47:43Z</time>
      </trkpt>
      <trkpt lat="48.38099" lon="2.50594">
        <ele>76</ele>
        <time>2017-11-19T08:47:45Z</time>
      </trkpt>
      <trkpt lat="48.38093" lon="2.50604">
        <ele>76</ele>
        <time>2017-11-19T08:47:47Z</time>
      </trkpt>
      <trkpt lat="48.38086" lon="2.50613">
        <ele>76</ele>
        <time>2017-11-19T08:47:49Z</time>
      </trkpt>
      <trkpt lat="48.3808" lon="2.50622">
        <ele>79</ele>
        <time>2017-11-19T08:47:51Z</time>
      </trkpt>
      <trkpt lat="48.38073" lon="2.5063">
        <ele>79</ele>
        <time>2017-11-19T08:47:53Z</time>
      </trkpt>
      <trkpt lat="48.38068" lon="2.50639">
        <ele>79</ele>
        <time>2017-11-19T08:47:55Z</time>
      </trkpt>
      <trkpt lat="48.38062" lon="2.50645">
        <ele>79</ele>
        <time>2017-11-19T08:47:57Z</time>
      </trkpt>
      <trkpt lat="48.38056" lon="2.50654">
        <ele>79</ele>
        <time>2017-11-19T08:47:59Z</time>
      </trkpt>
      <trkpt lat="48.38051" lon="2.50665">
        <ele>79</ele>
        <time>2017-11-19T08:48:01Z</time>
      </trkpt>
      <trkpt lat="48.38044" lon="2.50673">
        <ele>78</ele>
        <time>2017-11-19T08:48:03Z</time>
      </trkpt>
      <trkpt lat="48.38038" lon="2.50681">
        <ele>78</ele>
        <time>2017-11-19T08:48:05Z</time>
      </trkpt>
      <trkpt lat="48.38031" lon="2.50689">
        <ele>78</ele>
        <time>2017-11-19T08:48:07Z</time>
      </trkpt>
      <trkpt lat="48.38023" lon="2.50694">
        <ele>78</ele>
        <time>2017-11-19T08:48:09Z</time>
      </trkpt>
      <trkpt lat="48.38018" lon="2.50704">
        <ele>78</ele>
        <time>2017-11-19T08:48:11Z</time>
      </trkpt>
      <trkpt lat="48.38012" lon="2.50713">
        <ele>78</ele>
        <time>2017-11-19T08:48:13Z</time>
      </trkpt>
      <trkpt lat="48.38005" lon="2.5072">
        <ele>77</ele>
        <time>2017-11-19T08:48:15Z</time>
      </trkpt>
      <trkpt lat="48.37999" lon="2.5073">
        <ele>78</ele>
        <time>2017-11-19T08:48:17Z</time>
      </trkpt>
      <trkpt lat="48.37993" lon="2.50739">
        <ele>78</ele>
        <time>2017-11-19T08:48:19Z</time>
      </trkpt>
      <trkpt lat="48.37987" lon="2.50747">
        <ele>77</ele>
        <time>2017-11-19T08:48:21Z</time>
      </trkpt>
      <trkpt lat="48.37985" lon="2.50759">
        <ele>77</ele>
        <time>2017-11-19T08:48:23Z</time>
      </trkpt>
      <trkpt lat="48.37983" lon="2.5077">
        <ele>77</ele>
        <time>2017-11-19T08:48:25Z</time>
      </trkpt>
      <trkpt lat="48.37982" lon="2.5078">
        <ele>78</ele>
        <time>2017-11-19T08:48:27Z</time>
      </trkpt>
      <trkpt lat="48.37979" lon="2.50789">
        <ele>78</ele>
        <time>2017-11-19T08:48:29Z</time>
      </trkpt>
      <trkpt lat="48.37976" lon="2.50797">
        <ele>78</ele>
        <time>2017-11-19T08:48:31Z</time>
      </trkpt>
      <trkpt lat="48.37973" lon="2.50805">
        <ele>78</ele>
        <time>2017-11-19T08:48:33Z</time>
      </trkpt>
      <trkpt lat="48.37972" lon="2.50814">
        <ele>79</ele>
        <time>2017-11-19T08:48:35Z</time>
      </trkpt>
      <trkpt lat="48.37968" lon="2.50821">
        <ele>79</ele>
        <time>2017-11-19T08:48:37Z</time>
      </trkpt>
      <trkpt lat="48.37963" lon="2.50825">
        <ele>78</ele>
        <time>2017-11-19T08:48:39Z</time>
      </trkpt>
      <trkpt lat="48.37958" lon="2.50833">
        <ele>78</ele>
        <time>2017-11-19T08:48:41Z</time>
      </trkpt>
      <trkpt lat="48.37955" lon="2.50841">
        <ele>80</ele>
        <time>2017-11-19T08:48:43Z</time>
      </trkpt>
      <trkpt lat="48.37952" lon="2.50853">
        <ele>79</ele>
        <time>2017-11-19T08:48:45Z</time>
      </trkpt>
      <trkpt lat="48.3795" lon="2.50864">
        <ele>79</ele>
        <time>2017-11-19T08:48:47Z</time>
      </trkpt>
      <trkpt lat="48.37948" lon="2.50875">
        <ele>79</ele>
        <time>2017-11-19T08:48:49Z</time>
      </trkpt>
      <trkpt lat="48.37946" lon="2.50886">
        <ele>79</ele>
        <time>2017-11-19T08:48:51Z</time>
      </trkpt>
      <trkpt lat="48.37942" lon="2.50897">
        <ele>79</ele>
        <time>2017-11-19T08:48:53Z</time>
      </trkpt>
      <trkpt lat="48.37939" lon="2.50907">
        <ele>78</ele>
        <time>2017-11-19T08:48:55Z</time>
      </trkpt>
      <trkpt lat="48.37936" lon="2.50917">
        <ele>79</ele>
        <time>2017-11-19T08:48:57Z</time>
      </trkpt>
      <trkpt lat="48.37933" lon="2.50928">
        <ele>79</ele>
        <time>2017-11-19T08:48:59Z</time>
      </trkpt>
      <trkpt lat="48.37931" lon="2.50939">
        <ele>80</ele>
        <time>2017-11-19T08:49:01Z</time>
      </trkpt>
      <trkpt lat="48.37927" lon="2.5095">
        <ele>80</ele>
        <time>2017-11-19T08:49:03Z</time>
      </trkpt>
      <trkpt lat="48.37924" lon="2.50961">
        <ele>80</ele>
        <time>2017-11-19T08:49:05Z</time>
      </trkpt>
      <trkpt lat="48.3792" lon="2.50974">
        <ele>80</ele>
        <time>2017-11-19T08:49:07Z</time>
      </trkpt>
      <trkpt lat="48.37917" lon="2.50987">
        <ele>79</ele>
        <time>2017-11-19T08:49:09Z</time>
      </trkpt>
      <trkpt lat="48.37911" lon="2.50998">
        <ele>76</ele>
        <time>2017-11-19T08:49:11Z</time>
      </trkpt>
      <trkpt lat="48.37905" lon="2.51009">
        <ele>76</ele>
        <time>2017-11-19T08:49:13Z</time>
      </trkpt>
      <trkpt lat="48.37898" lon="2.51021">
        <ele>76</ele>
        <time>2017-11-19T08:49:15Z</time>
      </trkpt>
      <trkpt lat="48.37895" lon="2.51034">
        <ele>76</ele>
        <time>2017-11-19T08:49:17Z</time>
      </trkpt>
      <trkpt lat="48.37892" lon="2.51048">
        <ele>76</ele>
        <time>2017-11-19T08:49:19Z</time>
      </trkpt>
      <trkpt lat="48.3789" lon="2.51062">
        <ele>76</ele>
        <time>2017-11-19T08:49:21Z</time>
      </trkpt>
      <trkpt lat="48.37891" lon="2.51077">
        <ele>76</ele>
        <time>2017-11-19T08:49:23Z</time>
      </trkpt>
      <trkpt lat="48.37892" lon="2.5109">
        <ele>76</ele>
        <time>2017-11-19T08:49:25Z</time>
      </trkpt>
      <trkpt lat="48.37892" lon="2.51104">
        <ele>75</ele>
        <time>2017-11-19T08:49:27Z</time>
      </trkpt>
      <trkpt lat="48.37895" lon="2.51119">
        <ele>75</ele>
        <time>2017-11-19T08:49:29Z</time>
      </trkpt>
      <trkpt lat="48.379" lon="2.51132">
        <ele>75</ele>
        <time>2017-11-19T08:49:31Z</time>
      </trkpt>
      <trkpt lat="48.37902" lon="2.51142">
        <ele>74</ele>
        <time>2017-11-19T08:49:33Z</time>
      </trkpt>
      <trkpt lat="48.37907" lon="2.51153">
        <ele>74</ele>
        <time>2017-11-19T08:49:35Z</time>
      </trkpt>
      <trkpt lat="48.37912" lon="2.51162">
        <ele>73</ele>
        <time>2017-11-19T08:49:37Z</time>
      </trkpt>
      <trkpt lat="48.37918" lon="2.51172">
        <ele>74</ele>
        <time>2017-11-19T08:49:39Z</time>
      </trkpt>
      <trkpt lat="48.37921" lon="2.51183">
        <ele>75</ele>
        <time>2017-11-19T08:49:41Z</time>
      </trkpt>
      <trkpt lat="48.37927" lon="2.51195">
        <ele>76</ele>
        <time>2017-11-19T08:49:43Z</time>
      </trkpt>
      <trkpt lat="48.37935" lon="2.51207">
        <ele>76</ele>
        <time>2017-11-19T08:49:45Z</time>
      </trkpt>
      <trkpt lat="48.37941" lon="2.51216">
        <ele>76</ele>
        <time>2017-11-19T08:49:47Z</time>
      </trkpt>
      <trkpt lat="48.37946" lon="2.51226">
        <ele>76</ele>
        <time>2017-11-19T08:49:49Z</time>
      </trkpt>
      <trkpt lat="48.37952" lon="2.51234">
        <ele>76</ele>
        <time>2017-11-19T08:49:51Z</time>
      </trkpt>
      <trkpt lat="48.37957" lon="2.51241">
        <ele>76</ele>
        <time>2017-11-19T08:49:53Z</time>
      </trkpt>
      <trkpt lat="48.37963" lon="2.51248">
        <ele>76</ele>
        <time>2017-11-19T08:49:55Z</time>
      </trkpt>
      <trkpt lat="48.37966" lon="2.51253">
        <ele>74</ele>
        <time>2017-11-19T08:49:57Z</time>
      </trkpt>
      <trkpt lat="48.37974" lon="2.51264">
        <ele>74</ele>
        <time>2017-11-19T08:50:01Z</time>
      </trkpt>
      <trkpt lat="48.37978" lon="2.51271">
        <ele>74</ele>
        <time>2017-11-19T08:50:03Z</time>
      </trkpt>
      <trkpt lat="48.37985" lon="2.51283">
        <ele>74</ele>
        <time>2017-11-19T08:50:05Z</time>
      </trkpt>
      <trkpt lat="48.37993" lon="2.51292">
        <ele>74</ele>
        <time>2017-11-19T08:50:07Z</time>
      </trkpt>
      <trkpt lat="48.38" lon="2.51302">
        <ele>74</ele>
        <time>2017-11-19T08:50:09Z</time>
      </trkpt>
      <trkpt lat="48.38006" lon="2.51312">
        <ele>77</ele>
        <time>2017-11-19T08:50:11Z</time>
      </trkpt>
      <trkpt lat="48.38013" lon="2.51321">
        <ele>76</ele>
        <time>2017-11-19T08:50:13Z</time>
      </trkpt>
      <trkpt lat="48.38019" lon="2.5133">
        <ele>77</ele>
        <time>2017-11-19T08:50:15Z</time>
      </trkpt>
      <trkpt lat="48.38027" lon="2.51337">
        <ele>74</ele>
        <time>2017-11-19T08:50:17Z</time>
      </trkpt>
      <trkpt lat="48.38034" lon="2.51345">
        <ele>74</ele>
        <time>2017-11-19T08:50:19Z</time>
      </trkpt>
      <trkpt lat="48.38039" lon="2.51355">
        <ele>74</ele>
        <time>2017-11-19T08:50:21Z</time>
      </trkpt>
      <trkpt lat="48.38045" lon="2.51363">
        <ele>74</ele>
        <time>2017-11-19T08:50:23Z</time>
      </trkpt>
      <trkpt lat="48.38052" lon="2.51372">
        <ele>74</ele>
        <time>2017-11-19T08:50:25Z</time>
      </trkpt>
      <trkpt lat="48.38058" lon="2.51381">
        <ele>74</ele>
        <time>2017-11-19T08:50:27Z</time>
      </trkpt>
      <trkpt lat="48.38063" lon="2.51388">
        <ele>74</ele>
        <time>2017-11-19T08:50:29Z</time>
      </trkpt>
      <trkpt lat="48.38069" lon="2.51397">
        <ele>73</ele>
        <time>2017-11-19T08:50:31Z</time>
      </trkpt>
      <trkpt lat="48.38075" lon="2.51404">
        <ele>73</ele>
        <time>2017-11-19T08:50:33Z</time>
      </trkpt>
      <trkpt lat="48.38082" lon="2.51409">
        <ele>72</ele>
        <time>2017-11-19T08:50:35Z</time>
      </trkpt>
      <trkpt lat="48.38089" lon="2.51416">
        <ele>72</ele>
        <time>2017-11-19T08:50:37Z</time>
      </trkpt>
      <trkpt lat="48.38094" lon="2.51423">
        <ele>72</ele>
        <time>2017-11-19T08:50:39Z</time>
      </trkpt>
      <trkpt lat="48.381" lon="2.5143">
        <ele>72</ele>
        <time>2017-11-19T08:50:41Z</time>
      </trkpt>
      <trkpt lat="48.38105" lon="2.51439">
        <ele>72</ele>
        <time>2017-11-19T08:50:43Z</time>
      </trkpt>
      <trkpt lat="48.3811" lon="2.51447">
        <ele>72</ele>
        <time>2017-11-19T08:50:45Z</time>
      </trkpt>
      <trkpt lat="48.38116" lon="2.51457">
        <ele>73</ele>
        <time>2017-11-19T08:50:47Z</time>
      </trkpt>
      <trkpt lat="48.38121" lon="2.51464">
        <ele>73</ele>
        <time>2017-11-19T08:50:49Z</time>
      </trkpt>
      <trkpt lat="48.38125" lon="2.5147">
        <ele>73</ele>
        <time>2017-11-19T08:50:51Z</time>
      </trkpt>
      <trkpt lat="48.38131" lon="2.51481">
        <ele>73</ele>
        <time>2017-11-19T08:50:53Z</time>
      </trkpt>
      <trkpt lat="48.38135" lon="2.5149">
        <ele>73</ele>
        <time>2017-11-19T08:50:55Z</time>
      </trkpt>
      <trkpt lat="48.38135" lon="2.51501">
        <ele>73</ele>
        <time>2017-11-19T08:50:57Z</time>
      </trkpt>
      <trkpt lat="48.38135" lon="2.51513">
        <ele>73</ele>
        <time>2017-11-19T08:50:59Z</time>
      </trkpt>
      <trkpt lat="48.38136" lon="2.51525">
        <ele>73</ele>
        <time>2017-11-19T08:51:01Z</time>
      </trkpt>
      <trkpt lat="48.38138" lon="2.51537">
        <ele>73</ele>
        <time>2017-11-19T08:51:03Z</time>
      </trkpt>
      <trkpt lat="48.38139" lon="2.51551">
        <ele>73</ele>
        <time>2017-11-19T08:51:05Z</time>
      </trkpt>
      <trkpt lat="48.3814" lon="2.51564">
        <ele>73</ele>
        <time>2017-11-19T08:51:07Z</time>
      </trkpt>
      <trkpt lat="48.3814" lon="2.51578">
        <ele>73</ele>
        <time>2017-11-19T08:51:09Z</time>
      </trkpt>
      <trkpt lat="48.38139" lon="2.51591">
        <ele>73</ele>
        <time>2017-11-19T08:51:11Z</time>
      </trkpt>
      <trkpt lat="48.38138" lon="2.51602">
        <ele>73</ele>
        <time>2017-11-19T08:51:13Z</time>
      </trkpt>
      <trkpt lat="48.38137" lon="2.51615">
        <ele>73</ele>
        <time>2017-11-19T08:51:15Z</time>
      </trkpt>
      <trkpt lat="48.38137" lon="2.51626">
        <ele>73</ele>
        <time>2017-11-19T08:51:17Z</time>
      </trkpt>
      <trkpt lat="48.38136" lon="2.51637">
        <ele>73</ele>
        <time>2017-11-19T08:51:19Z</time>
      </trkpt>
      <trkpt lat="48.38135" lon="2.51648">
        <ele>73</ele>
        <time>2017-11-19T08:51:21Z</time>
      </trkpt>
      <trkpt lat="48.38132" lon="2.51658">
        <ele>73</ele>
        <time>2017-11-19T08:51:23Z</time>
      </trkpt>
      <trkpt lat="48.3813" lon="2.51669">
        <ele>74</ele>
        <time>2017-11-19T08:51:25Z</time>
      </trkpt>
      <trkpt lat="48.38126" lon="2.51679">
        <ele>73</ele>
        <time>2017-11-19T08:51:27Z</time>
      </trkpt>
      <trkpt lat="48.38126" lon="2.5169">
        <ele>73</ele>
        <time>2017-11-19T08:51:29Z</time>
      </trkpt>
      <trkpt lat="48.38124" lon="2.51701">
        <ele>73</ele>
        <time>2017-11-19T08:51:31Z</time>
      </trkpt>
      <trkpt lat="48.38124" lon="2.51713">
        <ele>74</ele>
        <time>2017-11-19T08:51:33Z</time>
      </trkpt>
      <trkpt lat="48.38122" lon="2.51725">
        <ele>73</ele>
        <time>2017-11-19T08:51:35Z</time>
      </trkpt>
      <trkpt lat="48.3812" lon="2.51735">
        <ele>73</ele>
        <time>2017-11-19T08:51:37Z</time>
      </trkpt>
      <trkpt lat="48.3812" lon="2.51745">
        <ele>73</ele>
        <time>2017-11-19T08:51:39Z</time>
      </trkpt>
      <trkpt lat="48.38119" lon="2.51756">
        <ele>73</ele>
        <time>2017-11-19T08:51:41Z</time>
      </trkpt>
      <trkpt lat="48.38119" lon="2.51767">
        <ele>73</ele>
        <time>2017-11-19T08:51:43Z</time>
      </trkpt>
      <trkpt lat="48.38118" lon="2.51778">
        <ele>73</ele>
        <time>2017-11-19T08:51:45Z</time>
      </trkpt>
      <trkpt lat="48.38116" lon="2.51789">
        <ele>73</ele>
        <time>2017-11-19T08:51:47Z</time>
      </trkpt>
      <trkpt lat="48.38114" lon="2.51799">
        <ele>73</ele>
        <time>2017-11-19T08:51:49Z</time>
      </trkpt>
      <trkpt lat="48.38114" lon="2.51809">
        <ele>73</ele>
        <time>2017-11-19T08:51:51Z</time>
      </trkpt>
      <trkpt lat="48.38114" lon="2.51818">
        <ele>73</ele>
        <time>2017-11-19T08:51:53Z</time>
      </trkpt>
      <trkpt lat="48.38115" lon="2.51832">
        <ele>73</ele>
        <time>2017-11-19T08:51:55Z</time>
      </trkpt>
      <trkpt lat="48.38115" lon="2.51844">
        <ele>72</ele>
        <time>2017-11-19T08:51:57Z</time>
      </trkpt>
      <trkpt lat="48.38114" lon="2.51857">
        <ele>72</ele>
        <time>2017-11-19T08:51:59Z</time>
      </trkpt>
      <trkpt lat="48.38113" lon="2.51869">
        <ele>72</ele>
        <time>2017-11-19T08:52:01Z</time>
      </trkpt>
      <trkpt lat="48.38113" lon="2.5188">
        <ele>72</ele>
        <time>2017-11-19T08:52:03Z</time>
      </trkpt>
      <trkpt lat="48.38113" lon="2.51892">
        <ele>72</ele>
        <time>2017-11-19T08:52:05Z</time>
      </trkpt>
      <trkpt lat="48.38113" lon="2.51905">
        <ele>72</ele>
        <time>2017-11-19T08:52:07Z</time>
      </trkpt>
      <trkpt lat="48.38114" lon="2.51917">
        <ele>71</ele>
        <time>2017-11-19T08:52:09Z</time>
      </trkpt>
      <trkpt lat="48.38116" lon="2.5193">
        <ele>71</ele>
        <time>2017-11-19T08:52:11Z</time>
      </trkpt>
      <trkpt lat="48.38119" lon="2.51944">
        <ele>71</ele>
        <time>2017-11-19T08:52:13Z</time>
      </trkpt>
      <trkpt lat="48.38122" lon="2.51955">
        <ele>71</ele>
        <time>2017-11-19T08:52:15Z</time>
      </trkpt>
      <trkpt lat="48.38126" lon="2.51966">
        <ele>71</ele>
        <time>2017-11-19T08:52:17Z</time>
      </trkpt>
      <trkpt lat="48.3813" lon="2.51976">
        <ele>71</ele>
        <time>2017-11-19T08:52:19Z</time>
      </trkpt>
      <trkpt lat="48.38135" lon="2.51984">
        <ele>71</ele>
        <time>2017-11-19T08:52:21Z</time>
      </trkpt>
      <trkpt lat="48.38138" lon="2.51996">
        <ele>71</ele>
        <time>2017-11-19T08:52:23Z</time>
      </trkpt>
      <trkpt lat="48.38136" lon="2.52005">
        <ele>70</ele>
        <time>2017-11-19T08:52:25Z</time>
      </trkpt>
      <trkpt lat="48.38132" lon="2.52016">
        <ele>70</ele>
        <time>2017-11-19T08:52:27Z</time>
      </trkpt>
      <trkpt lat="48.38127" lon="2.52026">
        <ele>70</ele>
        <time>2017-11-19T08:52:29Z</time>
      </trkpt>
      <trkpt lat="48.38122" lon="2.52035">
        <ele>70</ele>
        <time>2017-11-19T08:52:31Z</time>
      </trkpt>
      <trkpt lat="48.38118" lon="2.52047">
        <ele>70</ele>
        <time>2017-11-19T08:52:33Z</time>
      </trkpt>
      <trkpt lat="48.38115" lon="2.52058">
        <ele>70</ele>
        <time>2017-11-19T08:52:35Z</time>
      </trkpt>
      <trkpt lat="48.38112" lon="2.5207">
        <ele>70</ele>
        <time>2017-11-19T08:52:37Z</time>
      </trkpt>
      <trkpt lat="48.38107" lon="2.52082">
        <ele>70</ele>
        <time>2017-11-19T08:52:39Z</time>
      </trkpt>
      <trkpt lat="48.38101" lon="2.52092">
        <ele>71</ele>
        <time>2017-11-19T08:52:41Z</time>
      </trkpt>
      <trkpt lat="48.38099" lon="2.52103">
        <ele>71</ele>
        <time>2017-11-19T08:52:43Z</time>
      </trkpt>
      <trkpt lat="48.38103" lon="2.52114">
        <ele>71</ele>
        <time>2017-11-19T08:52:45Z</time>
      </trkpt>
      <trkpt lat="48.38111" lon="2.52122">
        <ele>71</ele>
        <time>2017-11-19T08:52:47Z</time>
      </trkpt>
      <trkpt lat="48.38118" lon="2.52131">
        <ele>71</ele>
        <time>2017-11-19T08:52:49Z</time>
      </trkpt>
      <trkpt lat="48.38124" lon="2.52142">
        <ele>71</ele>
        <time>2017-11-19T08:52:51Z</time>
      </trkpt>
      <trkpt lat="48.38131" lon="2.52152">
        <ele>71</ele>
        <time>2017-11-19T08:52:53Z</time>
      </trkpt>
      <trkpt lat="48.38138" lon="2.52163">
        <ele>71</ele>
        <time>2017-11-19T08:52:55Z</time>
      </trkpt>
      <trkpt lat="48.38145" lon="2.52175">
        <ele>72</ele>
        <time>2017-11-19T08:52:57Z</time>
      </trkpt>
      <trkpt lat="48.38152" lon="2.52186">
        <ele>72</ele>
        <time>2017-11-19T08:52:59Z</time>
      </trkpt>
      <trkpt lat="48.38159" lon="2.52197">
        <ele>72</ele>
        <time>2017-11-19T08:53:01Z</time>
      </trkpt>
      <trkpt lat="48.38164" lon="2.52209">
        <ele>72</ele>
        <time>2017-11-19T08:53:03Z</time>
      </trkpt>
      <trkpt lat="48.38171" lon="2.52219">
        <ele>73</ele>
        <time>2017-11-19T08:53:05Z</time>
      </trkpt>
      <trkpt lat="48.38179" lon="2.5223">
        <ele>73</ele>
        <time>2017-11-19T08:53:07Z</time>
      </trkpt>
      <trkpt lat="48.38186" lon="2.52241">
        <ele>73</ele>
        <time>2017-11-19T08:53:09Z</time>
      </trkpt>
      <trkpt lat="48.38193" lon="2.52252">
        <ele>73</ele>
        <time>2017-11-19T08:53:11Z</time>
      </trkpt>
      <trkpt lat="48.382" lon="2.52263">
        <ele>73</ele>
        <time>2017-11-19T08:53:13Z</time>
      </trkpt>
      <trkpt lat="48.38207" lon="2.52274">
        <ele>73</ele>
        <time>2017-11-19T08:53:15Z</time>
      </trkpt>
      <trkpt lat="48.38213" lon="2.52286">
        <ele>73</ele>
        <time>2017-11-19T08:53:17Z</time>
      </trkpt>
      <trkpt lat="48.38221" lon="2.52298">
        <ele>72</ele>
        <time>2017-11-19T08:53:19Z</time>
      </trkpt>
      <trkpt lat="48.38228" lon="2.5231">
        <ele>72</ele>
        <time>2017-11-19T08:53:21Z</time>
      </trkpt>
      <trkpt lat="48.38236" lon="2.52322">
        <ele>72</ele>
        <time>2017-11-19T08:53:23Z</time>
      </trkpt>
      <trkpt lat="48.38244" lon="2.52333">
        <ele>72</ele>
        <time>2017-11-19T08:53:25Z</time>
      </trkpt>
      <trkpt lat="48.38252" lon="2.52344">
        <ele>73</ele>
        <time>2017-11-19T08:53:27Z</time>
      </trkpt>
      <trkpt lat="48.3826" lon="2.52357">
        <ele>74</ele>
        <time>2017-11-19T08:53:29Z</time>
      </trkpt>
      <trkpt lat="48.38269" lon="2.52368">
        <ele>74</ele>
        <time>2017-11-19T08:53:31Z</time>
      </trkpt>
      <trkpt lat="48.38276" lon="2.52379">
        <ele>74</ele>
        <time>2017-11-19T08:53:33Z</time>
      </trkpt>
      <trkpt lat="48.38282" lon="2.52392">
        <ele>74</ele>
        <time>2017-11-19T08:53:35Z</time>
      </trkpt>
      <trkpt lat="48.38287" lon="2.52407">
        <ele>73</ele>
        <time>2017-11-19T08:53:37Z</time>
      </trkpt>
      <trkpt lat="48.38288" lon="2.52422">
        <ele>71</ele>
        <time>2017-11-19T08:53:39Z</time>
      </trkpt>
      <trkpt lat="48.3829" lon="2.52436">
        <ele>71</ele>
        <time>2017-11-19T08:53:41Z</time>
      </trkpt>
      <trkpt lat="48.38292" lon="2.52449">
        <ele>71</ele>
        <time>2017-11-19T08:53:43Z</time>
      </trkpt>
      <trkpt lat="48.38294" lon="2.52465">
        <ele>71</ele>
        <time>2017-11-19T08:53:45Z</time>
      </trkpt>
      <trkpt lat="48.38294" lon="2.52481">
        <ele>71</ele>
        <time>2017-11-19T08:53:47Z</time>
      </trkpt>
      <trkpt lat="48.38295" lon="2.52496">
        <ele>71</ele>
        <time>2017-11-19T08:53:49Z</time>
      </trkpt>
      <trkpt lat="48.38296" lon="2.52512">
        <ele>71</ele>
        <time>2017-11-19T08:53:51Z</time>
      </trkpt>
      <trkpt lat="48.38296" lon="2.52526">
        <ele>71</ele>
        <time>2017-11-19T08:53:53Z</time>
      </trkpt>
      <trkpt lat="48.38298" lon="2.52539">
        <ele>71</ele>
        <time>2017-11-19T08:53:55Z</time>
      </trkpt>
      <trkpt lat="48.38304" lon="2.5255">
        <ele>71</ele>
        <time>2017-11-19T08:53:57Z</time>
      </trkpt>
      <trkpt lat="48.38309" lon="2.5256">
        <ele>71</ele>
        <time>2017-11-19T08:53:59Z</time>
      </trkpt>
      <trkpt lat="48.38313" lon="2.52572">
        <ele>72</ele>
        <time>2017-11-19T08:54:01Z</time>
      </trkpt>
      <trkpt lat="48.38316" lon="2.52581">
        <ele>72</ele>
        <time>2017-11-19T08:54:03Z</time>
      </trkpt>
      <trkpt lat="48.3832" lon="2.52591">
        <ele>72</ele>
        <time>2017-11-19T08:54:05Z</time>
      </trkpt>
      <trkpt lat="48.38323" lon="2.52599">
        <ele>73</ele>
        <time>2017-11-19T08:54:07Z</time>
      </trkpt>
      <trkpt lat="48.38328" lon="2.52608">
        <ele>73</ele>
        <time>2017-11-19T08:54:09Z</time>
      </trkpt>
      <trkpt lat="48.38331" lon="2.52617">
        <ele>73</ele>
        <time>2017-11-19T08:54:11Z</time>
      </trkpt>
      <trkpt lat="48.38333" lon="2.52627">
        <ele>73</ele>
        <time>2017-11-19T08:54:13Z</time>
      </trkpt>
      <trkpt lat="48.38337" lon="2.52636">
        <ele>74</ele>
        <time>2017-11-19T08:54:15Z</time>
      </trkpt>
      <trkpt lat="48.38338" lon="2.52646">
        <ele>74</ele>
        <time>2017-11-19T08:54:17Z</time>
      </trkpt>
      <trkpt lat="48.38339" lon="2.52656">
        <ele>74</ele>
        <time>2017-11-19T08:54:19Z</time>
      </trkpt>
      <trkpt lat="48.38339" lon="2.52668">
        <ele>74</ele>
        <time>2017-11-19T08:54:21Z</time>
      </trkpt>
      <trkpt lat="48.3834" lon="2.52682">
        <ele>74</ele>
        <time>2017-11-19T08:54:23Z</time>
      </trkpt>
      <trkpt lat="48.3834" lon="2.52695">
        <ele>74</ele>
        <time>2017-11-19T08:54:25Z</time>
      </trkpt>
      <trkpt lat="48.3834" lon="2.52707">
        <ele>74</ele>
        <time>2017-11-19T08:54:27Z</time>
      </trkpt>
      <trkpt lat="48.38342" lon="2.52721">
        <ele>73</ele>
        <time>2017-11-19T08:54:29Z</time>
      </trkpt>
      <trkpt lat="48.38342" lon="2.52736">
        <ele>73</ele>
        <time>2017-11-19T08:54:31Z</time>
      </trkpt>
      <trkpt lat="48.38344" lon="2.52749">
        <ele>73</ele>
        <time>2017-11-19T08:54:33Z</time>
      </trkpt>
      <trkpt lat="48.38349" lon="2.52762">
        <ele>74</ele>
        <time>2017-11-19T08:54:35Z</time>
      </trkpt>
      <trkpt lat="48.38354" lon="2.52775">
        <ele>74</ele>
        <time>2017-11-19T08:54:37Z</time>
      </trkpt>
      <trkpt lat="48.38357" lon="2.52787">
        <ele>74</ele>
        <time>2017-11-19T08:54:39Z</time>
      </trkpt>
      <trkpt lat="48.38361" lon="2.52799">
        <ele>74</ele>
        <time>2017-11-19T08:54:41Z</time>
      </trkpt>
      <trkpt lat="48.38364" lon="2.52812">
        <ele>74</ele>
        <time>2017-11-19T08:54:43Z</time>
      </trkpt>
      <trkpt lat="48.38368" lon="2.52825">
        <ele>74</ele>
        <time>2017-11-19T08:54:45Z</time>
      </trkpt>
      <trkpt lat="48.38372" lon="2.52837">
        <ele>75</ele>
        <time>2017-11-19T08:54:47Z</time>
      </trkpt>
      <trkpt lat="48.38376" lon="2.5285">
        <ele>75</ele>
        <time>2017-11-19T08:54:49Z</time>
      </trkpt>
      <trkpt lat="48.3838" lon="2.52863">
        <ele>75</ele>
        <time>2017-11-19T08:54:51Z</time>
      </trkpt>
      <trkpt lat="48.38383" lon="2.52876">
        <ele>75</ele>
        <time>2017-11-19T08:54:53Z</time>
      </trkpt>
      <trkpt lat="48.38387" lon="2.52888">
        <ele>75</ele>
        <time>2017-11-19T08:54:55Z</time>
      </trkpt>
      <trkpt lat="48.38389" lon="2.52899">
        <ele>75</ele>
        <time>2017-11-19T08:54:57Z</time>
      </trkpt>
      <trkpt lat="48.38393" lon="2.52907">
        <ele>76</ele>
        <time>2017-11-19T08:54:59Z</time>
      </trkpt>
      <trkpt lat="48.38396" lon="2.52915">
        <ele>76</ele>
        <time>2017-11-19T08:55:01Z</time>
      </trkpt>
      <trkpt lat="48.38398" lon="2.52923">
        <ele>75</ele>
        <time>2017-11-19T08:55:03Z</time>
      </trkpt>
      <trkpt lat="48.384" lon="2.52935">
        <ele>75</ele>
        <time>2017-11-19T08:55:05Z</time>
      </trkpt>
      <trkpt lat="48.38402" lon="2.52946">
        <ele>75</ele>
        <time>2017-11-19T08:55:07Z</time>
      </trkpt>
      <trkpt lat="48.38405" lon="2.52959">
        <ele>75</ele>
        <time>2017-11-19T08:55:09Z</time>
      </trkpt>
      <trkpt lat="48.38407" lon="2.52971">
        <ele>75</ele>
        <time>2017-11-19T08:55:11Z</time>
      </trkpt>
      <trkpt lat="48.38409" lon="2.52981">
        <ele>75</ele>
        <time>2017-11-19T08:55:13Z</time>
      </trkpt>
      <trkpt lat="48.38413" lon="2.52992">
        <ele>75</ele>
        <time>2017-11-19T08:55:15Z</time>
      </trkpt>
      <trkpt lat="48.38417" lon="2.53004">
        <ele>75</ele>
        <time>2017-11-19T08:55:17Z</time>
      </trkpt>
      <trkpt lat="48.38421" lon="2.53016">
        <ele>76</ele>
        <time>2017-11-19T08:55:19Z</time>
      </trkpt>
      <trkpt lat="48.38425" lon="2.53029">
        <ele>77</ele>
        <time>2017-11-19T08:55:21Z</time>
      </trkpt>
      <trkpt lat="48.38429" lon="2.53043">
        <ele>77</ele>
        <time>2017-11-19T08:55:23Z</time>
      </trkpt>
      <trkpt lat="48.38433" lon="2.53058">
        <ele>77</ele>
        <time>2017-11-19T08:55:25Z</time>
      </trkpt>
      <trkpt lat="48.38437" lon="2.53071">
        <ele>76</ele>
        <time>2017-11-19T08:55:27Z</time>
      </trkpt>
      <trkpt lat="48.38439" lon="2.53085">
        <ele>76</ele>
        <time>2017-11-19T08:55:29Z</time>
      </trkpt>
      <trkpt lat="48.3844" lon="2.53099">
        <ele>76</ele>
        <time>2017-11-19T08:55:31Z</time>
      </trkpt>
      <trkpt lat="48.38443" lon="2.53113">
        <ele>77</ele>
        <time>2017-11-19T08:55:33Z</time>
      </trkpt>
      <trkpt lat="48.38448" lon="2.53126">
        <ele>77</ele>
        <time>2017-11-19T08:55:35Z</time>
      </trkpt>
      <trkpt lat="48.38452" lon="2.53137">
        <ele>77</ele>
        <time>2017-11-19T08:55:37Z</time>
      </trkpt>
      <trkpt lat="48.38458" lon="2.53147">
        <ele>77</ele>
        <time>2017-11-19T08:55:39Z</time>
      </trkpt>
      <trkpt lat="48.38462" lon="2.53159">
        <ele>78</ele>
        <time>2017-11-19T08:55:41Z</time>
      </trkpt>
      <trkpt lat="48.38466" lon="2.5317">
        <ele>78</ele>
        <time>2017-11-19T08:55:43Z</time>
      </trkpt>
      <trkpt lat="48.3847" lon="2.53181">
        <ele>78</ele>
        <time>2017-11-19T08:55:45Z</time>
      </trkpt>
      <trkpt lat="48.38475" lon="2.53191">
        <ele>78</ele>
        <time>2017-11-19T08:55:47Z</time>
      </trkpt>
      <trkpt lat="48.3848" lon="2.53198">
        <ele>78</ele>
        <time>2017-11-19T08:55:49Z</time>
      </trkpt>
      <trkpt lat="48.38486" lon="2.53208">
        <ele>78</ele>
        <time>2017-11-19T08:55:51Z</time>
      </trkpt>
      <trkpt lat="48.38491" lon="2.53216">
        <ele>78</ele>
        <time>2017-11-19T08:55:53Z</time>
      </trkpt>
      <trkpt lat="48.38495" lon="2.53225">
        <ele>78</ele>
        <time>2017-11-19T08:55:55Z</time>
      </trkpt>
      <trkpt lat="48.38501" lon="2.53235">
        <ele>80</ele>
        <time>2017-11-19T08:55:57Z</time>
      </trkpt>
      <trkpt lat="48.38508" lon="2.5324">
        <ele>79</ele>
        <time>2017-11-19T08:55:59Z</time>
      </trkpt>
      <trkpt lat="48.38515" lon="2.53246">
        <ele>80</ele>
        <time>2017-11-19T08:56:01Z</time>
      </trkpt>
      <trkpt lat="48.38521" lon="2.53252">
        <ele>79</ele>
        <time>2017-11-19T08:56:03Z</time>
      </trkpt>
      <trkpt lat="48.38525" lon="2.53258">
        <ele>79</ele>
        <time>2017-11-19T08:56:05Z</time>
      </trkpt>
      <trkpt lat="48.3853" lon="2.53263">
        <ele>79</ele>
        <time>2017-11-19T08:56:07Z</time>
      </trkpt>
      <trkpt lat="48.38538" lon="2.53266">
        <ele>79</ele>
        <time>2017-11-19T08:56:09Z</time>
      </trkpt>
      <trkpt lat="48.38543" lon="2.5327">
        <ele>80</ele>
        <time>2017-11-19T08:56:11Z</time>
      </trkpt>
      <trkpt lat="48.3855" lon="2.53271">
        <ele>80</ele>
        <time>2017-11-19T08:56:13Z</time>
      </trkpt>
      <trkpt lat="48.38556" lon="2.53273">
        <ele>80</ele>
        <time>2017-11-19T08:56:15Z</time>
      </trkpt>
      <trkpt lat="48.38563" lon="2.53276">
        <ele>80</ele>
        <time>2017-11-19T08:56:17Z</time>
      </trkpt>
      <trkpt lat="48.38569" lon="2.53278">
        <ele>80</ele>
        <time>2017-11-19T08:56:19Z</time>
      </trkpt>
      <trkpt lat="48.38574" lon="2.5328">
        <ele>80</ele>
        <time>2017-11-19T08:56:21Z</time>
      </trkpt>
      <trkpt lat="48.38579" lon="2.53278">
        <ele>80</ele>
        <time>2017-11-19T08:56:23Z</time>
      </trkpt>
      <trkpt lat="48.38585" lon="2.53279">
        <ele>80</ele>
        <time>2017-11-19T08:56:25Z</time>
      </trkpt>
      <trkpt lat="48.38591" lon="2.5328">
        <ele>80</ele>
        <time>2017-11-19T08:56:27Z</time>
      </trkpt>
      <trkpt lat="48.38597" lon="2.53281">
        <ele>80</ele>
        <time>2017-11-19T08:56:29Z</time>
      </trkpt>
      <trkpt lat="48.38603" lon="2.53283">
        <ele>80</ele>
        <time>2017-11-19T08:56:31Z</time>
      </trkpt>
      <trkpt lat="48.38607" lon="2.53286">
        <ele>80</ele>
        <time>2017-11-19T08:56:33Z</time>
      </trkpt>
      <trkpt lat="48.38612" lon="2.5329">
        <ele>80</ele>
        <time>2017-11-19T08:56:35Z</time>
      </trkpt>
      <trkpt lat="48.38616" lon="2.53293">
        <ele>80</ele>
        <time>2017-11-19T08:56:37Z</time>
      </trkpt>
      <trkpt lat="48.38622" lon="2.53298">
        <ele>80</ele>
        <time>2017-11-19T08:56:39Z</time>
      </trkpt>
      <trkpt lat="48.38627" lon="2.53303">
        <ele>80</ele>
        <time>2017-11-19T08:56:41Z</time>
      </trkpt>
      <trkpt lat="48.38633" lon="2.53305">
        <ele>80</ele>
        <time>2017-11-19T08:56:43Z</time>
      </trkpt>
      <trkpt lat="48.38639" lon="2.53308">
        <ele>80</ele>
        <time>2017-11-19T08:56:45Z</time>
      </trkpt>
      <trkpt lat="48.38645" lon="2.53314">
        <ele>80</ele>
        <time>2017-11-19T08:56:47Z</time>
      </trkpt>
      <trkpt lat="48.38652" lon="2.53321">
        <ele>80</ele>
        <time>2017-11-19T08:56:49Z</time>
      </trkpt>
      <trkpt lat="48.38659" lon="2.5333">
        <ele>80</ele>
        <time>2017-11-19T08:56:51Z</time>
      </trkpt>
      <trkpt lat="48.38665" lon="2.5334">
        <ele>80</ele>
        <time>2017-11-19T08:56:53Z</time>
      </trkpt>
      <trkpt lat="48.38671" lon="2.53349">
        <ele>80</ele>
        <time>2017-11-19T08:56:55Z</time>
      </trkpt>
      <trkpt lat="48.38674" lon="2.53359">
        <ele>80</ele>
        <time>2017-11-19T08:56:57Z</time>
      </trkpt>
      <trkpt lat="48.38677" lon="2.5337">
        <ele>80</ele>
        <time>2017-11-19T08:56:59Z</time>
      </trkpt>
      <trkpt lat="48.38679" lon="2.53379">
        <ele>81</ele>
        <time>2017-11-19T08:57:01Z</time>
      </trkpt>
      <trkpt lat="48.38681" lon="2.53388">
        <ele>81</ele>
        <time>2017-11-19T08:57:03Z</time>
      </trkpt>
      <trkpt lat="48.38683" lon="2.53397">
        <ele>81</ele>
        <time>2017-11-19T08:57:05Z</time>
      </trkpt>
      <trkpt lat="48.38683" lon="2.53406">
        <ele>81</ele>
        <time>2017-11-19T08:57:07Z</time>
      </trkpt>
      <trkpt lat="48.38684" lon="2.53417">
        <ele>83</ele>
        <time>2017-11-19T08:57:09Z</time>
      </trkpt>
      <trkpt lat="48.38683" lon="2.53425">
        <ele>83</ele>
        <time>2017-11-19T08:57:11Z</time>
      </trkpt>
      <trkpt lat="48.38683" lon="2.53434">
        <ele>84</ele>
        <time>2017-11-19T08:57:13Z</time>
      </trkpt>
      <trkpt lat="48.38682" lon="2.53443">
        <ele>84</ele>
        <time>2017-11-19T08:57:15Z</time>
      </trkpt>
      <trkpt lat="48.38681" lon="2.53452">
        <ele>84</ele>
        <time>2017-11-19T08:57:17Z</time>
      </trkpt>
      <trkpt lat="48.38682" lon="2.53461">
        <ele>85</ele>
        <time>2017-11-19T08:57:19Z</time>
      </trkpt>
      <trkpt lat="48.38684" lon="2.53468">
        <ele>85</ele>
        <time>2017-11-19T08:57:21Z</time>
      </trkpt>
      <trkpt lat="48.38684" lon="2.53475">
        <ele>85</ele>
        <time>2017-11-19T08:57:23Z</time>
      </trkpt>
      <trkpt lat="48.38683" lon="2.53483">
        <ele>86</ele>
        <time>2017-11-19T08:57:25Z</time>
      </trkpt>
      <trkpt lat="48.38684" lon="2.53491">
        <ele>86</ele>
        <time>2017-11-19T08:57:27Z</time>
      </trkpt>
      <trkpt lat="48.38683" lon="2.53504">
        <ele>89</ele>
        <time>2017-11-19T08:57:31Z</time>
      </trkpt>
      <trkpt lat="48.38684" lon="2.53512">
        <ele>89</ele>
        <time>2017-11-19T08:57:33Z</time>
      </trkpt>
      <trkpt lat="48.38682" lon="2.5352">
        <ele>90</ele>
        <time>2017-11-19T08:57:35Z</time>
      </trkpt>
      <trkpt lat="48.38682" lon="2.53527">
        <ele>90</ele>
        <time>2017-11-19T08:57:37Z</time>
      </trkpt>
      <trkpt lat="48.38682" lon="2.53536">
        <ele>90</ele>
        <time>2017-11-19T08:57:39Z</time>
      </trkpt>
      <trkpt lat="48.38683" lon="2.53544">
        <ele>91</ele>
        <time>2017-11-19T08:57:41Z</time>
      </trkpt>
      <trkpt lat="48.38683" lon="2.53552">
        <ele>91</ele>
        <time>2017-11-19T08:57:43Z</time>
      </trkpt>
      <trkpt lat="48.38684" lon="2.53559">
        <ele>91</ele>
        <time>2017-11-19T08:57:45Z</time>
      </trkpt>
      <trkpt lat="48.38687" lon="2.53572">
        <ele>91</ele>
        <time>2017-11-19T08:57:49Z</time>
      </trkpt>
      <trkpt lat="48.38689" lon="2.5358">
        <ele>92</ele>
        <time>2017-11-19T08:57:51Z</time>
      </trkpt>
      <trkpt lat="48.38691" lon="2.5359">
        <ele>95</ele>
        <time>2017-11-19T08:57:55Z</time>
      </trkpt>
      <trkpt lat="48.38695" lon="2.53602">
        <ele>96</ele>
        <time>2017-11-19T08:57:59Z</time>
      </trkpt>
      <trkpt lat="48.38698" lon="2.53609">
        <ele>97</ele>
        <time>2017-11-19T08:58:01Z</time>
      </trkpt>
      <trkpt lat="48.387" lon="2.53616">
        <ele>97</ele>
        <time>2017-11-19T08:58:03Z</time>
      </trkpt>
      <trkpt lat="48.38704" lon="2.53629">
        <ele>98</ele>
        <time>2017-11-19T08:58:07Z</time>
      </trkpt>
      <trkpt lat="48.38707" lon="2.53636">
        <ele>98</ele>
        <time>2017-11-19T08:58:09Z</time>
      </trkpt>
      <trkpt lat="48.38708" lon="2.53643">
        <ele>99</ele>
        <time>2017-11-19T08:58:11Z</time>
      </trkpt>
      <trkpt lat="48.3871" lon="2.53651">
        <ele>99</ele>
        <time>2017-11-19T08:58:13Z</time>
      </trkpt>
      <trkpt lat="48.38712" lon="2.53658">
        <ele>99</ele>
        <time>2017-11-19T08:58:15Z</time>
      </trkpt>
      <trkpt lat="48.38711" lon="2.53665">
        <ele>99</ele>
        <time>2017-11-19T08:58:17Z</time>
      </trkpt>
      <trkpt lat="48.38713" lon="2.53671">
        <ele>103</ele>
        <time>2017-11-19T08:58:19Z</time>
      </trkpt>
      <trkpt lat="48.38712" lon="2.53679">
        <ele>103</ele>
        <time>2017-11-19T08:58:21Z</time>
      </trkpt>
      <trkpt lat="48.38711" lon="2.53687">
        <ele>103</ele>
        <time>2017-11-19T08:58:23Z</time>
      </trkpt>
      <trkpt lat="48.38711" lon="2.53695">
        <ele>103</ele>
        <time>2017-11-19T08:58:25Z</time>
      </trkpt>
      <trkpt lat="48.3871" lon="2.53702">
        <ele>103</ele>
        <time>2017-11-19T08:58:27Z</time>
      </trkpt>
      <trkpt lat="48.38709" lon="2.53713">
        <ele>103</ele>
        <time>2017-11-19T08:58:31Z</time>
      </trkpt>
      <trkpt lat="48.38709" lon="2.53724">
        <ele>104</ele>
        <time>2017-11-19T08:58:35Z</time>
      </trkpt>
      <trkpt lat="48.38713" lon="2.53736">
        <ele>104</ele>
        <time>2017-11-19T08:58:39Z</time>
      </trkpt>
      <trkpt lat="48.38717" lon="2.53743">
        <ele>104</ele>
        <time>2017-11-19T08:58:43Z</time>
      </trkpt>
      <trkpt lat="48.38722" lon="2.53746">
        <ele>104</ele>
        <time>2017-11-19T08:58:47Z</time>
      </trkpt>
      <trkpt lat="48.3873" lon="2.5375">
        <ele>104</ele>
        <time>2017-11-19T08:58:51Z</time>
      </trkpt>
      <trkpt lat="48.38737" lon="2.53756">
        <ele>105</ele>
        <time>2017-11-19T08:58:55Z</time>
      </trkpt>
      <trkpt lat="48.38743" lon="2.5376">
        <ele>105</ele>
        <time>2017-11-19T08:58:59Z</time>
      </trkpt>
      <trkpt lat="48.38747" lon="2.53766">
        <ele>106</ele>
        <time>2017-11-19T08:59:03Z</time>
      </trkpt>
      <trkpt lat="48.38752" lon="2.53774">
        <ele>109</ele>
        <time>2017-11-19T08:59:07Z</time>
      </trkpt>
      <trkpt lat="48.38756" lon="2.53781">
        <ele>109</ele>
        <time>2017-11-19T08:59:11Z</time>
      </trkpt>
      <trkpt lat="48.38759" lon="2.53791">
        <ele>110</ele>
        <time>2017-11-19T08:59:15Z</time>
      </trkpt>
      <trkpt lat="48.38759" lon="2.53803">
        <ele>110</ele>
        <time>2017-11-19T08:59:19Z</time>
      </trkpt>
      <trkpt lat="48.38756" lon="2.53811">
        <ele>110</ele>
        <time>2017-11-19T08:59:23Z</time>
      </trkpt>
      <trkpt lat="48.38749" lon="2.53818">
        <ele>107</ele>
        <time>2017-11-19T08:59:27Z</time>
      </trkpt>
      <trkpt lat="48.38745" lon="2.53822">
        <ele>107</ele>
        <time>2017-11-19T08:59:29Z</time>
      </trkpt>
      <trkpt lat="48.38738" lon="2.53827">
        <ele>107</ele>
        <time>2017-11-19T08:59:33Z</time>
      </trkpt>
      <trkpt lat="48.38731" lon="2.53832">
        <ele>107</ele>
        <time>2017-11-19T08:59:37Z</time>
      </trkpt>
      <trkpt lat="48.38723" lon="2.53831">
        <ele>107</ele>
        <time>2017-11-19T08:59:41Z</time>
      </trkpt>
      <trkpt lat="48.38716" lon="2.53825">
        <ele>108</ele>
        <time>2017-11-19T08:59:43Z</time>
      </trkpt>
      <trkpt lat="48.38712" lon="2.53816">
        <ele>108</ele>
        <time>2017-11-19T08:59:45Z</time>
      </trkpt>
      <trkpt lat="48.38707" lon="2.53806">
        <ele>108</ele>
        <time>2017-11-19T08:59:47Z</time>
      </trkpt>
      <trkpt lat="48.38701" lon="2.53796">
        <ele>108</ele>
        <time>2017-11-19T08:59:49Z</time>
      </trkpt>
      <trkpt lat="48.38693" lon="2.53789">
        <ele>108</ele>
        <time>2017-11-19T08:59:51Z</time>
      </trkpt>
      <trkpt lat="48.38685" lon="2.53785">
        <ele>108</ele>
        <time>2017-11-19T08:59:53Z</time>
      </trkpt>
      <trkpt lat="48.38676" lon="2.53786">
        <ele>108</ele>
        <time>2017-11-19T08:59:55Z</time>
      </trkpt>
      <trkpt lat="48.3867" lon="2.53787">
        <ele>108</ele>
        <time>2017-11-19T08:59:57Z</time>
      </trkpt>
      <trkpt lat="48.38666" lon="2.53793">
        <ele>111</ele>
        <time>2017-11-19T08:59:59Z</time>
      </trkpt>
      <trkpt lat="48.38663" lon="2.53799">
        <ele>111</ele>
        <time>2017-11-19T09:00:01Z</time>
      </trkpt>
      <trkpt lat="48.38659" lon="2.53804">
        <ele>111</ele>
        <time>2017-11-19T09:00:03Z</time>
      </trkpt>
      <trkpt lat="48.38656" lon="2.53812">
        <ele>111</ele>
        <time>2017-11-19T09:00:05Z</time>
      </trkpt>
      <trkpt lat="48.38654" lon="2.5382">
        <ele>112</ele>
        <time>2017-11-19T09:00:07Z</time>
      </trkpt>
      <trkpt lat="48.38651" lon="2.53827">
        <ele>112</ele>
        <time>2017-11-19T09:00:09Z</time>
      </trkpt>
      <trkpt lat="48.38649" lon="2.53834">
        <ele>113</ele>
        <time>2017-11-19T09:00:11Z</time>
      </trkpt>
      <trkpt lat="48.38647" lon="2.53842">
        <ele>113</ele>
        <time>2017-11-19T09:00:13Z</time>
      </trkpt>
      <trkpt lat="48.38643" lon="2.53848">
        <ele>114</ele>
        <time>2017-11-19T09:00:15Z</time>
      </trkpt>
      <trkpt lat="48.38641" lon="2.53855">
        <ele>114</ele>
        <time>2017-11-19T09:00:17Z</time>
      </trkpt>
      <trkpt lat="48.38638" lon="2.53862">
        <ele>114</ele>
        <time>2017-11-19T09:00:19Z</time>
      </trkpt>
      <trkpt lat="48.38637" lon="2.5387">
        <ele>114</ele>
        <time>2017-11-19T09:00:21Z</time>
      </trkpt>
      <trkpt lat="48.38634" lon="2.53877">
        <ele>115</ele>
        <time>2017-11-19T09:00:23Z</time>
      </trkpt>
      <trkpt lat="48.38633" lon="2.53886">
        <ele>115</ele>
        <time>2017-11-19T09:00:25Z</time>
      </trkpt>
      <trkpt lat="48.38631" lon="2.53894">
        <ele>115</ele>
        <time>2017-11-19T09:00:27Z</time>
      </trkpt>
      <trkpt lat="48.3863" lon="2.53902">
        <ele>115</ele>
        <time>2017-11-19T09:00:29Z</time>
      </trkpt>
      <trkpt lat="48.3863" lon="2.5391">
        <ele>115</ele>
        <time>2017-11-19T09:00:31Z</time>
      </trkpt>
      <trkpt lat="48.38628" lon="2.53925">
        <ele>116</ele>
        <time>2017-11-19T09:00:35Z</time>
      </trkpt>
      <trkpt lat="48.38626" lon="2.53933">
        <ele>116</ele>
        <time>2017-11-19T09:00:37Z</time>
      </trkpt>
      <trkpt lat="48.38623" lon="2.53943">
        <ele>116</ele>
        <time>2017-11-19T09:00:39Z</time>
      </trkpt>
      <trkpt lat="48.3862" lon="2.5395">
        <ele>116</ele>
        <time>2017-11-19T09:00:41Z</time>
      </trkpt>
      <trkpt lat="48.38617" lon="2.53955">
        <ele>117</ele>
        <time>2017-11-19T09:00:43Z</time>
      </trkpt>
      <trkpt lat="48.38614" lon="2.53961">
        <ele>117</ele>
        <time>2017-11-19T09:00:45Z</time>
      </trkpt>
      <trkpt lat="48.38611" lon="2.53968">
        <ele>117</ele>
        <time>2017-11-19T09:00:47Z</time>
      </trkpt>
      <trkpt lat="48.38608" lon="2.53976">
        <ele>117</ele>
        <time>2017-11-19T09:00:49Z</time>
      </trkpt>
      <trkpt lat="48.38605" lon="2.53982">
        <ele>117</ele>
        <time>2017-11-19T09:00:51Z</time>
      </trkpt>
      <trkpt lat="48.38604" lon="2.5399">
        <ele>117</ele>
        <time>2017-11-19T09:00:53Z</time>
      </trkpt>
      <trkpt lat="48.38602" lon="2.53998">
        <ele>117</ele>
        <time>2017-11-19T09:00:55Z</time>
      </trkpt>
      <trkpt lat="48.38601" lon="2.54005">
        <ele>118</ele>
        <time>2017-11-19T09:00:57Z</time>
      </trkpt>
      <trkpt lat="48.38599" lon="2.54013">
        <ele>118</ele>
        <time>2017-11-19T09:00:59Z</time>
      </trkpt>
      <trkpt lat="48.38595" lon="2.54026">
        <ele>118</ele>
        <time>2017-11-19T09:01:03Z</time>
      </trkpt>
      <trkpt lat="48.38591" lon="2.54035">
        <ele>118</ele>
        <time>2017-11-19T09:01:05Z</time>
      </trkpt>
      <trkpt lat="48.38589" lon="2.54047">
        <ele>117</ele>
        <time>2017-11-19T09:01:07Z</time>
      </trkpt>
      <trkpt lat="48.38586" lon="2.54055">
        <ele>117</ele>
        <time>2017-11-19T09:01:09Z</time>
      </trkpt>
      <trkpt lat="48.38583" lon="2.54062">
        <ele>118</ele>
        <time>2017-11-19T09:01:11Z</time>
      </trkpt>
      <trkpt lat="48.38578" lon="2.54067">
        <ele>118</ele>
        <time>2017-11-19T09:01:13Z</time>
      </trkpt>
      <trkpt lat="48.38573" lon="2.54074">
        <ele>118</ele>
        <time>2017-11-19T09:01:15Z</time>
      </trkpt>
      <trkpt lat="48.38568" lon="2.5408">
        <ele>118</ele>
        <time>2017-11-19T09:01:17Z</time>
      </trkpt>
      <trkpt lat="48.38564" lon="2.54088">
        <ele>118</ele>
        <time>2017-11-19T09:01:19Z</time>
      </trkpt>
      <trkpt lat="48.3856" lon="2.54097">
        <ele>118</ele>
        <time>2017-11-19T09:01:21Z</time>
      </trkpt>
      <trkpt lat="48.38555" lon="2.54107">
        <ele>119</ele>
        <time>2017-11-19T09:01:23Z</time>
      </trkpt>
      <trkpt lat="48.38552" lon="2.54118">
        <ele>119</ele>
        <time>2017-11-19T09:01:25Z</time>
      </trkpt>
      <trkpt lat="48.38546" lon="2.54127">
        <ele>119</ele>
        <time>2017-11-19T09:01:27Z</time>
      </trkpt>
      <trkpt lat="48.38543" lon="2.54136">
        <ele>119</ele>
        <time>2017-11-19T09:01:29Z</time>
      </trkpt>
      <trkpt lat="48.38538" lon="2.54147">
        <ele>119</ele>
        <time>2017-11-19T09:01:31Z</time>
      </trkpt>
      <trkpt lat="48.38534" lon="2.54156">
        <ele>119</ele>
        <time>2017-11-19T09:01:33Z</time>
      </trkpt>
      <trkpt lat="48.38531" lon="2.54165">
        <ele>118</ele>
        <time>2017-11-19T09:01:35Z</time>
      </trkpt>
      <trkpt lat="48.38528" lon="2.54172">
        <ele>118</ele>
        <time>2017-11-19T09:01:37Z</time>
      </trkpt>
      <trkpt lat="48.38525" lon="2.5418">
        <ele>118</ele>
        <time>2017-11-19T09:01:39Z</time>
      </trkpt>
      <trkpt lat="48.38522" lon="2.54187">
        <ele>118</ele>
        <time>2017-11-19T09:01:41Z</time>
      </trkpt>
      <trkpt lat="48.3852" lon="2.54196">
        <ele>118</ele>
        <time>2017-11-19T09:01:43Z</time>
      </trkpt>
      <trkpt lat="48.38519" lon="2.54207">
        <ele>118</ele>
        <time>2017-11-19T09:01:45Z</time>
      </trkpt>
      <trkpt lat="48.3852" lon="2.54219">
        <ele>118</ele>
        <time>2017-11-19T09:01:47Z</time>
      </trkpt>
      <trkpt lat="48.38521" lon="2.54232">
        <ele>118</ele>
        <time>2017-11-19T09:01:49Z</time>
      </trkpt>
      <trkpt lat="48.38521" lon="2.54244">
        <ele>118</ele>
        <time>2017-11-19T09:01:51Z</time>
      </trkpt>
      <trkpt lat="48.3852" lon="2.54254">
        <ele>118</ele>
        <time>2017-11-19T09:01:53Z</time>
      </trkpt>
      <trkpt lat="48.38521" lon="2.54267">
        <ele>118</ele>
        <time>2017-11-19T09:01:55Z</time>
      </trkpt>
      <trkpt lat="48.38522" lon="2.54278">
        <ele>118</ele>
        <time>2017-11-19T09:01:57Z</time>
      </trkpt>
      <trkpt lat="48.3852" lon="2.54289">
        <ele>119</ele>
        <time>2017-11-19T09:01:59Z</time>
      </trkpt>
      <trkpt lat="48.3852" lon="2.54302">
        <ele>119</ele>
        <time>2017-11-19T09:02:01Z</time>
      </trkpt>
      <trkpt lat="48.38518" lon="2.54314">
        <ele>119</ele>
        <time>2017-11-19T09:02:03Z</time>
      </trkpt>
      <trkpt lat="48.38517" lon="2.54329">
        <ele>119</ele>
        <time>2017-11-19T09:02:05Z</time>
      </trkpt>
      <trkpt lat="48.38518" lon="2.54345">
        <ele>119</ele>
        <time>2017-11-19T09:02:07Z</time>
      </trkpt>
      <trkpt lat="48.38518" lon="2.54362">
        <ele>119</ele>
        <time>2017-11-19T09:02:09Z</time>
      </trkpt>
      <trkpt lat="48.38518" lon="2.54377">
        <ele>119</ele>
        <time>2017-11-19T09:02:11Z</time>
      </trkpt>
      <trkpt lat="48.38521" lon="2.54391">
        <ele>119</ele>
        <time>2017-11-19T09:02:13Z</time>
      </trkpt>
      <trkpt lat="48.38521" lon="2.54406">
        <ele>119</ele>
        <time>2017-11-19T09:02:15Z</time>
      </trkpt>
      <trkpt lat="48.3852" lon="2.54421">
        <ele>118</ele>
        <time>2017-11-19T09:02:17Z</time>
      </trkpt>
      <trkpt lat="48.38517" lon="2.54435">
        <ele>118</ele>
        <time>2017-11-19T09:02:19Z</time>
      </trkpt>
      <trkpt lat="48.38516" lon="2.54447">
        <ele>118</ele>
        <time>2017-11-19T09:02:21Z</time>
      </trkpt>
      <trkpt lat="48.38512" lon="2.54458">
        <ele>118</ele>
        <time>2017-11-19T09:02:23Z</time>
      </trkpt>
      <trkpt lat="48.38512" lon="2.54472">
        <ele>118</ele>
        <time>2017-11-19T09:02:25Z</time>
      </trkpt>
      <trkpt lat="48.3851" lon="2.54483">
        <ele>118</ele>
        <time>2017-11-19T09:02:27Z</time>
      </trkpt>
      <trkpt lat="48.3851" lon="2.54494">
        <ele>118</ele>
        <time>2017-11-19T09:02:29Z</time>
      </trkpt>
      <trkpt lat="48.38508" lon="2.54505">
        <ele>118</ele>
        <time>2017-11-19T09:02:31Z</time>
      </trkpt>
      <trkpt lat="48.38506" lon="2.54515">
        <ele>118</ele>
        <time>2017-11-19T09:02:33Z</time>
      </trkpt>
      <trkpt lat="48.38504" lon="2.54524">
        <ele>118</ele>
        <time>2017-11-19T09:02:35Z</time>
      </trkpt>
      <trkpt lat="48.38501" lon="2.54533">
        <ele>118</ele>
        <time>2017-11-19T09:02:37Z</time>
      </trkpt>
      <trkpt lat="48.38497" lon="2.54541">
        <ele>119</ele>
        <time>2017-11-19T09:02:39Z</time>
      </trkpt>
      <trkpt lat="48.38493" lon="2.54548">
        <ele>119</ele>
        <time>2017-11-19T09:02:41Z</time>
      </trkpt>
      <trkpt lat="48.38491" lon="2.54557">
        <ele>119</ele>
        <time>2017-11-19T09:02:43Z</time>
      </trkpt>
      <trkpt lat="48.38486" lon="2.54565">
        <ele>119</ele>
        <time>2017-11-19T09:02:45Z</time>
      </trkpt>
      <trkpt lat="48.38484" lon="2.54571">
        <ele>119</ele>
        <time>2017-11-19T09:02:47Z</time>
      </trkpt>
      <trkpt lat="48.3848" lon="2.54577">
        <ele>119</ele>
        <time>2017-11-19T09:02:49Z</time>
      </trkpt>
      <trkpt lat="48.38472" lon="2.54582">
        <ele>119</ele>
        <time>2017-11-19T09:02:51Z</time>
      </trkpt>
      <trkpt lat="48.38464" lon="2.5458">
        <ele>119</ele>
        <time>2017-11-19T09:02:53Z</time>
      </trkpt>
      <trkpt lat="48.38455" lon="2.5458">
        <ele>119</ele>
        <time>2017-11-19T09:02:55Z</time>
      </trkpt>
      <trkpt lat="48.38446" lon="2.54583">
        <ele>119</ele>
        <time>2017-11-19T09:02:57Z</time>
      </trkpt>
      <trkpt lat="48.38438" lon="2.5459">
        <ele>119</ele>
        <time>2017-11-19T09:02:59Z</time>
      </trkpt>
      <trkpt lat="48.38431" lon="2.54599">
        <ele>119</ele>
        <time>2017-11-19T09:03:01Z</time>
      </trkpt>
      <trkpt lat="48.38423" lon="2.54607">
        <ele>119</ele>
        <time>2017-11-19T09:03:03Z</time>
      </trkpt>
      <trkpt lat="48.38413" lon="2.54611">
        <ele>119</ele>
        <time>2017-11-19T09:03:05Z</time>
      </trkpt>
      <trkpt lat="48.38404" lon="2.54615">
        <ele>118</ele>
        <time>2017-11-19T09:03:07Z</time>
      </trkpt>
      <trkpt lat="48.38395" lon="2.54617">
        <ele>118</ele>
        <time>2017-11-19T09:03:09Z</time>
      </trkpt>
      <trkpt lat="48.38387" lon="2.54618">
        <ele>118</ele>
        <time>2017-11-19T09:03:11Z</time>
      </trkpt>
      <trkpt lat="48.38381" lon="2.54618">
        <ele>118</ele>
        <time>2017-11-19T09:03:13Z</time>
      </trkpt>
      <trkpt lat="48.38374" lon="2.54623">
        <ele>118</ele>
        <time>2017-11-19T09:03:15Z</time>
      </trkpt>
      <trkpt lat="48.38366" lon="2.54629">
        <ele>118</ele>
        <time>2017-11-19T09:03:17Z</time>
      </trkpt>
      <trkpt lat="48.38358" lon="2.54634">
        <ele>118</ele>
        <time>2017-11-19T09:03:19Z</time>
      </trkpt>
      <trkpt lat="48.38351" lon="2.54637">
        <ele>118</ele>
        <time>2017-11-19T09:03:21Z</time>
      </trkpt>
      <trkpt lat="48.38343" lon="2.5464">
        <ele>118</ele>
        <time>2017-11-19T09:03:23Z</time>
      </trkpt>
      <trkpt lat="48.38337" lon="2.54643">
        <ele>118</ele>
        <time>2017-11-19T09:03:25Z</time>
      </trkpt>
      <trkpt lat="48.3833" lon="2.54646">
        <ele>118</ele>
        <time>2017-11-19T09:03:27Z</time>
      </trkpt>
      <trkpt lat="48.38322" lon="2.5465">
        <ele>118</ele>
        <time>2017-11-19T09:03:29Z</time>
      </trkpt>
      <trkpt lat="48.38313" lon="2.54652">
        <ele>118</ele>
        <time>2017-11-19T09:03:31Z</time>
      </trkpt>
      <trkpt lat="48.38306" lon="2.54653">
        <ele>118</ele>
        <time>2017-11-19T09:03:33Z</time>
      </trkpt>
      <trkpt lat="48.38297" lon="2.54654">
        <ele>118</ele>
        <time>2017-11-19T09:03:35Z</time>
      </trkpt>
      <trkpt lat="48.38288" lon="2.54659">
        <ele>118</ele>
        <time>2017-11-19T09:03:37Z</time>
      </trkpt>
      <trkpt lat="48.38277" lon="2.54665">
        <ele>119</ele>
        <time>2017-11-19T09:03:39Z</time>
      </trkpt>
      <trkpt lat="48.38266" lon="2.54671">
        <ele>119</ele>
        <time>2017-11-19T09:03:41Z</time>
      </trkpt>
      <trkpt lat="48.38255" lon="2.54678">
        <ele>119</ele>
        <time>2017-11-19T09:03:43Z</time>
      </trkpt>
      <trkpt lat="48.38241" lon="2.54683">
        <ele>118</ele>
        <time>2017-11-19T09:03:45Z</time>
      </trkpt>
      <trkpt lat="48.38228" lon="2.54688">
        <ele>118</ele>
        <time>2017-11-19T09:03:47Z</time>
      </trkpt>
      <trkpt lat="48.38216" lon="2.54696">
        <ele>117</ele>
        <time>2017-11-19T09:03:49Z</time>
      </trkpt>
      <trkpt lat="48.38206" lon="2.54709">
        <ele>117</ele>
        <time>2017-11-19T09:03:51Z</time>
      </trkpt>
      <trkpt lat="48.38193" lon="2.5472">
        <ele>116</ele>
        <time>2017-11-19T09:03:53Z</time>
      </trkpt>
      <trkpt lat="48.3818" lon="2.54731">
        <ele>115</ele>
        <time>2017-11-19T09:03:55Z</time>
      </trkpt>
      <trkpt lat="48.38171" lon="2.54744">
        <ele>114</ele>
        <time>2017-11-19T09:03:57Z</time>
      </trkpt>
      <trkpt lat="48.38162" lon="2.54757">
        <ele>113</ele>
        <time>2017-11-19T09:03:59Z</time>
      </trkpt>
      <trkpt lat="48.38155" lon="2.54769">
        <ele>114</ele>
        <time>2017-11-19T09:04:01Z</time>
      </trkpt>
      <trkpt lat="48.38149" lon="2.54779">
        <ele>114</ele>
        <time>2017-11-19T09:04:03Z</time>
      </trkpt>
      <trkpt lat="48.38146" lon="2.5479">
        <ele>114</ele>
        <time>2017-11-19T09:04:05Z</time>
      </trkpt>
      <trkpt lat="48.38143" lon="2.54801">
        <ele>114</ele>
        <time>2017-11-19T09:04:07Z</time>
      </trkpt>
      <trkpt lat="48.38138" lon="2.54811">
        <ele>114</ele>
        <time>2017-11-19T09:04:09Z</time>
      </trkpt>
      <trkpt lat="48.38135" lon="2.54823">
        <ele>114</ele>
        <time>2017-11-19T09:04:11Z</time>
      </trkpt>
      <trkpt lat="48.38131" lon="2.54839">
        <ele>113</ele>
        <time>2017-11-19T09:04:13Z</time>
      </trkpt>
      <trkpt lat="48.38126" lon="2.54852">
        <ele>113</ele>
        <time>2017-11-19T09:04:15Z</time>
      </trkpt>
      <trkpt lat="48.38123" lon="2.54867">
        <ele>113</ele>
        <time>2017-11-19T09:04:17Z</time>
      </trkpt>
      <trkpt lat="48.38118" lon="2.54883">
        <ele>113</ele>
        <time>2017-11-19T09:04:19Z</time>
      </trkpt>
      <trkpt lat="48.38113" lon="2.54898">
        <ele>112</ele>
        <time>2017-11-19T09:04:21Z</time>
      </trkpt>
      <trkpt lat="48.38109" lon="2.54914">
        <ele>112</ele>
        <time>2017-11-19T09:04:23Z</time>
      </trkpt>
      <trkpt lat="48.38104" lon="2.54928">
        <ele>112</ele>
        <time>2017-11-19T09:04:25Z</time>
      </trkpt>
      <trkpt lat="48.38095" lon="2.54937">
        <ele>111</ele>
        <time>2017-11-19T09:04:27Z</time>
      </trkpt>
      <trkpt lat="48.38087" lon="2.54937">
        <ele>111</ele>
        <time>2017-11-19T09:04:29Z</time>
      </trkpt>
      <trkpt lat="48.3808" lon="2.54932">
        <ele>111</ele>
        <time>2017-11-19T09:04:31Z</time>
      </trkpt>
      <trkpt lat="48.38074" lon="2.54923">
        <ele>111</ele>
        <time>2017-11-19T09:04:33Z</time>
      </trkpt>
      <trkpt lat="48.38072" lon="2.54914">
        <ele>111</ele>
        <time>2017-11-19T09:04:35Z</time>
      </trkpt>
      <trkpt lat="48.38069" lon="2.54906">
        <ele>111</ele>
        <time>2017-11-19T09:04:37Z</time>
      </trkpt>
      <trkpt lat="48.38067" lon="2.54899">
        <ele>112</ele>
        <time>2017-11-19T09:04:39Z</time>
      </trkpt>
      <trkpt lat="48.38064" lon="2.54891">
        <ele>112</ele>
        <time>2017-11-19T09:04:41Z</time>
      </trkpt>
      <trkpt lat="48.38061" lon="2.54883">
        <ele>112</ele>
        <time>2017-11-19T09:04:43Z</time>
      </trkpt>
      <trkpt lat="48.38056" lon="2.54876">
        <ele>112</ele>
        <time>2017-11-19T09:04:45Z</time>
      </trkpt>
      <trkpt lat="48.38051" lon="2.54867">
        <ele>112</ele>
        <time>2017-11-19T09:04:47Z</time>
      </trkpt>
      <trkpt lat="48.38047" lon="2.54858">
        <ele>112</ele>
        <time>2017-11-19T09:04:49Z</time>
      </trkpt>
      <trkpt lat="48.38045" lon="2.54849">
        <ele>112</ele>
        <time>2017-11-19T09:04:51Z</time>
      </trkpt>
      <trkpt lat="48.38043" lon="2.54841">
        <ele>112</ele>
        <time>2017-11-19T09:04:53Z</time>
      </trkpt>
      <trkpt lat="48.38042" lon="2.54831">
        <ele>112</ele>
        <time>2017-11-19T09:04:55Z</time>
      </trkpt>
      <trkpt lat="48.38042" lon="2.54819">
        <ele>112</ele>
        <time>2017-11-19T09:04:57Z</time>
      </trkpt>
      <trkpt lat="48.38039" lon="2.54808">
        <ele>112</ele>
        <time>2017-11-19T09:04:59Z</time>
      </trkpt>
      <trkpt lat="48.38032" lon="2.54799">
        <ele>112</ele>
        <time>2017-11-19T09:05:01Z</time>
      </trkpt>
      <trkpt lat="48.38023" lon="2.54794">
        <ele>112</ele>
        <time>2017-11-19T09:05:03Z</time>
      </trkpt>
      <trkpt lat="48.38017" lon="2.54792">
        <ele>112</ele>
        <time>2017-11-19T09:05:05Z</time>
      </trkpt>
      <trkpt lat="48.38008" lon="2.54784">
        <ele>112</ele>
        <time>2017-11-19T09:05:07Z</time>
      </trkpt>
      <trkpt lat="48.38004" lon="2.54765">
        <ele>112</ele>
        <time>2017-11-19T09:05:09Z</time>
      </trkpt>
      <trkpt lat="48.38002" lon="2.54742">
        <ele>111</ele>
        <time>2017-11-19T09:05:11Z</time>
      </trkpt>
      <trkpt lat="48.38003" lon="2.54719">
        <ele>112</ele>
        <time>2017-11-19T09:05:13Z</time>
      </trkpt>
      <trkpt lat="48.38007" lon="2.54696">
        <ele>111</ele>
        <time>2017-11-19T09:05:15Z</time>
      </trkpt>
      <trkpt lat="48.38009" lon="2.54677">
        <ele>110</ele>
        <time>2017-11-19T09:05:17Z</time>
      </trkpt>
      <trkpt lat="48.38011" lon="2.54659">
        <ele>109</ele>
        <time>2017-11-19T09:05:19Z</time>
      </trkpt>
      <trkpt lat="48.38014" lon="2.54642">
        <ele>108</ele>
        <time>2017-11-19T09:05:21Z</time>
      </trkpt>
      <trkpt lat="48.38019" lon="2.54622">
        <ele>108</ele>
        <time>2017-11-19T09:05:23Z</time>
      </trkpt>
      <trkpt lat="48.38021" lon="2.54601">
        <ele>106</ele>
        <time>2017-11-19T09:05:25Z</time>
      </trkpt>
      <trkpt lat="48.38022" lon="2.54578">
        <ele>101</ele>
        <time>2017-11-19T09:05:27Z</time>
      </trkpt>
      <trkpt lat="48.38025" lon="2.54555">
        <ele>99</ele>
        <time>2017-11-19T09:05:29Z</time>
      </trkpt>
      <trkpt lat="48.38028" lon="2.54532">
        <ele>97</ele>
        <time>2017-11-19T09:05:31Z</time>
      </trkpt>
      <trkpt lat="48.38028" lon="2.5451">
        <ele>96</ele>
        <time>2017-11-19T09:05:33Z</time>
      </trkpt>
      <trkpt lat="48.38026" lon="2.54486">
        <ele>88</ele>
        <time>2017-11-19T09:05:35Z</time>
      </trkpt>
      <trkpt lat="48.38024" lon="2.54464">
        <ele>87</ele>
        <time>2017-11-19T09:05:37Z</time>
      </trkpt>
      <trkpt lat="48.3802" lon="2.54445">
        <ele>85</ele>
        <time>2017-11-19T09:05:39Z</time>
      </trkpt>
      <trkpt lat="48.38014" lon="2.54426">
        <ele>83</ele>
        <time>2017-11-19T09:05:41Z</time>
      </trkpt>
      <trkpt lat="48.38004" lon="2.54411">
        <ele>80</ele>
        <time>2017-11-19T09:05:43Z</time>
      </trkpt>
      <trkpt lat="48.37995" lon="2.54394">
        <ele>79</ele>
        <time>2017-11-19T09:05:45Z</time>
      </trkpt>
      <trkpt lat="48.37987" lon="2.54374">
        <ele>79</ele>
        <time>2017-11-19T09:05:47Z</time>
      </trkpt>
      <trkpt lat="48.37984" lon="2.54355">
        <ele>78</ele>
        <time>2017-11-19T09:05:49Z</time>
      </trkpt>
      <trkpt lat="48.37983" lon="2.54336">
        <ele>77</ele>
        <time>2017-11-19T09:05:51Z</time>
      </trkpt>
      <trkpt lat="48.37983" lon="2.54317">
        <ele>76</ele>
        <time>2017-11-19T09:05:53Z</time>
      </trkpt>
      <trkpt lat="48.37981" lon="2.54299">
        <ele>76</ele>
        <time>2017-11-19T09:05:55Z</time>
      </trkpt>
      <trkpt lat="48.37979" lon="2.54284">
        <ele>76</ele>
        <time>2017-11-19T09:05:57Z</time>
      </trkpt>
      <trkpt lat="48.37974" lon="2.54273">
        <ele>76</ele>
        <time>2017-11-19T09:05:59Z</time>
      </trkpt>
      <trkpt lat="48.37967" lon="2.54263">
        <ele>76</ele>
        <time>2017-11-19T09:06:01Z</time>
      </trkpt>
      <trkpt lat="48.37958" lon="2.54251">
        <ele>75</ele>
        <time>2017-11-19T09:06:03Z</time>
      </trkpt>
      <trkpt lat="48.3795" lon="2.54239">
        <ele>74</ele>
        <time>2017-11-19T09:06:05Z</time>
      </trkpt>
      <trkpt lat="48.3794" lon="2.54228">
        <ele>74</ele>
        <time>2017-11-19T09:06:07Z</time>
      </trkpt>
      <trkpt lat="48.37931" lon="2.54217">
        <ele>74</ele>
        <time>2017-11-19T09:06:09Z</time>
      </trkpt>
      <trkpt lat="48.37921" lon="2.54205">
        <ele>74</ele>
        <time>2017-11-19T09:06:11Z</time>
      </trkpt>
      <trkpt lat="48.37913" lon="2.54192">
        <ele>74</ele>
        <time>2017-11-19T09:06:13Z</time>
      </trkpt>
      <trkpt lat="48.37905" lon="2.54178">
        <ele>74</ele>
        <time>2017-11-19T09:06:15Z</time>
      </trkpt>
      <trkpt lat="48.37897" lon="2.54164">
        <ele>73</ele>
        <time>2017-11-19T09:06:17Z</time>
      </trkpt>
      <trkpt lat="48.37888" lon="2.5415">
        <ele>74</ele>
        <time>2017-11-19T09:06:19Z</time>
      </trkpt>
      <trkpt lat="48.37876" lon="2.54142">
        <ele>74</ele>
        <time>2017-11-19T09:06:21Z</time>
      </trkpt>
      <trkpt lat="48.37866" lon="2.54133">
        <ele>74</ele>
        <time>2017-11-19T09:06:23Z</time>
      </trkpt>
      <trkpt lat="48.37856" lon="2.54126">
        <ele>74</ele>
        <time>2017-11-19T09:06:25Z</time>
      </trkpt>
      <trkpt lat="48.37847" lon="2.54117">
        <ele>74</ele>
        <time>2017-11-19T09:06:27Z</time>
      </trkpt>
      <trkpt lat="48.37836" lon="2.54112">
        <ele>74</ele>
        <time>2017-11-19T09:06:29Z</time>
      </trkpt>
      <trkpt lat="48.37825" lon="2.54107">
        <ele>75</ele>
        <time>2017-11-19T09:06:31Z</time>
      </trkpt>
      <trkpt lat="48.37814" lon="2.54103">
        <ele>75</ele>
        <time>2017-11-19T09:06:33Z</time>
      </trkpt>
      <trkpt lat="48.37805" lon="2.54096">
        <ele>75</ele>
        <time>2017-11-19T09:06:35Z</time>
      </trkpt>
      <trkpt lat="48.37798" lon="2.54088">
        <ele>75</ele>
        <time>2017-11-19T09:06:37Z</time>
      </trkpt>
      <trkpt lat="48.37791" lon="2.54082">
        <ele>76</ele>
        <time>2017-11-19T09:06:39Z</time>
      </trkpt>
      <trkpt lat="48.37783" lon="2.54077">
        <ele>76</ele>
        <time>2017-11-19T09:06:41Z</time>
      </trkpt>
      <trkpt lat="48.37776" lon="2.5407">
        <ele>76</ele>
        <time>2017-11-19T09:06:43Z</time>
      </trkpt>
      <trkpt lat="48.3777" lon="2.54064">
        <ele>76</ele>
        <time>2017-11-19T09:06:45Z</time>
      </trkpt>
      <trkpt lat="48.37764" lon="2.54059">
        <ele>76</ele>
        <time>2017-11-19T09:06:47Z</time>
      </trkpt>
      <trkpt lat="48.37758" lon="2.54052">
        <ele>76</ele>
        <time>2017-11-19T09:06:49Z</time>
      </trkpt>
      <trkpt lat="48.37752" lon="2.54044">
        <ele>76</ele>
        <time>2017-11-19T09:06:51Z</time>
      </trkpt>
      <trkpt lat="48.37746" lon="2.54036">
        <ele>79</ele>
        <time>2017-11-19T09:06:53Z</time>
      </trkpt>
      <trkpt lat="48.37741" lon="2.54027">
        <ele>79</ele>
        <time>2017-11-19T09:06:55Z</time>
      </trkpt>
      <trkpt lat="48.37736" lon="2.54022">
        <ele>79</ele>
        <time>2017-11-19T09:06:57Z</time>
      </trkpt>
      <trkpt lat="48.3773" lon="2.5402">
        <ele>79</ele>
        <time>2017-11-19T09:06:59Z</time>
      </trkpt>
      <trkpt lat="48.37725" lon="2.54014">
        <ele>80</ele>
        <time>2017-11-19T09:07:01Z</time>
      </trkpt>
      <trkpt lat="48.3772" lon="2.54006">
        <ele>80</ele>
        <time>2017-11-19T09:07:03Z</time>
      </trkpt>
      <trkpt lat="48.37714" lon="2.53999">
        <ele>80</ele>
        <time>2017-11-19T09:07:05Z</time>
      </trkpt>
      <trkpt lat="48.37708" lon="2.53991">
        <ele>81</ele>
        <time>2017-11-19T09:07:07Z</time>
      </trkpt>
      <trkpt lat="48.37703" lon="2.53982">
        <ele>81</ele>
        <time>2017-11-19T09:07:09Z</time>
      </trkpt>
      <trkpt lat="48.37698" lon="2.53971">
        <ele>81</ele>
        <time>2017-11-19T09:07:11Z</time>
      </trkpt>
      <trkpt lat="48.37693" lon="2.53959">
        <ele>81</ele>
        <time>2017-11-19T09:07:13Z</time>
      </trkpt>
      <trkpt lat="48.37689" lon="2.53948">
        <ele>81</ele>
        <time>2017-11-19T09:07:15Z</time>
      </trkpt>
      <trkpt lat="48.37686" lon="2.53934">
        <ele>81</ele>
        <time>2017-11-19T09:07:17Z</time>
      </trkpt>
      <trkpt lat="48.37683" lon="2.5392">
        <ele>81</ele>
        <time>2017-11-19T09:07:19Z</time>
      </trkpt>
      <trkpt lat="48.37678" lon="2.53908">
        <ele>81</ele>
        <time>2017-11-19T09:07:21Z</time>
      </trkpt>
      <trkpt lat="48.37671" lon="2.53896">
        <ele>81</ele>
        <time>2017-11-19T09:07:23Z</time>
      </trkpt>
      <trkpt lat="48.37665" lon="2.53883">
        <ele>82</ele>
        <time>2017-11-19T09:07:25Z</time>
      </trkpt>
      <trkpt lat="48.37659" lon="2.53871">
        <ele>81</ele>
        <time>2017-11-19T09:07:27Z</time>
      </trkpt>
      <trkpt lat="48.37652" lon="2.53859">
        <ele>81</ele>
        <time>2017-11-19T09:07:29Z</time>
      </trkpt>
      <trkpt lat="48.37645" lon="2.53847">
        <ele>81</ele>
        <time>2017-11-19T09:07:31Z</time>
      </trkpt>
      <trkpt lat="48.37638" lon="2.53835">
        <ele>81</ele>
        <time>2017-11-19T09:07:33Z</time>
      </trkpt>
      <trkpt lat="48.3763" lon="2.53825">
        <ele>80</ele>
        <time>2017-11-19T09:07:35Z</time>
      </trkpt>
      <trkpt lat="48.37621" lon="2.53816">
        <ele>80</ele>
        <time>2017-11-19T09:07:37Z</time>
      </trkpt>
      <trkpt lat="48.37612" lon="2.53809">
        <ele>80</ele>
        <time>2017-11-19T09:07:39Z</time>
      </trkpt>
      <trkpt lat="48.37604" lon="2.53802">
        <ele>80</ele>
        <time>2017-11-19T09:07:41Z</time>
      </trkpt>
      <trkpt lat="48.37595" lon="2.53797">
        <ele>80</ele>
        <time>2017-11-19T09:07:43Z</time>
      </trkpt>
      <trkpt lat="48.37586" lon="2.53791">
        <ele>80</ele>
        <time>2017-11-19T09:07:45Z</time>
      </trkpt>
      <trkpt lat="48.37576" lon="2.53785">
        <ele>80</ele>
        <time>2017-11-19T09:07:47Z</time>
      </trkpt>
      <trkpt lat="48.37567" lon="2.53778">
        <ele>80</ele>
        <time>2017-11-19T09:07:49Z</time>
      </trkpt>
      <trkpt lat="48.37557" lon="2.53772">
        <ele>80</ele>
        <time>2017-11-19T09:07:51Z</time>
      </trkpt>
      <trkpt lat="48.37547" lon="2.53765">
        <ele>80</ele>
        <time>2017-11-19T09:07:53Z</time>
      </trkpt>
      <trkpt lat="48.37538" lon="2.53757">
        <ele>80</ele>
        <time>2017-11-19T09:07:55Z</time>
      </trkpt>
      <trkpt lat="48.3753" lon="2.53749">
        <ele>79</ele>
        <time>2017-11-19T09:07:57Z</time>
      </trkpt>
      <trkpt lat="48.37521" lon="2.53742">
        <ele>79</ele>
        <time>2017-11-19T09:07:59Z</time>
      </trkpt>
      <trkpt lat="48.37512" lon="2.53736">
        <ele>79</ele>
        <time>2017-11-19T09:08:01Z</time>
      </trkpt>
      <trkpt lat="48.37502" lon="2.53728">
        <ele>79</ele>
        <time>2017-11-19T09:08:03Z</time>
      </trkpt>
      <trkpt lat="48.37492" lon="2.5372">
        <ele>78</ele>
        <time>2017-11-19T09:08:05Z</time>
      </trkpt>
      <trkpt lat="48.37479" lon="2.53713">
        <ele>78</ele>
        <time>2017-11-19T09:08:07Z</time>
      </trkpt>
      <trkpt lat="48.37467" lon="2.53705">
        <ele>77</ele>
        <time>2017-11-19T09:08:09Z</time>
      </trkpt>
      <trkpt lat="48.37456" lon="2.53696">
        <ele>77</ele>
        <time>2017-11-19T09:08:11Z</time>
      </trkpt>
      <trkpt lat="48.37446" lon="2.53686">
        <ele>77</ele>
        <time>2017-11-19T09:08:13Z</time>
      </trkpt>
      <trkpt lat="48.37436" lon="2.53677">
        <ele>76</ele>
        <time>2017-11-19T09:08:15Z</time>
      </trkpt>
      <trkpt lat="48.37426" lon="2.5367">
        <ele>76</ele>
        <time>2017-11-19T09:08:17Z</time>
      </trkpt>
      <trkpt lat="48.37416" lon="2.53664">
        <ele>75</ele>
        <time>2017-11-19T09:08:19Z</time>
      </trkpt>
      <trkpt lat="48.37407" lon="2.53656">
        <ele>75</ele>
        <time>2017-11-19T09:08:21Z</time>
      </trkpt>
      <trkpt lat="48.37401" lon="2.53644">
        <ele>75</ele>
        <time>2017-11-19T09:08:23Z</time>
      </trkpt>
      <trkpt lat="48.37392" lon="2.53635">
        <ele>75</ele>
        <time>2017-11-19T09:08:25Z</time>
      </trkpt>
      <trkpt lat="48.37383" lon="2.53623">
        <ele>75</ele>
        <time>2017-11-19T09:08:27Z</time>
      </trkpt>
      <trkpt lat="48.37377" lon="2.5361">
        <ele>75</ele>
        <time>2017-11-19T09:08:29Z</time>
      </trkpt>
      <trkpt lat="48.3737" lon="2.53596">
        <ele>75</ele>
        <time>2017-11-19T09:08:31Z</time>
      </trkpt>
      <trkpt lat="48.37363" lon="2.53584">
        <ele>75</ele>
        <time>2017-11-19T09:08:33Z</time>
      </trkpt>
      <trkpt lat="48.37356" lon="2.53572">
        <ele>75</ele>
        <time>2017-11-19T09:08:35Z</time>
      </trkpt>
      <trkpt lat="48.37352" lon="2.53557">
        <ele>75</ele>
        <time>2017-11-19T09:08:37Z</time>
      </trkpt>
      <trkpt lat="48.37347" lon="2.53542">
        <ele>75</ele>
        <time>2017-11-19T09:08:39Z</time>
      </trkpt>
      <trkpt lat="48.3734" lon="2.53528">
        <ele>76</ele>
        <time>2017-11-19T09:08:41Z</time>
      </trkpt>
      <trkpt lat="48.37334" lon="2.53514">
        <ele>76</ele>
        <time>2017-11-19T09:08:43Z</time>
      </trkpt>
      <trkpt lat="48.37329" lon="2.53502">
        <ele>76</ele>
        <time>2017-11-19T09:08:45Z</time>
      </trkpt>
      <trkpt lat="48.37324" lon="2.53488">
        <ele>76</ele>
        <time>2017-11-19T09:08:47Z</time>
      </trkpt>
      <trkpt lat="48.37324" lon="2.53473">
        <ele>76</ele>
        <time>2017-11-19T09:08:49Z</time>
      </trkpt>
      <trkpt lat="48.37323" lon="2.53459">
        <ele>76</ele>
        <time>2017-11-19T09:08:51Z</time>
      </trkpt>
      <trkpt lat="48.37319" lon="2.53447">
        <ele>77</ele>
        <time>2017-11-19T09:08:53Z</time>
      </trkpt>
      <trkpt lat="48.37317" lon="2.53434">
        <ele>77</ele>
        <time>2017-11-19T09:08:55Z</time>
      </trkpt>
      <trkpt lat="48.37316" lon="2.5342">
        <ele>77</ele>
        <time>2017-11-19T09:08:57Z</time>
      </trkpt>
      <trkpt lat="48.37313" lon="2.53405">
        <ele>77</ele>
        <time>2017-11-19T09:08:59Z</time>
      </trkpt>
      <trkpt lat="48.37308" lon="2.53392">
        <ele>77</ele>
        <time>2017-11-19T09:09:01Z</time>
      </trkpt>
      <trkpt lat="48.37306" lon="2.53378">
        <ele>76</ele>
        <time>2017-11-19T09:09:03Z</time>
      </trkpt>
      <trkpt lat="48.37304" lon="2.53364">
        <ele>76</ele>
        <time>2017-11-19T09:09:05Z</time>
      </trkpt>
      <trkpt lat="48.37301" lon="2.53348">
        <ele>76</ele>
        <time>2017-11-19T09:09:07Z</time>
      </trkpt>
      <trkpt lat="48.373" lon="2.53333">
        <ele>75</ele>
        <time>2017-11-19T09:09:09Z</time>
      </trkpt>
      <trkpt lat="48.37297" lon="2.53317">
        <ele>75</ele>
        <time>2017-11-19T09:09:11Z</time>
      </trkpt>
      <trkpt lat="48.37294" lon="2.53302">
        <ele>75</ele>
        <time>2017-11-19T09:09:13Z</time>
      </trkpt>
      <trkpt lat="48.37288" lon="2.53288">
        <ele>75</ele>
        <time>2017-11-19T09:09:15Z</time>
      </trkpt>
      <trkpt lat="48.37283" lon="2.53274">
        <ele>75</ele>
        <time>2017-11-19T09:09:17Z</time>
      </trkpt>
      <trkpt lat="48.37278" lon="2.53259">
        <ele>75</ele>
        <time>2017-11-19T09:09:19Z</time>
      </trkpt>
      <trkpt lat="48.37272" lon="2.53245">
        <ele>74</ele>
        <time>2017-11-19T09:09:21Z</time>
      </trkpt>
      <trkpt lat="48.37268" lon="2.53231">
        <ele>74</ele>
        <time>2017-11-19T09:09:23Z</time>
      </trkpt>
      <trkpt lat="48.37265" lon="2.53217">
        <ele>74</ele>
        <time>2017-11-19T09:09:25Z</time>
      </trkpt>
      <trkpt lat="48.37263" lon="2.53201">
        <ele>74</ele>
        <time>2017-11-19T09:09:27Z</time>
      </trkpt>
      <trkpt lat="48.37261" lon="2.53187">
        <ele>74</ele>
        <time>2017-11-19T09:09:29Z</time>
      </trkpt>
      <trkpt lat="48.37257" lon="2.53173">
        <ele>73</ele>
        <time>2017-11-19T09:09:31Z</time>
      </trkpt>
      <trkpt lat="48.37255" lon="2.53158">
        <ele>73</ele>
        <time>2017-11-19T09:09:33Z</time>
      </trkpt>
      <trkpt lat="48.37253" lon="2.53143">
        <ele>73</ele>
        <time>2017-11-19T09:09:35Z</time>
      </trkpt>
      <trkpt lat="48.3725" lon="2.53127">
        <ele>73</ele>
        <time>2017-11-19T09:09:37Z</time>
      </trkpt>
      <trkpt lat="48.37247" lon="2.5311">
        <ele>73</ele>
        <time>2017-11-19T09:09:39Z</time>
      </trkpt>
      <trkpt lat="48.37243" lon="2.53095">
        <ele>73</ele>
        <time>2017-11-19T09:09:41Z</time>
      </trkpt>
      <trkpt lat="48.37237" lon="2.5308">
        <ele>73</ele>
        <time>2017-11-19T09:09:43Z</time>
      </trkpt>
      <trkpt lat="48.3723" lon="2.53065">
        <ele>73</ele>
        <time>2017-11-19T09:09:45Z</time>
      </trkpt>
      <trkpt lat="48.37223" lon="2.53053">
        <ele>74</ele>
        <time>2017-11-19T09:09:47Z</time>
      </trkpt>
      <trkpt lat="48.37213" lon="2.53047">
        <ele>74</ele>
        <time>2017-11-19T09:09:49Z</time>
      </trkpt>
      <trkpt lat="48.37204" lon="2.5304">
        <ele>74</ele>
        <time>2017-11-19T09:09:51Z</time>
      </trkpt>
      <trkpt lat="48.37194" lon="2.53032">
        <ele>74</ele>
        <time>2017-11-19T09:09:53Z</time>
      </trkpt>
      <trkpt lat="48.37185" lon="2.53022">
        <ele>74</ele>
        <time>2017-11-19T09:09:55Z</time>
      </trkpt>
      <trkpt lat="48.37177" lon="2.5301">
        <ele>74</ele>
        <time>2017-11-19T09:09:57Z</time>
      </trkpt>
      <trkpt lat="48.37173" lon="2.52996">
        <ele>75</ele>
        <time>2017-11-19T09:09:59Z</time>
      </trkpt>
      <trkpt lat="48.37169" lon="2.52985">
        <ele>76</ele>
        <time>2017-11-19T09:10:01Z</time>
      </trkpt>
      <trkpt lat="48.37165" lon="2.52973">
        <ele>76</ele>
        <time>2017-11-19T09:10:03Z</time>
      </trkpt>
      <trkpt lat="48.37162" lon="2.52961">
        <ele>77</ele>
        <time>2017-11-19T09:10:05Z</time>
      </trkpt>
      <trkpt lat="48.37155" lon="2.52952">
        <ele>77</ele>
        <time>2017-11-19T09:10:07Z</time>
      </trkpt>
      <trkpt lat="48.37149" lon="2.52941">
        <ele>77</ele>
        <time>2017-11-19T09:10:09Z</time>
      </trkpt>
      <trkpt lat="48.37146" lon="2.5293">
        <ele>77</ele>
        <time>2017-11-19T09:10:11Z</time>
      </trkpt>
      <trkpt lat="48.37144" lon="2.52916">
        <ele>77</ele>
        <time>2017-11-19T09:10:13Z</time>
      </trkpt>
      <trkpt lat="48.37142" lon="2.529">
        <ele>77</ele>
        <time>2017-11-19T09:10:15Z</time>
      </trkpt>
      <trkpt lat="48.3714" lon="2.52886">
        <ele>77</ele>
        <time>2017-11-19T09:10:17Z</time>
      </trkpt>
      <trkpt lat="48.37139" lon="2.52873">
        <ele>77</ele>
        <time>2017-11-19T09:10:19Z</time>
      </trkpt>
      <trkpt lat="48.37139" lon="2.52856">
        <ele>77</ele>
        <time>2017-11-19T09:10:21Z</time>
      </trkpt>
      <trkpt lat="48.3714" lon="2.52841">
        <ele>77</ele>
        <time>2017-11-19T09:10:23Z</time>
      </trkpt>
      <trkpt lat="48.37139" lon="2.52825">
        <ele>78</ele>
        <time>2017-11-19T09:10:25Z</time>
      </trkpt>
      <trkpt lat="48.37138" lon="2.5281">
        <ele>78</ele>
        <time>2017-11-19T09:10:27Z</time>
      </trkpt>
      <trkpt lat="48.37139" lon="2.52793">
        <ele>78</ele>
        <time>2017-11-19T09:10:29Z</time>
      </trkpt>
      <trkpt lat="48.37143" lon="2.52778">
        <ele>78</ele>
        <time>2017-11-19T09:10:31Z</time>
      </trkpt>
      <trkpt lat="48.37145" lon="2.52763">
        <ele>78</ele>
        <time>2017-11-19T09:10:33Z</time>
      </trkpt>
      <trkpt lat="48.37146" lon="2.52748">
        <ele>78</ele>
        <time>2017-11-19T09:10:35Z</time>
      </trkpt>
      <trkpt lat="48.37146" lon="2.52733">
        <ele>77</ele>
        <time>2017-11-19T09:10:37Z</time>
      </trkpt>
      <trkpt lat="48.37145" lon="2.52717">
        <ele>77</ele>
        <time>2017-11-19T09:10:39Z</time>
      </trkpt>
      <trkpt lat="48.37142" lon="2.52703">
        <ele>77</ele>
        <time>2017-11-19T09:10:41Z</time>
      </trkpt>
      <trkpt lat="48.37138" lon="2.52688">
        <ele>77</ele>
        <time>2017-11-19T09:10:43Z</time>
      </trkpt>
      <trkpt lat="48.37134" lon="2.52673">
        <ele>77</ele>
        <time>2017-11-19T09:10:45Z</time>
      </trkpt>
      <trkpt lat="48.37129" lon="2.52659">
        <ele>76</ele>
        <time>2017-11-19T09:10:47Z</time>
      </trkpt>
      <trkpt lat="48.37125" lon="2.52645">
        <ele>76</ele>
        <time>2017-11-19T09:10:49Z</time>
      </trkpt>
      <trkpt lat="48.3712" lon="2.52632">
        <ele>76</ele>
        <time>2017-11-19T09:10:51Z</time>
      </trkpt>
      <trkpt lat="48.37116" lon="2.52618">
        <ele>76</ele>
        <time>2017-11-19T09:10:53Z</time>
      </trkpt>
      <trkpt lat="48.37112" lon="2.52604">
        <ele>76</ele>
        <time>2017-11-19T09:10:55Z</time>
      </trkpt>
      <trkpt lat="48.37111" lon="2.5259">
        <ele>76</ele>
        <time>2017-11-19T09:10:57Z</time>
      </trkpt>
      <trkpt lat="48.37114" lon="2.52576">
        <ele>75</ele>
        <time>2017-11-19T09:10:59Z</time>
      </trkpt>
      <trkpt lat="48.37122" lon="2.52562">
        <ele>75</ele>
        <time>2017-11-19T09:11:01Z</time>
      </trkpt>
      <trkpt lat="48.37131" lon="2.52558">
        <ele>75</ele>
        <time>2017-11-19T09:11:03Z</time>
      </trkpt>
      <trkpt lat="48.37141" lon="2.52549">
        <ele>74</ele>
        <time>2017-11-19T09:11:05Z</time>
      </trkpt>
      <trkpt lat="48.3715" lon="2.52542">
        <ele>74</ele>
        <time>2017-11-19T09:11:07Z</time>
      </trkpt>
      <trkpt lat="48.37158" lon="2.52536">
        <ele>74</ele>
        <time>2017-11-19T09:11:09Z</time>
      </trkpt>
      <trkpt lat="48.37167" lon="2.52528">
        <ele>74</ele>
        <time>2017-11-19T09:11:11Z</time>
      </trkpt>
      <trkpt lat="48.37176" lon="2.5252">
        <ele>74</ele>
        <time>2017-11-19T09:11:13Z</time>
      </trkpt>
      <trkpt lat="48.37185" lon="2.52514">
        <ele>74</ele>
        <time>2017-11-19T09:11:15Z</time>
      </trkpt>
      <trkpt lat="48.37194" lon="2.52508">
        <ele>75</ele>
        <time>2017-11-19T09:11:17Z</time>
      </trkpt>
      <trkpt lat="48.37203" lon="2.52502">
        <ele>75</ele>
        <time>2017-11-19T09:11:19Z</time>
      </trkpt>
      <trkpt lat="48.37212" lon="2.52497">
        <ele>75</ele>
        <time>2017-11-19T09:11:21Z</time>
      </trkpt>
      <trkpt lat="48.3722" lon="2.52489">
        <ele>75</ele>
        <time>2017-11-19T09:11:23Z</time>
      </trkpt>
      <trkpt lat="48.37229" lon="2.52482">
        <ele>75</ele>
        <time>2017-11-19T09:11:25Z</time>
      </trkpt>
      <trkpt lat="48.37237" lon="2.52473">
        <ele>75</ele>
        <time>2017-11-19T09:11:27Z</time>
      </trkpt>
      <trkpt lat="48.37241" lon="2.52462">
        <ele>75</ele>
        <time>2017-11-19T09:11:29Z</time>
      </trkpt>
      <trkpt lat="48.37236" lon="2.5245">
        <ele>74</ele>
        <time>2017-11-19T09:11:31Z</time>
      </trkpt>
      <trkpt lat="48.3723" lon="2.52438">
        <ele>74</ele>
        <time>2017-11-19T09:11:33Z</time>
      </trkpt>
      <trkpt lat="48.37225" lon="2.52425">
        <ele>74</ele>
        <time>2017-11-19T09:11:35Z</time>
      </trkpt>
      <trkpt lat="48.37221" lon="2.52411">
        <ele>75</ele>
        <time>2017-11-19T09:11:37Z</time>
      </trkpt>
      <trkpt lat="48.37217" lon="2.52399">
        <ele>75</ele>
        <time>2017-11-19T09:11:39Z</time>
      </trkpt>
      <trkpt lat="48.37212" lon="2.52386">
        <ele>75</ele>
        <time>2017-11-19T09:11:41Z</time>
      </trkpt>
      <trkpt lat="48.37207" lon="2.52374">
        <ele>76</ele>
        <time>2017-11-19T09:11:43Z</time>
      </trkpt>
      <trkpt lat="48.37202" lon="2.52362">
        <ele>76</ele>
        <time>2017-11-19T09:11:45Z</time>
      </trkpt>
      <trkpt lat="48.37198" lon="2.52349">
        <ele>76</ele>
        <time>2017-11-19T09:11:47Z</time>
      </trkpt>
      <trkpt lat="48.37193" lon="2.52338">
        <ele>76</ele>
        <time>2017-11-19T09:11:49Z</time>
      </trkpt>
      <trkpt lat="48.3719" lon="2.52324">
        <ele>77</ele>
        <time>2017-11-19T09:11:51Z</time>
      </trkpt>
      <trkpt lat="48.37186" lon="2.52314">
        <ele>77</ele>
        <time>2017-11-19T09:11:53Z</time>
      </trkpt>
      <trkpt lat="48.37183" lon="2.523">
        <ele>77</ele>
        <time>2017-11-19T09:11:55Z</time>
      </trkpt>
      <trkpt lat="48.37181" lon="2.52289">
        <ele>78</ele>
        <time>2017-11-19T09:11:57Z</time>
      </trkpt>
      <trkpt lat="48.3718" lon="2.52277">
        <ele>78</ele>
        <time>2017-11-19T09:11:59Z</time>
      </trkpt>
      <trkpt lat="48.3718" lon="2.52262">
        <ele>78</ele>
        <time>2017-11-19T09:12:01Z</time>
      </trkpt>
      <trkpt lat="48.37178" lon="2.52246">
        <ele>78</ele>
        <time>2017-11-19T09:12:03Z</time>
      </trkpt>
      <trkpt lat="48.37177" lon="2.52232">
        <ele>78</ele>
        <time>2017-11-19T09:12:05Z</time>
      </trkpt>
      <trkpt lat="48.37178" lon="2.5222">
        <ele>78</ele>
        <time>2017-11-19T09:12:07Z</time>
      </trkpt>
      <trkpt lat="48.37178" lon="2.52206">
        <ele>78</ele>
        <time>2017-11-19T09:12:09Z</time>
      </trkpt>
      <trkpt lat="48.37178" lon="2.52193">
        <ele>78</ele>
        <time>2017-11-19T09:12:11Z</time>
      </trkpt>
      <trkpt lat="48.37176" lon="2.52182">
        <ele>77</ele>
        <time>2017-11-19T09:12:13Z</time>
      </trkpt>
      <trkpt lat="48.3717" lon="2.52174">
        <ele>77</ele>
        <time>2017-11-19T09:12:15Z</time>
      </trkpt>
      <trkpt lat="48.37164" lon="2.52176">
        <ele>77</ele>
        <time>2017-11-19T09:12:17Z</time>
      </trkpt>
      <trkpt lat="48.37157" lon="2.52186">
        <ele>77</ele>
        <time>2017-11-19T09:12:19Z</time>
      </trkpt>
      <trkpt lat="48.37151" lon="2.52193">
        <ele>77</ele>
        <time>2017-11-19T09:12:21Z</time>
      </trkpt>
      <trkpt lat="48.37142" lon="2.52199">
        <ele>77</ele>
        <time>2017-11-19T09:12:23Z</time>
      </trkpt>
      <trkpt lat="48.37134" lon="2.52201">
        <ele>77</ele>
        <time>2017-11-19T09:12:25Z</time>
      </trkpt>
      <trkpt lat="48.37125" lon="2.52206">
        <ele>76</ele>
        <time>2017-11-19T09:12:27Z</time>
      </trkpt>
      <trkpt lat="48.37116" lon="2.52212">
        <ele>76</ele>
        <time>2017-11-19T09:12:29Z</time>
      </trkpt>
      <trkpt lat="48.37108" lon="2.52218">
        <ele>76</ele>
        <time>2017-11-19T09:12:31Z</time>
      </trkpt>
      <trkpt lat="48.371" lon="2.52225">
        <ele>76</ele>
        <time>2017-11-19T09:12:33Z</time>
      </trkpt>
      <trkpt lat="48.37093" lon="2.52232">
        <ele>76</ele>
        <time>2017-11-19T09:12:35Z</time>
      </trkpt>
      <trkpt lat="48.37085" lon="2.52239">
        <ele>76</ele>
        <time>2017-11-19T09:12:37Z</time>
      </trkpt>
      <trkpt lat="48.37076" lon="2.52247">
        <ele>76</ele>
        <time>2017-11-19T09:12:39Z</time>
      </trkpt>
      <trkpt lat="48.37067" lon="2.52253">
        <ele>76</ele>
        <time>2017-11-19T09:12:41Z</time>
      </trkpt>
      <trkpt lat="48.37058" lon="2.52259">
        <ele>76</ele>
        <time>2017-11-19T09:12:43Z</time>
      </trkpt>
      <trkpt lat="48.3705" lon="2.52265">
        <ele>76</ele>
        <time>2017-11-19T09:12:45Z</time>
      </trkpt>
      <trkpt lat="48.37041" lon="2.52272">
        <ele>76</ele>
        <time>2017-11-19T09:12:47Z</time>
      </trkpt>
      <trkpt lat="48.37032" lon="2.52278">
        <ele>76</ele>
        <time>2017-11-19T09:12:49Z</time>
      </trkpt>
      <trkpt lat="48.37023" lon="2.52283">
        <ele>76</ele>
        <time>2017-11-19T09:12:51Z</time>
      </trkpt>
      <trkpt lat="48.37014" lon="2.52288">
        <ele>76</ele>
        <time>2017-11-19T09:12:53Z</time>
      </trkpt>
      <trkpt lat="48.37005" lon="2.52293">
        <ele>76</ele>
        <time>2017-11-19T09:12:55Z</time>
      </trkpt>
      <trkpt lat="48.36997" lon="2.52299">
        <ele>75</ele>
        <time>2017-11-19T09:12:57Z</time>
      </trkpt>
      <trkpt lat="48.36988" lon="2.52306">
        <ele>75</ele>
        <time>2017-11-19T09:12:59Z</time>
      </trkpt>
      <trkpt lat="48.36981" lon="2.52314">
        <ele>76</ele>
        <time>2017-11-19T09:13:01Z</time>
      </trkpt>
      <trkpt lat="48.36972" lon="2.52322">
        <ele>76</ele>
        <time>2017-11-19T09:13:03Z</time>
      </trkpt>
      <trkpt lat="48.36963" lon="2.52328">
        <ele>76</ele>
        <time>2017-11-19T09:13:05Z</time>
      </trkpt>
      <trkpt lat="48.36953" lon="2.52331">
        <ele>76</ele>
        <time>2017-11-19T09:13:07Z</time>
      </trkpt>
      <trkpt lat="48.36945" lon="2.52337">
        <ele>76</ele>
        <time>2017-11-19T09:13:09Z</time>
      </trkpt>
      <trkpt lat="48.36936" lon="2.52342">
        <ele>76</ele>
        <time>2017-11-19T09:13:11Z</time>
      </trkpt>
      <trkpt lat="48.36928" lon="2.5235">
        <ele>76</ele>
        <time>2017-11-19T09:13:13Z</time>
      </trkpt>
      <trkpt lat="48.36924" lon="2.52358">
        <ele>76</ele>
        <time>2017-11-19T09:13:15Z</time>
      </trkpt>
      <trkpt lat="48.36919" lon="2.52368">
        <ele>76</ele>
        <time>2017-11-19T09:13:17Z</time>
      </trkpt>
      <trkpt lat="48.36911" lon="2.5238">
        <ele>76</ele>
        <time>2017-11-19T09:13:19Z</time>
      </trkpt>
      <trkpt lat="48.36905" lon="2.5239">
        <ele>76</ele>
        <time>2017-11-19T09:13:21Z</time>
      </trkpt>
      <trkpt lat="48.36898" lon="2.52402">
        <ele>76</ele>
        <time>2017-11-19T09:13:23Z</time>
      </trkpt>
      <trkpt lat="48.36892" lon="2.52411">
        <ele>76</ele>
        <time>2017-11-19T09:13:25Z</time>
      </trkpt>
      <trkpt lat="48.36887" lon="2.52423">
        <ele>76</ele>
        <time>2017-11-19T09:13:27Z</time>
      </trkpt>
      <trkpt lat="48.36883" lon="2.52434">
        <ele>76</ele>
        <time>2017-11-19T09:13:29Z</time>
      </trkpt>
      <trkpt lat="48.36879" lon="2.52445">
        <ele>76</ele>
        <time>2017-11-19T09:13:31Z</time>
      </trkpt>
      <trkpt lat="48.36875" lon="2.52457">
        <ele>76</ele>
        <time>2017-11-19T09:13:33Z</time>
      </trkpt>
      <trkpt lat="48.36871" lon="2.52469">
        <ele>76</ele>
        <time>2017-11-19T09:13:35Z</time>
      </trkpt>
      <trkpt lat="48.36865" lon="2.52479">
        <ele>76</ele>
        <time>2017-11-19T09:13:37Z</time>
      </trkpt>
      <trkpt lat="48.3686" lon="2.52488">
        <ele>76</ele>
        <time>2017-11-19T09:13:39Z</time>
      </trkpt>
      <trkpt lat="48.36854" lon="2.52494">
        <ele>77</ele>
        <time>2017-11-19T09:13:41Z</time>
      </trkpt>
      <trkpt lat="48.3685" lon="2.52504">
        <ele>77</ele>
        <time>2017-11-19T09:13:43Z</time>
      </trkpt>
      <trkpt lat="48.36846" lon="2.52512">
        <ele>77</ele>
        <time>2017-11-19T09:13:45Z</time>
      </trkpt>
      <trkpt lat="48.36842" lon="2.52517">
        <ele>77</ele>
        <time>2017-11-19T09:13:47Z</time>
      </trkpt>
      <trkpt lat="48.36838" lon="2.52523">
        <ele>77</ele>
        <time>2017-11-19T09:13:49Z</time>
      </trkpt>
      <trkpt lat="48.36834" lon="2.52528">
        <ele>77</ele>
        <time>2017-11-19T09:13:51Z</time>
      </trkpt>
      <trkpt lat="48.36828" lon="2.52532">
        <ele>78</ele>
        <time>2017-11-19T09:13:53Z</time>
      </trkpt>
      <trkpt lat="48.36826" lon="2.52538">
        <ele>78</ele>
        <time>2017-11-19T09:13:55Z</time>
      </trkpt>
      <trkpt lat="48.36821" lon="2.52544">
        <ele>78</ele>
        <time>2017-11-19T09:13:57Z</time>
      </trkpt>
      <trkpt lat="48.36816" lon="2.5255">
        <ele>78</ele>
        <time>2017-11-19T09:13:59Z</time>
      </trkpt>
      <trkpt lat="48.3681" lon="2.52559">
        <ele>78</ele>
        <time>2017-11-19T09:14:01Z</time>
      </trkpt>
      <trkpt lat="48.36804" lon="2.52569">
        <ele>78</ele>
        <time>2017-11-19T09:14:03Z</time>
      </trkpt>
      <trkpt lat="48.36797" lon="2.52578">
        <ele>78</ele>
        <time>2017-11-19T09:14:05Z</time>
      </trkpt>
      <trkpt lat="48.36788" lon="2.52589">
        <ele>78</ele>
        <time>2017-11-19T09:14:07Z</time>
      </trkpt>
      <trkpt lat="48.3678" lon="2.52598">
        <ele>77</ele>
        <time>2017-11-19T09:14:09Z</time>
      </trkpt>
      <trkpt lat="48.36771" lon="2.52607">
        <ele>77</ele>
        <time>2017-11-19T09:14:11Z</time>
      </trkpt>
      <trkpt lat="48.36762" lon="2.52616">
        <ele>77</ele>
        <time>2017-11-19T09:14:13Z</time>
      </trkpt>
      <trkpt lat="48.36753" lon="2.52627">
        <ele>77</ele>
        <time>2017-11-19T09:14:15Z</time>
      </trkpt>
      <trkpt lat="48.36745" lon="2.52638">
        <ele>77</ele>
        <time>2017-11-19T09:14:17Z</time>
      </trkpt>
      <trkpt lat="48.36737" lon="2.52647">
        <ele>77</ele>
        <time>2017-11-19T09:14:19Z</time>
      </trkpt>
      <trkpt lat="48.3673" lon="2.52653">
        <ele>77</ele>
        <time>2017-11-19T09:14:21Z</time>
      </trkpt>
      <trkpt lat="48.36719" lon="2.52657">
        <ele>77</ele>
        <time>2017-11-19T09:14:23Z</time>
      </trkpt>
      <trkpt lat="48.36708" lon="2.52655">
        <ele>77</ele>
        <time>2017-11-19T09:14:25Z</time>
      </trkpt>
      <trkpt lat="48.36698" lon="2.52653">
        <ele>77</ele>
        <time>2017-11-19T09:14:27Z</time>
      </trkpt>
      <trkpt lat="48.36688" lon="2.52652">
        <ele>77</ele>
        <time>2017-11-19T09:14:29Z</time>
      </trkpt>
      <trkpt lat="48.36678" lon="2.5265">
        <ele>77</ele>
        <time>2017-11-19T09:14:31Z</time>
      </trkpt>
      <trkpt lat="48.36667" lon="2.52649">
        <ele>77</ele>
        <time>2017-11-19T09:14:33Z</time>
      </trkpt>
      <trkpt lat="48.36656" lon="2.52648">
        <ele>77</ele>
        <time>2017-11-19T09:14:35Z</time>
      </trkpt>
      <trkpt lat="48.36645" lon="2.52648">
        <ele>77</ele>
        <time>2017-11-19T09:14:37Z</time>
      </trkpt>
      <trkpt lat="48.36635" lon="2.52649">
        <ele>77</ele>
        <time>2017-11-19T09:14:39Z</time>
      </trkpt>
      <trkpt lat="48.36626" lon="2.52649">
        <ele>77</ele>
        <time>2017-11-19T09:14:41Z</time>
      </trkpt>
      <trkpt lat="48.36617" lon="2.52652">
        <ele>77</ele>
        <time>2017-11-19T09:14:43Z</time>
      </trkpt>
      <trkpt lat="48.3661" lon="2.52654">
        <ele>77</ele>
        <time>2017-11-19T09:14:45Z</time>
      </trkpt>
      <trkpt lat="48.36604" lon="2.52659">
        <ele>77</ele>
        <time>2017-11-19T09:14:47Z</time>
      </trkpt>
      <trkpt lat="48.36598" lon="2.52663">
        <ele>76</ele>
        <time>2017-11-19T09:14:49Z</time>
      </trkpt>
      <trkpt lat="48.3659" lon="2.52671">
        <ele>76</ele>
        <time>2017-11-19T09:14:51Z</time>
      </trkpt>
      <trkpt lat="48.36581" lon="2.52676">
        <ele>76</ele>
        <time>2017-11-19T09:14:53Z</time>
      </trkpt>
      <trkpt lat="48.36572" lon="2.52679">
        <ele>76</ele>
        <time>2017-11-19T09:14:55Z</time>
      </trkpt>
      <trkpt lat="48.36562" lon="2.5268">
        <ele>76</ele>
        <time>2017-11-19T09:14:57Z</time>
      </trkpt>
      <trkpt lat="48.36553" lon="2.52681">
        <ele>76</ele>
        <time>2017-11-19T09:14:59Z</time>
      </trkpt>
      <trkpt lat="48.36545" lon="2.52682">
        <ele>76</ele>
        <time>2017-11-19T09:15:01Z</time>
      </trkpt>
      <trkpt lat="48.36537" lon="2.52684">
        <ele>76</ele>
        <time>2017-11-19T09:15:03Z</time>
      </trkpt>
      <trkpt lat="48.36529" lon="2.52685">
        <ele>76</ele>
        <time>2017-11-19T09:15:05Z</time>
      </trkpt>
      <trkpt lat="48.3652" lon="2.52688">
        <ele>76</ele>
        <time>2017-11-19T09:15:07Z</time>
      </trkpt>
      <trkpt lat="48.36511" lon="2.5269">
        <ele>76</ele>
        <time>2017-11-19T09:15:09Z</time>
      </trkpt>
      <trkpt lat="48.36504" lon="2.52695">
        <ele>76</ele>
        <time>2017-11-19T09:15:11Z</time>
      </trkpt>
      <trkpt lat="48.36497" lon="2.527">
        <ele>76</ele>
        <time>2017-11-19T09:15:13Z</time>
      </trkpt>
      <trkpt lat="48.36489" lon="2.52705">
        <ele>75</ele>
        <time>2017-11-19T09:15:15Z</time>
      </trkpt>
      <trkpt lat="48.36481" lon="2.5271">
        <ele>75</ele>
        <time>2017-11-19T09:15:17Z</time>
      </trkpt>
      <trkpt lat="48.36473" lon="2.52714">
        <ele>75</ele>
        <time>2017-11-19T09:15:19Z</time>
      </trkpt>
      <trkpt lat="48.36463" lon="2.52717">
        <ele>75</ele>
        <time>2017-11-19T09:15:21Z</time>
      </trkpt>
      <trkpt lat="48.36452" lon="2.52717">
        <ele>75</ele>
        <time>2017-11-19T09:15:23Z</time>
      </trkpt>
      <trkpt lat="48.36442" lon="2.52716">
        <ele>75</ele>
        <time>2017-11-19T09:15:25Z</time>
      </trkpt>
      <trkpt lat="48.36432" lon="2.52713">
        <ele>75</ele>
        <time>2017-11-19T09:15:27Z</time>
      </trkpt>
      <trkpt lat="48.36423" lon="2.52711">
        <ele>75</ele>
        <time>2017-11-19T09:15:29Z</time>
      </trkpt>
      <trkpt lat="48.36414" lon="2.52709">
        <ele>74</ele>
        <time>2017-11-19T09:15:31Z</time>
      </trkpt>
      <trkpt lat="48.36408" lon="2.52708">
        <ele>74</ele>
        <time>2017-11-19T09:15:33Z</time>
      </trkpt>
      <trkpt lat="48.36405" lon="2.52713">
        <ele>74</ele>
        <time>2017-11-19T09:15:43Z</time>
      </trkpt>
      <trkpt lat="48.36411" lon="2.52718">
        <ele>74</ele>
        <time>2017-11-19T09:24:39Z</time>
      </trkpt>
      <trkpt lat="48.36419" lon="2.52725">
        <ele>75</ele>
        <time>2017-11-19T09:24:43Z</time>
      </trkpt>
      <trkpt lat="48.36422" lon="2.52731">
        <ele>75</ele>
        <time>2017-11-19T09:24:45Z</time>
      </trkpt>
      <trkpt lat="48.36428" lon="2.52737">
        <ele>75</ele>
        <time>2017-11-19T09:24:47Z</time>
      </trkpt>
      <trkpt lat="48.36433" lon="2.52743">
        <ele>75</ele>
        <time>2017-11-19T09:24:49Z</time>
      </trkpt>
      <trkpt lat="48.36438" lon="2.52752">
        <ele>75</ele>
        <time>2017-11-19T09:24:51Z</time>
      </trkpt>
      <trkpt lat="48.36445" lon="2.52758">
        <ele>75</ele>
        <time>2017-11-19T09:24:53Z</time>
      </trkpt>
      <trkpt lat="48.36451" lon="2.52765">
        <ele>75</ele>
        <time>2017-11-19T09:24:55Z</time>
      </trkpt>
      <trkpt lat="48.36458" lon="2.52772">
        <ele>75</ele>
        <time>2017-11-19T09:24:57Z</time>
      </trkpt>
      <trkpt lat="48.36465" lon="2.52782">
        <ele>75</ele>
        <time>2017-11-19T09:24:59Z</time>
      </trkpt>
      <trkpt lat="48.36473" lon="2.52791">
        <ele>75</ele>
        <time>2017-11-19T09:25:01Z</time>
      </trkpt>
      <trkpt lat="48.36481" lon="2.528">
        <ele>75</ele>
        <time>2017-11-19T09:25:03Z</time>
      </trkpt>
      <trkpt lat="48.36489" lon="2.52807">
        <ele>75</ele>
        <time>2017-11-19T09:25:05Z</time>
      </trkpt>
      <trkpt lat="48.36496" lon="2.52815">
        <ele>76</ele>
        <time>2017-11-19T09:25:07Z</time>
      </trkpt>
      <trkpt lat="48.36505" lon="2.52824">
        <ele>76</ele>
        <time>2017-11-19T09:25:09Z</time>
      </trkpt>
      <trkpt lat="48.36511" lon="2.52831">
        <ele>76</ele>
        <time>2017-11-19T09:25:11Z</time>
      </trkpt>
      <trkpt lat="48.36519" lon="2.52838">
        <ele>76</ele>
        <time>2017-11-19T09:25:13Z</time>
      </trkpt>
      <trkpt lat="48.36527" lon="2.52845">
        <ele>76</ele>
        <time>2017-11-19T09:25:15Z</time>
      </trkpt>
      <trkpt lat="48.36537" lon="2.52851">
        <ele>76</ele>
        <time>2017-11-19T09:25:17Z</time>
      </trkpt>
      <trkpt lat="48.36546" lon="2.52858">
        <ele>76</ele>
        <time>2017-11-19T09:25:19Z</time>
      </trkpt>
      <trkpt lat="48.36555" lon="2.52866">
        <ele>76</ele>
        <time>2017-11-19T09:25:21Z</time>
      </trkpt>
      <trkpt lat="48.36565" lon="2.52875">
        <ele>76</ele>
        <time>2017-11-19T09:25:23Z</time>
      </trkpt>
      <trkpt lat="48.36575" lon="2.52883">
        <ele>76</ele>
        <time>2017-11-19T09:25:25Z</time>
      </trkpt>
      <trkpt lat="48.36584" lon="2.52891">
        <ele>77</ele>
        <time>2017-11-19T09:25:27Z</time>
      </trkpt>
      <trkpt lat="48.36591" lon="2.529">
        <ele>77</ele>
        <time>2017-11-19T09:25:29Z</time>
      </trkpt>
      <trkpt lat="48.366" lon="2.52907">
        <ele>77</ele>
        <time>2017-11-19T09:25:31Z</time>
      </trkpt>
      <trkpt lat="48.36609" lon="2.52913">
        <ele>77</ele>
        <time>2017-11-19T09:25:33Z</time>
      </trkpt>
      <trkpt lat="48.36618" lon="2.52922">
        <ele>77</ele>
        <time>2017-11-19T09:25:35Z</time>
      </trkpt>
      <trkpt lat="48.36626" lon="2.52929">
        <ele>77</ele>
        <time>2017-11-19T09:25:37Z</time>
      </trkpt>
      <trkpt lat="48.36636" lon="2.52937">
        <ele>77</ele>
        <time>2017-11-19T09:25:39Z</time>
      </trkpt>
      <trkpt lat="48.36645" lon="2.52945">
        <ele>77</ele>
        <time>2017-11-19T09:25:41Z</time>
      </trkpt>
      <trkpt lat="48.36654" lon="2.52953">
        <ele>77</ele>
        <time>2017-11-19T09:25:43Z</time>
      </trkpt>
      <trkpt lat="48.36663" lon="2.52964">
        <ele>78</ele>
        <time>2017-11-19T09:25:45Z</time>
      </trkpt>
      <trkpt lat="48.36673" lon="2.52973">
        <ele>78</ele>
        <time>2017-11-19T09:25:47Z</time>
      </trkpt>
      <trkpt lat="48.36682" lon="2.52981">
        <ele>78</ele>
        <time>2017-11-19T09:25:49Z</time>
      </trkpt>
      <trkpt lat="48.36691" lon="2.52989">
        <ele>78</ele>
        <time>2017-11-19T09:25:51Z</time>
      </trkpt>
      <trkpt lat="48.367" lon="2.52997">
        <ele>78</ele>
        <time>2017-11-19T09:25:53Z</time>
      </trkpt>
      <trkpt lat="48.3671" lon="2.53006">
        <ele>77</ele>
        <time>2017-11-19T09:25:55Z</time>
      </trkpt>
      <trkpt lat="48.36718" lon="2.53013">
        <ele>77</ele>
        <time>2017-11-19T09:25:57Z</time>
      </trkpt>
      <trkpt lat="48.36726" lon="2.53023">
        <ele>77</ele>
        <time>2017-11-19T09:25:59Z</time>
      </trkpt>
      <trkpt lat="48.36734" lon="2.53032">
        <ele>77</ele>
        <time>2017-11-19T09:26:01Z</time>
      </trkpt>
      <trkpt lat="48.36742" lon="2.5304">
        <ele>76</ele>
        <time>2017-11-19T09:26:03Z</time>
      </trkpt>
      <trkpt lat="48.36749" lon="2.5305">
        <ele>76</ele>
        <time>2017-11-19T09:26:05Z</time>
      </trkpt>
      <trkpt lat="48.36754" lon="2.53058">
        <ele>76</ele>
        <time>2017-11-19T09:26:07Z</time>
      </trkpt>
      <trkpt lat="48.36761" lon="2.53068">
        <ele>76</ele>
        <time>2017-11-19T09:26:09Z</time>
      </trkpt>
      <trkpt lat="48.3677" lon="2.53077">
        <ele>76</ele>
        <time>2017-11-19T09:26:11Z</time>
      </trkpt>
      <trkpt lat="48.36778" lon="2.53088">
        <ele>75</ele>
        <time>2017-11-19T09:26:13Z</time>
      </trkpt>
      <trkpt lat="48.36786" lon="2.53099">
        <ele>75</ele>
        <time>2017-11-19T09:26:15Z</time>
      </trkpt>
      <trkpt lat="48.36795" lon="2.53108">
        <ele>76</ele>
        <time>2017-11-19T09:26:17Z</time>
      </trkpt>
      <trkpt lat="48.36803" lon="2.53119">
        <ele>76</ele>
        <time>2017-11-19T09:26:19Z</time>
      </trkpt>
      <trkpt lat="48.3681" lon="2.5313">
        <ele>76</ele>
        <time>2017-11-19T09:26:21Z</time>
      </trkpt>
      <trkpt lat="48.36817" lon="2.53142">
        <ele>76</ele>
        <time>2017-11-19T09:26:23Z</time>
      </trkpt>
      <trkpt lat="48.36824" lon="2.53154">
        <ele>76</ele>
        <time>2017-11-19T09:26:25Z</time>
      </trkpt>
      <trkpt lat="48.3683" lon="2.53166">
        <ele>76</ele>
        <time>2017-11-19T09:26:27Z</time>
      </trkpt>
      <trkpt lat="48.36832" lon="2.5318">
        <ele>76</ele>
        <time>2017-11-19T09:26:29Z</time>
      </trkpt>
      <trkpt lat="48.36834" lon="2.53194">
        <ele>76</ele>
        <time>2017-11-19T09:26:31Z</time>
      </trkpt>
      <trkpt lat="48.36838" lon="2.53207">
        <ele>76</ele>
        <time>2017-11-19T09:26:33Z</time>
      </trkpt>
      <trkpt lat="48.36838" lon="2.5322">
        <ele>76</ele>
        <time>2017-11-19T09:26:35Z</time>
      </trkpt>
      <trkpt lat="48.3684" lon="2.53234">
        <ele>76</ele>
        <time>2017-11-19T09:26:37Z</time>
      </trkpt>
      <trkpt lat="48.36843" lon="2.53248">
        <ele>76</ele>
        <time>2017-11-19T09:26:39Z</time>
      </trkpt>
      <trkpt lat="48.36846" lon="2.53261">
        <ele>77</ele>
        <time>2017-11-19T09:26:41Z</time>
      </trkpt>
      <trkpt lat="48.36851" lon="2.53272">
        <ele>77</ele>
        <time>2017-11-19T09:26:43Z</time>
      </trkpt>
      <trkpt lat="48.36854" lon="2.53283">
        <ele>77</ele>
        <time>2017-11-19T09:26:45Z</time>
      </trkpt>
      <trkpt lat="48.36856" lon="2.53295">
        <ele>78</ele>
        <time>2017-11-19T09:26:47Z</time>
      </trkpt>
      <trkpt lat="48.36858" lon="2.53305">
        <ele>78</ele>
        <time>2017-11-19T09:26:49Z</time>
      </trkpt>
      <trkpt lat="48.36861" lon="2.53313">
        <ele>78</ele>
        <time>2017-11-19T09:26:51Z</time>
      </trkpt>
      <trkpt lat="48.36863" lon="2.53323">
        <ele>79</ele>
        <time>2017-11-19T09:26:53Z</time>
      </trkpt>
      <trkpt lat="48.36868" lon="2.53331">
        <ele>78</ele>
        <time>2017-11-19T09:26:55Z</time>
      </trkpt>
      <trkpt lat="48.36873" lon="2.53343">
        <ele>80</ele>
        <time>2017-11-19T09:26:57Z</time>
      </trkpt>
      <trkpt lat="48.36877" lon="2.53355">
        <ele>80</ele>
        <time>2017-11-19T09:26:59Z</time>
      </trkpt>
      <trkpt lat="48.36881" lon="2.53366">
        <ele>80</ele>
        <time>2017-11-19T09:27:01Z</time>
      </trkpt>
      <trkpt lat="48.36885" lon="2.53377">
        <ele>80</ele>
        <time>2017-11-19T09:27:03Z</time>
      </trkpt>
      <trkpt lat="48.36888" lon="2.53389">
        <ele>80</ele>
        <time>2017-11-19T09:27:05Z</time>
      </trkpt>
      <trkpt lat="48.36891" lon="2.53401">
        <ele>80</ele>
        <time>2017-11-19T09:27:07Z</time>
      </trkpt>
      <trkpt lat="48.36893" lon="2.53412">
        <ele>79</ele>
        <time>2017-11-19T09:27:09Z</time>
      </trkpt>
      <trkpt lat="48.36895" lon="2.53421">
        <ele>82</ele>
        <time>2017-11-19T09:27:11Z</time>
      </trkpt>
      <trkpt lat="48.36896" lon="2.53429">
        <ele>82</ele>
        <time>2017-11-19T09:27:13Z</time>
      </trkpt>
      <trkpt lat="48.36897" lon="2.53437">
        <ele>83</ele>
        <time>2017-11-19T09:27:15Z</time>
      </trkpt>
      <trkpt lat="48.36897" lon="2.53444">
        <ele>83</ele>
        <time>2017-11-19T09:27:17Z</time>
      </trkpt>
      <trkpt lat="48.36898" lon="2.53452">
        <ele>84</ele>
        <time>2017-11-19T09:27:19Z</time>
      </trkpt>
      <trkpt lat="48.36898" lon="2.53463">
        <ele>84</ele>
        <time>2017-11-19T09:27:23Z</time>
      </trkpt>
      <trkpt lat="48.36897" lon="2.53471">
        <ele>85</ele>
        <time>2017-11-19T09:27:27Z</time>
      </trkpt>
      <trkpt lat="48.36894" lon="2.53479">
        <ele>85</ele>
        <time>2017-11-19T09:27:31Z</time>
      </trkpt>
      <trkpt lat="48.36891" lon="2.53485">
        <ele>85</ele>
        <time>2017-11-19T09:27:37Z</time>
      </trkpt>
      <trkpt lat="48.36888" lon="2.53494">
        <ele>86</ele>
        <time>2017-11-19T09:27:43Z</time>
      </trkpt>
      <trkpt lat="48.36887" lon="2.53503">
        <ele>91</ele>
        <time>2017-11-19T09:27:47Z</time>
      </trkpt>
      <trkpt lat="48.36884" lon="2.53511">
        <ele>92</ele>
        <time>2017-11-19T09:27:51Z</time>
      </trkpt>
      <trkpt lat="48.36882" lon="2.53518">
        <ele>93</ele>
        <time>2017-11-19T09:27:55Z</time>
      </trkpt>
      <trkpt lat="48.3688" lon="2.53525">
        <ele>93</ele>
        <time>2017-11-19T09:27:59Z</time>
      </trkpt>
      <trkpt lat="48.36878" lon="2.53534">
        <ele>94</ele>
        <time>2017-11-19T09:28:03Z</time>
      </trkpt>
      <trkpt lat="48.36876" lon="2.53542">
        <ele>95</ele>
        <time>2017-11-19T09:28:07Z</time>
      </trkpt>
      <trkpt lat="48.36873" lon="2.53551">
        <ele>96</ele>
        <time>2017-11-19T09:28:13Z</time>
      </trkpt>
      <trkpt lat="48.36873" lon="2.53559">
        <ele>96</ele>
        <time>2017-11-19T09:28:17Z</time>
      </trkpt>
      <trkpt lat="48.36873" lon="2.53568">
        <ele>97</ele>
        <time>2017-11-19T09:28:21Z</time>
      </trkpt>
      <trkpt lat="48.36873" lon="2.53578">
        <ele>97</ele>
        <time>2017-11-19T09:28:25Z</time>
      </trkpt>
      <trkpt lat="48.36873" lon="2.53587">
        <ele>104</ele>
        <time>2017-11-19T09:28:29Z</time>
      </trkpt>
      <trkpt lat="48.36872" lon="2.53597">
        <ele>104</ele>
        <time>2017-11-19T09:28:33Z</time>
      </trkpt>
      <trkpt lat="48.36871" lon="2.53608">
        <ele>105</ele>
        <time>2017-11-19T09:28:37Z</time>
      </trkpt>
      <trkpt lat="48.36871" lon="2.53617">
        <ele>105</ele>
        <time>2017-11-19T09:28:41Z</time>
      </trkpt>
      <trkpt lat="48.36872" lon="2.53625">
        <ele>106</ele>
        <time>2017-11-19T09:28:45Z</time>
      </trkpt>
      <trkpt lat="48.36873" lon="2.53632">
        <ele>106</ele>
        <time>2017-11-19T09:28:49Z</time>
      </trkpt>
      <trkpt lat="48.36873" lon="2.53641">
        <ele>106</ele>
        <time>2017-11-19T09:28:53Z</time>
      </trkpt>
      <trkpt lat="48.36872" lon="2.53652">
        <ele>107</ele>
        <time>2017-11-19T09:28:57Z</time>
      </trkpt>
      <trkpt lat="48.36871" lon="2.53662">
        <ele>107</ele>
        <time>2017-11-19T09:29:01Z</time>
      </trkpt>
      <trkpt lat="48.3687" lon="2.53671">
        <ele>112</ele>
        <time>2017-11-19T09:29:05Z</time>
      </trkpt>
      <trkpt lat="48.3687" lon="2.53681">
        <ele>112</ele>
        <time>2017-11-19T09:29:09Z</time>
      </trkpt>
      <trkpt lat="48.36868" lon="2.5369">
        <ele>112</ele>
        <time>2017-11-19T09:29:13Z</time>
      </trkpt>
      <trkpt lat="48.36864" lon="2.53696">
        <ele>112</ele>
        <time>2017-11-19T09:29:17Z</time>
      </trkpt>
      <trkpt lat="48.3686" lon="2.53704">
        <ele>113</ele>
        <time>2017-11-19T09:29:21Z</time>
      </trkpt>
      <trkpt lat="48.36857" lon="2.53709">
        <ele>113</ele>
        <time>2017-11-19T09:29:25Z</time>
      </trkpt>
      <trkpt lat="48.36853" lon="2.53715">
        <ele>113</ele>
        <time>2017-11-19T09:29:29Z</time>
      </trkpt>
      <trkpt lat="48.3685" lon="2.53721">
        <ele>113</ele>
        <time>2017-11-19T09:29:33Z</time>
      </trkpt>
      <trkpt lat="48.36848" lon="2.53728">
        <ele>114</ele>
        <time>2017-11-19T09:29:37Z</time>
      </trkpt>
      <trkpt lat="48.36845" lon="2.53736">
        <ele>115</ele>
        <time>2017-11-19T09:29:41Z</time>
      </trkpt>
      <trkpt lat="48.36844" lon="2.53749">
        <ele>115</ele>
        <time>2017-11-19T09:29:45Z</time>
      </trkpt>
      <trkpt lat="48.36843" lon="2.53757">
        <ele>117</ele>
        <time>2017-11-19T09:29:47Z</time>
      </trkpt>
      <trkpt lat="48.36843" lon="2.53764">
        <ele>117</ele>
        <time>2017-11-19T09:29:49Z</time>
      </trkpt>
      <trkpt lat="48.36843" lon="2.53774">
        <ele>117</ele>
        <time>2017-11-19T09:29:53Z</time>
      </trkpt>
      <trkpt lat="48.36841" lon="2.53784">
        <ele>117</ele>
        <time>2017-11-19T09:29:57Z</time>
      </trkpt>
      <trkpt lat="48.36839" lon="2.53791">
        <ele>117</ele>
        <time>2017-11-19T09:29:59Z</time>
      </trkpt>
      <trkpt lat="48.36838" lon="2.53798">
        <ele>118</ele>
        <time>2017-11-19T09:30:01Z</time>
      </trkpt>
      <trkpt lat="48.36837" lon="2.53809">
        <ele>118</ele>
        <time>2017-11-19T09:30:05Z</time>
      </trkpt>
      <trkpt lat="48.36837" lon="2.53818">
        <ele>119</ele>
        <time>2017-11-19T09:30:09Z</time>
      </trkpt>
      <trkpt lat="48.36835" lon="2.5383">
        <ele>120</ele>
        <time>2017-11-19T09:30:13Z</time>
      </trkpt>
      <trkpt lat="48.36833" lon="2.53836">
        <ele>121</ele>
        <time>2017-11-19T09:30:15Z</time>
      </trkpt>
      <trkpt lat="48.3683" lon="2.53842">
        <ele>121</ele>
        <time>2017-11-19T09:30:17Z</time>
      </trkpt>
      <trkpt lat="48.36828" lon="2.53849">
        <ele>121</ele>
        <time>2017-11-19T09:30:19Z</time>
      </trkpt>
      <trkpt lat="48.36825" lon="2.53861">
        <ele>122</ele>
        <time>2017-11-19T09:30:23Z</time>
      </trkpt>
      <trkpt lat="48.36823" lon="2.53872">
        <ele>122</ele>
        <time>2017-11-19T09:30:27Z</time>
      </trkpt>
      <trkpt lat="48.36822" lon="2.53885">
        <ele>122</ele>
        <time>2017-11-19T09:30:31Z</time>
      </trkpt>
      <trkpt lat="48.36822" lon="2.53892">
        <ele>122</ele>
        <time>2017-11-19T09:30:33Z</time>
      </trkpt>
      <trkpt lat="48.3682" lon="2.53902">
        <ele>122</ele>
        <time>2017-11-19T09:30:37Z</time>
      </trkpt>
      <trkpt lat="48.36819" lon="2.53912">
        <ele>122</ele>
        <time>2017-11-19T09:30:41Z</time>
      </trkpt>
      <trkpt lat="48.36817" lon="2.53919">
        <ele>122</ele>
        <time>2017-11-19T09:30:43Z</time>
      </trkpt>
      <trkpt lat="48.36816" lon="2.53927">
        <ele>122</ele>
        <time>2017-11-19T09:30:45Z</time>
      </trkpt>
      <trkpt lat="48.36815" lon="2.53935">
        <ele>122</ele>
        <time>2017-11-19T09:30:47Z</time>
      </trkpt>
      <trkpt lat="48.36815" lon="2.53943">
        <ele>122</ele>
        <time>2017-11-19T09:30:49Z</time>
      </trkpt>
      <trkpt lat="48.36815" lon="2.53952">
        <ele>122</ele>
        <time>2017-11-19T09:30:51Z</time>
      </trkpt>
      <trkpt lat="48.36815" lon="2.5396">
        <ele>122</ele>
        <time>2017-11-19T09:30:53Z</time>
      </trkpt>
      <trkpt lat="48.36813" lon="2.53969">
        <ele>122</ele>
        <time>2017-11-19T09:30:55Z</time>
      </trkpt>
      <trkpt lat="48.36815" lon="2.53982">
        <ele>122</ele>
        <time>2017-11-19T09:30:57Z</time>
      </trkpt>
      <trkpt lat="48.36817" lon="2.53993">
        <ele>122</ele>
        <time>2017-11-19T09:30:59Z</time>
      </trkpt>
      <trkpt lat="48.36817" lon="2.54002">
        <ele>122</ele>
        <time>2017-11-19T09:31:01Z</time>
      </trkpt>
      <trkpt lat="48.36818" lon="2.54013">
        <ele>122</ele>
        <time>2017-11-19T09:31:03Z</time>
      </trkpt>
      <trkpt lat="48.36819" lon="2.54021">
        <ele>121</ele>
        <time>2017-11-19T09:31:05Z</time>
      </trkpt>
      <trkpt lat="48.36822" lon="2.54031">
        <ele>121</ele>
        <time>2017-11-19T09:31:07Z</time>
      </trkpt>
      <trkpt lat="48.36822" lon="2.5404">
        <ele>121</ele>
        <time>2017-11-19T09:31:09Z</time>
      </trkpt>
      <trkpt lat="48.36823" lon="2.5405">
        <ele>121</ele>
        <time>2017-11-19T09:31:11Z</time>
      </trkpt>
      <trkpt lat="48.36825" lon="2.54058">
        <ele>121</ele>
        <time>2017-11-19T09:31:13Z</time>
      </trkpt>
      <trkpt lat="48.36826" lon="2.54066">
        <ele>121</ele>
        <time>2017-11-19T09:31:15Z</time>
      </trkpt>
      <trkpt lat="48.36828" lon="2.54075">
        <ele>121</ele>
        <time>2017-11-19T09:31:17Z</time>
      </trkpt>
      <trkpt lat="48.36832" lon="2.54085">
        <ele>122</ele>
        <time>2017-11-19T09:31:19Z</time>
      </trkpt>
      <trkpt lat="48.36836" lon="2.54093">
        <ele>122</ele>
        <time>2017-11-19T09:31:21Z</time>
      </trkpt>
      <trkpt lat="48.36839" lon="2.54103">
        <ele>122</ele>
        <time>2017-11-19T09:31:23Z</time>
      </trkpt>
      <trkpt lat="48.36843" lon="2.54113">
        <ele>122</ele>
        <time>2017-11-19T09:31:25Z</time>
      </trkpt>
      <trkpt lat="48.36847" lon="2.54125">
        <ele>121</ele>
        <time>2017-11-19T09:31:27Z</time>
      </trkpt>
      <trkpt lat="48.3685" lon="2.54135">
        <ele>121</ele>
        <time>2017-11-19T09:31:29Z</time>
      </trkpt>
      <trkpt lat="48.36854" lon="2.54146">
        <ele>121</ele>
        <time>2017-11-19T09:31:31Z</time>
      </trkpt>
      <trkpt lat="48.36855" lon="2.54155">
        <ele>121</ele>
        <time>2017-11-19T09:31:33Z</time>
      </trkpt>
      <trkpt lat="48.36859" lon="2.54163">
        <ele>121</ele>
        <time>2017-11-19T09:31:35Z</time>
      </trkpt>
      <trkpt lat="48.36861" lon="2.54173">
        <ele>120</ele>
        <time>2017-11-19T09:31:37Z</time>
      </trkpt>
      <trkpt lat="48.36863" lon="2.54184">
        <ele>120</ele>
        <time>2017-11-19T09:31:39Z</time>
      </trkpt>
      <trkpt lat="48.36865" lon="2.54193">
        <ele>120</ele>
        <time>2017-11-19T09:31:41Z</time>
      </trkpt>
      <trkpt lat="48.36866" lon="2.54203">
        <ele>120</ele>
        <time>2017-11-19T09:31:43Z</time>
      </trkpt>
      <trkpt lat="48.36868" lon="2.54212">
        <ele>120</ele>
        <time>2017-11-19T09:31:45Z</time>
      </trkpt>
      <trkpt lat="48.36872" lon="2.54222">
        <ele>120</ele>
        <time>2017-11-19T09:31:47Z</time>
      </trkpt>
      <trkpt lat="48.36876" lon="2.5423">
        <ele>120</ele>
        <time>2017-11-19T09:31:49Z</time>
      </trkpt>
      <trkpt lat="48.36883" lon="2.54234">
        <ele>120</ele>
        <time>2017-11-19T09:31:51Z</time>
      </trkpt>
      <trkpt lat="48.36891" lon="2.54236">
        <ele>121</ele>
        <time>2017-11-19T09:31:53Z</time>
      </trkpt>
      <trkpt lat="48.36896" lon="2.54239">
        <ele>121</ele>
        <time>2017-11-19T09:31:55Z</time>
      </trkpt>
      <trkpt lat="48.36902" lon="2.54242">
        <ele>121</ele>
        <time>2017-11-19T09:31:57Z</time>
      </trkpt>
      <trkpt lat="48.36908" lon="2.54245">
        <ele>121</ele>
        <time>2017-11-19T09:31:59Z</time>
      </trkpt>
      <trkpt lat="48.36915" lon="2.54248">
        <ele>121</ele>
        <time>2017-11-19T09:32:01Z</time>
      </trkpt>
      <trkpt lat="48.36921" lon="2.54251">
        <ele>121</ele>
        <time>2017-11-19T09:32:03Z</time>
      </trkpt>
      <trkpt lat="48.36928" lon="2.54253">
        <ele>121</ele>
        <time>2017-11-19T09:32:05Z</time>
      </trkpt>
      <trkpt lat="48.36935" lon="2.54256">
        <ele>121</ele>
        <time>2017-11-19T09:32:07Z</time>
      </trkpt>
      <trkpt lat="48.36942" lon="2.54257">
        <ele>121</ele>
        <time>2017-11-19T09:32:09Z</time>
      </trkpt>
      <trkpt lat="48.36949" lon="2.54261">
        <ele>121</ele>
        <time>2017-11-19T09:32:11Z</time>
      </trkpt>
      <trkpt lat="48.36956" lon="2.54263">
        <ele>121</ele>
        <time>2017-11-19T09:32:13Z</time>
      </trkpt>
      <trkpt lat="48.36963" lon="2.54267">
        <ele>121</ele>
        <time>2017-11-19T09:32:15Z</time>
      </trkpt>
      <trkpt lat="48.3697" lon="2.54271">
        <ele>121</ele>
        <time>2017-11-19T09:32:17Z</time>
      </trkpt>
      <trkpt lat="48.36978" lon="2.54276">
        <ele>121</ele>
        <time>2017-11-19T09:32:19Z</time>
      </trkpt>
      <trkpt lat="48.36984" lon="2.54283">
        <ele>121</ele>
        <time>2017-11-19T09:32:21Z</time>
      </trkpt>
      <trkpt lat="48.3699" lon="2.54291">
        <ele>121</ele>
        <time>2017-11-19T09:32:23Z</time>
      </trkpt>
      <trkpt lat="48.36996" lon="2.543">
        <ele>121</ele>
        <time>2017-11-19T09:32:25Z</time>
      </trkpt>
      <trkpt lat="48.37002" lon="2.54309">
        <ele>119</ele>
        <time>2017-11-19T09:32:27Z</time>
      </trkpt>
      <trkpt lat="48.37009" lon="2.54319">
        <ele>119</ele>
        <time>2017-11-19T09:32:29Z</time>
      </trkpt>
      <trkpt lat="48.37015" lon="2.54329">
        <ele>119</ele>
        <time>2017-11-19T09:32:31Z</time>
      </trkpt>
      <trkpt lat="48.37021" lon="2.54339">
        <ele>120</ele>
        <time>2017-11-19T09:32:33Z</time>
      </trkpt>
      <trkpt lat="48.37028" lon="2.54348">
        <ele>120</ele>
        <time>2017-11-19T09:32:35Z</time>
      </trkpt>
      <trkpt lat="48.37034" lon="2.54359">
        <ele>120</ele>
        <time>2017-11-19T09:32:37Z</time>
      </trkpt>
      <trkpt lat="48.37041" lon="2.5437">
        <ele>119</ele>
        <time>2017-11-19T09:32:39Z</time>
      </trkpt>
      <trkpt lat="48.37048" lon="2.54379">
        <ele>119</ele>
        <time>2017-11-19T09:32:41Z</time>
      </trkpt>
      <trkpt lat="48.37055" lon="2.54389">
        <ele>119</ele>
        <time>2017-11-19T09:32:43Z</time>
      </trkpt>
      <trkpt lat="48.37062" lon="2.54398">
        <ele>119</ele>
        <time>2017-11-19T09:32:45Z</time>
      </trkpt>
      <trkpt lat="48.37069" lon="2.54409">
        <ele>119</ele>
        <time>2017-11-19T09:32:47Z</time>
      </trkpt>
      <trkpt lat="48.37076" lon="2.54421">
        <ele>119</ele>
        <time>2017-11-19T09:32:49Z</time>
      </trkpt>
      <trkpt lat="48.37082" lon="2.5443">
        <ele>119</ele>
        <time>2017-11-19T09:32:51Z</time>
      </trkpt>
      <trkpt lat="48.37089" lon="2.54441">
        <ele>115</ele>
        <time>2017-11-19T09:32:53Z</time>
      </trkpt>
      <trkpt lat="48.37097" lon="2.54452">
        <ele>114</ele>
        <time>2017-11-19T09:32:55Z</time>
      </trkpt>
      <trkpt lat="48.37106" lon="2.54467">
        <ele>114</ele>
        <time>2017-11-19T09:32:57Z</time>
      </trkpt>
      <trkpt lat="48.37117" lon="2.54484">
        <ele>113</ele>
        <time>2017-11-19T09:32:59Z</time>
      </trkpt>
      <trkpt lat="48.37124" lon="2.54502">
        <ele>116</ele>
        <time>2017-11-19T09:33:01Z</time>
      </trkpt>
      <trkpt lat="48.37129" lon="2.54512">
        <ele>116</ele>
        <time>2017-11-19T09:33:03Z</time>
      </trkpt>
      <trkpt lat="48.37135" lon="2.54518">
        <ele>116</ele>
        <time>2017-11-19T09:33:05Z</time>
      </trkpt>
      <trkpt lat="48.37141" lon="2.54522">
        <ele>115</ele>
        <time>2017-11-19T09:33:07Z</time>
      </trkpt>
      <trkpt lat="48.37146" lon="2.54526">
        <ele>115</ele>
        <time>2017-11-19T09:33:09Z</time>
      </trkpt>
      <trkpt lat="48.37151" lon="2.54531">
        <ele>116</ele>
        <time>2017-11-19T09:33:11Z</time>
      </trkpt>
      <trkpt lat="48.37156" lon="2.54539">
        <ele>116</ele>
        <time>2017-11-19T09:33:13Z</time>
      </trkpt>
      <trkpt lat="48.37162" lon="2.54548">
        <ele>117</ele>
        <time>2017-11-19T09:33:15Z</time>
      </trkpt>
      <trkpt lat="48.37167" lon="2.54558">
        <ele>113</ele>
        <time>2017-11-19T09:33:17Z</time>
      </trkpt>
      <trkpt lat="48.37172" lon="2.54568">
        <ele>115</ele>
        <time>2017-11-19T09:33:19Z</time>
      </trkpt>
      <trkpt lat="48.37178" lon="2.54577">
        <ele>115</ele>
        <time>2017-11-19T09:33:21Z</time>
      </trkpt>
      <trkpt lat="48.37185" lon="2.54586">
        <ele>117</ele>
        <time>2017-11-19T09:33:23Z</time>
      </trkpt>
      <trkpt lat="48.37191" lon="2.54597">
        <ele>117</ele>
        <time>2017-11-19T09:33:25Z</time>
      </trkpt>
      <trkpt lat="48.37199" lon="2.54607">
        <ele>116</ele>
        <time>2017-11-19T09:33:27Z</time>
      </trkpt>
      <trkpt lat="48.37207" lon="2.54618">
        <ele>116</ele>
        <time>2017-11-19T09:33:29Z</time>
      </trkpt>
      <trkpt lat="48.37217" lon="2.54632">
        <ele>115</ele>
        <time>2017-11-19T09:33:31Z</time>
      </trkpt>
      <trkpt lat="48.37226" lon="2.54645">
        <ele>115</ele>
        <time>2017-11-19T09:33:33Z</time>
      </trkpt>
      <trkpt lat="48.37236" lon="2.54664">
        <ele>113</ele>
        <time>2017-11-19T09:33:35Z</time>
      </trkpt>
      <trkpt lat="48.37248" lon="2.54683">
        <ele>114</ele>
        <time>2017-11-19T09:33:37Z</time>
      </trkpt>
      <trkpt lat="48.37262" lon="2.54703">
        <ele>108</ele>
        <time>2017-11-19T09:33:39Z</time>
      </trkpt>
      <trkpt lat="48.37273" lon="2.5472">
        <ele>108</ele>
        <time>2017-11-19T09:33:41Z</time>
      </trkpt>
      <trkpt lat="48.37277" lon="2.54737">
        <ele>108</ele>
        <time>2017-11-19T09:33:43Z</time>
      </trkpt>
      <trkpt lat="48.37273" lon="2.54744">
        <ele>109</ele>
        <time>2017-11-19T09:33:45Z</time>
      </trkpt>
      <trkpt lat="48.37267" lon="2.54752">
        <ele>112</ele>
        <time>2017-11-19T09:33:49Z</time>
      </trkpt>
      <trkpt lat="48.37262" lon="2.5476">
        <ele>112</ele>
        <time>2017-11-19T09:33:53Z</time>
      </trkpt>
      <trkpt lat="48.37259" lon="2.54765">
        <ele>112</ele>
        <time>2017-11-19T09:33:57Z</time>
      </trkpt>
      <trkpt lat="48.37255" lon="2.54771">
        <ele>112</ele>
        <time>2017-11-19T09:34:01Z</time>
      </trkpt>
      <trkpt lat="48.37252" lon="2.54775">
        <ele>112</ele>
        <time>2017-11-19T09:34:03Z</time>
      </trkpt>
      <trkpt lat="48.37247" lon="2.54783">
        <ele>117</ele>
        <time>2017-11-19T09:34:07Z</time>
      </trkpt>
      <trkpt lat="48.37241" lon="2.54791">
        <ele>117</ele>
        <time>2017-11-19T09:34:11Z</time>
      </trkpt>
      <trkpt lat="48.37235" lon="2.548">
        <ele>118</ele>
        <time>2017-11-19T09:34:15Z</time>
      </trkpt>
      <trkpt lat="48.3723" lon="2.54808">
        <ele>118</ele>
        <time>2017-11-19T09:34:19Z</time>
      </trkpt>
      <trkpt lat="48.37225" lon="2.54818">
        <ele>118</ele>
        <time>2017-11-19T09:34:23Z</time>
      </trkpt>
      <trkpt lat="48.37218" lon="2.54828">
        <ele>118</ele>
        <time>2017-11-19T09:34:27Z</time>
      </trkpt>
      <trkpt lat="48.37214" lon="2.54833">
        <ele>119</ele>
        <time>2017-11-19T09:34:29Z</time>
      </trkpt>
      <trkpt lat="48.3721" lon="2.54838">
        <ele>119</ele>
        <time>2017-11-19T09:34:31Z</time>
      </trkpt>
      <trkpt lat="48.37205" lon="2.54845">
        <ele>119</ele>
        <time>2017-11-19T09:34:33Z</time>
      </trkpt>
      <trkpt lat="48.37199" lon="2.54853">
        <ele>120</ele>
        <time>2017-11-19T09:34:35Z</time>
      </trkpt>
      <trkpt lat="48.37195" lon="2.5486">
        <ele>120</ele>
        <time>2017-11-19T09:34:37Z</time>
      </trkpt>
      <trkpt lat="48.37191" lon="2.54867">
        <ele>120</ele>
        <time>2017-11-19T09:34:39Z</time>
      </trkpt>
      <trkpt lat="48.37187" lon="2.54873">
        <ele>120</ele>
        <time>2017-11-19T09:34:41Z</time>
      </trkpt>
      <trkpt lat="48.37183" lon="2.54881">
        <ele>120</ele>
        <time>2017-11-19T09:34:43Z</time>
      </trkpt>
      <trkpt lat="48.37179" lon="2.54888">
        <ele>120</ele>
        <time>2017-11-19T09:34:45Z</time>
      </trkpt>
      <trkpt lat="48.37175" lon="2.54894">
        <ele>120</ele>
        <time>2017-11-19T09:34:47Z</time>
      </trkpt>
      <trkpt lat="48.3717" lon="2.54901">
        <ele>120</ele>
        <time>2017-11-19T09:34:49Z</time>
      </trkpt>
      <trkpt lat="48.37166" lon="2.54908">
        <ele>121</ele>
        <time>2017-11-19T09:34:51Z</time>
      </trkpt>
      <trkpt lat="48.37162" lon="2.54915">
        <ele>121</ele>
        <time>2017-11-19T09:34:53Z</time>
      </trkpt>
      <trkpt lat="48.37157" lon="2.54921">
        <ele>121</ele>
        <time>2017-11-19T09:34:55Z</time>
      </trkpt>
      <trkpt lat="48.37153" lon="2.54929">
        <ele>122</ele>
        <time>2017-11-19T09:34:57Z</time>
      </trkpt>
      <trkpt lat="48.37148" lon="2.54935">
        <ele>122</ele>
        <time>2017-11-19T09:34:59Z</time>
      </trkpt>
      <trkpt lat="48.37143" lon="2.54943">
        <ele>122</ele>
        <time>2017-11-19T09:35:01Z</time>
      </trkpt>
      <trkpt lat="48.37138" lon="2.5495">
        <ele>122</ele>
        <time>2017-11-19T09:35:03Z</time>
      </trkpt>
      <trkpt lat="48.37134" lon="2.54957">
        <ele>122</ele>
        <time>2017-11-19T09:35:05Z</time>
      </trkpt>
      <trkpt lat="48.37128" lon="2.54965">
        <ele>122</ele>
        <time>2017-11-19T09:35:07Z</time>
      </trkpt>
      <trkpt lat="48.37123" lon="2.54974">
        <ele>122</ele>
        <time>2017-11-19T09:35:09Z</time>
      </trkpt>
      <trkpt lat="48.37118" lon="2.54983">
        <ele>122</ele>
        <time>2017-11-19T09:35:11Z</time>
      </trkpt>
      <trkpt lat="48.37112" lon="2.54992">
        <ele>122</ele>
        <time>2017-11-19T09:35:13Z</time>
      </trkpt>
      <trkpt lat="48.37105" lon="2.55001">
        <ele>122</ele>
        <time>2017-11-19T09:35:15Z</time>
      </trkpt>
      <trkpt lat="48.371" lon="2.55011">
        <ele>122</ele>
        <time>2017-11-19T09:35:17Z</time>
      </trkpt>
      <trkpt lat="48.37094" lon="2.55018">
        <ele>122</ele>
        <time>2017-11-19T09:35:19Z</time>
      </trkpt>
      <trkpt lat="48.37088" lon="2.55029">
        <ele>122</ele>
        <time>2017-11-19T09:35:21Z</time>
      </trkpt>
      <trkpt lat="48.37082" lon="2.5504">
        <ele>122</ele>
        <time>2017-11-19T09:35:23Z</time>
      </trkpt>
      <trkpt lat="48.37075" lon="2.55052">
        <ele>121</ele>
        <time>2017-11-19T09:35:25Z</time>
      </trkpt>
      <trkpt lat="48.37067" lon="2.55062">
        <ele>121</ele>
        <time>2017-11-19T09:35:27Z</time>
      </trkpt>
      <trkpt lat="48.3706" lon="2.55073">
        <ele>121</ele>
        <time>2017-11-19T09:35:29Z</time>
      </trkpt>
      <trkpt lat="48.37053" lon="2.55085">
        <ele>120</ele>
        <time>2017-11-19T09:35:31Z</time>
      </trkpt>
      <trkpt lat="48.37045" lon="2.55096">
        <ele>121</ele>
        <time>2017-11-19T09:35:33Z</time>
      </trkpt>
      <trkpt lat="48.37038" lon="2.55106">
        <ele>121</ele>
        <time>2017-11-19T09:35:35Z</time>
      </trkpt>
      <trkpt lat="48.37032" lon="2.55116">
        <ele>121</ele>
        <time>2017-11-19T09:35:37Z</time>
      </trkpt>
      <trkpt lat="48.37027" lon="2.55126">
        <ele>121</ele>
        <time>2017-11-19T09:35:39Z</time>
      </trkpt>
      <trkpt lat="48.37023" lon="2.55134">
        <ele>121</ele>
        <time>2017-11-19T09:35:41Z</time>
      </trkpt>
      <trkpt lat="48.37015" lon="2.55146">
        <ele>121</ele>
        <time>2017-11-19T09:35:45Z</time>
      </trkpt>
      <trkpt lat="48.3701" lon="2.55153">
        <ele>121</ele>
        <time>2017-11-19T09:35:47Z</time>
      </trkpt>
      <trkpt lat="48.37006" lon="2.5516">
        <ele>122</ele>
        <time>2017-11-19T09:35:49Z</time>
      </trkpt>
      <trkpt lat="48.37001" lon="2.55168">
        <ele>122</ele>
        <time>2017-11-19T09:35:51Z</time>
      </trkpt>
      <trkpt lat="48.36995" lon="2.55176">
        <ele>122</ele>
        <time>2017-11-19T09:35:53Z</time>
      </trkpt>
      <trkpt lat="48.3699" lon="2.55184">
        <ele>122</ele>
        <time>2017-11-19T09:35:55Z</time>
      </trkpt>
      <trkpt lat="48.36986" lon="2.55191">
        <ele>123</ele>
        <time>2017-11-19T09:35:57Z</time>
      </trkpt>
      <trkpt lat="48.36981" lon="2.55199">
        <ele>123</ele>
        <time>2017-11-19T09:35:59Z</time>
      </trkpt>
      <trkpt lat="48.36978" lon="2.55205">
        <ele>123</ele>
        <time>2017-11-19T09:36:01Z</time>
      </trkpt>
      <trkpt lat="48.36972" lon="2.55209">
        <ele>123</ele>
        <time>2017-11-19T09:36:03Z</time>
      </trkpt>
      <trkpt lat="48.36966" lon="2.55209">
        <ele>123</ele>
        <time>2017-11-19T09:36:05Z</time>
      </trkpt>
      <trkpt lat="48.36959" lon="2.55201">
        <ele>123</ele>
        <time>2017-11-19T09:36:07Z</time>
      </trkpt>
      <trkpt lat="48.36953" lon="2.55193">
        <ele>123</ele>
        <time>2017-11-19T09:36:09Z</time>
      </trkpt>
      <trkpt lat="48.36945" lon="2.55183">
        <ele>123</ele>
        <time>2017-11-19T09:36:11Z</time>
      </trkpt>
      <trkpt lat="48.36937" lon="2.55174">
        <ele>123</ele>
        <time>2017-11-19T09:36:13Z</time>
      </trkpt>
      <trkpt lat="48.36929" lon="2.55166">
        <ele>124</ele>
        <time>2017-11-19T09:36:15Z</time>
      </trkpt>
      <trkpt lat="48.36922" lon="2.55156">
        <ele>124</ele>
        <time>2017-11-19T09:36:17Z</time>
      </trkpt>
      <trkpt lat="48.36913" lon="2.55145">
        <ele>124</ele>
        <time>2017-11-19T09:36:19Z</time>
      </trkpt>
      <trkpt lat="48.36906" lon="2.55134">
        <ele>124</ele>
        <time>2017-11-19T09:36:21Z</time>
      </trkpt>
      <trkpt lat="48.369" lon="2.55124">
        <ele>124</ele>
        <time>2017-11-19T09:36:23Z</time>
      </trkpt>
      <trkpt lat="48.36893" lon="2.55113">
        <ele>124</ele>
        <time>2017-11-19T09:36:25Z</time>
      </trkpt>
      <trkpt lat="48.36886" lon="2.55104">
        <ele>124</ele>
        <time>2017-11-19T09:36:27Z</time>
      </trkpt>
      <trkpt lat="48.36879" lon="2.55095">
        <ele>124</ele>
        <time>2017-11-19T09:36:29Z</time>
      </trkpt>
      <trkpt lat="48.36872" lon="2.55085">
        <ele>125</ele>
        <time>2017-11-19T09:36:31Z</time>
      </trkpt>
      <trkpt lat="48.36865" lon="2.55076">
        <ele>125</ele>
        <time>2017-11-19T09:36:33Z</time>
      </trkpt>
      <trkpt lat="48.36858" lon="2.55063">
        <ele>125</ele>
        <time>2017-11-19T09:36:35Z</time>
      </trkpt>
      <trkpt lat="48.3685" lon="2.55055">
        <ele>125</ele>
        <time>2017-11-19T09:36:37Z</time>
      </trkpt>
      <trkpt lat="48.36844" lon="2.55044">
        <ele>125</ele>
        <time>2017-11-19T09:36:39Z</time>
      </trkpt>
      <trkpt lat="48.36839" lon="2.55032">
        <ele>125</ele>
        <time>2017-11-19T09:36:41Z</time>
      </trkpt>
      <trkpt lat="48.36834" lon="2.55022">
        <ele>125</ele>
        <time>2017-11-19T09:36:43Z</time>
      </trkpt>
      <trkpt lat="48.36827" lon="2.55011">
        <ele>125</ele>
        <time>2017-11-19T09:36:45Z</time>
      </trkpt>
      <trkpt lat="48.36818" lon="2.54999">
        <ele>125</ele>
        <time>2017-11-19T09:36:47Z</time>
      </trkpt>
      <trkpt lat="48.36813" lon="2.5499">
        <ele>125</ele>
        <time>2017-11-19T09:36:49Z</time>
      </trkpt>
      <trkpt lat="48.36805" lon="2.54983">
        <ele>125</ele>
        <time>2017-11-19T09:36:51Z</time>
      </trkpt>
      <trkpt lat="48.36798" lon="2.5497">
        <ele>125</ele>
        <time>2017-11-19T09:36:53Z</time>
      </trkpt>
      <trkpt lat="48.3679" lon="2.5496">
        <ele>125</ele>
        <time>2017-11-19T09:36:55Z</time>
      </trkpt>
      <trkpt lat="48.36783" lon="2.54949">
        <ele>125</ele>
        <time>2017-11-19T09:36:57Z</time>
      </trkpt>
      <trkpt lat="48.36776" lon="2.54938">
        <ele>125</ele>
        <time>2017-11-19T09:36:59Z</time>
      </trkpt>
      <trkpt lat="48.36769" lon="2.54929">
        <ele>125</ele>
        <time>2017-11-19T09:37:01Z</time>
      </trkpt>
      <trkpt lat="48.36762" lon="2.54917">
        <ele>125</ele>
        <time>2017-11-19T09:37:03Z</time>
      </trkpt>
      <trkpt lat="48.36755" lon="2.54908">
        <ele>125</ele>
        <time>2017-11-19T09:37:05Z</time>
      </trkpt>
      <trkpt lat="48.36748" lon="2.54897">
        <ele>125</ele>
        <time>2017-11-19T09:37:07Z</time>
      </trkpt>
      <trkpt lat="48.3674" lon="2.54885">
        <ele>125</ele>
        <time>2017-11-19T09:37:09Z</time>
      </trkpt>
      <trkpt lat="48.36733" lon="2.54876">
        <ele>125</ele>
        <time>2017-11-19T09:37:11Z</time>
      </trkpt>
      <trkpt lat="48.36727" lon="2.54867">
        <ele>125</ele>
        <time>2017-11-19T09:37:13Z</time>
      </trkpt>
      <trkpt lat="48.3672" lon="2.54856">
        <ele>125</ele>
        <time>2017-11-19T09:37:15Z</time>
      </trkpt>
      <trkpt lat="48.3671" lon="2.54843">
        <ele>125</ele>
        <time>2017-11-19T09:37:17Z</time>
      </trkpt>
      <trkpt lat="48.36703" lon="2.54833">
        <ele>124</ele>
        <time>2017-11-19T09:37:19Z</time>
      </trkpt>
      <trkpt lat="48.36695" lon="2.54822">
        <ele>124</ele>
        <time>2017-11-19T09:37:21Z</time>
      </trkpt>
      <trkpt lat="48.36689" lon="2.54811">
        <ele>124</ele>
        <time>2017-11-19T09:37:23Z</time>
      </trkpt>
      <trkpt lat="48.36682" lon="2.54801">
        <ele>124</ele>
        <time>2017-11-19T09:37:25Z</time>
      </trkpt>
      <trkpt lat="48.36674" lon="2.5479">
        <ele>124</ele>
        <time>2017-11-19T09:37:27Z</time>
      </trkpt>
      <trkpt lat="48.36668" lon="2.54777">
        <ele>123</ele>
        <time>2017-11-19T09:37:29Z</time>
      </trkpt>
      <trkpt lat="48.36662" lon="2.54765">
        <ele>124</ele>
        <time>2017-11-19T09:37:31Z</time>
      </trkpt>
      <trkpt lat="48.36655" lon="2.54756">
        <ele>124</ele>
        <time>2017-11-19T09:37:33Z</time>
      </trkpt>
      <trkpt lat="48.36649" lon="2.54745">
        <ele>123</ele>
        <time>2017-11-19T09:37:35Z</time>
      </trkpt>
      <trkpt lat="48.36641" lon="2.54735">
        <ele>124</ele>
        <time>2017-11-19T09:37:37Z</time>
      </trkpt>
      <trkpt lat="48.36635" lon="2.54725">
        <ele>124</ele>
        <time>2017-11-19T09:37:39Z</time>
      </trkpt>
      <trkpt lat="48.36627" lon="2.54713">
        <ele>124</ele>
        <time>2017-11-19T09:37:41Z</time>
      </trkpt>
      <trkpt lat="48.36626" lon="2.54703">
        <ele>124</ele>
        <time>2017-11-19T09:37:43Z</time>
      </trkpt>
      <trkpt lat="48.3663" lon="2.54688">
        <ele>124</ele>
        <time>2017-11-19T09:37:45Z</time>
      </trkpt>
      <trkpt lat="48.36636" lon="2.54679">
        <ele>123</ele>
        <time>2017-11-19T09:37:47Z</time>
      </trkpt>
      <trkpt lat="48.36645" lon="2.54675">
        <ele>123</ele>
        <time>2017-11-19T09:37:49Z</time>
      </trkpt>
      <trkpt lat="48.36656" lon="2.54679">
        <ele>123</ele>
        <time>2017-11-19T09:37:51Z</time>
      </trkpt>
      <trkpt lat="48.36666" lon="2.54686">
        <ele>123</ele>
        <time>2017-11-19T09:37:53Z</time>
      </trkpt>
      <trkpt lat="48.36677" lon="2.54681">
        <ele>122</ele>
        <time>2017-11-19T09:37:55Z</time>
      </trkpt>
      <trkpt lat="48.36682" lon="2.54669">
        <ele>122</ele>
        <time>2017-11-19T09:37:57Z</time>
      </trkpt>
      <trkpt lat="48.36684" lon="2.54654">
        <ele>121</ele>
        <time>2017-11-19T09:37:59Z</time>
      </trkpt>
      <trkpt lat="48.36684" lon="2.54637">
        <ele>121</ele>
        <time>2017-11-19T09:38:01Z</time>
      </trkpt>
      <trkpt lat="48.36684" lon="2.54622">
        <ele>121</ele>
        <time>2017-11-19T09:38:03Z</time>
      </trkpt>
      <trkpt lat="48.36686" lon="2.54608">
        <ele>121</ele>
        <time>2017-11-19T09:38:05Z</time>
      </trkpt>
      <trkpt lat="48.36688" lon="2.54593">
        <ele>121</ele>
        <time>2017-11-19T09:38:07Z</time>
      </trkpt>
      <trkpt lat="48.3669" lon="2.54578">
        <ele>120</ele>
        <time>2017-11-19T09:38:09Z</time>
      </trkpt>
      <trkpt lat="48.36692" lon="2.54565">
        <ele>120</ele>
        <time>2017-11-19T09:38:11Z</time>
      </trkpt>
      <trkpt lat="48.36696" lon="2.54552">
        <ele>120</ele>
        <time>2017-11-19T09:38:13Z</time>
      </trkpt>
      <trkpt lat="48.367" lon="2.54539">
        <ele>120</ele>
        <time>2017-11-19T09:38:15Z</time>
      </trkpt>
      <trkpt lat="48.36703" lon="2.54527">
        <ele>120</ele>
        <time>2017-11-19T09:38:17Z</time>
      </trkpt>
      <trkpt lat="48.36705" lon="2.54516">
        <ele>120</ele>
        <time>2017-11-19T09:38:19Z</time>
      </trkpt>
      <trkpt lat="48.36706" lon="2.54505">
        <ele>120</ele>
        <time>2017-11-19T09:38:21Z</time>
      </trkpt>
      <trkpt lat="48.36709" lon="2.54494">
        <ele>120</ele>
        <time>2017-11-19T09:38:23Z</time>
      </trkpt>
      <trkpt lat="48.36708" lon="2.54484">
        <ele>120</ele>
        <time>2017-11-19T09:38:25Z</time>
      </trkpt>
      <trkpt lat="48.36709" lon="2.54473">
        <ele>120</ele>
        <time>2017-11-19T09:38:27Z</time>
      </trkpt>
      <trkpt lat="48.3671" lon="2.54464">
        <ele>120</ele>
        <time>2017-11-19T09:38:29Z</time>
      </trkpt>
      <trkpt lat="48.36711" lon="2.54454">
        <ele>120</ele>
        <time>2017-11-19T09:38:31Z</time>
      </trkpt>
      <trkpt lat="48.36714" lon="2.54439">
        <ele>120</ele>
        <time>2017-11-19T09:38:33Z</time>
      </trkpt>
      <trkpt lat="48.36715" lon="2.54421">
        <ele>120</ele>
        <time>2017-11-19T09:38:35Z</time>
      </trkpt>
      <trkpt lat="48.36717" lon="2.54401">
        <ele>119</ele>
        <time>2017-11-19T09:38:37Z</time>
      </trkpt>
      <trkpt lat="48.36718" lon="2.54379">
        <ele>118</ele>
        <time>2017-11-19T09:38:39Z</time>
      </trkpt>
      <trkpt lat="48.3672" lon="2.54355">
        <ele>117</ele>
        <time>2017-11-19T09:38:41Z</time>
      </trkpt>
      <trkpt lat="48.36721" lon="2.54329">
        <ele>115</ele>
        <time>2017-11-19T09:38:43Z</time>
      </trkpt>
      <trkpt lat="48.36721" lon="2.543">
        <ele>115</ele>
        <time>2017-11-19T09:38:45Z</time>
      </trkpt>
      <trkpt lat="48.3672" lon="2.54276">
        <ele>115</ele>
        <time>2017-11-19T09:38:47Z</time>
      </trkpt>
      <trkpt lat="48.36716" lon="2.54251">
        <ele>114</ele>
        <time>2017-11-19T09:38:49Z</time>
      </trkpt>
      <trkpt lat="48.36711" lon="2.54226">
        <ele>113</ele>
        <time>2017-11-19T09:38:51Z</time>
      </trkpt>
      <trkpt lat="48.36705" lon="2.54203">
        <ele>113</ele>
        <time>2017-11-19T09:38:53Z</time>
      </trkpt>
      <trkpt lat="48.367" lon="2.54181">
        <ele>113</ele>
        <time>2017-11-19T09:38:55Z</time>
      </trkpt>
      <trkpt lat="48.36696" lon="2.54161">
        <ele>112</ele>
        <time>2017-11-19T09:38:57Z</time>
      </trkpt>
      <trkpt lat="48.36692" lon="2.5414">
        <ele>112</ele>
        <time>2017-11-19T09:38:59Z</time>
      </trkpt>
      <trkpt lat="48.36687" lon="2.54122">
        <ele>112</ele>
        <time>2017-11-19T09:39:01Z</time>
      </trkpt>
      <trkpt lat="48.36683" lon="2.54106">
        <ele>111</ele>
        <time>2017-11-19T09:39:03Z</time>
      </trkpt>
      <trkpt lat="48.36679" lon="2.5409">
        <ele>110</ele>
        <time>2017-11-19T09:39:05Z</time>
      </trkpt>
      <trkpt lat="48.36676" lon="2.54074">
        <ele>110</ele>
        <time>2017-11-19T09:39:07Z</time>
      </trkpt>
      <trkpt lat="48.36674" lon="2.54059">
        <ele>111</ele>
        <time>2017-11-19T09:39:09Z</time>
      </trkpt>
      <trkpt lat="48.36671" lon="2.54043">
        <ele>111</ele>
        <time>2017-11-19T09:39:11Z</time>
      </trkpt>
      <trkpt lat="48.36667" lon="2.54029">
        <ele>110</ele>
        <time>2017-11-19T09:39:13Z</time>
      </trkpt>
      <trkpt lat="48.36663" lon="2.54014">
        <ele>108</ele>
        <time>2017-11-19T09:39:15Z</time>
      </trkpt>
      <trkpt lat="48.3666" lon="2.53999">
        <ele>107</ele>
        <time>2017-11-19T09:39:17Z</time>
      </trkpt>
      <trkpt lat="48.3666" lon="2.53986">
        <ele>107</ele>
        <time>2017-11-19T09:39:19Z</time>
      </trkpt>
      <trkpt lat="48.36661" lon="2.53972">
        <ele>107</ele>
        <time>2017-11-19T09:39:21Z</time>
      </trkpt>
      <trkpt lat="48.36661" lon="2.53958">
        <ele>106</ele>
        <time>2017-11-19T09:39:23Z</time>
      </trkpt>
      <trkpt lat="48.36659" lon="2.53944">
        <ele>106</ele>
        <time>2017-11-19T09:39:25Z</time>
      </trkpt>
      <trkpt lat="48.36656" lon="2.5393">
        <ele>105</ele>
        <time>2017-11-19T09:39:27Z</time>
      </trkpt>
      <trkpt lat="48.36652" lon="2.53915">
        <ele>105</ele>
        <time>2017-11-19T09:39:29Z</time>
      </trkpt>
      <trkpt lat="48.36648" lon="2.53904">
        <ele>105</ele>
        <time>2017-11-19T09:39:31Z</time>
      </trkpt>
      <trkpt lat="48.36643" lon="2.53893">
        <ele>105</ele>
        <time>2017-11-19T09:39:33Z</time>
      </trkpt>
      <trkpt lat="48.36639" lon="2.53879">
        <ele>105</ele>
        <time>2017-11-19T09:39:35Z</time>
      </trkpt>
      <trkpt lat="48.36636" lon="2.53866">
        <ele>105</ele>
        <time>2017-11-19T09:39:37Z</time>
      </trkpt>
      <trkpt lat="48.36632" lon="2.53852">
        <ele>105</ele>
        <time>2017-11-19T09:39:39Z</time>
      </trkpt>
      <trkpt lat="48.36626" lon="2.5384">
        <ele>105</ele>
        <time>2017-11-19T09:39:41Z</time>
      </trkpt>
      <trkpt lat="48.3662" lon="2.53826">
        <ele>105</ele>
        <time>2017-11-19T09:39:43Z</time>
      </trkpt>
      <trkpt lat="48.36616" lon="2.5381">
        <ele>105</ele>
        <time>2017-11-19T09:39:45Z</time>
      </trkpt>
      <trkpt lat="48.3661" lon="2.53799">
        <ele>105</ele>
        <time>2017-11-19T09:39:47Z</time>
      </trkpt>
      <trkpt lat="48.36604" lon="2.53787">
        <ele>104</ele>
        <time>2017-11-19T09:39:49Z</time>
      </trkpt>
      <trkpt lat="48.36604" lon="2.5377">
        <ele>104</ele>
        <time>2017-11-19T09:39:51Z</time>
      </trkpt>
      <trkpt lat="48.36602" lon="2.53756">
        <ele>103</ele>
        <time>2017-11-19T09:39:53Z</time>
      </trkpt>
      <trkpt lat="48.36598" lon="2.53741">
        <ele>103</ele>
        <time>2017-11-19T09:39:55Z</time>
      </trkpt>
      <trkpt lat="48.36595" lon="2.53727">
        <ele>103</ele>
        <time>2017-11-19T09:39:57Z</time>
      </trkpt>
      <trkpt lat="48.36594" lon="2.53712">
        <ele>103</ele>
        <time>2017-11-19T09:39:59Z</time>
      </trkpt>
      <trkpt lat="48.36593" lon="2.53698">
        <ele>103</ele>
        <time>2017-11-19T09:40:01Z</time>
      </trkpt>
      <trkpt lat="48.36589" lon="2.53686">
        <ele>102</ele>
        <time>2017-11-19T09:40:03Z</time>
      </trkpt>
      <trkpt lat="48.36583" lon="2.53675">
        <ele>100</ele>
        <time>2017-11-19T09:40:05Z</time>
      </trkpt>
      <trkpt lat="48.36578" lon="2.53664">
        <ele>99</ele>
        <time>2017-11-19T09:40:07Z</time>
      </trkpt>
      <trkpt lat="48.36572" lon="2.53654">
        <ele>100</ele>
        <time>2017-11-19T09:40:09Z</time>
      </trkpt>
      <trkpt lat="48.36565" lon="2.53643">
        <ele>100</ele>
        <time>2017-11-19T09:40:11Z</time>
      </trkpt>
      <trkpt lat="48.36558" lon="2.53636">
        <ele>101</ele>
        <time>2017-11-19T09:40:13Z</time>
      </trkpt>
      <trkpt lat="48.3655" lon="2.53626">
        <ele>101</ele>
        <time>2017-11-19T09:40:15Z</time>
      </trkpt>
      <trkpt lat="48.36543" lon="2.53617">
        <ele>101</ele>
        <time>2017-11-19T09:40:17Z</time>
      </trkpt>
      <trkpt lat="48.36537" lon="2.53615">
        <ele>101</ele>
        <time>2017-11-19T09:40:19Z</time>
      </trkpt>
      <trkpt lat="48.36529" lon="2.5362">
        <ele>101</ele>
        <time>2017-11-19T09:40:21Z</time>
      </trkpt>
      <trkpt lat="48.36521" lon="2.53623">
        <ele>101</ele>
        <time>2017-11-19T09:40:23Z</time>
      </trkpt>
      <trkpt lat="48.36513" lon="2.5362">
        <ele>101</ele>
        <time>2017-11-19T09:40:25Z</time>
      </trkpt>
      <trkpt lat="48.36505" lon="2.53614">
        <ele>100</ele>
        <time>2017-11-19T09:40:27Z</time>
      </trkpt>
      <trkpt lat="48.36496" lon="2.53612">
        <ele>99</ele>
        <time>2017-11-19T09:40:29Z</time>
      </trkpt>
      <trkpt lat="48.36487" lon="2.53615">
        <ele>99</ele>
        <time>2017-11-19T09:40:31Z</time>
      </trkpt>
      <trkpt lat="48.3648" lon="2.53621">
        <ele>99</ele>
        <time>2017-11-19T09:40:33Z</time>
      </trkpt>
      <trkpt lat="48.36476" lon="2.53625">
        <ele>99</ele>
        <time>2017-11-19T09:40:35Z</time>
      </trkpt>
      <trkpt lat="48.36471" lon="2.53628">
        <ele>99</ele>
        <time>2017-11-19T09:40:37Z</time>
      </trkpt>
      <trkpt lat="48.36464" lon="2.53632">
        <ele>98</ele>
        <time>2017-11-19T09:40:39Z</time>
      </trkpt>
      <trkpt lat="48.36455" lon="2.53635">
        <ele>98</ele>
        <time>2017-11-19T09:40:41Z</time>
      </trkpt>
      <trkpt lat="48.36446" lon="2.53633">
        <ele>98</ele>
        <time>2017-11-19T09:40:43Z</time>
      </trkpt>
      <trkpt lat="48.36437" lon="2.53637">
        <ele>98</ele>
        <time>2017-11-19T09:40:45Z</time>
      </trkpt>
      <trkpt lat="48.36426" lon="2.53643">
        <ele>97</ele>
        <time>2017-11-19T09:40:47Z</time>
      </trkpt>
      <trkpt lat="48.36417" lon="2.53649">
        <ele>97</ele>
        <time>2017-11-19T09:40:49Z</time>
      </trkpt>
      <trkpt lat="48.36407" lon="2.53658">
        <ele>96</ele>
        <time>2017-11-19T09:40:51Z</time>
      </trkpt>
      <trkpt lat="48.36397" lon="2.53661">
        <ele>96</ele>
        <time>2017-11-19T09:40:53Z</time>
      </trkpt>
      <trkpt lat="48.36388" lon="2.53654">
        <ele>96</ele>
        <time>2017-11-19T09:40:55Z</time>
      </trkpt>
      <trkpt lat="48.36379" lon="2.53646">
        <ele>96</ele>
        <time>2017-11-19T09:40:57Z</time>
      </trkpt>
      <trkpt lat="48.36369" lon="2.53636">
        <ele>95</ele>
        <time>2017-11-19T09:40:59Z</time>
      </trkpt>
      <trkpt lat="48.36361" lon="2.53625">
        <ele>95</ele>
        <time>2017-11-19T09:41:01Z</time>
      </trkpt>
      <trkpt lat="48.36353" lon="2.53616">
        <ele>95</ele>
        <time>2017-11-19T09:41:03Z</time>
      </trkpt>
      <trkpt lat="48.36345" lon="2.53604">
        <ele>95</ele>
        <time>2017-11-19T09:41:05Z</time>
      </trkpt>
      <trkpt lat="48.36338" lon="2.53592">
        <ele>95</ele>
        <time>2017-11-19T09:41:07Z</time>
      </trkpt>
      <trkpt lat="48.36331" lon="2.53581">
        <ele>96</ele>
        <time>2017-11-19T09:41:09Z</time>
      </trkpt>
      <trkpt lat="48.36324" lon="2.53567">
        <ele>99</ele>
        <time>2017-11-19T09:41:11Z</time>
      </trkpt>
      <trkpt lat="48.3632" lon="2.53553">
        <ele>100</ele>
        <time>2017-11-19T09:41:13Z</time>
      </trkpt>
      <trkpt lat="48.36317" lon="2.53539">
        <ele>100</ele>
        <time>2017-11-19T09:41:15Z</time>
      </trkpt>
      <trkpt lat="48.36318" lon="2.53523">
        <ele>100</ele>
        <time>2017-11-19T09:41:17Z</time>
      </trkpt>
      <trkpt lat="48.36319" lon="2.53508">
        <ele>99</ele>
        <time>2017-11-19T09:41:19Z</time>
      </trkpt>
      <trkpt lat="48.3632" lon="2.53496">
        <ele>98</ele>
        <time>2017-11-19T09:41:21Z</time>
      </trkpt>
      <trkpt lat="48.36321" lon="2.53478">
        <ele>99</ele>
        <time>2017-11-19T09:41:23Z</time>
      </trkpt>
      <trkpt lat="48.36321" lon="2.53462">
        <ele>99</ele>
        <time>2017-11-19T09:41:25Z</time>
      </trkpt>
      <trkpt lat="48.36324" lon="2.53445">
        <ele>99</ele>
        <time>2017-11-19T09:41:27Z</time>
      </trkpt>
      <trkpt lat="48.36328" lon="2.53427">
        <ele>98</ele>
        <time>2017-11-19T09:41:29Z</time>
      </trkpt>
      <trkpt lat="48.36336" lon="2.53413">
        <ele>95</ele>
        <time>2017-11-19T09:41:31Z</time>
      </trkpt>
      <trkpt lat="48.36342" lon="2.53396">
        <ele>94</ele>
        <time>2017-11-19T09:41:33Z</time>
      </trkpt>
      <trkpt lat="48.36348" lon="2.5338">
        <ele>94</ele>
        <time>2017-11-19T09:41:35Z</time>
      </trkpt>
      <trkpt lat="48.36352" lon="2.53365">
        <ele>93</ele>
        <time>2017-11-19T09:41:37Z</time>
      </trkpt>
      <trkpt lat="48.36357" lon="2.5335">
        <ele>93</ele>
        <time>2017-11-19T09:41:39Z</time>
      </trkpt>
      <trkpt lat="48.36362" lon="2.5334">
        <ele>93</ele>
        <time>2017-11-19T09:41:41Z</time>
      </trkpt>
      <trkpt lat="48.36364" lon="2.5333">
        <ele>90</ele>
        <time>2017-11-19T09:41:43Z</time>
      </trkpt>
      <trkpt lat="48.36366" lon="2.53317">
        <ele>89</ele>
        <time>2017-11-19T09:41:45Z</time>
      </trkpt>
      <trkpt lat="48.36371" lon="2.53304">
        <ele>89</ele>
        <time>2017-11-19T09:41:47Z</time>
      </trkpt>
      <trkpt lat="48.36377" lon="2.53289">
        <ele>88</ele>
        <time>2017-11-19T09:41:49Z</time>
      </trkpt>
      <trkpt lat="48.3638" lon="2.53272">
        <ele>87</ele>
        <time>2017-11-19T09:41:51Z</time>
      </trkpt>
      <trkpt lat="48.36381" lon="2.53253">
        <ele>87</ele>
        <time>2017-11-19T09:41:53Z</time>
      </trkpt>
      <trkpt lat="48.36379" lon="2.53235">
        <ele>83</ele>
        <time>2017-11-19T09:41:55Z</time>
      </trkpt>
      <trkpt lat="48.36378" lon="2.53214">
        <ele>83</ele>
        <time>2017-11-19T09:41:57Z</time>
      </trkpt>
      <trkpt lat="48.36374" lon="2.53195">
        <ele>82</ele>
        <time>2017-11-19T09:41:59Z</time>
      </trkpt>
      <trkpt lat="48.36371" lon="2.53177">
        <ele>81</ele>
        <time>2017-11-19T09:42:01Z</time>
      </trkpt>
      <trkpt lat="48.36366" lon="2.53161">
        <ele>79</ele>
        <time>2017-11-19T09:42:03Z</time>
      </trkpt>
      <trkpt lat="48.36361" lon="2.53145">
        <ele>79</ele>
        <time>2017-11-19T09:42:05Z</time>
      </trkpt>
      <trkpt lat="48.36362" lon="2.53128">
        <ele>78</ele>
        <time>2017-11-19T09:42:07Z</time>
      </trkpt>
      <trkpt lat="48.3636" lon="2.53113">
        <ele>78</ele>
        <time>2017-11-19T09:42:09Z</time>
      </trkpt>
      <trkpt lat="48.36354" lon="2.53101">
        <ele>78</ele>
        <time>2017-11-19T09:42:11Z</time>
      </trkpt>
      <trkpt lat="48.36346" lon="2.53091">
        <ele>77</ele>
        <time>2017-11-19T09:42:13Z</time>
      </trkpt>
      <trkpt lat="48.36337" lon="2.53083">
        <ele>76</ele>
        <time>2017-11-19T09:42:15Z</time>
      </trkpt>
      <trkpt lat="48.36331" lon="2.53072">
        <ele>76</ele>
        <time>2017-11-19T09:42:17Z</time>
      </trkpt>
      <trkpt lat="48.36325" lon="2.53057">
        <ele>76</ele>
        <time>2017-11-19T09:42:19Z</time>
      </trkpt>
      <trkpt lat="48.36319" lon="2.53044">
        <ele>76</ele>
        <time>2017-11-19T09:42:21Z</time>
      </trkpt>
      <trkpt lat="48.36312" lon="2.53031">
        <ele>76</ele>
        <time>2017-11-19T09:42:23Z</time>
      </trkpt>
      <trkpt lat="48.36308" lon="2.53017">
        <ele>76</ele>
        <time>2017-11-19T09:42:25Z</time>
      </trkpt>
      <trkpt lat="48.36302" lon="2.53004">
        <ele>75</ele>
        <time>2017-11-19T09:42:27Z</time>
      </trkpt>
      <trkpt lat="48.36297" lon="2.52992">
        <ele>74</ele>
        <time>2017-11-19T09:42:29Z</time>
      </trkpt>
      <trkpt lat="48.36289" lon="2.5298">
        <ele>74</ele>
        <time>2017-11-19T09:42:31Z</time>
      </trkpt>
      <trkpt lat="48.36283" lon="2.52968">
        <ele>74</ele>
        <time>2017-11-19T09:42:33Z</time>
      </trkpt>
      <trkpt lat="48.36276" lon="2.52957">
        <ele>74</ele>
        <time>2017-11-19T09:42:35Z</time>
      </trkpt>
      <trkpt lat="48.36272" lon="2.52943">
        <ele>74</ele>
        <time>2017-11-19T09:42:37Z</time>
      </trkpt>
      <trkpt lat="48.36266" lon="2.52932">
        <ele>73</ele>
        <time>2017-11-19T09:42:39Z</time>
      </trkpt>
      <trkpt lat="48.36259" lon="2.52923">
        <ele>73</ele>
        <time>2017-11-19T09:42:41Z</time>
      </trkpt>
      <trkpt lat="48.36254" lon="2.52907">
        <ele>73</ele>
        <time>2017-11-19T09:42:43Z</time>
      </trkpt>
      <trkpt lat="48.3625" lon="2.52894">
        <ele>73</ele>
        <time>2017-11-19T09:42:45Z</time>
      </trkpt>
      <trkpt lat="48.36245" lon="2.52882">
        <ele>74</ele>
        <time>2017-11-19T09:42:47Z</time>
      </trkpt>
      <trkpt lat="48.36239" lon="2.52869">
        <ele>74</ele>
        <time>2017-11-19T09:42:49Z</time>
      </trkpt>
      <trkpt lat="48.36238" lon="2.52856">
        <ele>74</ele>
        <time>2017-11-19T09:42:51Z</time>
      </trkpt>
      <trkpt lat="48.36235" lon="2.52842">
        <ele>74</ele>
        <time>2017-11-19T09:42:53Z</time>
      </trkpt>
      <trkpt lat="48.36232" lon="2.52826">
        <ele>74</ele>
        <time>2017-11-19T09:42:55Z</time>
      </trkpt>
      <trkpt lat="48.36228" lon="2.52813">
        <ele>75</ele>
        <time>2017-11-19T09:42:57Z</time>
      </trkpt>
      <trkpt lat="48.36222" lon="2.52802">
        <ele>75</ele>
        <time>2017-11-19T09:42:59Z</time>
      </trkpt>
      <trkpt lat="48.36215" lon="2.52792">
        <ele>75</ele>
        <time>2017-11-19T09:43:01Z</time>
      </trkpt>
      <trkpt lat="48.36212" lon="2.52778">
        <ele>75</ele>
        <time>2017-11-19T09:43:03Z</time>
      </trkpt>
      <trkpt lat="48.36212" lon="2.52762">
        <ele>75</ele>
        <time>2017-11-19T09:43:05Z</time>
      </trkpt>
      <trkpt lat="48.36209" lon="2.52749">
        <ele>75</ele>
        <time>2017-11-19T09:43:07Z</time>
      </trkpt>
      <trkpt lat="48.36205" lon="2.52735">
        <ele>75</ele>
        <time>2017-11-19T09:43:09Z</time>
      </trkpt>
      <trkpt lat="48.36203" lon="2.52722">
        <ele>75</ele>
        <time>2017-11-19T09:43:11Z</time>
      </trkpt>
      <trkpt lat="48.36196" lon="2.52711">
        <ele>75</ele>
        <time>2017-11-19T09:43:13Z</time>
      </trkpt>
      <trkpt lat="48.36188" lon="2.52703">
        <ele>74</ele>
        <time>2017-11-19T09:43:15Z</time>
      </trkpt>
      <trkpt lat="48.36181" lon="2.52703">
        <ele>74</ele>
        <time>2017-11-19T09:43:17Z</time>
      </trkpt>
      <trkpt lat="48.36175" lon="2.52714">
        <ele>75</ele>
        <time>2017-11-19T09:43:19Z</time>
      </trkpt>
      <trkpt lat="48.3617" lon="2.52725">
        <ele>75</ele>
        <time>2017-11-19T09:43:21Z</time>
      </trkpt>
      <trkpt lat="48.36164" lon="2.52737">
        <ele>75</ele>
        <time>2017-11-19T09:43:23Z</time>
      </trkpt>
      <trkpt lat="48.36157" lon="2.52749">
        <ele>75</ele>
        <time>2017-11-19T09:43:25Z</time>
      </trkpt>
      <trkpt lat="48.3615" lon="2.52758">
        <ele>75</ele>
        <time>2017-11-19T09:43:27Z</time>
      </trkpt>
      <trkpt lat="48.36145" lon="2.52771">
        <ele>75</ele>
        <time>2017-11-19T09:43:29Z</time>
      </trkpt>
      <trkpt lat="48.36138" lon="2.5278">
        <ele>75</ele>
        <time>2017-11-19T09:43:31Z</time>
      </trkpt>
      <trkpt lat="48.36132" lon="2.52791">
        <ele>75</ele>
        <time>2017-11-19T09:43:33Z</time>
      </trkpt>
      <trkpt lat="48.36125" lon="2.52802">
        <ele>75</ele>
        <time>2017-11-19T09:43:35Z</time>
      </trkpt>
      <trkpt lat="48.3612" lon="2.52814">
        <ele>75</ele>
        <time>2017-11-19T09:43:37Z</time>
      </trkpt>
      <trkpt lat="48.36114" lon="2.52826">
        <ele>75</ele>
        <time>2017-11-19T09:43:39Z</time>
      </trkpt>
      <trkpt lat="48.36109" lon="2.52838">
        <ele>75</ele>
        <time>2017-11-19T09:43:41Z</time>
      </trkpt>
      <trkpt lat="48.36104" lon="2.5285">
        <ele>75</ele>
        <time>2017-11-19T09:43:43Z</time>
      </trkpt>
      <trkpt lat="48.36099" lon="2.52861">
        <ele>75</ele>
        <time>2017-11-19T09:43:45Z</time>
      </trkpt>
      <trkpt lat="48.36093" lon="2.52871">
        <ele>75</ele>
        <time>2017-11-19T09:43:47Z</time>
      </trkpt>
      <trkpt lat="48.36087" lon="2.52881">
        <ele>75</ele>
        <time>2017-11-19T09:43:49Z</time>
      </trkpt>
      <trkpt lat="48.36081" lon="2.5289">
        <ele>75</ele>
        <time>2017-11-19T09:43:51Z</time>
      </trkpt>
      <trkpt lat="48.36075" lon="2.52897">
        <ele>75</ele>
        <time>2017-11-19T09:43:53Z</time>
      </trkpt>
      <trkpt lat="48.36067" lon="2.529">
        <ele>75</ele>
        <time>2017-11-19T09:43:55Z</time>
      </trkpt>
      <trkpt lat="48.36057" lon="2.52897">
        <ele>76</ele>
        <time>2017-11-19T09:43:57Z</time>
      </trkpt>
      <trkpt lat="48.36048" lon="2.52894">
        <ele>76</ele>
        <time>2017-11-19T09:43:59Z</time>
      </trkpt>
      <trkpt lat="48.36038" lon="2.52893">
        <ele>76</ele>
        <time>2017-11-19T09:44:01Z</time>
      </trkpt>
      <trkpt lat="48.36028" lon="2.52891">
        <ele>76</ele>
        <time>2017-11-19T09:44:03Z</time>
      </trkpt>
      <trkpt lat="48.36019" lon="2.5289">
        <ele>76</ele>
        <time>2017-11-19T09:44:05Z</time>
      </trkpt>
      <trkpt lat="48.3601" lon="2.52888">
        <ele>76</ele>
        <time>2017-11-19T09:44:07Z</time>
      </trkpt>
      <trkpt lat="48.36002" lon="2.52882">
        <ele>76</ele>
        <time>2017-11-19T09:44:09Z</time>
      </trkpt>
      <trkpt lat="48.35994" lon="2.52876">
        <ele>75</ele>
        <time>2017-11-19T09:44:11Z</time>
      </trkpt>
      <trkpt lat="48.35987" lon="2.52868">
        <ele>75</ele>
        <time>2017-11-19T09:44:13Z</time>
      </trkpt>
      <trkpt lat="48.35982" lon="2.52861">
        <ele>75</ele>
        <time>2017-11-19T09:44:15Z</time>
      </trkpt>
      <trkpt lat="48.35975" lon="2.52852">
        <ele>75</ele>
        <time>2017-11-19T09:44:17Z</time>
      </trkpt>
      <trkpt lat="48.35969" lon="2.52841">
        <ele>75</ele>
        <time>2017-11-19T09:44:19Z</time>
      </trkpt>
      <trkpt lat="48.35964" lon="2.52832">
        <ele>74</ele>
        <time>2017-11-19T09:44:21Z</time>
      </trkpt>
      <trkpt lat="48.35956" lon="2.52818">
        <ele>74</ele>
        <time>2017-11-19T09:44:23Z</time>
      </trkpt>
      <trkpt lat="48.35952" lon="2.52807">
        <ele>74</ele>
        <time>2017-11-19T09:44:25Z</time>
      </trkpt>
      <trkpt lat="48.35949" lon="2.52798">
        <ele>74</ele>
        <time>2017-11-19T09:44:27Z</time>
      </trkpt>
      <trkpt lat="48.35946" lon="2.52785">
        <ele>74</ele>
        <time>2017-11-19T09:44:29Z</time>
      </trkpt>
      <trkpt lat="48.35941" lon="2.52775">
        <ele>74</ele>
        <time>2017-11-19T09:44:31Z</time>
      </trkpt>
      <trkpt lat="48.35938" lon="2.52765">
        <ele>74</ele>
        <time>2017-11-19T09:44:33Z</time>
      </trkpt>
      <trkpt lat="48.35935" lon="2.52757">
        <ele>74</ele>
        <time>2017-11-19T09:44:35Z</time>
      </trkpt>
      <trkpt lat="48.35933" lon="2.52749">
        <ele>74</ele>
        <time>2017-11-19T09:44:37Z</time>
      </trkpt>
      <trkpt lat="48.35929" lon="2.52739">
        <ele>74</ele>
        <time>2017-11-19T09:44:39Z</time>
      </trkpt>
      <trkpt lat="48.35926" lon="2.5273">
        <ele>75</ele>
        <time>2017-11-19T09:44:41Z</time>
      </trkpt>
      <trkpt lat="48.35923" lon="2.52721">
        <ele>75</ele>
        <time>2017-11-19T09:44:43Z</time>
      </trkpt>
      <trkpt lat="48.3592" lon="2.52714">
        <ele>75</ele>
        <time>2017-11-19T09:44:45Z</time>
      </trkpt>
      <trkpt lat="48.35917" lon="2.52706">
        <ele>75</ele>
        <time>2017-11-19T09:44:47Z</time>
      </trkpt>
      <trkpt lat="48.35913" lon="2.52701">
        <ele>75</ele>
        <time>2017-11-19T09:44:49Z</time>
      </trkpt>
      <trkpt lat="48.35909" lon="2.52694">
        <ele>75</ele>
        <time>2017-11-19T09:44:51Z</time>
      </trkpt>
      <trkpt lat="48.35904" lon="2.52688">
        <ele>75</ele>
        <time>2017-11-19T09:44:53Z</time>
      </trkpt>
      <trkpt lat="48.35898" lon="2.52679">
        <ele>75</ele>
        <time>2017-11-19T09:44:55Z</time>
      </trkpt>
      <trkpt lat="48.35893" lon="2.5267">
        <ele>75</ele>
        <time>2017-11-19T09:44:57Z</time>
      </trkpt>
      <trkpt lat="48.35888" lon="2.52659">
        <ele>75</ele>
        <time>2017-11-19T09:44:59Z</time>
      </trkpt>
      <trkpt lat="48.35883" lon="2.5265">
        <ele>75</ele>
        <time>2017-11-19T09:45:01Z</time>
      </trkpt>
      <trkpt lat="48.35875" lon="2.52639">
        <ele>75</ele>
        <time>2017-11-19T09:45:03Z</time>
      </trkpt>
      <trkpt lat="48.3587" lon="2.52628">
        <ele>76</ele>
        <time>2017-11-19T09:45:05Z</time>
      </trkpt>
      <trkpt lat="48.35864" lon="2.52618">
        <ele>76</ele>
        <time>2017-11-19T09:45:07Z</time>
      </trkpt>
      <trkpt lat="48.35857" lon="2.52606">
        <ele>76</ele>
        <time>2017-11-19T09:45:09Z</time>
      </trkpt>
      <trkpt lat="48.35852" lon="2.52595">
        <ele>76</ele>
        <time>2017-11-19T09:45:11Z</time>
      </trkpt>
      <trkpt lat="48.35844" lon="2.52585">
        <ele>76</ele>
        <time>2017-11-19T09:45:13Z</time>
      </trkpt>
      <trkpt lat="48.35839" lon="2.52576">
        <ele>76</ele>
        <time>2017-11-19T09:45:15Z</time>
      </trkpt>
      <trkpt lat="48.35834" lon="2.52564">
        <ele>76</ele>
        <time>2017-11-19T09:45:17Z</time>
      </trkpt>
      <trkpt lat="48.35827" lon="2.52554">
        <ele>76</ele>
        <time>2017-11-19T09:45:19Z</time>
      </trkpt>
      <trkpt lat="48.3582" lon="2.52545">
        <ele>76</ele>
        <time>2017-11-19T09:45:21Z</time>
      </trkpt>
      <trkpt lat="48.35814" lon="2.52535">
        <ele>76</ele>
        <time>2017-11-19T09:45:23Z</time>
      </trkpt>
      <trkpt lat="48.35809" lon="2.52525">
        <ele>76</ele>
        <time>2017-11-19T09:45:25Z</time>
      </trkpt>
      <trkpt lat="48.35803" lon="2.52516">
        <ele>76</ele>
        <time>2017-11-19T09:45:27Z</time>
      </trkpt>
      <trkpt lat="48.35798" lon="2.52506">
        <ele>76</ele>
        <time>2017-11-19T09:45:29Z</time>
      </trkpt>
      <trkpt lat="48.35792" lon="2.52496">
        <ele>77</ele>
        <time>2017-11-19T09:45:31Z</time>
      </trkpt>
      <trkpt lat="48.35787" lon="2.52488">
        <ele>77</ele>
        <time>2017-11-19T09:45:33Z</time>
      </trkpt>
      <trkpt lat="48.35781" lon="2.5248">
        <ele>77</ele>
        <time>2017-11-19T09:45:35Z</time>
      </trkpt>
      <trkpt lat="48.35774" lon="2.52469">
        <ele>77</ele>
        <time>2017-11-19T09:45:37Z</time>
      </trkpt>
      <trkpt lat="48.35767" lon="2.5246">
        <ele>77</ele>
        <time>2017-11-19T09:45:39Z</time>
      </trkpt>
      <trkpt lat="48.35762" lon="2.52449">
        <ele>77</ele>
        <time>2017-11-19T09:45:41Z</time>
      </trkpt>
      <trkpt lat="48.35755" lon="2.5244">
        <ele>78</ele>
        <time>2017-11-19T09:45:43Z</time>
      </trkpt>
      <trkpt lat="48.35749" lon="2.52431">
        <ele>79</ele>
        <time>2017-11-19T09:45:45Z</time>
      </trkpt>
      <trkpt lat="48.35743" lon="2.52422">
        <ele>79</ele>
        <time>2017-11-19T09:45:47Z</time>
      </trkpt>
      <trkpt lat="48.35737" lon="2.52412">
        <ele>79</ele>
        <time>2017-11-19T09:45:49Z</time>
      </trkpt>
      <trkpt lat="48.35731" lon="2.52402">
        <ele>79</ele>
        <time>2017-11-19T09:45:51Z</time>
      </trkpt>
      <trkpt lat="48.35726" lon="2.52392">
        <ele>79</ele>
        <time>2017-11-19T09:45:53Z</time>
      </trkpt>
      <trkpt lat="48.35721" lon="2.52381">
        <ele>79</ele>
        <time>2017-11-19T09:45:55Z</time>
      </trkpt>
      <trkpt lat="48.35717" lon="2.52369">
        <ele>79</ele>
        <time>2017-11-19T09:45:57Z</time>
      </trkpt>
      <trkpt lat="48.35714" lon="2.52358">
        <ele>78</ele>
        <time>2017-11-19T09:45:59Z</time>
      </trkpt>
      <trkpt lat="48.35708" lon="2.52349">
        <ele>78</ele>
        <time>2017-11-19T09:46:01Z</time>
      </trkpt>
      <trkpt lat="48.35703" lon="2.5234">
        <ele>78</ele>
        <time>2017-11-19T09:46:03Z</time>
      </trkpt>
      <trkpt lat="48.35699" lon="2.52331">
        <ele>77</ele>
        <time>2017-11-19T09:46:05Z</time>
      </trkpt>
      <trkpt lat="48.35695" lon="2.52321">
        <ele>77</ele>
        <time>2017-11-19T09:46:07Z</time>
      </trkpt>
      <trkpt lat="48.35689" lon="2.52313">
        <ele>77</ele>
        <time>2017-11-19T09:46:09Z</time>
      </trkpt>
      <trkpt lat="48.35683" lon="2.52305">
        <ele>77</ele>
        <time>2017-11-19T09:46:11Z</time>
      </trkpt>
      <trkpt lat="48.35677" lon="2.52299">
        <ele>77</ele>
        <time>2017-11-19T09:46:13Z</time>
      </trkpt>
      <trkpt lat="48.35671" lon="2.52288">
        <ele>77</ele>
        <time>2017-11-19T09:46:15Z</time>
      </trkpt>
      <trkpt lat="48.35666" lon="2.52279">
        <ele>80</ele>
        <time>2017-11-19T09:46:17Z</time>
      </trkpt>
      <trkpt lat="48.35661" lon="2.52271">
        <ele>80</ele>
        <time>2017-11-19T09:46:19Z</time>
      </trkpt>
      <trkpt lat="48.35656" lon="2.52262">
        <ele>80</ele>
        <time>2017-11-19T09:46:21Z</time>
      </trkpt>
      <trkpt lat="48.35651" lon="2.52252">
        <ele>80</ele>
        <time>2017-11-19T09:46:23Z</time>
      </trkpt>
      <trkpt lat="48.35645" lon="2.52243">
        <ele>79</ele>
        <time>2017-11-19T09:46:25Z</time>
      </trkpt>
      <trkpt lat="48.35641" lon="2.52235">
        <ele>80</ele>
        <time>2017-11-19T09:46:27Z</time>
      </trkpt>
      <trkpt lat="48.35638" lon="2.52228">
        <ele>80</ele>
        <time>2017-11-19T09:46:29Z</time>
      </trkpt>
      <trkpt lat="48.35633" lon="2.52221">
        <ele>80</ele>
        <time>2017-11-19T09:46:31Z</time>
      </trkpt>
      <trkpt lat="48.35628" lon="2.52213">
        <ele>80</ele>
        <time>2017-11-19T09:46:33Z</time>
      </trkpt>
      <trkpt lat="48.35623" lon="2.52204">
        <ele>80</ele>
        <time>2017-11-19T09:46:35Z</time>
      </trkpt>
      <trkpt lat="48.35618" lon="2.52196">
        <ele>80</ele>
        <time>2017-11-19T09:46:37Z</time>
      </trkpt>
      <trkpt lat="48.35613" lon="2.52187">
        <ele>80</ele>
        <time>2017-11-19T09:46:39Z</time>
      </trkpt>
      <trkpt lat="48.35608" lon="2.52178">
        <ele>80</ele>
        <time>2017-11-19T09:46:41Z</time>
      </trkpt>
      <trkpt lat="48.35602" lon="2.5217">
        <ele>80</ele>
        <time>2017-11-19T09:46:43Z</time>
      </trkpt>
      <trkpt lat="48.35597" lon="2.52161">
        <ele>79</ele>
        <time>2017-11-19T09:46:45Z</time>
      </trkpt>
      <trkpt lat="48.35592" lon="2.52152">
        <ele>79</ele>
        <time>2017-11-19T09:46:47Z</time>
      </trkpt>
      <trkpt lat="48.35586" lon="2.52144">
        <ele>79</ele>
        <time>2017-11-19T09:46:49Z</time>
      </trkpt>
      <trkpt lat="48.3558" lon="2.52135">
        <ele>79</ele>
        <time>2017-11-19T09:46:51Z</time>
      </trkpt>
      <trkpt lat="48.35575" lon="2.52125">
        <ele>79</ele>
        <time>2017-11-19T09:46:53Z</time>
      </trkpt>
      <trkpt lat="48.35568" lon="2.52115">
        <ele>79</ele>
        <time>2017-11-19T09:46:55Z</time>
      </trkpt>
      <trkpt lat="48.35561" lon="2.52104">
        <ele>78</ele>
        <time>2017-11-19T09:46:57Z</time>
      </trkpt>
      <trkpt lat="48.35552" lon="2.52097">
        <ele>78</ele>
        <time>2017-11-19T09:46:59Z</time>
      </trkpt>
      <trkpt lat="48.35541" lon="2.52091">
        <ele>78</ele>
        <time>2017-11-19T09:47:01Z</time>
      </trkpt>
      <trkpt lat="48.35529" lon="2.52087">
        <ele>78</ele>
        <time>2017-11-19T09:47:03Z</time>
      </trkpt>
      <trkpt lat="48.35516" lon="2.52084">
        <ele>77</ele>
        <time>2017-11-19T09:47:05Z</time>
      </trkpt>
      <trkpt lat="48.35504" lon="2.5208">
        <ele>76</ele>
        <time>2017-11-19T09:47:07Z</time>
      </trkpt>
      <trkpt lat="48.35492" lon="2.52078">
        <ele>75</ele>
        <time>2017-11-19T09:47:09Z</time>
      </trkpt>
      <trkpt lat="48.3548" lon="2.52077">
        <ele>74</ele>
        <time>2017-11-19T09:47:11Z</time>
      </trkpt>
      <trkpt lat="48.35469" lon="2.52078">
        <ele>74</ele>
        <time>2017-11-19T09:47:13Z</time>
      </trkpt>
      <trkpt lat="48.35458" lon="2.52078">
        <ele>74</ele>
        <time>2017-11-19T09:47:15Z</time>
      </trkpt>
      <trkpt lat="48.35447" lon="2.52076">
        <ele>73</ele>
        <time>2017-11-19T09:47:17Z</time>
      </trkpt>
      <trkpt lat="48.35437" lon="2.52075">
        <ele>73</ele>
        <time>2017-11-19T09:47:19Z</time>
      </trkpt>
      <trkpt lat="48.35426" lon="2.52073">
        <ele>73</ele>
        <time>2017-11-19T09:47:21Z</time>
      </trkpt>
      <trkpt lat="48.35419" lon="2.52072">
        <ele>73</ele>
        <time>2017-11-19T09:47:23Z</time>
      </trkpt>
      <trkpt lat="48.35415" lon="2.52079">
        <ele>73</ele>
        <time>2017-11-19T09:47:25Z</time>
      </trkpt>
      <trkpt lat="48.35413" lon="2.52087">
        <ele>73</ele>
        <time>2017-11-19T09:47:27Z</time>
      </trkpt>
      <trkpt lat="48.35412" lon="2.52094">
        <ele>73</ele>
        <time>2017-11-19T09:47:29Z</time>
      </trkpt>
      <trkpt lat="48.35412" lon="2.52103">
        <ele>73</ele>
        <time>2017-11-19T09:47:31Z</time>
      </trkpt>
      <trkpt lat="48.35411" lon="2.52112">
        <ele>74</ele>
        <time>2017-11-19T09:47:33Z</time>
      </trkpt>
      <trkpt lat="48.3541" lon="2.52122">
        <ele>74</ele>
        <time>2017-11-19T09:47:35Z</time>
      </trkpt>
      <trkpt lat="48.3541" lon="2.52134">
        <ele>74</ele>
        <time>2017-11-19T09:47:37Z</time>
      </trkpt>
      <trkpt lat="48.3541" lon="2.52145">
        <ele>75</ele>
        <time>2017-11-19T09:47:39Z</time>
      </trkpt>
      <trkpt lat="48.35409" lon="2.52155">
        <ele>75</ele>
        <time>2017-11-19T09:47:41Z</time>
      </trkpt>
      <trkpt lat="48.35408" lon="2.52165">
        <ele>75</ele>
        <time>2017-11-19T09:47:43Z</time>
      </trkpt>
      <trkpt lat="48.35407" lon="2.52175">
        <ele>77</ele>
        <time>2017-11-19T09:47:45Z</time>
      </trkpt>
      <trkpt lat="48.35406" lon="2.52184">
        <ele>77</ele>
        <time>2017-11-19T09:47:47Z</time>
      </trkpt>
      <trkpt lat="48.35404" lon="2.52193">
        <ele>77</ele>
        <time>2017-11-19T09:47:49Z</time>
      </trkpt>
      <trkpt lat="48.35402" lon="2.52202">
        <ele>78</ele>
        <time>2017-11-19T09:47:51Z</time>
      </trkpt>
      <trkpt lat="48.35402" lon="2.5221">
        <ele>78</ele>
        <time>2017-11-19T09:47:53Z</time>
      </trkpt>
      <trkpt lat="48.35402" lon="2.52219">
        <ele>78</ele>
        <time>2017-11-19T09:47:55Z</time>
      </trkpt>
      <trkpt lat="48.35401" lon="2.52227">
        <ele>79</ele>
        <time>2017-11-19T09:47:57Z</time>
      </trkpt>
      <trkpt lat="48.35399" lon="2.52235">
        <ele>79</ele>
        <time>2017-11-19T09:47:59Z</time>
      </trkpt>
      <trkpt lat="48.35398" lon="2.52242">
        <ele>79</ele>
        <time>2017-11-19T09:48:01Z</time>
      </trkpt>
      <trkpt lat="48.35396" lon="2.5225">
        <ele>79</ele>
        <time>2017-11-19T09:48:03Z</time>
      </trkpt>
      <trkpt lat="48.35394" lon="2.52258">
        <ele>81</ele>
        <time>2017-11-19T09:48:05Z</time>
      </trkpt>
      <trkpt lat="48.35393" lon="2.52265">
        <ele>81</ele>
        <time>2017-11-19T09:48:07Z</time>
      </trkpt>
      <trkpt lat="48.35392" lon="2.52272">
        <ele>82</ele>
        <time>2017-11-19T09:48:09Z</time>
      </trkpt>
      <trkpt lat="48.35391" lon="2.52279">
        <ele>82</ele>
        <time>2017-11-19T09:48:11Z</time>
      </trkpt>
      <trkpt lat="48.35389" lon="2.52286">
        <ele>82</ele>
        <time>2017-11-19T09:48:13Z</time>
      </trkpt>
      <trkpt lat="48.35388" lon="2.52293">
        <ele>82</ele>
        <time>2017-11-19T09:48:15Z</time>
      </trkpt>
      <trkpt lat="48.35387" lon="2.523">
        <ele>83</ele>
        <time>2017-11-19T09:48:17Z</time>
      </trkpt>
      <trkpt lat="48.35384" lon="2.52313">
        <ele>83</ele>
        <time>2017-11-19T09:48:21Z</time>
      </trkpt>
      <trkpt lat="48.35383" lon="2.52319">
        <ele>83</ele>
        <time>2017-11-19T09:48:23Z</time>
      </trkpt>
      <trkpt lat="48.3538" lon="2.52333">
        <ele>83</ele>
        <time>2017-11-19T09:48:27Z</time>
      </trkpt>
      <trkpt lat="48.3538" lon="2.52341">
        <ele>86</ele>
        <time>2017-11-19T09:48:29Z</time>
      </trkpt>
      <trkpt lat="48.35378" lon="2.52348">
        <ele>86</ele>
        <time>2017-11-19T09:48:31Z</time>
      </trkpt>
      <trkpt lat="48.35376" lon="2.52354">
        <ele>86</ele>
        <time>2017-11-19T09:48:33Z</time>
      </trkpt>
      <trkpt lat="48.35374" lon="2.52362">
        <ele>87</ele>
        <time>2017-11-19T09:48:35Z</time>
      </trkpt>
      <trkpt lat="48.35372" lon="2.52369">
        <ele>87</ele>
        <time>2017-11-19T09:48:37Z</time>
      </trkpt>
      <trkpt lat="48.35371" lon="2.52376">
        <ele>87</ele>
        <time>2017-11-19T09:48:39Z</time>
      </trkpt>
      <trkpt lat="48.35369" lon="2.52388">
        <ele>87</ele>
        <time>2017-11-19T09:48:43Z</time>
      </trkpt>
      <trkpt lat="48.35366" lon="2.52402">
        <ele>88</ele>
        <time>2017-11-19T09:48:47Z</time>
      </trkpt>
      <trkpt lat="48.35365" lon="2.52408">
        <ele>88</ele>
        <time>2017-11-19T09:48:49Z</time>
      </trkpt>
      <trkpt lat="48.35362" lon="2.5242">
        <ele>91</ele>
        <time>2017-11-19T09:48:53Z</time>
      </trkpt>
      <trkpt lat="48.35362" lon="2.5243">
        <ele>91</ele>
        <time>2017-11-19T09:48:57Z</time>
      </trkpt>
      <trkpt lat="48.3536" lon="2.52443">
        <ele>91</ele>
        <time>2017-11-19T09:49:01Z</time>
      </trkpt>
      <trkpt lat="48.35359" lon="2.5245">
        <ele>92</ele>
        <time>2017-11-19T09:49:03Z</time>
      </trkpt>
      <trkpt lat="48.35358" lon="2.52463">
        <ele>92</ele>
        <time>2017-11-19T09:49:07Z</time>
      </trkpt>
      <trkpt lat="48.35357" lon="2.52473">
        <ele>92</ele>
        <time>2017-11-19T09:49:11Z</time>
      </trkpt>
      <trkpt lat="48.35352" lon="2.52484">
        <ele>92</ele>
        <time>2017-11-19T09:49:15Z</time>
      </trkpt>
      <trkpt lat="48.3535" lon="2.52493">
        <ele>92</ele>
        <time>2017-11-19T09:49:19Z</time>
      </trkpt>
      <trkpt lat="48.35349" lon="2.52503">
        <ele>95</ele>
        <time>2017-11-19T09:49:23Z</time>
      </trkpt>
      <trkpt lat="48.35346" lon="2.52514">
        <ele>95</ele>
        <time>2017-11-19T09:49:27Z</time>
      </trkpt>
      <trkpt lat="48.35342" lon="2.52526">
        <ele>96</ele>
        <time>2017-11-19T09:49:31Z</time>
      </trkpt>
      <trkpt lat="48.35339" lon="2.52539">
        <ele>97</ele>
        <time>2017-11-19T09:49:35Z</time>
      </trkpt>
      <trkpt lat="48.35336" lon="2.5255">
        <ele>97</ele>
        <time>2017-11-19T09:49:39Z</time>
      </trkpt>
      <trkpt lat="48.35333" lon="2.5256">
        <ele>99</ele>
        <time>2017-11-19T09:49:43Z</time>
      </trkpt>
      <trkpt lat="48.35332" lon="2.52571">
        <ele>99</ele>
        <time>2017-11-19T09:49:47Z</time>
      </trkpt>
      <trkpt lat="48.35329" lon="2.5258">
        <ele>98</ele>
        <time>2017-11-19T09:49:51Z</time>
      </trkpt>
      <trkpt lat="48.35326" lon="2.5259">
        <ele>101</ele>
        <time>2017-11-19T09:49:55Z</time>
      </trkpt>
      <trkpt lat="48.35326" lon="2.52599">
        <ele>102</ele>
        <time>2017-11-19T09:49:59Z</time>
      </trkpt>
      <trkpt lat="48.35324" lon="2.5261">
        <ele>103</ele>
        <time>2017-11-19T09:50:03Z</time>
      </trkpt>
      <trkpt lat="48.35322" lon="2.52621">
        <ele>104</ele>
        <time>2017-11-19T09:50:07Z</time>
      </trkpt>
      <trkpt lat="48.3532" lon="2.52628">
        <ele>105</ele>
        <time>2017-11-19T09:50:11Z</time>
      </trkpt>
      <trkpt lat="48.3532" lon="2.52635">
        <ele>105</ele>
        <time>2017-11-19T09:50:15Z</time>
      </trkpt>
      <trkpt lat="48.35318" lon="2.52643">
        <ele>105</ele>
        <time>2017-11-19T09:50:19Z</time>
      </trkpt>
      <trkpt lat="48.35316" lon="2.52652">
        <ele>105</ele>
        <time>2017-11-19T09:50:23Z</time>
      </trkpt>
      <trkpt lat="48.35313" lon="2.52659">
        <ele>106</ele>
        <time>2017-11-19T09:50:27Z</time>
      </trkpt>
      <trkpt lat="48.35311" lon="2.52668">
        <ele>108</ele>
        <time>2017-11-19T09:50:31Z</time>
      </trkpt>
      <trkpt lat="48.3531" lon="2.52677">
        <ele>108</ele>
        <time>2017-11-19T09:50:35Z</time>
      </trkpt>
      <trkpt lat="48.35308" lon="2.52684">
        <ele>109</ele>
        <time>2017-11-19T09:50:39Z</time>
      </trkpt>
      <trkpt lat="48.35306" lon="2.52693">
        <ele>109</ele>
        <time>2017-11-19T09:50:43Z</time>
      </trkpt>
      <trkpt lat="48.35305" lon="2.52702">
        <ele>110</ele>
        <time>2017-11-19T09:50:47Z</time>
      </trkpt>
      <trkpt lat="48.35304" lon="2.52709">
        <ele>110</ele>
        <time>2017-11-19T09:50:51Z</time>
      </trkpt>
      <trkpt lat="48.35303" lon="2.5272">
        <ele>110</ele>
        <time>2017-11-19T09:50:57Z</time>
      </trkpt>
      <trkpt lat="48.35303" lon="2.52728">
        <ele>110</ele>
        <time>2017-11-19T09:51:01Z</time>
      </trkpt>
      <trkpt lat="48.35302" lon="2.52735">
        <ele>110</ele>
        <time>2017-11-19T09:51:05Z</time>
      </trkpt>
      <trkpt lat="48.35303" lon="2.52742">
        <ele>110</ele>
        <time>2017-11-19T09:51:09Z</time>
      </trkpt>
      <trkpt lat="48.35303" lon="2.52752">
        <ele>113</ele>
        <time>2017-11-19T09:51:15Z</time>
      </trkpt>
      <trkpt lat="48.35303" lon="2.52759">
        <ele>113</ele>
        <time>2017-11-19T09:51:19Z</time>
      </trkpt>
      <trkpt lat="48.35303" lon="2.52767">
        <ele>113</ele>
        <time>2017-11-19T09:51:23Z</time>
      </trkpt>
      <trkpt lat="48.35302" lon="2.52776">
        <ele>114</ele>
        <time>2017-11-19T09:51:27Z</time>
      </trkpt>
      <trkpt lat="48.35301" lon="2.52786">
        <ele>114</ele>
        <time>2017-11-19T09:51:33Z</time>
      </trkpt>
      <trkpt lat="48.35302" lon="2.52796">
        <ele>115</ele>
        <time>2017-11-19T09:51:39Z</time>
      </trkpt>
      <trkpt lat="48.35302" lon="2.52805">
        <ele>115</ele>
        <time>2017-11-19T09:51:43Z</time>
      </trkpt>
      <trkpt lat="48.35302" lon="2.52814">
        <ele>115</ele>
        <time>2017-11-19T09:51:47Z</time>
      </trkpt>
      <trkpt lat="48.35303" lon="2.52823">
        <ele>116</ele>
        <time>2017-11-19T09:51:51Z</time>
      </trkpt>
      <trkpt lat="48.35304" lon="2.52833">
        <ele>116</ele>
        <time>2017-11-19T09:51:55Z</time>
      </trkpt>
      <trkpt lat="48.35304" lon="2.52841">
        <ele>118</ele>
        <time>2017-11-19T09:51:59Z</time>
      </trkpt>
      <trkpt lat="48.35303" lon="2.52852">
        <ele>118</ele>
        <time>2017-11-19T09:52:05Z</time>
      </trkpt>
      <trkpt lat="48.35303" lon="2.52859">
        <ele>118</ele>
        <time>2017-11-19T09:52:09Z</time>
      </trkpt>
      <trkpt lat="48.35302" lon="2.52868">
        <ele>118</ele>
        <time>2017-11-19T09:52:13Z</time>
      </trkpt>
      <trkpt lat="48.35304" lon="2.52876">
        <ele>118</ele>
        <time>2017-11-19T09:52:17Z</time>
      </trkpt>
      <trkpt lat="48.35309" lon="2.52879">
        <ele>118</ele>
        <time>2017-11-19T09:52:21Z</time>
      </trkpt>
      <trkpt lat="48.35312" lon="2.52871">
        <ele>118</ele>
        <time>2017-11-19T09:52:27Z</time>
      </trkpt>
      <trkpt lat="48.35319" lon="2.52858">
        <ele>118</ele>
        <time>2017-11-19T09:52:31Z</time>
      </trkpt>
      <trkpt lat="48.35324" lon="2.52854">
        <ele>118</ele>
        <time>2017-11-19T09:52:33Z</time>
      </trkpt>
      <trkpt lat="48.3533" lon="2.52848">
        <ele>118</ele>
        <time>2017-11-19T09:52:35Z</time>
      </trkpt>
      <trkpt lat="48.35336" lon="2.52846">
        <ele>118</ele>
        <time>2017-11-19T09:52:37Z</time>
      </trkpt>
      <trkpt lat="48.35341" lon="2.52845">
        <ele>118</ele>
        <time>2017-11-19T09:52:39Z</time>
      </trkpt>
      <trkpt lat="48.35346" lon="2.52843">
        <ele>118</ele>
        <time>2017-11-19T09:52:41Z</time>
      </trkpt>
      <trkpt lat="48.35353" lon="2.52839">
        <ele>118</ele>
        <time>2017-11-19T09:52:43Z</time>
      </trkpt>
      <trkpt lat="48.3536" lon="2.52835">
        <ele>118</ele>
        <time>2017-11-19T09:52:45Z</time>
      </trkpt>
      <trkpt lat="48.35367" lon="2.52834">
        <ele>118</ele>
        <time>2017-11-19T09:52:47Z</time>
      </trkpt>
      <trkpt lat="48.35373" lon="2.52836">
        <ele>118</ele>
        <time>2017-11-19T09:52:49Z</time>
      </trkpt>
      <trkpt lat="48.35379" lon="2.52836">
        <ele>118</ele>
        <time>2017-11-19T09:52:51Z</time>
      </trkpt>
      <trkpt lat="48.35387" lon="2.52835">
        <ele>118</ele>
        <time>2017-11-19T09:52:53Z</time>
      </trkpt>
      <trkpt lat="48.35396" lon="2.52835">
        <ele>118</ele>
        <time>2017-11-19T09:52:55Z</time>
      </trkpt>
      <trkpt lat="48.35404" lon="2.52835">
        <ele>118</ele>
        <time>2017-11-19T09:52:57Z</time>
      </trkpt>
      <trkpt lat="48.35412" lon="2.52836">
        <ele>117</ele>
        <time>2017-11-19T09:52:59Z</time>
      </trkpt>
      <trkpt lat="48.3542" lon="2.5284">
        <ele>117</ele>
        <time>2017-11-19T09:53:01Z</time>
      </trkpt>
      <trkpt lat="48.35428" lon="2.52844">
        <ele>117</ele>
        <time>2017-11-19T09:53:03Z</time>
      </trkpt>
      <trkpt lat="48.35437" lon="2.52845">
        <ele>117</ele>
        <time>2017-11-19T09:53:05Z</time>
      </trkpt>
      <trkpt lat="48.35447" lon="2.52848">
        <ele>117</ele>
        <time>2017-11-19T09:53:07Z</time>
      </trkpt>
      <trkpt lat="48.35455" lon="2.52852">
        <ele>116</ele>
        <time>2017-11-19T09:53:09Z</time>
      </trkpt>
      <trkpt lat="48.35465" lon="2.52855">
        <ele>116</ele>
        <time>2017-11-19T09:53:11Z</time>
      </trkpt>
      <trkpt lat="48.35476" lon="2.52854">
        <ele>116</ele>
        <time>2017-11-19T09:53:13Z</time>
      </trkpt>
      <trkpt lat="48.35486" lon="2.52853">
        <ele>116</ele>
        <time>2017-11-19T09:53:15Z</time>
      </trkpt>
      <trkpt lat="48.35496" lon="2.52857">
        <ele>116</ele>
        <time>2017-11-19T09:53:17Z</time>
      </trkpt>
      <trkpt lat="48.35505" lon="2.52858">
        <ele>113</ele>
        <time>2017-11-19T09:53:19Z</time>
      </trkpt>
      <trkpt lat="48.35515" lon="2.52861">
        <ele>113</ele>
        <time>2017-11-19T09:53:21Z</time>
      </trkpt>
      <trkpt lat="48.35518" lon="2.52865">
        <ele>113</ele>
        <time>2017-11-19T09:53:23Z</time>
      </trkpt>
      <trkpt lat="48.35524" lon="2.52875">
        <ele>112</ele>
        <time>2017-11-19T09:53:29Z</time>
      </trkpt>
      <trkpt lat="48.35527" lon="2.52889">
        <ele>112</ele>
        <time>2017-11-19T09:53:33Z</time>
      </trkpt>
      <trkpt lat="48.3553" lon="2.52898">
        <ele>112</ele>
        <time>2017-11-19T09:53:35Z</time>
      </trkpt>
      <trkpt lat="48.35532" lon="2.52909">
        <ele>112</ele>
        <time>2017-11-19T09:53:37Z</time>
      </trkpt>
      <trkpt lat="48.35536" lon="2.52921">
        <ele>113</ele>
        <time>2017-11-19T09:53:39Z</time>
      </trkpt>
      <trkpt lat="48.3554" lon="2.52934">
        <ele>113</ele>
        <time>2017-11-19T09:53:41Z</time>
      </trkpt>
      <trkpt lat="48.35545" lon="2.52947">
        <ele>113</ele>
        <time>2017-11-19T09:53:43Z</time>
      </trkpt>
      <trkpt lat="48.35548" lon="2.52959">
        <ele>113</ele>
        <time>2017-11-19T09:53:45Z</time>
      </trkpt>
      <trkpt lat="48.35551" lon="2.52969">
        <ele>113</ele>
        <time>2017-11-19T09:53:47Z</time>
      </trkpt>
      <trkpt lat="48.35554" lon="2.52981">
        <ele>113</ele>
        <time>2017-11-19T09:53:49Z</time>
      </trkpt>
      <trkpt lat="48.35556" lon="2.52992">
        <ele>112</ele>
        <time>2017-11-19T09:53:51Z</time>
      </trkpt>
      <trkpt lat="48.35562" lon="2.53">
        <ele>112</ele>
        <time>2017-11-19T09:53:53Z</time>
      </trkpt>
      <trkpt lat="48.35569" lon="2.53003">
        <ele>112</ele>
        <time>2017-11-19T09:53:55Z</time>
      </trkpt>
      <trkpt lat="48.35576" lon="2.53002">
        <ele>111</ele>
        <time>2017-11-19T09:53:57Z</time>
      </trkpt>
      <trkpt lat="48.35583" lon="2.53009">
        <ele>111</ele>
        <time>2017-11-19T09:53:59Z</time>
      </trkpt>
      <trkpt lat="48.35584" lon="2.53016">
        <ele>108</ele>
        <time>2017-11-19T09:54:01Z</time>
      </trkpt>
      <trkpt lat="48.35584" lon="2.53026">
        <ele>108</ele>
        <time>2017-11-19T09:54:03Z</time>
      </trkpt>
      <trkpt lat="48.35584" lon="2.53036">
        <ele>107</ele>
        <time>2017-11-19T09:54:05Z</time>
      </trkpt>
      <trkpt lat="48.35584" lon="2.53045">
        <ele>107</ele>
        <time>2017-11-19T09:54:07Z</time>
      </trkpt>
      <trkpt lat="48.35585" lon="2.53056">
        <ele>107</ele>
        <time>2017-11-19T09:54:09Z</time>
      </trkpt>
      <trkpt lat="48.35586" lon="2.53068">
        <ele>108</ele>
        <time>2017-11-19T09:54:11Z</time>
      </trkpt>
      <trkpt lat="48.35586" lon="2.53078">
        <ele>108</ele>
        <time>2017-11-19T09:54:13Z</time>
      </trkpt>
      <trkpt lat="48.35585" lon="2.53088">
        <ele>108</ele>
        <time>2017-11-19T09:54:15Z</time>
      </trkpt>
      <trkpt lat="48.35584" lon="2.53098">
        <ele>108</ele>
        <time>2017-11-19T09:54:17Z</time>
      </trkpt>
      <trkpt lat="48.35582" lon="2.53109">
        <ele>111</ele>
        <time>2017-11-19T09:54:19Z</time>
      </trkpt>
      <trkpt lat="48.35581" lon="2.53121">
        <ele>112</ele>
        <time>2017-11-19T09:54:21Z</time>
      </trkpt>
      <trkpt lat="48.35579" lon="2.53135">
        <ele>112</ele>
        <time>2017-11-19T09:54:23Z</time>
      </trkpt>
      <trkpt lat="48.35576" lon="2.53145">
        <ele>112</ele>
        <time>2017-11-19T09:54:25Z</time>
      </trkpt>
      <trkpt lat="48.35578" lon="2.53157">
        <ele>111</ele>
        <time>2017-11-19T09:54:27Z</time>
      </trkpt>
      <trkpt lat="48.35577" lon="2.53167">
        <ele>111</ele>
        <time>2017-11-19T09:54:29Z</time>
      </trkpt>
      <trkpt lat="48.35577" lon="2.53181">
        <ele>112</ele>
        <time>2017-11-19T09:54:31Z</time>
      </trkpt>
      <trkpt lat="48.35576" lon="2.53193">
        <ele>112</ele>
        <time>2017-11-19T09:54:33Z</time>
      </trkpt>
      <trkpt lat="48.35575" lon="2.53208">
        <ele>112</ele>
        <time>2017-11-19T09:54:35Z</time>
      </trkpt>
      <trkpt lat="48.35575" lon="2.5322">
        <ele>112</ele>
        <time>2017-11-19T09:54:37Z</time>
      </trkpt>
      <trkpt lat="48.35575" lon="2.5323">
        <ele>112</ele>
        <time>2017-11-19T09:54:39Z</time>
      </trkpt>
      <trkpt lat="48.35576" lon="2.53241">
        <ele>112</ele>
        <time>2017-11-19T09:54:41Z</time>
      </trkpt>
      <trkpt lat="48.35577" lon="2.53253">
        <ele>112</ele>
        <time>2017-11-19T09:54:43Z</time>
      </trkpt>
      <trkpt lat="48.35577" lon="2.53262">
        <ele>112</ele>
        <time>2017-11-19T09:54:45Z</time>
      </trkpt>
      <trkpt lat="48.35576" lon="2.5327">
        <ele>113</ele>
        <time>2017-11-19T09:54:47Z</time>
      </trkpt>
      <trkpt lat="48.35577" lon="2.53281">
        <ele>113</ele>
        <time>2017-11-19T09:54:49Z</time>
      </trkpt>
      <trkpt lat="48.35578" lon="2.53291">
        <ele>113</ele>
        <time>2017-11-19T09:54:51Z</time>
      </trkpt>
      <trkpt lat="48.35578" lon="2.53301">
        <ele>113</ele>
        <time>2017-11-19T09:54:53Z</time>
      </trkpt>
      <trkpt lat="48.35579" lon="2.53311">
        <ele>113</ele>
        <time>2017-11-19T09:54:55Z</time>
      </trkpt>
      <trkpt lat="48.3558" lon="2.53318">
        <ele>112</ele>
        <time>2017-11-19T09:54:57Z</time>
      </trkpt>
      <trkpt lat="48.35581" lon="2.53326">
        <ele>112</ele>
        <time>2017-11-19T09:54:59Z</time>
      </trkpt>
      <trkpt lat="48.35581" lon="2.53335">
        <ele>111</ele>
        <time>2017-11-19T09:55:01Z</time>
      </trkpt>
      <trkpt lat="48.3558" lon="2.53347">
        <ele>113</ele>
        <time>2017-11-19T09:55:03Z</time>
      </trkpt>
      <trkpt lat="48.35577" lon="2.5336">
        <ele>114</ele>
        <time>2017-11-19T09:55:05Z</time>
      </trkpt>
      <trkpt lat="48.35577" lon="2.5337">
        <ele>114</ele>
        <time>2017-11-19T09:55:07Z</time>
      </trkpt>
      <trkpt lat="48.35577" lon="2.53381">
        <ele>114</ele>
        <time>2017-11-19T09:55:09Z</time>
      </trkpt>
      <trkpt lat="48.35575" lon="2.53391">
        <ele>114</ele>
        <time>2017-11-19T09:55:11Z</time>
      </trkpt>
      <trkpt lat="48.35582" lon="2.53397">
        <ele>114</ele>
        <time>2017-11-19T09:55:15Z</time>
      </trkpt>
      <trkpt lat="48.35588" lon="2.53397">
        <ele>110</ele>
        <time>2017-11-19T09:55:17Z</time>
      </trkpt>
      <trkpt lat="48.35595" lon="2.53399">
        <ele>110</ele>
        <time>2017-11-19T09:55:19Z</time>
      </trkpt>
      <trkpt lat="48.35601" lon="2.53405">
        <ele>110</ele>
        <time>2017-11-19T09:55:21Z</time>
      </trkpt>
      <trkpt lat="48.35606" lon="2.53413">
        <ele>109</ele>
        <time>2017-11-19T09:55:23Z</time>
      </trkpt>
      <trkpt lat="48.35607" lon="2.53424">
        <ele>110</ele>
        <time>2017-11-19T09:55:25Z</time>
      </trkpt>
      <trkpt lat="48.35608" lon="2.53435">
        <ele>109</ele>
        <time>2017-11-19T09:55:27Z</time>
      </trkpt>
      <trkpt lat="48.35609" lon="2.53446">
        <ele>109</ele>
        <time>2017-11-19T09:55:29Z</time>
      </trkpt>
      <trkpt lat="48.35612" lon="2.53455">
        <ele>109</ele>
        <time>2017-11-19T09:55:31Z</time>
      </trkpt>
      <trkpt lat="48.35612" lon="2.53465">
        <ele>109</ele>
        <time>2017-11-19T09:55:33Z</time>
      </trkpt>
      <trkpt lat="48.3561" lon="2.53471">
        <ele>109</ele>
        <time>2017-11-19T09:55:35Z</time>
      </trkpt>
      <trkpt lat="48.35603" lon="2.53473">
        <ele>110</ele>
        <time>2017-11-19T09:55:39Z</time>
      </trkpt>
      <trkpt lat="48.35603" lon="2.53488">
        <ele>110</ele>
        <time>2017-11-19T09:55:43Z</time>
      </trkpt>
      <trkpt lat="48.35602" lon="2.53503">
        <ele>110</ele>
        <time>2017-11-19T09:55:47Z</time>
      </trkpt>
      <trkpt lat="48.35603" lon="2.53515">
        <ele>110</ele>
        <time>2017-11-19T09:55:49Z</time>
      </trkpt>
      <trkpt lat="48.35603" lon="2.53527">
        <ele>109</ele>
        <time>2017-11-19T09:55:51Z</time>
      </trkpt>
      <trkpt lat="48.35605" lon="2.53536">
        <ele>109</ele>
        <time>2017-11-19T09:55:53Z</time>
      </trkpt>
      <trkpt lat="48.35604" lon="2.53543">
        <ele>109</ele>
        <time>2017-11-19T09:55:55Z</time>
      </trkpt>
      <trkpt lat="48.35601" lon="2.53553">
        <ele>110</ele>
        <time>2017-11-19T09:55:59Z</time>
      </trkpt>
      <trkpt lat="48.35599" lon="2.5356">
        <ele>110</ele>
        <time>2017-11-19T09:56:01Z</time>
      </trkpt>
      <trkpt lat="48.356" lon="2.53568">
        <ele>110</ele>
        <time>2017-11-19T09:56:03Z</time>
      </trkpt>
      <trkpt lat="48.35601" lon="2.53578">
        <ele>111</ele>
        <time>2017-11-19T09:56:05Z</time>
      </trkpt>
      <trkpt lat="48.35604" lon="2.53588">
        <ele>110</ele>
        <time>2017-11-19T09:56:07Z</time>
      </trkpt>
      <trkpt lat="48.35604" lon="2.53598">
        <ele>110</ele>
        <time>2017-11-19T09:56:09Z</time>
      </trkpt>
      <trkpt lat="48.35601" lon="2.53611">
        <ele>110</ele>
        <time>2017-11-19T09:56:13Z</time>
      </trkpt>
      <trkpt lat="48.35599" lon="2.53623">
        <ele>110</ele>
        <time>2017-11-19T09:56:15Z</time>
      </trkpt>
      <trkpt lat="48.35599" lon="2.53634">
        <ele>110</ele>
        <time>2017-11-19T09:56:17Z</time>
      </trkpt>
      <trkpt lat="48.35602" lon="2.53644">
        <ele>110</ele>
        <time>2017-11-19T09:56:19Z</time>
      </trkpt>
      <trkpt lat="48.35602" lon="2.53655">
        <ele>110</ele>
        <time>2017-11-19T09:56:23Z</time>
      </trkpt>
      <trkpt lat="48.35601" lon="2.53662">
        <ele>111</ele>
        <time>2017-11-19T09:56:25Z</time>
      </trkpt>
      <trkpt lat="48.356" lon="2.53671">
        <ele>111</ele>
        <time>2017-11-19T09:56:29Z</time>
      </trkpt>
      <trkpt lat="48.35597" lon="2.53688">
        <ele>110</ele>
        <time>2017-11-19T09:56:33Z</time>
      </trkpt>
      <trkpt lat="48.35595" lon="2.53696">
        <ele>110</ele>
        <time>2017-11-19T09:56:35Z</time>
      </trkpt>
      <trkpt lat="48.35593" lon="2.53705">
        <ele>110</ele>
        <time>2017-11-19T09:56:37Z</time>
      </trkpt>
      <trkpt lat="48.35592" lon="2.53713">
        <ele>110</ele>
        <time>2017-11-19T09:56:39Z</time>
      </trkpt>
      <trkpt lat="48.35589" lon="2.53722">
        <ele>110</ele>
        <time>2017-11-19T09:56:41Z</time>
      </trkpt>
      <trkpt lat="48.35586" lon="2.53731">
        <ele>111</ele>
        <time>2017-11-19T09:56:43Z</time>
      </trkpt>
      <trkpt lat="48.35583" lon="2.53738">
        <ele>115</ele>
        <time>2017-11-19T09:56:45Z</time>
      </trkpt>
      <trkpt lat="48.35581" lon="2.53744">
        <ele>115</ele>
        <time>2017-11-19T09:56:47Z</time>
      </trkpt>
      <trkpt lat="48.3558" lon="2.53752">
        <ele>114</ele>
        <time>2017-11-19T09:56:49Z</time>
      </trkpt>
      <trkpt lat="48.35578" lon="2.5376">
        <ele>115</ele>
        <time>2017-11-19T09:56:51Z</time>
      </trkpt>
      <trkpt lat="48.35579" lon="2.53768">
        <ele>115</ele>
        <time>2017-11-19T09:56:53Z</time>
      </trkpt>
      <trkpt lat="48.3558" lon="2.53776">
        <ele>115</ele>
        <time>2017-11-19T09:56:55Z</time>
      </trkpt>
      <trkpt lat="48.35578" lon="2.53784">
        <ele>115</ele>
        <time>2017-11-19T09:56:57Z</time>
      </trkpt>
      <trkpt lat="48.35574" lon="2.53792">
        <ele>115</ele>
        <time>2017-11-19T09:56:59Z</time>
      </trkpt>
      <trkpt lat="48.3557" lon="2.53802">
        <ele>115</ele>
        <time>2017-11-19T09:57:01Z</time>
      </trkpt>
      <trkpt lat="48.35567" lon="2.5381">
        <ele>115</ele>
        <time>2017-11-19T09:57:03Z</time>
      </trkpt>
      <trkpt lat="48.35565" lon="2.53817">
        <ele>115</ele>
        <time>2017-11-19T09:57:05Z</time>
      </trkpt>
      <trkpt lat="48.3556" lon="2.53825">
        <ele>115</ele>
        <time>2017-11-19T09:57:09Z</time>
      </trkpt>
      <trkpt lat="48.35555" lon="2.53825">
        <ele>115</ele>
        <time>2017-11-19T09:57:13Z</time>
      </trkpt>
      <trkpt lat="48.35547" lon="2.53822">
        <ele>116</ele>
        <time>2017-11-19T09:57:17Z</time>
      </trkpt>
      <trkpt lat="48.35543" lon="2.53827">
        <ele>116</ele>
        <time>2017-11-19T09:57:19Z</time>
      </trkpt>
      <trkpt lat="48.3554" lon="2.53841">
        <ele>114</ele>
        <time>2017-11-19T09:57:23Z</time>
      </trkpt>
      <trkpt lat="48.35536" lon="2.53856">
        <ele>114</ele>
        <time>2017-11-19T09:57:27Z</time>
      </trkpt>
      <trkpt lat="48.35536" lon="2.53865">
        <ele>114</ele>
        <time>2017-11-19T09:57:29Z</time>
      </trkpt>
      <trkpt lat="48.35535" lon="2.53873">
        <ele>114</ele>
        <time>2017-11-19T09:57:31Z</time>
      </trkpt>
      <trkpt lat="48.35537" lon="2.53882">
        <ele>114</ele>
        <time>2017-11-19T09:57:33Z</time>
      </trkpt>
      <trkpt lat="48.35535" lon="2.53893">
        <ele>114</ele>
        <time>2017-11-19T09:57:35Z</time>
      </trkpt>
      <trkpt lat="48.35534" lon="2.53902">
        <ele>114</ele>
        <time>2017-11-19T09:57:37Z</time>
      </trkpt>
      <trkpt lat="48.35534" lon="2.53912">
        <ele>114</ele>
        <time>2017-11-19T09:57:39Z</time>
      </trkpt>
      <trkpt lat="48.3553" lon="2.53921">
        <ele>112</ele>
        <time>2017-11-19T09:57:41Z</time>
      </trkpt>
      <trkpt lat="48.35529" lon="2.5393">
        <ele>112</ele>
        <time>2017-11-19T09:57:43Z</time>
      </trkpt>
      <trkpt lat="48.35527" lon="2.53941">
        <ele>112</ele>
        <time>2017-11-19T09:57:45Z</time>
      </trkpt>
      <trkpt lat="48.35526" lon="2.53949">
        <ele>111</ele>
        <time>2017-11-19T09:57:47Z</time>
      </trkpt>
      <trkpt lat="48.35524" lon="2.53958">
        <ele>111</ele>
        <time>2017-11-19T09:57:49Z</time>
      </trkpt>
      <trkpt lat="48.35523" lon="2.53967">
        <ele>111</ele>
        <time>2017-11-19T09:57:51Z</time>
      </trkpt>
      <trkpt lat="48.3552" lon="2.53976">
        <ele>111</ele>
        <time>2017-11-19T09:57:53Z</time>
      </trkpt>
      <trkpt lat="48.35517" lon="2.53983">
        <ele>112</ele>
        <time>2017-11-19T09:57:55Z</time>
      </trkpt>
      <trkpt lat="48.35514" lon="2.53999">
        <ele>112</ele>
        <time>2017-11-19T09:57:59Z</time>
      </trkpt>
      <trkpt lat="48.35512" lon="2.5401">
        <ele>111</ele>
        <time>2017-11-19T09:58:01Z</time>
      </trkpt>
      <trkpt lat="48.3551" lon="2.54021">
        <ele>111</ele>
        <time>2017-11-19T09:58:03Z</time>
      </trkpt>
      <trkpt lat="48.35508" lon="2.54031">
        <ele>110</ele>
        <time>2017-11-19T09:58:05Z</time>
      </trkpt>
      <trkpt lat="48.35505" lon="2.54037">
        <ele>110</ele>
        <time>2017-11-19T09:58:07Z</time>
      </trkpt>
      <trkpt lat="48.35504" lon="2.54045">
        <ele>110</ele>
        <time>2017-11-19T09:58:09Z</time>
      </trkpt>
      <trkpt lat="48.35507" lon="2.54054">
        <ele>110</ele>
        <time>2017-11-19T09:58:11Z</time>
      </trkpt>
      <trkpt lat="48.35507" lon="2.54068">
        <ele>111</ele>
        <time>2017-11-19T09:58:13Z</time>
      </trkpt>
      <trkpt lat="48.35508" lon="2.54081">
        <ele>112</ele>
        <time>2017-11-19T09:58:15Z</time>
      </trkpt>
      <trkpt lat="48.35506" lon="2.54099">
        <ele>110</ele>
        <time>2017-11-19T09:58:17Z</time>
      </trkpt>
      <trkpt lat="48.35503" lon="2.54109">
        <ele>110</ele>
        <time>2017-11-19T09:58:19Z</time>
      </trkpt>
      <trkpt lat="48.35499" lon="2.54119">
        <ele>115</ele>
        <time>2017-11-19T09:58:25Z</time>
      </trkpt>
      <trkpt lat="48.35499" lon="2.54128">
        <ele>116</ele>
        <time>2017-11-19T09:58:29Z</time>
      </trkpt>
      <trkpt lat="48.35501" lon="2.54135">
        <ele>110</ele>
        <time>2017-11-19T09:58:31Z</time>
      </trkpt>
      <trkpt lat="48.35498" lon="2.54142">
        <ele>115</ele>
        <time>2017-11-19T09:58:33Z</time>
      </trkpt>
      <trkpt lat="48.355" lon="2.54149">
        <ele>115</ele>
        <time>2017-11-19T09:58:35Z</time>
      </trkpt>
      <trkpt lat="48.35501" lon="2.54159">
        <ele>112</ele>
        <time>2017-11-19T09:58:37Z</time>
      </trkpt>
      <trkpt lat="48.35498" lon="2.54174">
        <ele>115</ele>
        <time>2017-11-19T09:58:39Z</time>
      </trkpt>
      <trkpt lat="48.35496" lon="2.54181">
        <ele>115</ele>
        <time>2017-11-19T09:58:41Z</time>
      </trkpt>
      <trkpt lat="48.35496" lon="2.54188">
        <ele>115</ele>
        <time>2017-11-19T09:58:43Z</time>
      </trkpt>
      <trkpt lat="48.35494" lon="2.542">
        <ele>115</ele>
        <time>2017-11-19T09:58:47Z</time>
      </trkpt>
      <trkpt lat="48.35492" lon="2.5421">
        <ele>115</ele>
        <time>2017-11-19T09:58:51Z</time>
      </trkpt>
      <trkpt lat="48.35491" lon="2.54218">
        <ele>115</ele>
        <time>2017-11-19T09:58:55Z</time>
      </trkpt>
      <trkpt lat="48.35489" lon="2.5423">
        <ele>115</ele>
        <time>2017-11-19T09:58:59Z</time>
      </trkpt>
      <trkpt lat="48.35485" lon="2.54245">
        <ele>115</ele>
        <time>2017-11-19T09:59:03Z</time>
      </trkpt>
      <trkpt lat="48.35481" lon="2.5425">
        <ele>115</ele>
        <time>2017-11-19T09:59:05Z</time>
      </trkpt>
      <trkpt lat="48.35476" lon="2.5426">
        <ele>114</ele>
        <time>2017-11-19T09:59:09Z</time>
      </trkpt>
      <trkpt lat="48.35473" lon="2.54268">
        <ele>114</ele>
        <time>2017-11-19T09:59:11Z</time>
      </trkpt>
      <trkpt lat="48.35474" lon="2.54276">
        <ele>114</ele>
        <time>2017-11-19T09:59:13Z</time>
      </trkpt>
      <trkpt lat="48.35467" lon="2.54286">
        <ele>114</ele>
        <time>2017-11-19T09:59:17Z</time>
      </trkpt>
      <trkpt lat="48.35466" lon="2.54294">
        <ele>114</ele>
        <time>2017-11-19T09:59:19Z</time>
      </trkpt>
      <trkpt lat="48.35462" lon="2.54302">
        <ele>114</ele>
        <time>2017-11-19T09:59:21Z</time>
      </trkpt>
      <trkpt lat="48.35461" lon="2.54311">
        <ele>114</ele>
        <time>2017-11-19T09:59:23Z</time>
      </trkpt>
      <trkpt lat="48.35461" lon="2.54322">
        <ele>114</ele>
        <time>2017-11-19T09:59:25Z</time>
      </trkpt>
      <trkpt lat="48.35458" lon="2.5433">
        <ele>114</ele>
        <time>2017-11-19T09:59:27Z</time>
      </trkpt>
      <trkpt lat="48.35456" lon="2.5434">
        <ele>113</ele>
        <time>2017-11-19T09:59:29Z</time>
      </trkpt>
      <trkpt lat="48.35453" lon="2.5435">
        <ele>113</ele>
        <time>2017-11-19T09:59:31Z</time>
      </trkpt>
      <trkpt lat="48.35451" lon="2.54361">
        <ele>113</ele>
        <time>2017-11-19T09:59:33Z</time>
      </trkpt>
      <trkpt lat="48.35447" lon="2.54372">
        <ele>113</ele>
        <time>2017-11-19T09:59:35Z</time>
      </trkpt>
      <trkpt lat="48.35446" lon="2.54384">
        <ele>113</ele>
        <time>2017-11-19T09:59:37Z</time>
      </trkpt>
      <trkpt lat="48.35444" lon="2.544">
        <ele>113</ele>
        <time>2017-11-19T09:59:39Z</time>
      </trkpt>
      <trkpt lat="48.35444" lon="2.54416">
        <ele>113</ele>
        <time>2017-11-19T09:59:41Z</time>
      </trkpt>
      <trkpt lat="48.35442" lon="2.54431">
        <ele>112</ele>
        <time>2017-11-19T09:59:43Z</time>
      </trkpt>
      <trkpt lat="48.3544" lon="2.54442">
        <ele>112</ele>
        <time>2017-11-19T09:59:45Z</time>
      </trkpt>
      <trkpt lat="48.3544" lon="2.54452">
        <ele>112</ele>
        <time>2017-11-19T09:59:47Z</time>
      </trkpt>
      <trkpt lat="48.35442" lon="2.54463">
        <ele>112</ele>
        <time>2017-11-19T09:59:49Z</time>
      </trkpt>
      <trkpt lat="48.35441" lon="2.54473">
        <ele>112</ele>
        <time>2017-11-19T09:59:51Z</time>
      </trkpt>
      <trkpt lat="48.35444" lon="2.54482">
        <ele>112</ele>
        <time>2017-11-19T09:59:53Z</time>
      </trkpt>
      <trkpt lat="48.35444" lon="2.5449">
        <ele>112</ele>
        <time>2017-11-19T09:59:55Z</time>
      </trkpt>
      <trkpt lat="48.35443" lon="2.54497">
        <ele>112</ele>
        <time>2017-11-19T09:59:57Z</time>
      </trkpt>
      <trkpt lat="48.35442" lon="2.54505">
        <ele>112</ele>
        <time>2017-11-19T09:59:59Z</time>
      </trkpt>
      <trkpt lat="48.35442" lon="2.54514">
        <ele>112</ele>
        <time>2017-11-19T10:00:01Z</time>
      </trkpt>
      <trkpt lat="48.35441" lon="2.54523">
        <ele>112</ele>
        <time>2017-11-19T10:00:03Z</time>
      </trkpt>
      <trkpt lat="48.3544" lon="2.54532">
        <ele>112</ele>
        <time>2017-11-19T10:00:05Z</time>
      </trkpt>
      <trkpt lat="48.35439" lon="2.54542">
        <ele>112</ele>
        <time>2017-11-19T10:00:07Z</time>
      </trkpt>
      <trkpt lat="48.35437" lon="2.54555">
        <ele>112</ele>
        <time>2017-11-19T10:00:09Z</time>
      </trkpt>
      <trkpt lat="48.35436" lon="2.54568">
        <ele>113</ele>
        <time>2017-11-19T10:00:11Z</time>
      </trkpt>
      <trkpt lat="48.35436" lon="2.54582">
        <ele>113</ele>
        <time>2017-11-19T10:00:13Z</time>
      </trkpt>
      <trkpt lat="48.35442" lon="2.54594">
        <ele>112</ele>
        <time>2017-11-19T10:00:15Z</time>
      </trkpt>
      <trkpt lat="48.35443" lon="2.54604">
        <ele>112</ele>
        <time>2017-11-19T10:00:17Z</time>
      </trkpt>
      <trkpt lat="48.35439" lon="2.54608">
        <ele>112</ele>
        <time>2017-11-19T10:00:19Z</time>
      </trkpt>
      <trkpt lat="48.35437" lon="2.54617">
        <ele>112</ele>
        <time>2017-11-19T10:00:23Z</time>
      </trkpt>
      <trkpt lat="48.35437" lon="2.54623">
        <ele>112</ele>
        <time>2017-11-19T10:00:25Z</time>
      </trkpt>
      <trkpt lat="48.35437" lon="2.54638">
        <ele>112</ele>
        <time>2017-11-19T10:00:29Z</time>
      </trkpt>
      <trkpt lat="48.35438" lon="2.54649">
        <ele>113</ele>
        <time>2017-11-19T10:00:31Z</time>
      </trkpt>
      <trkpt lat="48.35436" lon="2.54657">
        <ele>113</ele>
        <time>2017-11-19T10:00:33Z</time>
      </trkpt>
      <trkpt lat="48.35434" lon="2.54667">
        <ele>113</ele>
        <time>2017-11-19T10:00:39Z</time>
      </trkpt>
      <trkpt lat="48.3543" lon="2.54675">
        <ele>113</ele>
        <time>2017-11-19T10:00:43Z</time>
      </trkpt>
      <trkpt lat="48.3543" lon="2.54692">
        <ele>112</ele>
        <time>2017-11-19T10:00:47Z</time>
      </trkpt>
      <trkpt lat="48.35428" lon="2.54703">
        <ele>111</ele>
        <time>2017-11-19T10:00:49Z</time>
      </trkpt>
      <trkpt lat="48.35426" lon="2.54711">
        <ele>111</ele>
        <time>2017-11-19T10:00:51Z</time>
      </trkpt>
      <trkpt lat="48.35424" lon="2.5472">
        <ele>111</ele>
        <time>2017-11-19T10:00:53Z</time>
      </trkpt>
      <trkpt lat="48.35422" lon="2.54729">
        <ele>112</ele>
        <time>2017-11-19T10:00:55Z</time>
      </trkpt>
      <trkpt lat="48.35422" lon="2.54741">
        <ele>113</ele>
        <time>2017-11-19T10:00:57Z</time>
      </trkpt>
      <trkpt lat="48.35422" lon="2.54752">
        <ele>115</ele>
        <time>2017-11-19T10:00:59Z</time>
      </trkpt>
      <trkpt lat="48.35423" lon="2.54764">
        <ele>113</ele>
        <time>2017-11-19T10:01:01Z</time>
      </trkpt>
      <trkpt lat="48.35422" lon="2.54778">
        <ele>112</ele>
        <time>2017-11-19T10:01:05Z</time>
      </trkpt>
      <trkpt lat="48.35423" lon="2.54786">
        <ele>111</ele>
        <time>2017-11-19T10:01:11Z</time>
      </trkpt>
      <trkpt lat="48.35421" lon="2.54793">
        <ele>112</ele>
        <time>2017-11-19T10:01:19Z</time>
      </trkpt>
      <trkpt lat="48.3542" lon="2.54802">
        <ele>112</ele>
        <time>2017-11-19T10:01:23Z</time>
      </trkpt>
      <trkpt lat="48.35421" lon="2.5481">
        <ele>113</ele>
        <time>2017-11-19T10:01:25Z</time>
      </trkpt>
      <trkpt lat="48.35422" lon="2.5482">
        <ele>114</ele>
        <time>2017-11-19T10:01:27Z</time>
      </trkpt>
      <trkpt lat="48.35421" lon="2.54829">
        <ele>115</ele>
        <time>2017-11-19T10:01:29Z</time>
      </trkpt>
      <trkpt lat="48.35419" lon="2.54841">
        <ele>115</ele>
        <time>2017-11-19T10:01:33Z</time>
      </trkpt>
      <trkpt lat="48.35417" lon="2.54851">
        <ele>114</ele>
        <time>2017-11-19T10:01:35Z</time>
      </trkpt>
      <trkpt lat="48.35417" lon="2.54861">
        <ele>119</ele>
        <time>2017-11-19T10:01:37Z</time>
      </trkpt>
      <trkpt lat="48.35415" lon="2.5487">
        <ele>119</ele>
        <time>2017-11-19T10:01:39Z</time>
      </trkpt>
      <trkpt lat="48.35415" lon="2.54879">
        <ele>119</ele>
        <time>2017-11-19T10:01:41Z</time>
      </trkpt>
      <trkpt lat="48.35415" lon="2.54894">
        <ele>119</ele>
        <time>2017-11-19T10:01:45Z</time>
      </trkpt>
      <trkpt lat="48.35413" lon="2.54904">
        <ele>119</ele>
        <time>2017-11-19T10:01:49Z</time>
      </trkpt>
      <trkpt lat="48.35417" lon="2.54907">
        <ele>116</ele>
        <time>2017-11-19T10:01:51Z</time>
      </trkpt>
      <trkpt lat="48.3542" lon="2.54902">
        <ele>115</ele>
        <time>2017-11-19T10:01:53Z</time>
      </trkpt>
      <trkpt lat="48.35424" lon="2.54895">
        <ele>114</ele>
        <time>2017-11-19T10:01:55Z</time>
      </trkpt>
      <trkpt lat="48.35429" lon="2.54891">
        <ele>114</ele>
        <time>2017-11-19T10:01:57Z</time>
      </trkpt>
      <trkpt lat="48.35439" lon="2.54897">
        <ele>113</ele>
        <time>2017-11-19T10:01:59Z</time>
      </trkpt>
      <trkpt lat="48.35447" lon="2.54898">
        <ele>112</ele>
        <time>2017-11-19T10:02:01Z</time>
      </trkpt>
      <trkpt lat="48.35455" lon="2.54891">
        <ele>111</ele>
        <time>2017-11-19T10:02:03Z</time>
      </trkpt>
      <trkpt lat="48.35463" lon="2.54883">
        <ele>111</ele>
        <time>2017-11-19T10:02:05Z</time>
      </trkpt>
      <trkpt lat="48.35469" lon="2.54871">
        <ele>110</ele>
        <time>2017-11-19T10:02:07Z</time>
      </trkpt>
      <trkpt lat="48.35477" lon="2.54858">
        <ele>109</ele>
        <time>2017-11-19T10:02:09Z</time>
      </trkpt>
      <trkpt lat="48.3548" lon="2.54845">
        <ele>108</ele>
        <time>2017-11-19T10:02:11Z</time>
      </trkpt>
      <trkpt lat="48.35481" lon="2.54832">
        <ele>107</ele>
        <time>2017-11-19T10:02:13Z</time>
      </trkpt>
      <trkpt lat="48.35479" lon="2.54823">
        <ele>107</ele>
        <time>2017-11-19T10:02:15Z</time>
      </trkpt>
      <trkpt lat="48.35479" lon="2.54809">
        <ele>107</ele>
        <time>2017-11-19T10:02:17Z</time>
      </trkpt>
      <trkpt lat="48.35479" lon="2.54796">
        <ele>107</ele>
        <time>2017-11-19T10:02:19Z</time>
      </trkpt>
      <trkpt lat="48.35481" lon="2.54783">
        <ele>106</ele>
        <time>2017-11-19T10:02:21Z</time>
      </trkpt>
      <trkpt lat="48.35483" lon="2.54777">
        <ele>106</ele>
        <time>2017-11-19T10:02:23Z</time>
      </trkpt>
      <trkpt lat="48.35487" lon="2.54764">
        <ele>104</ele>
        <time>2017-11-19T10:02:27Z</time>
      </trkpt>
      <trkpt lat="48.3549" lon="2.54759">
        <ele>103</ele>
        <time>2017-11-19T10:02:29Z</time>
      </trkpt>
      <trkpt lat="48.35495" lon="2.54753">
        <ele>100</ele>
        <time>2017-11-19T10:02:31Z</time>
      </trkpt>
      <trkpt lat="48.35499" lon="2.54749">
        <ele>98</ele>
        <time>2017-11-19T10:02:33Z</time>
      </trkpt>
      <trkpt lat="48.35503" lon="2.54744">
        <ele>97</ele>
        <time>2017-11-19T10:02:35Z</time>
      </trkpt>
      <trkpt lat="48.35509" lon="2.54742">
        <ele>96</ele>
        <time>2017-11-19T10:02:37Z</time>
      </trkpt>
      <trkpt lat="48.35518" lon="2.54735">
        <ele>95</ele>
        <time>2017-11-19T10:02:39Z</time>
      </trkpt>
      <trkpt lat="48.35525" lon="2.54727">
        <ele>94</ele>
        <time>2017-11-19T10:02:41Z</time>
      </trkpt>
      <trkpt lat="48.35532" lon="2.54715">
        <ele>94</ele>
        <time>2017-11-19T10:02:43Z</time>
      </trkpt>
      <trkpt lat="48.35538" lon="2.54701">
        <ele>93</ele>
        <time>2017-11-19T10:02:45Z</time>
      </trkpt>
      <trkpt lat="48.35544" lon="2.54687">
        <ele>93</ele>
        <time>2017-11-19T10:02:47Z</time>
      </trkpt>
      <trkpt lat="48.35548" lon="2.54673">
        <ele>92</ele>
        <time>2017-11-19T10:02:49Z</time>
      </trkpt>
      <trkpt lat="48.35553" lon="2.54659">
        <ele>93</ele>
        <time>2017-11-19T10:02:51Z</time>
      </trkpt>
      <trkpt lat="48.35559" lon="2.54645">
        <ele>93</ele>
        <time>2017-11-19T10:02:53Z</time>
      </trkpt>
      <trkpt lat="48.35565" lon="2.54629">
        <ele>93</ele>
        <time>2017-11-19T10:02:55Z</time>
      </trkpt>
      <trkpt lat="48.35573" lon="2.54614">
        <ele>92</ele>
        <time>2017-11-19T10:02:57Z</time>
      </trkpt>
      <trkpt lat="48.35579" lon="2.54597">
        <ele>91</ele>
        <time>2017-11-19T10:02:59Z</time>
      </trkpt>
      <trkpt lat="48.35584" lon="2.54581">
        <ele>88</ele>
        <time>2017-11-19T10:03:01Z</time>
      </trkpt>
      <trkpt lat="48.35594" lon="2.54568">
        <ele>86</ele>
        <time>2017-11-19T10:03:03Z</time>
      </trkpt>
      <trkpt lat="48.35602" lon="2.54553">
        <ele>85</ele>
        <time>2017-11-19T10:03:05Z</time>
      </trkpt>
      <trkpt lat="48.35609" lon="2.54539">
        <ele>85</ele>
        <time>2017-11-19T10:03:07Z</time>
      </trkpt>
      <trkpt lat="48.35615" lon="2.54523">
        <ele>84</ele>
        <time>2017-11-19T10:03:09Z</time>
      </trkpt>
      <trkpt lat="48.35624" lon="2.54509">
        <ele>84</ele>
        <time>2017-11-19T10:03:11Z</time>
      </trkpt>
      <trkpt lat="48.35632" lon="2.54493">
        <ele>83</ele>
        <time>2017-11-19T10:03:13Z</time>
      </trkpt>
      <trkpt lat="48.3564" lon="2.54477">
        <ele>83</ele>
        <time>2017-11-19T10:03:15Z</time>
      </trkpt>
      <trkpt lat="48.35647" lon="2.54462">
        <ele>83</ele>
        <time>2017-11-19T10:03:17Z</time>
      </trkpt>
      <trkpt lat="48.35654" lon="2.54446">
        <ele>82</ele>
        <time>2017-11-19T10:03:19Z</time>
      </trkpt>
      <trkpt lat="48.3566" lon="2.54432">
        <ele>81</ele>
        <time>2017-11-19T10:03:21Z</time>
      </trkpt>
      <trkpt lat="48.35666" lon="2.54426">
        <ele>81</ele>
        <time>2017-11-19T10:03:23Z</time>
      </trkpt>
      <trkpt lat="48.35672" lon="2.54429">
        <ele>78</ele>
        <time>2017-11-19T10:03:25Z</time>
      </trkpt>
      <trkpt lat="48.35678" lon="2.5443">
        <ele>78</ele>
        <time>2017-11-19T10:03:27Z</time>
      </trkpt>
      <trkpt lat="48.35682" lon="2.54433">
        <ele>78</ele>
        <time>2017-11-19T10:03:29Z</time>
      </trkpt>
      <trkpt lat="48.35688" lon="2.54437">
        <ele>78</ele>
        <time>2017-11-19T10:03:31Z</time>
      </trkpt>
      <trkpt lat="48.35694" lon="2.54443">
        <ele>78</ele>
        <time>2017-11-19T10:03:33Z</time>
      </trkpt>
      <trkpt lat="48.35706" lon="2.54443">
        <ele>78</ele>
        <time>2017-11-19T10:03:37Z</time>
      </trkpt>
      <trkpt lat="48.35714" lon="2.54447">
        <ele>77</ele>
        <time>2017-11-19T10:03:39Z</time>
      </trkpt>
      <trkpt lat="48.35721" lon="2.54457">
        <ele>77</ele>
        <time>2017-11-19T10:03:41Z</time>
      </trkpt>
      <trkpt lat="48.35729" lon="2.54465">
        <ele>77</ele>
        <time>2017-11-19T10:03:43Z</time>
      </trkpt>
      <trkpt lat="48.35738" lon="2.54471">
        <ele>77</ele>
        <time>2017-11-19T10:03:45Z</time>
      </trkpt>
      <trkpt lat="48.35746" lon="2.5448">
        <ele>77</ele>
        <time>2017-11-19T10:03:47Z</time>
      </trkpt>
      <trkpt lat="48.35754" lon="2.5449">
        <ele>76</ele>
        <time>2017-11-19T10:03:49Z</time>
      </trkpt>
      <trkpt lat="48.35764" lon="2.54496">
        <ele>76</ele>
        <time>2017-11-19T10:03:51Z</time>
      </trkpt>
      <trkpt lat="48.35773" lon="2.545">
        <ele>77</ele>
        <time>2017-11-19T10:03:53Z</time>
      </trkpt>
      <trkpt lat="48.35781" lon="2.54504">
        <ele>77</ele>
        <time>2017-11-19T10:03:55Z</time>
      </trkpt>
      <trkpt lat="48.3579" lon="2.54507">
        <ele>77</ele>
        <time>2017-11-19T10:03:57Z</time>
      </trkpt>
      <trkpt lat="48.35797" lon="2.54518">
        <ele>77</ele>
        <time>2017-11-19T10:03:59Z</time>
      </trkpt>
      <trkpt lat="48.358" lon="2.54533">
        <ele>77</ele>
        <time>2017-11-19T10:04:01Z</time>
      </trkpt>
      <trkpt lat="48.35803" lon="2.54546">
        <ele>77</ele>
        <time>2017-11-19T10:04:03Z</time>
      </trkpt>
      <trkpt lat="48.35807" lon="2.54559">
        <ele>77</ele>
        <time>2017-11-19T10:04:05Z</time>
      </trkpt>
      <trkpt lat="48.35812" lon="2.54572">
        <ele>77</ele>
        <time>2017-11-19T10:04:07Z</time>
      </trkpt>
      <trkpt lat="48.35816" lon="2.54585">
        <ele>78</ele>
        <time>2017-11-19T10:04:09Z</time>
      </trkpt>
      <trkpt lat="48.35819" lon="2.54597">
        <ele>78</ele>
        <time>2017-11-19T10:04:11Z</time>
      </trkpt>
      <trkpt lat="48.35822" lon="2.54609">
        <ele>78</ele>
        <time>2017-11-19T10:04:13Z</time>
      </trkpt>
      <trkpt lat="48.35827" lon="2.5462">
        <ele>79</ele>
        <time>2017-11-19T10:04:15Z</time>
      </trkpt>
      <trkpt lat="48.35831" lon="2.54631">
        <ele>79</ele>
        <time>2017-11-19T10:04:17Z</time>
      </trkpt>
      <trkpt lat="48.35834" lon="2.54643">
        <ele>81</ele>
        <time>2017-11-19T10:04:19Z</time>
      </trkpt>
      <trkpt lat="48.35836" lon="2.54656">
        <ele>80</ele>
        <time>2017-11-19T10:04:21Z</time>
      </trkpt>
      <trkpt lat="48.35841" lon="2.54664">
        <ele>80</ele>
        <time>2017-11-19T10:04:23Z</time>
      </trkpt>
      <trkpt lat="48.35845" lon="2.54674">
        <ele>81</ele>
        <time>2017-11-19T10:04:25Z</time>
      </trkpt>
      <trkpt lat="48.35852" lon="2.54682">
        <ele>81</ele>
        <time>2017-11-19T10:04:27Z</time>
      </trkpt>
      <trkpt lat="48.35859" lon="2.54686">
        <ele>82</ele>
        <time>2017-11-19T10:04:29Z</time>
      </trkpt>
      <trkpt lat="48.35863" lon="2.5469">
        <ele>82</ele>
        <time>2017-11-19T10:04:31Z</time>
      </trkpt>
      <trkpt lat="48.3587" lon="2.54696">
        <ele>83</ele>
        <time>2017-11-19T10:04:33Z</time>
      </trkpt>
      <trkpt lat="48.35877" lon="2.54702">
        <ele>83</ele>
        <time>2017-11-19T10:04:35Z</time>
      </trkpt>
      <trkpt lat="48.35883" lon="2.5471">
        <ele>83</ele>
        <time>2017-11-19T10:04:37Z</time>
      </trkpt>
      <trkpt lat="48.35887" lon="2.54719">
        <ele>83</ele>
        <time>2017-11-19T10:04:39Z</time>
      </trkpt>
      <trkpt lat="48.35893" lon="2.54725">
        <ele>83</ele>
        <time>2017-11-19T10:04:41Z</time>
      </trkpt>
      <trkpt lat="48.35899" lon="2.54732">
        <ele>83</ele>
        <time>2017-11-19T10:04:43Z</time>
      </trkpt>
      <trkpt lat="48.35906" lon="2.54738">
        <ele>83</ele>
        <time>2017-11-19T10:04:45Z</time>
      </trkpt>
      <trkpt lat="48.35911" lon="2.54746">
        <ele>83</ele>
        <time>2017-11-19T10:04:47Z</time>
      </trkpt>
      <trkpt lat="48.35915" lon="2.54752">
        <ele>83</ele>
        <time>2017-11-19T10:04:49Z</time>
      </trkpt>
      <trkpt lat="48.35919" lon="2.54758">
        <ele>84</ele>
        <time>2017-11-19T10:04:51Z</time>
      </trkpt>
      <trkpt lat="48.35924" lon="2.54763">
        <ele>84</ele>
        <time>2017-11-19T10:04:53Z</time>
      </trkpt>
      <trkpt lat="48.35931" lon="2.54767">
        <ele>84</ele>
        <time>2017-11-19T10:04:55Z</time>
      </trkpt>
      <trkpt lat="48.35936" lon="2.54773">
        <ele>84</ele>
        <time>2017-11-19T10:04:57Z</time>
      </trkpt>
      <trkpt lat="48.35943" lon="2.54778">
        <ele>85</ele>
        <time>2017-11-19T10:04:59Z</time>
      </trkpt>
      <trkpt lat="48.35949" lon="2.54785">
        <ele>85</ele>
        <time>2017-11-19T10:05:01Z</time>
      </trkpt>
      <trkpt lat="48.35955" lon="2.54793">
        <ele>85</ele>
        <time>2017-11-19T10:05:03Z</time>
      </trkpt>
      <trkpt lat="48.3596" lon="2.54801">
        <ele>85</ele>
        <time>2017-11-19T10:05:05Z</time>
      </trkpt>
      <trkpt lat="48.35963" lon="2.54808">
        <ele>85</ele>
        <time>2017-11-19T10:05:07Z</time>
      </trkpt>
      <trkpt lat="48.35969" lon="2.54815">
        <ele>84</ele>
        <time>2017-11-19T10:05:09Z</time>
      </trkpt>
      <trkpt lat="48.35972" lon="2.54821">
        <ele>84</ele>
        <time>2017-11-19T10:05:11Z</time>
      </trkpt>
      <trkpt lat="48.35977" lon="2.54825">
        <ele>84</ele>
        <time>2017-11-19T10:05:13Z</time>
      </trkpt>
      <trkpt lat="48.35981" lon="2.5483">
        <ele>84</ele>
        <time>2017-11-19T10:05:15Z</time>
      </trkpt>
      <trkpt lat="48.35986" lon="2.54835">
        <ele>84</ele>
        <time>2017-11-19T10:05:17Z</time>
      </trkpt>
      <trkpt lat="48.3599" lon="2.54841">
        <ele>84</ele>
        <time>2017-11-19T10:05:19Z</time>
      </trkpt>
      <trkpt lat="48.35995" lon="2.54848">
        <ele>84</ele>
        <time>2017-11-19T10:05:21Z</time>
      </trkpt>
      <trkpt lat="48.35999" lon="2.54855">
        <ele>85</ele>
        <time>2017-11-19T10:05:23Z</time>
      </trkpt>
      <trkpt lat="48.36005" lon="2.54862">
        <ele>85</ele>
        <time>2017-11-19T10:05:25Z</time>
      </trkpt>
      <trkpt lat="48.3601" lon="2.54869">
        <ele>85</ele>
        <time>2017-11-19T10:05:27Z</time>
      </trkpt>
      <trkpt lat="48.36016" lon="2.54876">
        <ele>86</ele>
        <time>2017-11-19T10:05:29Z</time>
      </trkpt>
      <trkpt lat="48.3602" lon="2.54885">
        <ele>86</ele>
        <time>2017-11-19T10:05:31Z</time>
      </trkpt>
      <trkpt lat="48.36024" lon="2.54894">
        <ele>86</ele>
        <time>2017-11-19T10:05:33Z</time>
      </trkpt>
      <trkpt lat="48.36027" lon="2.54905">
        <ele>86</ele>
        <time>2017-11-19T10:05:35Z</time>
      </trkpt>
      <trkpt lat="48.36029" lon="2.54915">
        <ele>86</ele>
        <time>2017-11-19T10:05:37Z</time>
      </trkpt>
      <trkpt lat="48.36031" lon="2.54927">
        <ele>87</ele>
        <time>2017-11-19T10:05:39Z</time>
      </trkpt>
      <trkpt lat="48.36031" lon="2.54937">
        <ele>88</ele>
        <time>2017-11-19T10:05:41Z</time>
      </trkpt>
      <trkpt lat="48.36031" lon="2.54946">
        <ele>88</ele>
        <time>2017-11-19T10:05:43Z</time>
      </trkpt>
      <trkpt lat="48.36032" lon="2.54955">
        <ele>88</ele>
        <time>2017-11-19T10:05:45Z</time>
      </trkpt>
      <trkpt lat="48.36032" lon="2.54963">
        <ele>88</ele>
        <time>2017-11-19T10:05:47Z</time>
      </trkpt>
      <trkpt lat="48.36033" lon="2.54971">
        <ele>88</ele>
        <time>2017-11-19T10:05:49Z</time>
      </trkpt>
      <trkpt lat="48.36034" lon="2.54978">
        <ele>89</ele>
        <time>2017-11-19T10:05:51Z</time>
      </trkpt>
      <trkpt lat="48.36035" lon="2.54989">
        <ele>89</ele>
        <time>2017-11-19T10:05:53Z</time>
      </trkpt>
      <trkpt lat="48.36036" lon="2.54997">
        <ele>89</ele>
        <time>2017-11-19T10:05:55Z</time>
      </trkpt>
      <trkpt lat="48.36036" lon="2.5501">
        <ele>90</ele>
        <time>2017-11-19T10:05:59Z</time>
      </trkpt>
      <trkpt lat="48.36037" lon="2.55018">
        <ele>90</ele>
        <time>2017-11-19T10:06:01Z</time>
      </trkpt>
      <trkpt lat="48.3604" lon="2.55029">
        <ele>90</ele>
        <time>2017-11-19T10:06:03Z</time>
      </trkpt>
      <trkpt lat="48.36041" lon="2.55042">
        <ele>91</ele>
        <time>2017-11-19T10:06:05Z</time>
      </trkpt>
      <trkpt lat="48.36044" lon="2.55053">
        <ele>91</ele>
        <time>2017-11-19T10:06:07Z</time>
      </trkpt>
      <trkpt lat="48.36047" lon="2.55064">
        <ele>91</ele>
        <time>2017-11-19T10:06:09Z</time>
      </trkpt>
      <trkpt lat="48.36049" lon="2.55073">
        <ele>90</ele>
        <time>2017-11-19T10:06:11Z</time>
      </trkpt>
      <trkpt lat="48.36051" lon="2.55083">
        <ele>90</ele>
        <time>2017-11-19T10:06:13Z</time>
      </trkpt>
      <trkpt lat="48.36053" lon="2.55093">
        <ele>92</ele>
        <time>2017-11-19T10:06:15Z</time>
      </trkpt>
      <trkpt lat="48.36054" lon="2.55103">
        <ele>92</ele>
        <time>2017-11-19T10:06:17Z</time>
      </trkpt>
      <trkpt lat="48.36056" lon="2.55112">
        <ele>92</ele>
        <time>2017-11-19T10:06:19Z</time>
      </trkpt>
      <trkpt lat="48.36059" lon="2.55121">
        <ele>92</ele>
        <time>2017-11-19T10:06:21Z</time>
      </trkpt>
      <trkpt lat="48.36062" lon="2.55131">
        <ele>92</ele>
        <time>2017-11-19T10:06:23Z</time>
      </trkpt>
      <trkpt lat="48.36065" lon="2.5514">
        <ele>91</ele>
        <time>2017-11-19T10:06:25Z</time>
      </trkpt>
      <trkpt lat="48.36068" lon="2.55148">
        <ele>91</ele>
        <time>2017-11-19T10:06:27Z</time>
      </trkpt>
      <trkpt lat="48.36073" lon="2.55156">
        <ele>90</ele>
        <time>2017-11-19T10:06:29Z</time>
      </trkpt>
      <trkpt lat="48.36078" lon="2.55163">
        <ele>88</ele>
        <time>2017-11-19T10:06:31Z</time>
      </trkpt>
      <trkpt lat="48.36082" lon="2.5517">
        <ele>88</ele>
        <time>2017-11-19T10:06:33Z</time>
      </trkpt>
      <trkpt lat="48.36085" lon="2.55176">
        <ele>88</ele>
        <time>2017-11-19T10:06:35Z</time>
      </trkpt>
      <trkpt lat="48.36089" lon="2.55182">
        <ele>89</ele>
        <time>2017-11-19T10:06:37Z</time>
      </trkpt>
      <trkpt lat="48.36093" lon="2.55186">
        <ele>90</ele>
        <time>2017-11-19T10:06:39Z</time>
      </trkpt>
      <trkpt lat="48.36101" lon="2.55189">
        <ele>90</ele>
        <time>2017-11-19T10:06:43Z</time>
      </trkpt>
      <trkpt lat="48.36107" lon="2.55189">
        <ele>91</ele>
        <time>2017-11-19T10:06:45Z</time>
      </trkpt>
      <trkpt lat="48.36113" lon="2.55191">
        <ele>91</ele>
        <time>2017-11-19T10:06:47Z</time>
      </trkpt>
      <trkpt lat="48.36118" lon="2.55197">
        <ele>91</ele>
        <time>2017-11-19T10:06:49Z</time>
      </trkpt>
      <trkpt lat="48.36123" lon="2.55203">
        <ele>91</ele>
        <time>2017-11-19T10:06:51Z</time>
      </trkpt>
      <trkpt lat="48.36127" lon="2.55207">
        <ele>92</ele>
        <time>2017-11-19T10:06:53Z</time>
      </trkpt>
      <trkpt lat="48.36134" lon="2.55216">
        <ele>92</ele>
        <time>2017-11-19T10:06:57Z</time>
      </trkpt>
      <trkpt lat="48.36139" lon="2.5522">
        <ele>92</ele>
        <time>2017-11-19T10:06:59Z</time>
      </trkpt>
      <trkpt lat="48.36143" lon="2.55225">
        <ele>92</ele>
        <time>2017-11-19T10:07:01Z</time>
      </trkpt>
      <trkpt lat="48.36148" lon="2.55227">
        <ele>92</ele>
        <time>2017-11-19T10:07:03Z</time>
      </trkpt>
      <trkpt lat="48.36153" lon="2.5523">
        <ele>92</ele>
        <time>2017-11-19T10:07:05Z</time>
      </trkpt>
      <trkpt lat="48.36157" lon="2.55235">
        <ele>92</ele>
        <time>2017-11-19T10:07:07Z</time>
      </trkpt>
      <trkpt lat="48.3616" lon="2.55243">
        <ele>91</ele>
        <time>2017-11-19T10:07:09Z</time>
      </trkpt>
      <trkpt lat="48.36161" lon="2.55253">
        <ele>91</ele>
        <time>2017-11-19T10:07:11Z</time>
      </trkpt>
      <trkpt lat="48.3616" lon="2.55262">
        <ele>92</ele>
        <time>2017-11-19T10:07:13Z</time>
      </trkpt>
      <trkpt lat="48.3616" lon="2.5527">
        <ele>92</ele>
        <time>2017-11-19T10:07:15Z</time>
      </trkpt>
      <trkpt lat="48.36159" lon="2.55279">
        <ele>93</ele>
        <time>2017-11-19T10:07:17Z</time>
      </trkpt>
      <trkpt lat="48.36161" lon="2.55287">
        <ele>93</ele>
        <time>2017-11-19T10:07:19Z</time>
      </trkpt>
      <trkpt lat="48.36162" lon="2.55298">
        <ele>93</ele>
        <time>2017-11-19T10:07:21Z</time>
      </trkpt>
      <trkpt lat="48.36161" lon="2.55309">
        <ele>93</ele>
        <time>2017-11-19T10:07:23Z</time>
      </trkpt>
      <trkpt lat="48.3616" lon="2.55317">
        <ele>93</ele>
        <time>2017-11-19T10:07:25Z</time>
      </trkpt>
      <trkpt lat="48.36159" lon="2.55325">
        <ele>93</ele>
        <time>2017-11-19T10:07:27Z</time>
      </trkpt>
      <trkpt lat="48.36159" lon="2.55333">
        <ele>92</ele>
        <time>2017-11-19T10:07:29Z</time>
      </trkpt>
      <trkpt lat="48.3616" lon="2.55341">
        <ele>93</ele>
        <time>2017-11-19T10:07:31Z</time>
      </trkpt>
      <trkpt lat="48.36159" lon="2.5535">
        <ele>94</ele>
        <time>2017-11-19T10:07:33Z</time>
      </trkpt>
      <trkpt lat="48.3616" lon="2.55359">
        <ele>94</ele>
        <time>2017-11-19T10:07:35Z</time>
      </trkpt>
      <trkpt lat="48.3616" lon="2.5537">
        <ele>94</ele>
        <time>2017-11-19T10:07:37Z</time>
      </trkpt>
      <trkpt lat="48.36157" lon="2.55379">
        <ele>94</ele>
        <time>2017-11-19T10:07:39Z</time>
      </trkpt>
      <trkpt lat="48.36154" lon="2.55386">
        <ele>94</ele>
        <time>2017-11-19T10:07:41Z</time>
      </trkpt>
      <trkpt lat="48.36151" lon="2.55394">
        <ele>94</ele>
        <time>2017-11-19T10:07:43Z</time>
      </trkpt>
      <trkpt lat="48.36148" lon="2.55402">
        <ele>94</ele>
        <time>2017-11-19T10:07:45Z</time>
      </trkpt>
      <trkpt lat="48.36149" lon="2.55416">
        <ele>93</ele>
        <time>2017-11-19T10:07:49Z</time>
      </trkpt>
      <trkpt lat="48.36151" lon="2.55423">
        <ele>93</ele>
        <time>2017-11-19T10:07:51Z</time>
      </trkpt>
      <trkpt lat="48.3615" lon="2.55431">
        <ele>93</ele>
        <time>2017-11-19T10:07:53Z</time>
      </trkpt>
      <trkpt lat="48.36148" lon="2.5544">
        <ele>94</ele>
        <time>2017-11-19T10:07:55Z</time>
      </trkpt>
      <trkpt lat="48.36145" lon="2.55448">
        <ele>94</ele>
        <time>2017-11-19T10:07:57Z</time>
      </trkpt>
      <trkpt lat="48.36142" lon="2.55458">
        <ele>95</ele>
        <time>2017-11-19T10:07:59Z</time>
      </trkpt>
      <trkpt lat="48.36138" lon="2.55462">
        <ele>95</ele>
        <time>2017-11-19T10:08:01Z</time>
      </trkpt>
      <trkpt lat="48.36134" lon="2.55469">
        <ele>95</ele>
        <time>2017-11-19T10:08:03Z</time>
      </trkpt>
      <trkpt lat="48.36133" lon="2.55479">
        <ele>95</ele>
        <time>2017-11-19T10:08:05Z</time>
      </trkpt>
      <trkpt lat="48.36131" lon="2.55487">
        <ele>95</ele>
        <time>2017-11-19T10:08:07Z</time>
      </trkpt>
      <trkpt lat="48.36132" lon="2.55495">
        <ele>95</ele>
        <time>2017-11-19T10:08:09Z</time>
      </trkpt>
      <trkpt lat="48.36132" lon="2.55504">
        <ele>95</ele>
        <time>2017-11-19T10:08:11Z</time>
      </trkpt>
      <trkpt lat="48.36132" lon="2.55513">
        <ele>95</ele>
        <time>2017-11-19T10:08:13Z</time>
      </trkpt>
      <trkpt lat="48.36131" lon="2.55521">
        <ele>95</ele>
        <time>2017-11-19T10:08:15Z</time>
      </trkpt>
      <trkpt lat="48.36132" lon="2.5553">
        <ele>95</ele>
        <time>2017-11-19T10:08:17Z</time>
      </trkpt>
      <trkpt lat="48.36133" lon="2.5554">
        <ele>95</ele>
        <time>2017-11-19T10:08:19Z</time>
      </trkpt>
      <trkpt lat="48.36134" lon="2.55547">
        <ele>95</ele>
        <time>2017-11-19T10:08:21Z</time>
      </trkpt>
      <trkpt lat="48.36137" lon="2.55556">
        <ele>95</ele>
        <time>2017-11-19T10:08:23Z</time>
      </trkpt>
      <trkpt lat="48.3614" lon="2.55564">
        <ele>95</ele>
        <time>2017-11-19T10:08:25Z</time>
      </trkpt>
      <trkpt lat="48.36144" lon="2.5557">
        <ele>94</ele>
        <time>2017-11-19T10:08:27Z</time>
      </trkpt>
      <trkpt lat="48.36149" lon="2.55577">
        <ele>94</ele>
        <time>2017-11-19T10:08:29Z</time>
      </trkpt>
      <trkpt lat="48.36153" lon="2.55584">
        <ele>94</ele>
        <time>2017-11-19T10:08:31Z</time>
      </trkpt>
      <trkpt lat="48.36157" lon="2.55592">
        <ele>94</ele>
        <time>2017-11-19T10:08:33Z</time>
      </trkpt>
      <trkpt lat="48.36162" lon="2.55599">
        <ele>94</ele>
        <time>2017-11-19T10:08:35Z</time>
      </trkpt>
      <trkpt lat="48.36166" lon="2.55607">
        <ele>94</ele>
        <time>2017-11-19T10:08:37Z</time>
      </trkpt>
      <trkpt lat="48.3617" lon="2.55613">
        <ele>96</ele>
        <time>2017-11-19T10:08:39Z</time>
      </trkpt>
      <trkpt lat="48.36173" lon="2.55619">
        <ele>97</ele>
        <time>2017-11-19T10:08:41Z</time>
      </trkpt>
      <trkpt lat="48.36176" lon="2.55626">
        <ele>97</ele>
        <time>2017-11-19T10:08:43Z</time>
      </trkpt>
      <trkpt lat="48.3618" lon="2.55632">
        <ele>97</ele>
        <time>2017-11-19T10:08:45Z</time>
      </trkpt>
      <trkpt lat="48.36183" lon="2.55638">
        <ele>97</ele>
        <time>2017-11-19T10:08:47Z</time>
      </trkpt>
      <trkpt lat="48.36186" lon="2.55646">
        <ele>97</ele>
        <time>2017-11-19T10:08:49Z</time>
      </trkpt>
      <trkpt lat="48.3619" lon="2.55653">
        <ele>97</ele>
        <time>2017-11-19T10:08:51Z</time>
      </trkpt>
      <trkpt lat="48.36193" lon="2.55662">
        <ele>97</ele>
        <time>2017-11-19T10:08:53Z</time>
      </trkpt>
      <trkpt lat="48.36196" lon="2.5567">
        <ele>97</ele>
        <time>2017-11-19T10:08:55Z</time>
      </trkpt>
      <trkpt lat="48.36198" lon="2.55678">
        <ele>98</ele>
        <time>2017-11-19T10:08:57Z</time>
      </trkpt>
      <trkpt lat="48.36199" lon="2.55686">
        <ele>98</ele>
        <time>2017-11-19T10:08:59Z</time>
      </trkpt>
      <trkpt lat="48.362" lon="2.55697">
        <ele>98</ele>
        <time>2017-11-19T10:09:01Z</time>
      </trkpt>
      <trkpt lat="48.36199" lon="2.55706">
        <ele>98</ele>
        <time>2017-11-19T10:09:03Z</time>
      </trkpt>
      <trkpt lat="48.36198" lon="2.55714">
        <ele>98</ele>
        <time>2017-11-19T10:09:05Z</time>
      </trkpt>
      <trkpt lat="48.36197" lon="2.55722">
        <ele>98</ele>
        <time>2017-11-19T10:09:07Z</time>
      </trkpt>
      <trkpt lat="48.36196" lon="2.55729">
        <ele>98</ele>
        <time>2017-11-19T10:09:09Z</time>
      </trkpt>
      <trkpt lat="48.36192" lon="2.55743">
        <ele>98</ele>
        <time>2017-11-19T10:09:13Z</time>
      </trkpt>
      <trkpt lat="48.3619" lon="2.55756">
        <ele>98</ele>
        <time>2017-11-19T10:09:17Z</time>
      </trkpt>
      <trkpt lat="48.3619" lon="2.55764">
        <ele>98</ele>
        <time>2017-11-19T10:09:19Z</time>
      </trkpt>
      <trkpt lat="48.36193" lon="2.55771">
        <ele>98</ele>
        <time>2017-11-19T10:09:21Z</time>
      </trkpt>
      <trkpt lat="48.36197" lon="2.55777">
        <ele>98</ele>
        <time>2017-11-19T10:09:23Z</time>
      </trkpt>
      <trkpt lat="48.36202" lon="2.55783">
        <ele>99</ele>
        <time>2017-11-19T10:09:25Z</time>
      </trkpt>
      <trkpt lat="48.36206" lon="2.55788">
        <ele>99</ele>
        <time>2017-11-19T10:09:27Z</time>
      </trkpt>
      <trkpt lat="48.3621" lon="2.55792">
        <ele>99</ele>
        <time>2017-11-19T10:09:29Z</time>
      </trkpt>
      <trkpt lat="48.36217" lon="2.55801">
        <ele>99</ele>
        <time>2017-11-19T10:09:33Z</time>
      </trkpt>
      <trkpt lat="48.3622" lon="2.55809">
        <ele>99</ele>
        <time>2017-11-19T10:09:35Z</time>
      </trkpt>
      <trkpt lat="48.36219" lon="2.55821">
        <ele>99</ele>
        <time>2017-11-19T10:09:39Z</time>
      </trkpt>
      <trkpt lat="48.3622" lon="2.55833">
        <ele>99</ele>
        <time>2017-11-19T10:09:43Z</time>
      </trkpt>
      <trkpt lat="48.36221" lon="2.5584">
        <ele>100</ele>
        <time>2017-11-19T10:09:45Z</time>
      </trkpt>
      <trkpt lat="48.36222" lon="2.55847">
        <ele>100</ele>
        <time>2017-11-19T10:09:47Z</time>
      </trkpt>
      <trkpt lat="48.36223" lon="2.55856">
        <ele>100</ele>
        <time>2017-11-19T10:09:49Z</time>
      </trkpt>
      <trkpt lat="48.36226" lon="2.55861">
        <ele>101</ele>
        <time>2017-11-19T10:09:51Z</time>
      </trkpt>
      <trkpt lat="48.36233" lon="2.55862">
        <ele>101</ele>
        <time>2017-11-19T10:09:55Z</time>
      </trkpt>
      <trkpt lat="48.36239" lon="2.55858">
        <ele>101</ele>
        <time>2017-11-19T10:09:59Z</time>
      </trkpt>
      <trkpt lat="48.36244" lon="2.55857">
        <ele>101</ele>
        <time>2017-11-19T10:10:03Z</time>
      </trkpt>
      <trkpt lat="48.36252" lon="2.55857">
        <ele>104</ele>
        <time>2017-11-19T10:10:07Z</time>
      </trkpt>
      <trkpt lat="48.36258" lon="2.5585">
        <ele>104</ele>
        <time>2017-11-19T10:10:11Z</time>
      </trkpt>
      <trkpt lat="48.36263" lon="2.55843">
        <ele>104</ele>
        <time>2017-11-19T10:10:15Z</time>
      </trkpt>
      <trkpt lat="48.36265" lon="2.55832">
        <ele>103</ele>
        <time>2017-11-19T10:10:19Z</time>
      </trkpt>
      <trkpt lat="48.36268" lon="2.55819">
        <ele>104</ele>
        <time>2017-11-19T10:10:23Z</time>
      </trkpt>
      <trkpt lat="48.36271" lon="2.5581">
        <ele>104</ele>
        <time>2017-11-19T10:10:25Z</time>
      </trkpt>
      <trkpt lat="48.36274" lon="2.55804">
        <ele>105</ele>
        <time>2017-11-19T10:10:27Z</time>
      </trkpt>
      <trkpt lat="48.36276" lon="2.55797">
        <ele>105</ele>
        <time>2017-11-19T10:10:29Z</time>
      </trkpt>
      <trkpt lat="48.36277" lon="2.5579">
        <ele>105</ele>
        <time>2017-11-19T10:10:31Z</time>
      </trkpt>
      <trkpt lat="48.3628" lon="2.55777">
        <ele>105</ele>
        <time>2017-11-19T10:10:35Z</time>
      </trkpt>
      <trkpt lat="48.36283" lon="2.55766">
        <ele>105</ele>
        <time>2017-11-19T10:10:39Z</time>
      </trkpt>
      <trkpt lat="48.36285" lon="2.55757">
        <ele>105</ele>
        <time>2017-11-19T10:10:43Z</time>
      </trkpt>
      <trkpt lat="48.36287" lon="2.55748">
        <ele>106</ele>
        <time>2017-11-19T10:10:47Z</time>
      </trkpt>
      <trkpt lat="48.36288" lon="2.55738">
        <ele>106</ele>
        <time>2017-11-19T10:10:53Z</time>
      </trkpt>
      <trkpt lat="48.3629" lon="2.55729">
        <ele>106</ele>
        <time>2017-11-19T10:10:57Z</time>
      </trkpt>
      <trkpt lat="48.36292" lon="2.55721">
        <ele>106</ele>
        <time>2017-11-19T10:11:01Z</time>
      </trkpt>
      <trkpt lat="48.36293" lon="2.55712">
        <ele>107</ele>
        <time>2017-11-19T10:11:05Z</time>
      </trkpt>
      <trkpt lat="48.36293" lon="2.55704">
        <ele>107</ele>
        <time>2017-11-19T10:11:09Z</time>
      </trkpt>
      <trkpt lat="48.36296" lon="2.55696">
        <ele>107</ele>
        <time>2017-11-19T10:11:15Z</time>
      </trkpt>
      <trkpt lat="48.36296" lon="2.55685">
        <ele>107</ele>
        <time>2017-11-19T10:11:21Z</time>
      </trkpt>
      <trkpt lat="48.36296" lon="2.55675">
        <ele>107</ele>
        <time>2017-11-19T10:11:25Z</time>
      </trkpt>
      <trkpt lat="48.36297" lon="2.55665">
        <ele>107</ele>
        <time>2017-11-19T10:11:29Z</time>
      </trkpt>
      <trkpt lat="48.36298" lon="2.55654">
        <ele>107</ele>
        <time>2017-11-19T10:11:33Z</time>
      </trkpt>
      <trkpt lat="48.363" lon="2.55642">
        <ele>108</ele>
        <time>2017-11-19T10:11:37Z</time>
      </trkpt>
      <trkpt lat="48.36303" lon="2.55633">
        <ele>108</ele>
        <time>2017-11-19T10:11:41Z</time>
      </trkpt>
      <trkpt lat="48.36306" lon="2.55624">
        <ele>108</ele>
        <time>2017-11-19T10:11:45Z</time>
      </trkpt>
      <trkpt lat="48.36306" lon="2.55614">
        <ele>108</ele>
        <time>2017-11-19T10:11:49Z</time>
      </trkpt>
      <trkpt lat="48.36305" lon="2.55601">
        <ele>108</ele>
        <time>2017-11-19T10:11:53Z</time>
      </trkpt>
      <trkpt lat="48.36304" lon="2.55588">
        <ele>108</ele>
        <time>2017-11-19T10:11:57Z</time>
      </trkpt>
      <trkpt lat="48.36304" lon="2.55579">
        <ele>108</ele>
        <time>2017-11-19T10:11:59Z</time>
      </trkpt>
      <trkpt lat="48.36306" lon="2.55573">
        <ele>108</ele>
        <time>2017-11-19T10:12:01Z</time>
      </trkpt>
      <trkpt lat="48.36307" lon="2.55565">
        <ele>108</ele>
        <time>2017-11-19T10:12:03Z</time>
      </trkpt>
      <trkpt lat="48.3631" lon="2.55557">
        <ele>108</ele>
        <time>2017-11-19T10:12:05Z</time>
      </trkpt>
      <trkpt lat="48.36319" lon="2.55559">
        <ele>108</ele>
        <time>2017-11-19T10:12:09Z</time>
      </trkpt>
      <trkpt lat="48.36323" lon="2.55564">
        <ele>108</ele>
        <time>2017-11-19T10:12:11Z</time>
      </trkpt>
      <trkpt lat="48.36327" lon="2.5557">
        <ele>109</ele>
        <time>2017-11-19T10:12:13Z</time>
      </trkpt>
      <trkpt lat="48.36329" lon="2.55575">
        <ele>109</ele>
        <time>2017-11-19T10:12:15Z</time>
      </trkpt>
      <trkpt lat="48.36333" lon="2.55581">
        <ele>110</ele>
        <time>2017-11-19T10:12:17Z</time>
      </trkpt>
      <trkpt lat="48.36337" lon="2.55587">
        <ele>110</ele>
        <time>2017-11-19T10:12:19Z</time>
      </trkpt>
      <trkpt lat="48.3634" lon="2.55594">
        <ele>111</ele>
        <time>2017-11-19T10:12:21Z</time>
      </trkpt>
      <trkpt lat="48.36342" lon="2.556">
        <ele>111</ele>
        <time>2017-11-19T10:12:23Z</time>
      </trkpt>
      <trkpt lat="48.36346" lon="2.55607">
        <ele>111</ele>
        <time>2017-11-19T10:12:25Z</time>
      </trkpt>
      <trkpt lat="48.36349" lon="2.55613">
        <ele>111</ele>
        <time>2017-11-19T10:12:27Z</time>
      </trkpt>
      <trkpt lat="48.36352" lon="2.55618">
        <ele>111</ele>
        <time>2017-11-19T10:12:29Z</time>
      </trkpt>
      <trkpt lat="48.36357" lon="2.55622">
        <ele>111</ele>
        <time>2017-11-19T10:12:31Z</time>
      </trkpt>
      <trkpt lat="48.36361" lon="2.55626">
        <ele>111</ele>
        <time>2017-11-19T10:12:33Z</time>
      </trkpt>
      <trkpt lat="48.36366" lon="2.5563">
        <ele>112</ele>
        <time>2017-11-19T10:12:35Z</time>
      </trkpt>
      <trkpt lat="48.36371" lon="2.55633">
        <ele>112</ele>
        <time>2017-11-19T10:12:37Z</time>
      </trkpt>
      <trkpt lat="48.36377" lon="2.55637">
        <ele>112</ele>
        <time>2017-11-19T10:12:39Z</time>
      </trkpt>
      <trkpt lat="48.3638" lon="2.55642">
        <ele>112</ele>
        <time>2017-11-19T10:12:41Z</time>
      </trkpt>
      <trkpt lat="48.36386" lon="2.55649">
        <ele>112</ele>
        <time>2017-11-19T10:12:43Z</time>
      </trkpt>
      <trkpt lat="48.3639" lon="2.55657">
        <ele>112</ele>
        <time>2017-11-19T10:12:45Z</time>
      </trkpt>
      <trkpt lat="48.36395" lon="2.55666">
        <ele>112</ele>
        <time>2017-11-19T10:12:47Z</time>
      </trkpt>
      <trkpt lat="48.364" lon="2.55676">
        <ele>112</ele>
        <time>2017-11-19T10:12:49Z</time>
      </trkpt>
      <trkpt lat="48.36408" lon="2.55683">
        <ele>112</ele>
        <time>2017-11-19T10:12:51Z</time>
      </trkpt>
      <trkpt lat="48.36415" lon="2.55685">
        <ele>112</ele>
        <time>2017-11-19T10:12:53Z</time>
      </trkpt>
      <trkpt lat="48.36422" lon="2.55682">
        <ele>113</ele>
        <time>2017-11-19T10:12:55Z</time>
      </trkpt>
      <trkpt lat="48.36427" lon="2.55682">
        <ele>113</ele>
        <time>2017-11-19T10:12:57Z</time>
      </trkpt>
      <trkpt lat="48.36435" lon="2.55686">
        <ele>113</ele>
        <time>2017-11-19T10:12:59Z</time>
      </trkpt>
      <trkpt lat="48.3644" lon="2.55697">
        <ele>113</ele>
        <time>2017-11-19T10:13:01Z</time>
      </trkpt>
      <trkpt lat="48.36441" lon="2.5571">
        <ele>113</ele>
        <time>2017-11-19T10:13:03Z</time>
      </trkpt>
      <trkpt lat="48.36442" lon="2.55723">
        <ele>113</ele>
        <time>2017-11-19T10:13:05Z</time>
      </trkpt>
      <trkpt lat="48.36441" lon="2.55734">
        <ele>113</ele>
        <time>2017-11-19T10:13:07Z</time>
      </trkpt>
      <trkpt lat="48.36441" lon="2.55743">
        <ele>113</ele>
        <time>2017-11-19T10:13:09Z</time>
      </trkpt>
      <trkpt lat="48.36442" lon="2.55752">
        <ele>113</ele>
        <time>2017-11-19T10:13:11Z</time>
      </trkpt>
      <trkpt lat="48.36441" lon="2.55762">
        <ele>113</ele>
        <time>2017-11-19T10:13:13Z</time>
      </trkpt>
      <trkpt lat="48.36441" lon="2.55773">
        <ele>113</ele>
        <time>2017-11-19T10:13:15Z</time>
      </trkpt>
      <trkpt lat="48.36443" lon="2.55785">
        <ele>114</ele>
        <time>2017-11-19T10:13:17Z</time>
      </trkpt>
      <trkpt lat="48.36443" lon="2.55795">
        <ele>114</ele>
        <time>2017-11-19T10:13:19Z</time>
      </trkpt>
      <trkpt lat="48.36443" lon="2.55805">
        <ele>114</ele>
        <time>2017-11-19T10:13:21Z</time>
      </trkpt>
      <trkpt lat="48.36442" lon="2.55815">
        <ele>114</ele>
        <time>2017-11-19T10:13:23Z</time>
      </trkpt>
      <trkpt lat="48.3644" lon="2.55824">
        <ele>114</ele>
        <time>2017-11-19T10:13:25Z</time>
      </trkpt>
      <trkpt lat="48.36439" lon="2.55834">
        <ele>115</ele>
        <time>2017-11-19T10:13:27Z</time>
      </trkpt>
      <trkpt lat="48.36439" lon="2.55844">
        <ele>115</ele>
        <time>2017-11-19T10:13:29Z</time>
      </trkpt>
      <trkpt lat="48.36439" lon="2.55854">
        <ele>115</ele>
        <time>2017-11-19T10:13:31Z</time>
      </trkpt>
      <trkpt lat="48.36439" lon="2.55862">
        <ele>115</ele>
        <time>2017-11-19T10:13:33Z</time>
      </trkpt>
      <trkpt lat="48.36439" lon="2.5587">
        <ele>115</ele>
        <time>2017-11-19T10:13:35Z</time>
      </trkpt>
      <trkpt lat="48.36439" lon="2.55877">
        <ele>115</ele>
        <time>2017-11-19T10:13:37Z</time>
      </trkpt>
      <trkpt lat="48.36436" lon="2.5589">
        <ele>116</ele>
        <time>2017-11-19T10:13:41Z</time>
      </trkpt>
      <trkpt lat="48.36434" lon="2.55896">
        <ele>116</ele>
        <time>2017-11-19T10:13:43Z</time>
      </trkpt>
      <trkpt lat="48.36433" lon="2.55911">
        <ele>116</ele>
        <time>2017-11-19T10:13:47Z</time>
      </trkpt>
      <trkpt lat="48.36434" lon="2.55919">
        <ele>116</ele>
        <time>2017-11-19T10:13:49Z</time>
      </trkpt>
      <trkpt lat="48.36437" lon="2.55927">
        <ele>116</ele>
        <time>2017-11-19T10:13:51Z</time>
      </trkpt>
      <trkpt lat="48.36442" lon="2.55933">
        <ele>117</ele>
        <time>2017-11-19T10:13:53Z</time>
      </trkpt>
      <trkpt lat="48.36447" lon="2.55935">
        <ele>117</ele>
        <time>2017-11-19T10:13:55Z</time>
      </trkpt>
      <trkpt lat="48.36453" lon="2.55932">
        <ele>117</ele>
        <time>2017-11-19T10:13:57Z</time>
      </trkpt>
      <trkpt lat="48.36458" lon="2.55924">
        <ele>116</ele>
        <time>2017-11-19T10:13:59Z</time>
      </trkpt>
      <trkpt lat="48.36463" lon="2.55916">
        <ele>116</ele>
        <time>2017-11-19T10:14:01Z</time>
      </trkpt>
      <trkpt lat="48.36468" lon="2.55905">
        <ele>116</ele>
        <time>2017-11-19T10:14:03Z</time>
      </trkpt>
      <trkpt lat="48.36475" lon="2.55895">
        <ele>116</ele>
        <time>2017-11-19T10:14:05Z</time>
      </trkpt>
      <trkpt lat="48.36481" lon="2.55885">
        <ele>116</ele>
        <time>2017-11-19T10:14:07Z</time>
      </trkpt>
      <trkpt lat="48.36487" lon="2.55874">
        <ele>116</ele>
        <time>2017-11-19T10:14:09Z</time>
      </trkpt>
      <trkpt lat="48.36494" lon="2.55863">
        <ele>116</ele>
        <time>2017-11-19T10:14:11Z</time>
      </trkpt>
      <trkpt lat="48.36499" lon="2.55854">
        <ele>116</ele>
        <time>2017-11-19T10:14:13Z</time>
      </trkpt>
      <trkpt lat="48.36505" lon="2.55845">
        <ele>116</ele>
        <time>2017-11-19T10:14:15Z</time>
      </trkpt>
      <trkpt lat="48.36509" lon="2.55836">
        <ele>116</ele>
        <time>2017-11-19T10:14:17Z</time>
      </trkpt>
      <trkpt lat="48.36514" lon="2.55826">
        <ele>116</ele>
        <time>2017-11-19T10:14:19Z</time>
      </trkpt>
      <trkpt lat="48.36518" lon="2.55817">
        <ele>116</ele>
        <time>2017-11-19T10:14:21Z</time>
      </trkpt>
      <trkpt lat="48.36522" lon="2.55811">
        <ele>116</ele>
        <time>2017-11-19T10:14:23Z</time>
      </trkpt>
      <trkpt lat="48.36524" lon="2.55803">
        <ele>116</ele>
        <time>2017-11-19T10:14:25Z</time>
      </trkpt>
      <trkpt lat="48.36529" lon="2.55796">
        <ele>116</ele>
        <time>2017-11-19T10:14:27Z</time>
      </trkpt>
      <trkpt lat="48.36533" lon="2.55788">
        <ele>116</ele>
        <time>2017-11-19T10:14:29Z</time>
      </trkpt>
      <trkpt lat="48.36537" lon="2.55781">
        <ele>116</ele>
        <time>2017-11-19T10:14:31Z</time>
      </trkpt>
      <trkpt lat="48.36542" lon="2.55773">
        <ele>116</ele>
        <time>2017-11-19T10:14:33Z</time>
      </trkpt>
      <trkpt lat="48.36547" lon="2.55767">
        <ele>116</ele>
        <time>2017-11-19T10:14:35Z</time>
      </trkpt>
      <trkpt lat="48.36551" lon="2.55761">
        <ele>116</ele>
        <time>2017-11-19T10:14:37Z</time>
      </trkpt>
      <trkpt lat="48.36555" lon="2.55753">
        <ele>117</ele>
        <time>2017-11-19T10:14:39Z</time>
      </trkpt>
      <trkpt lat="48.3656" lon="2.55748">
        <ele>116</ele>
        <time>2017-11-19T10:14:41Z</time>
      </trkpt>
      <trkpt lat="48.36564" lon="2.5574">
        <ele>117</ele>
        <time>2017-11-19T10:14:43Z</time>
      </trkpt>
      <trkpt lat="48.36569" lon="2.55731">
        <ele>117</ele>
        <time>2017-11-19T10:14:45Z</time>
      </trkpt>
      <trkpt lat="48.36574" lon="2.55724">
        <ele>117</ele>
        <time>2017-11-19T10:14:47Z</time>
      </trkpt>
      <trkpt lat="48.3658" lon="2.55718">
        <ele>117</ele>
        <time>2017-11-19T10:14:49Z</time>
      </trkpt>
      <trkpt lat="48.36585" lon="2.55709">
        <ele>118</ele>
        <time>2017-11-19T10:14:51Z</time>
      </trkpt>
      <trkpt lat="48.3659" lon="2.55701">
        <ele>118</ele>
        <time>2017-11-19T10:14:53Z</time>
      </trkpt>
      <trkpt lat="48.36597" lon="2.55693">
        <ele>118</ele>
        <time>2017-11-19T10:14:55Z</time>
      </trkpt>
      <trkpt lat="48.36605" lon="2.55685">
        <ele>118</ele>
        <time>2017-11-19T10:14:57Z</time>
      </trkpt>
      <trkpt lat="48.3661" lon="2.55675">
        <ele>118</ele>
        <time>2017-11-19T10:14:59Z</time>
      </trkpt>
      <trkpt lat="48.36615" lon="2.55666">
        <ele>118</ele>
        <time>2017-11-19T10:15:01Z</time>
      </trkpt>
      <trkpt lat="48.3662" lon="2.55658">
        <ele>118</ele>
        <time>2017-11-19T10:15:03Z</time>
      </trkpt>
      <trkpt lat="48.36625" lon="2.55648">
        <ele>118</ele>
        <time>2017-11-19T10:15:05Z</time>
      </trkpt>
      <trkpt lat="48.36628" lon="2.55641">
        <ele>119</ele>
        <time>2017-11-19T10:15:07Z</time>
      </trkpt>
      <trkpt lat="48.36634" lon="2.55636">
        <ele>119</ele>
        <time>2017-11-19T10:15:09Z</time>
      </trkpt>
      <trkpt lat="48.36639" lon="2.55634">
        <ele>119</ele>
        <time>2017-11-19T10:15:11Z</time>
      </trkpt>
      <trkpt lat="48.36646" lon="2.55631">
        <ele>119</ele>
        <time>2017-11-19T10:15:13Z</time>
      </trkpt>
      <trkpt lat="48.36651" lon="2.55632">
        <ele>119</ele>
        <time>2017-11-19T10:15:15Z</time>
      </trkpt>
      <trkpt lat="48.36657" lon="2.55631">
        <ele>119</ele>
        <time>2017-11-19T10:15:17Z</time>
      </trkpt>
      <trkpt lat="48.36663" lon="2.55627">
        <ele>119</ele>
        <time>2017-11-19T10:15:19Z</time>
      </trkpt>
      <trkpt lat="48.36668" lon="2.55622">
        <ele>119</ele>
        <time>2017-11-19T10:15:21Z</time>
      </trkpt>
      <trkpt lat="48.36671" lon="2.55616">
        <ele>119</ele>
        <time>2017-11-19T10:15:23Z</time>
      </trkpt>
      <trkpt lat="48.36674" lon="2.55609">
        <ele>119</ele>
        <time>2017-11-19T10:15:25Z</time>
      </trkpt>
      <trkpt lat="48.36677" lon="2.55601">
        <ele>119</ele>
        <time>2017-11-19T10:15:27Z</time>
      </trkpt>
      <trkpt lat="48.36682" lon="2.55595">
        <ele>119</ele>
        <time>2017-11-19T10:15:29Z</time>
      </trkpt>
      <trkpt lat="48.36685" lon="2.5559">
        <ele>119</ele>
        <time>2017-11-19T10:15:31Z</time>
      </trkpt>
      <trkpt lat="48.3669" lon="2.55584">
        <ele>119</ele>
        <time>2017-11-19T10:15:33Z</time>
      </trkpt>
      <trkpt lat="48.36695" lon="2.55575">
        <ele>119</ele>
        <time>2017-11-19T10:15:37Z</time>
      </trkpt>
      <trkpt lat="48.36699" lon="2.55568">
        <ele>119</ele>
        <time>2017-11-19T10:15:39Z</time>
      </trkpt>
      <trkpt lat="48.36704" lon="2.55564">
        <ele>119</ele>
        <time>2017-11-19T10:15:41Z</time>
      </trkpt>
      <trkpt lat="48.36709" lon="2.55557">
        <ele>119</ele>
        <time>2017-11-19T10:15:43Z</time>
      </trkpt>
      <trkpt lat="48.36715" lon="2.55552">
        <ele>119</ele>
        <time>2017-11-19T10:15:45Z</time>
      </trkpt>
      <trkpt lat="48.3672" lon="2.55545">
        <ele>119</ele>
        <time>2017-11-19T10:15:47Z</time>
      </trkpt>
      <trkpt lat="48.36724" lon="2.55538">
        <ele>119</ele>
        <time>2017-11-19T10:15:49Z</time>
      </trkpt>
      <trkpt lat="48.3673" lon="2.55536">
        <ele>119</ele>
        <time>2017-11-19T10:15:51Z</time>
      </trkpt>
      <trkpt lat="48.36735" lon="2.5553">
        <ele>119</ele>
        <time>2017-11-19T10:15:53Z</time>
      </trkpt>
      <trkpt lat="48.36739" lon="2.55526">
        <ele>119</ele>
        <time>2017-11-19T10:15:55Z</time>
      </trkpt>
      <trkpt lat="48.36744" lon="2.55526">
        <ele>119</ele>
        <time>2017-11-19T10:15:57Z</time>
      </trkpt>
      <trkpt lat="48.36752" lon="2.5552">
        <ele>120</ele>
        <time>2017-11-19T10:15:59Z</time>
      </trkpt>
      <trkpt lat="48.36758" lon="2.55516">
        <ele>120</ele>
        <time>2017-11-19T10:16:01Z</time>
      </trkpt>
      <trkpt lat="48.36765" lon="2.5551">
        <ele>120</ele>
        <time>2017-11-19T10:16:03Z</time>
      </trkpt>
      <trkpt lat="48.36772" lon="2.55507">
        <ele>120</ele>
        <time>2017-11-19T10:16:05Z</time>
      </trkpt>
      <trkpt lat="48.3678" lon="2.55505">
        <ele>120</ele>
        <time>2017-11-19T10:16:07Z</time>
      </trkpt>
      <trkpt lat="48.36785" lon="2.55502">
        <ele>120</ele>
        <time>2017-11-19T10:16:09Z</time>
      </trkpt>
      <trkpt lat="48.36791" lon="2.55499">
        <ele>122</ele>
        <time>2017-11-19T10:16:11Z</time>
      </trkpt>
      <trkpt lat="48.36795" lon="2.55494">
        <ele>122</ele>
        <time>2017-11-19T10:16:13Z</time>
      </trkpt>
      <trkpt lat="48.36801" lon="2.55491">
        <ele>122</ele>
        <time>2017-11-19T10:16:15Z</time>
      </trkpt>
      <trkpt lat="48.36805" lon="2.55486">
        <ele>122</ele>
        <time>2017-11-19T10:16:17Z</time>
      </trkpt>
      <trkpt lat="48.3681" lon="2.55484">
        <ele>122</ele>
        <time>2017-11-19T10:16:19Z</time>
      </trkpt>
      <trkpt lat="48.36815" lon="2.5548">
        <ele>122</ele>
        <time>2017-11-19T10:16:21Z</time>
      </trkpt>
      <trkpt lat="48.3682" lon="2.55478">
        <ele>122</ele>
        <time>2017-11-19T10:16:23Z</time>
      </trkpt>
      <trkpt lat="48.36824" lon="2.55473">
        <ele>122</ele>
        <time>2017-11-19T10:16:25Z</time>
      </trkpt>
      <trkpt lat="48.36829" lon="2.55475">
        <ele>122</ele>
        <time>2017-11-19T10:16:27Z</time>
      </trkpt>
      <trkpt lat="48.36835" lon="2.55476">
        <ele>123</ele>
        <time>2017-11-19T10:16:29Z</time>
      </trkpt>
      <trkpt lat="48.36843" lon="2.5548">
        <ele>122</ele>
        <time>2017-11-19T10:16:31Z</time>
      </trkpt>
      <trkpt lat="48.3685" lon="2.55482">
        <ele>122</ele>
        <time>2017-11-19T10:16:33Z</time>
      </trkpt>
      <trkpt lat="48.36855" lon="2.55486">
        <ele>122</ele>
        <time>2017-11-19T10:16:35Z</time>
      </trkpt>
      <trkpt lat="48.36864" lon="2.55491">
        <ele>122</ele>
        <time>2017-11-19T10:16:39Z</time>
      </trkpt>
      <trkpt lat="48.36868" lon="2.55495">
        <ele>122</ele>
        <time>2017-11-19T10:16:41Z</time>
      </trkpt>
      <trkpt lat="48.36873" lon="2.55499">
        <ele>122</ele>
        <time>2017-11-19T10:16:43Z</time>
      </trkpt>
      <trkpt lat="48.36877" lon="2.55506">
        <ele>122</ele>
        <time>2017-11-19T10:16:45Z</time>
      </trkpt>
      <trkpt lat="48.36882" lon="2.55513">
        <ele>122</ele>
        <time>2017-11-19T10:16:47Z</time>
      </trkpt>
      <trkpt lat="48.36887" lon="2.55523">
        <ele>122</ele>
        <time>2017-11-19T10:16:49Z</time>
      </trkpt>
      <trkpt lat="48.36891" lon="2.55529">
        <ele>122</ele>
        <time>2017-11-19T10:16:51Z</time>
      </trkpt>
      <trkpt lat="48.36897" lon="2.55534">
        <ele>122</ele>
        <time>2017-11-19T10:16:53Z</time>
      </trkpt>
      <trkpt lat="48.36903" lon="2.55538">
        <ele>122</ele>
        <time>2017-11-19T10:16:55Z</time>
      </trkpt>
      <trkpt lat="48.36909" lon="2.55542">
        <ele>122</ele>
        <time>2017-11-19T10:16:57Z</time>
      </trkpt>
      <trkpt lat="48.36914" lon="2.55546">
        <ele>122</ele>
        <time>2017-11-19T10:16:59Z</time>
      </trkpt>
      <trkpt lat="48.36919" lon="2.55551">
        <ele>123</ele>
        <time>2017-11-19T10:17:01Z</time>
      </trkpt>
      <trkpt lat="48.36924" lon="2.55556">
        <ele>123</ele>
        <time>2017-11-19T10:17:03Z</time>
      </trkpt>
      <trkpt lat="48.36928" lon="2.55561">
        <ele>123</ele>
        <time>2017-11-19T10:17:05Z</time>
      </trkpt>
      <trkpt lat="48.36932" lon="2.55566">
        <ele>123</ele>
        <time>2017-11-19T10:17:07Z</time>
      </trkpt>
      <trkpt lat="48.36937" lon="2.5557">
        <ele>123</ele>
        <time>2017-11-19T10:17:09Z</time>
      </trkpt>
      <trkpt lat="48.36942" lon="2.55576">
        <ele>123</ele>
        <time>2017-11-19T10:17:11Z</time>
      </trkpt>
      <trkpt lat="48.36948" lon="2.5558">
        <ele>123</ele>
        <time>2017-11-19T10:17:13Z</time>
      </trkpt>
      <trkpt lat="48.36954" lon="2.55586">
        <ele>123</ele>
        <time>2017-11-19T10:17:15Z</time>
      </trkpt>
      <trkpt lat="48.3696" lon="2.55592">
        <ele>123</ele>
        <time>2017-11-19T10:17:17Z</time>
      </trkpt>
      <trkpt lat="48.36965" lon="2.55597">
        <ele>123</ele>
        <time>2017-11-19T10:17:19Z</time>
      </trkpt>
      <trkpt lat="48.36968" lon="2.55603">
        <ele>123</ele>
        <time>2017-11-19T10:17:21Z</time>
      </trkpt>
      <trkpt lat="48.36967" lon="2.55612">
        <ele>123</ele>
        <time>2017-11-19T10:17:23Z</time>
      </trkpt>
      <trkpt lat="48.36962" lon="2.5562">
        <ele>123</ele>
        <time>2017-11-19T10:17:25Z</time>
      </trkpt>
      <trkpt lat="48.36959" lon="2.55627">
        <ele>123</ele>
        <time>2017-11-19T10:17:27Z</time>
      </trkpt>
      <trkpt lat="48.36955" lon="2.55637">
        <ele>123</ele>
        <time>2017-11-19T10:17:29Z</time>
      </trkpt>
      <trkpt lat="48.36952" lon="2.55645">
        <ele>123</ele>
        <time>2017-11-19T10:17:31Z</time>
      </trkpt>
      <trkpt lat="48.36947" lon="2.55654">
        <ele>123</ele>
        <time>2017-11-19T10:17:33Z</time>
      </trkpt>
      <trkpt lat="48.36944" lon="2.55664">
        <ele>123</ele>
        <time>2017-11-19T10:17:35Z</time>
      </trkpt>
      <trkpt lat="48.36941" lon="2.55674">
        <ele>123</ele>
        <time>2017-11-19T10:17:37Z</time>
      </trkpt>
      <trkpt lat="48.36937" lon="2.55683">
        <ele>123</ele>
        <time>2017-11-19T10:17:39Z</time>
      </trkpt>
      <trkpt lat="48.36935" lon="2.5569">
        <ele>123</ele>
        <time>2017-11-19T10:17:41Z</time>
      </trkpt>
      <trkpt lat="48.36932" lon="2.55699">
        <ele>124</ele>
        <time>2017-11-19T10:17:43Z</time>
      </trkpt>
      <trkpt lat="48.36928" lon="2.55708">
        <ele>124</ele>
        <time>2017-11-19T10:17:45Z</time>
      </trkpt>
      <trkpt lat="48.36925" lon="2.55716">
        <ele>123</ele>
        <time>2017-11-19T10:17:47Z</time>
      </trkpt>
      <trkpt lat="48.3692" lon="2.55726">
        <ele>123</ele>
        <time>2017-11-19T10:17:49Z</time>
      </trkpt>
      <trkpt lat="48.36915" lon="2.55734">
        <ele>122</ele>
        <time>2017-11-19T10:17:51Z</time>
      </trkpt>
      <trkpt lat="48.36912" lon="2.55743">
        <ele>123</ele>
        <time>2017-11-19T10:17:53Z</time>
      </trkpt>
      <trkpt lat="48.3691" lon="2.55751">
        <ele>123</ele>
        <time>2017-11-19T10:17:55Z</time>
      </trkpt>
      <trkpt lat="48.36907" lon="2.55759">
        <ele>123</ele>
        <time>2017-11-19T10:17:57Z</time>
      </trkpt>
      <trkpt lat="48.36905" lon="2.55767">
        <ele>123</ele>
        <time>2017-11-19T10:17:59Z</time>
      </trkpt>
      <trkpt lat="48.369" lon="2.55775">
        <ele>123</ele>
        <time>2017-11-19T10:18:01Z</time>
      </trkpt>
      <trkpt lat="48.36895" lon="2.55785">
        <ele>123</ele>
        <time>2017-11-19T10:18:03Z</time>
      </trkpt>
      <trkpt lat="48.36891" lon="2.55798">
        <ele>123</ele>
        <time>2017-11-19T10:18:05Z</time>
      </trkpt>
      <trkpt lat="48.36887" lon="2.5581">
        <ele>123</ele>
        <time>2017-11-19T10:18:07Z</time>
      </trkpt>
      <trkpt lat="48.36882" lon="2.55821">
        <ele>123</ele>
        <time>2017-11-19T10:18:09Z</time>
      </trkpt>
      <trkpt lat="48.36876" lon="2.55832">
        <ele>123</ele>
        <time>2017-11-19T10:18:11Z</time>
      </trkpt>
      <trkpt lat="48.36871" lon="2.55844">
        <ele>124</ele>
        <time>2017-11-19T10:18:13Z</time>
      </trkpt>
      <trkpt lat="48.36867" lon="2.55857">
        <ele>124</ele>
        <time>2017-11-19T10:18:15Z</time>
      </trkpt>
      <trkpt lat="48.36864" lon="2.55867">
        <ele>124</ele>
        <time>2017-11-19T10:18:17Z</time>
      </trkpt>
      <trkpt lat="48.36863" lon="2.55878">
        <ele>124</ele>
        <time>2017-11-19T10:18:19Z</time>
      </trkpt>
      <trkpt lat="48.36861" lon="2.5589">
        <ele>124</ele>
        <time>2017-11-19T10:18:21Z</time>
      </trkpt>
      <trkpt lat="48.3686" lon="2.55904">
        <ele>124</ele>
        <time>2017-11-19T10:18:23Z</time>
      </trkpt>
      <trkpt lat="48.36861" lon="2.55915">
        <ele>124</ele>
        <time>2017-11-19T10:18:25Z</time>
      </trkpt>
      <trkpt lat="48.36865" lon="2.55929">
        <ele>125</ele>
        <time>2017-11-19T10:18:27Z</time>
      </trkpt>
      <trkpt lat="48.36865" lon="2.55942">
        <ele>125</ele>
        <time>2017-11-19T10:18:29Z</time>
      </trkpt>
      <trkpt lat="48.36866" lon="2.55957">
        <ele>125</ele>
        <time>2017-11-19T10:18:31Z</time>
      </trkpt>
      <trkpt lat="48.36865" lon="2.55969">
        <ele>125</ele>
        <time>2017-11-19T10:18:33Z</time>
      </trkpt>
      <trkpt lat="48.36865" lon="2.55983">
        <ele>125</ele>
        <time>2017-11-19T10:18:35Z</time>
      </trkpt>
      <trkpt lat="48.36865" lon="2.55996">
        <ele>125</ele>
        <time>2017-11-19T10:18:37Z</time>
      </trkpt>
      <trkpt lat="48.36868" lon="2.56009">
        <ele>126</ele>
        <time>2017-11-19T10:18:39Z</time>
      </trkpt>
      <trkpt lat="48.36871" lon="2.56021">
        <ele>126</ele>
        <time>2017-11-19T10:18:41Z</time>
      </trkpt>
      <trkpt lat="48.36877" lon="2.56027">
        <ele>126</ele>
        <time>2017-11-19T10:18:43Z</time>
      </trkpt>
      <trkpt lat="48.36884" lon="2.56034">
        <ele>126</ele>
        <time>2017-11-19T10:18:45Z</time>
      </trkpt>
      <trkpt lat="48.3689" lon="2.56042">
        <ele>126</ele>
        <time>2017-11-19T10:18:47Z</time>
      </trkpt>
      <trkpt lat="48.36898" lon="2.56049">
        <ele>126</ele>
        <time>2017-11-19T10:18:49Z</time>
      </trkpt>
      <trkpt lat="48.36905" lon="2.56058">
        <ele>126</ele>
        <time>2017-11-19T10:18:51Z</time>
      </trkpt>
      <trkpt lat="48.3691" lon="2.56066">
        <ele>126</ele>
        <time>2017-11-19T10:18:53Z</time>
      </trkpt>
      <trkpt lat="48.36917" lon="2.56074">
        <ele>125</ele>
        <time>2017-11-19T10:18:55Z</time>
      </trkpt>
      <trkpt lat="48.36924" lon="2.56081">
        <ele>126</ele>
        <time>2017-11-19T10:18:57Z</time>
      </trkpt>
      <trkpt lat="48.36931" lon="2.56086">
        <ele>125</ele>
        <time>2017-11-19T10:18:59Z</time>
      </trkpt>
      <trkpt lat="48.36937" lon="2.5609">
        <ele>124</ele>
        <time>2017-11-19T10:19:01Z</time>
      </trkpt>
      <trkpt lat="48.36943" lon="2.56095">
        <ele>124</ele>
        <time>2017-11-19T10:19:03Z</time>
      </trkpt>
      <trkpt lat="48.3695" lon="2.56099">
        <ele>124</ele>
        <time>2017-11-19T10:19:05Z</time>
      </trkpt>
      <trkpt lat="48.36956" lon="2.56099">
        <ele>124</ele>
        <time>2017-11-19T10:19:07Z</time>
      </trkpt>
      <trkpt lat="48.36963" lon="2.56098">
        <ele>124</ele>
        <time>2017-11-19T10:19:09Z</time>
      </trkpt>
      <trkpt lat="48.36974" lon="2.56102">
        <ele>123</ele>
        <time>2017-11-19T10:19:11Z</time>
      </trkpt>
      <trkpt lat="48.36982" lon="2.5611">
        <ele>123</ele>
        <time>2017-11-19T10:19:13Z</time>
      </trkpt>
      <trkpt lat="48.36987" lon="2.56119">
        <ele>123</ele>
        <time>2017-11-19T10:19:15Z</time>
      </trkpt>
      <trkpt lat="48.36992" lon="2.56124">
        <ele>123</ele>
        <time>2017-11-19T10:19:17Z</time>
      </trkpt>
      <trkpt lat="48.36998" lon="2.5613">
        <ele>123</ele>
        <time>2017-11-19T10:19:21Z</time>
      </trkpt>
      <trkpt lat="48.37003" lon="2.56135">
        <ele>122</ele>
        <time>2017-11-19T10:19:25Z</time>
      </trkpt>
      <trkpt lat="48.37006" lon="2.56143">
        <ele>122</ele>
        <time>2017-11-19T10:19:29Z</time>
      </trkpt>
      <trkpt lat="48.3701" lon="2.56147">
        <ele>122</ele>
        <time>2017-11-19T10:19:31Z</time>
      </trkpt>
      <trkpt lat="48.37017" lon="2.56144">
        <ele>122</ele>
        <time>2017-11-19T10:19:35Z</time>
      </trkpt>
      <trkpt lat="48.37021" lon="2.56142">
        <ele>122</ele>
        <time>2017-11-19T10:19:37Z</time>
      </trkpt>
      <trkpt lat="48.37027" lon="2.56141">
        <ele>122</ele>
        <time>2017-11-19T10:19:39Z</time>
      </trkpt>
      <trkpt lat="48.37032" lon="2.56141">
        <ele>122</ele>
        <time>2017-11-19T10:19:41Z</time>
      </trkpt>
      <trkpt lat="48.37039" lon="2.56143">
        <ele>122</ele>
        <time>2017-11-19T10:19:43Z</time>
      </trkpt>
      <trkpt lat="48.37046" lon="2.56147">
        <ele>121</ele>
        <time>2017-11-19T10:19:45Z</time>
      </trkpt>
      <trkpt lat="48.37052" lon="2.56149">
        <ele>121</ele>
        <time>2017-11-19T10:19:47Z</time>
      </trkpt>
      <trkpt lat="48.37057" lon="2.56151">
        <ele>121</ele>
        <time>2017-11-19T10:19:49Z</time>
      </trkpt>
      <trkpt lat="48.37061" lon="2.56155">
        <ele>121</ele>
        <time>2017-11-19T10:19:51Z</time>
      </trkpt>
      <trkpt lat="48.37065" lon="2.56161">
        <ele>121</ele>
        <time>2017-11-19T10:19:53Z</time>
      </trkpt>
      <trkpt lat="48.3707" lon="2.56169">
        <ele>122</ele>
        <time>2017-11-19T10:19:55Z</time>
      </trkpt>
      <trkpt lat="48.37076" lon="2.56179">
        <ele>122</ele>
        <time>2017-11-19T10:19:57Z</time>
      </trkpt>
      <trkpt lat="48.37081" lon="2.5619">
        <ele>122</ele>
        <time>2017-11-19T10:19:59Z</time>
      </trkpt>
      <trkpt lat="48.37088" lon="2.562">
        <ele>122</ele>
        <time>2017-11-19T10:20:01Z</time>
      </trkpt>
      <trkpt lat="48.37093" lon="2.56211">
        <ele>123</ele>
        <time>2017-11-19T10:20:03Z</time>
      </trkpt>
      <trkpt lat="48.371" lon="2.56221">
        <ele>123</ele>
        <time>2017-11-19T10:20:05Z</time>
      </trkpt>
      <trkpt lat="48.37105" lon="2.56231">
        <ele>123</ele>
        <time>2017-11-19T10:20:07Z</time>
      </trkpt>
      <trkpt lat="48.37113" lon="2.56241">
        <ele>123</ele>
        <time>2017-11-19T10:20:09Z</time>
      </trkpt>
      <trkpt lat="48.3712" lon="2.56252">
        <ele>124</ele>
        <time>2017-11-19T10:20:11Z</time>
      </trkpt>
      <trkpt lat="48.37127" lon="2.56262">
        <ele>124</ele>
        <time>2017-11-19T10:20:13Z</time>
      </trkpt>
      <trkpt lat="48.37133" lon="2.56273">
        <ele>124</ele>
        <time>2017-11-19T10:20:15Z</time>
      </trkpt>
      <trkpt lat="48.37142" lon="2.56283">
        <ele>124</ele>
        <time>2017-11-19T10:20:17Z</time>
      </trkpt>
      <trkpt lat="48.37141" lon="2.56303">
        <ele>123</ele>
        <time>2017-11-19T10:20:19Z</time>
      </trkpt>
      <trkpt lat="48.37148" lon="2.56314">
        <ele>123</ele>
        <time>2017-11-19T10:20:21Z</time>
      </trkpt>
      <trkpt lat="48.37157" lon="2.5632">
        <ele>123</ele>
        <time>2017-11-19T10:20:23Z</time>
      </trkpt>
      <trkpt lat="48.37167" lon="2.56331">
        <ele>123</ele>
        <time>2017-11-19T10:20:25Z</time>
      </trkpt>
      <trkpt lat="48.37176" lon="2.56343">
        <ele>123</ele>
        <time>2017-11-19T10:20:27Z</time>
      </trkpt>
      <trkpt lat="48.37185" lon="2.56353">
        <ele>123</ele>
        <time>2017-11-19T10:20:29Z</time>
      </trkpt>
      <trkpt lat="48.37193" lon="2.56363">
        <ele>122</ele>
        <time>2017-11-19T10:20:31Z</time>
      </trkpt>
      <trkpt lat="48.37201" lon="2.5637">
        <ele>122</ele>
        <time>2017-11-19T10:20:33Z</time>
      </trkpt>
      <trkpt lat="48.37211" lon="2.56377">
        <ele>122</ele>
        <time>2017-11-19T10:20:35Z</time>
      </trkpt>
      <trkpt lat="48.37222" lon="2.56385">
        <ele>122</ele>
        <time>2017-11-19T10:20:37Z</time>
      </trkpt>
      <trkpt lat="48.37234" lon="2.56392">
        <ele>122</ele>
        <time>2017-11-19T10:20:39Z</time>
      </trkpt>
      <trkpt lat="48.37244" lon="2.56396">
        <ele>121</ele>
        <time>2017-11-19T10:20:41Z</time>
      </trkpt>
      <trkpt lat="48.37256" lon="2.56391">
        <ele>119</ele>
        <time>2017-11-19T10:20:43Z</time>
      </trkpt>
      <trkpt lat="48.37266" lon="2.56385">
        <ele>119</ele>
        <time>2017-11-19T10:20:45Z</time>
      </trkpt>
      <trkpt lat="48.37274" lon="2.56376">
        <ele>119</ele>
        <time>2017-11-19T10:20:47Z</time>
      </trkpt>
      <trkpt lat="48.37283" lon="2.56367">
        <ele>118</ele>
        <time>2017-11-19T10:20:49Z</time>
      </trkpt>
      <trkpt lat="48.37292" lon="2.56359">
        <ele>118</ele>
        <time>2017-11-19T10:20:51Z</time>
      </trkpt>
      <trkpt lat="48.37298" lon="2.56353">
        <ele>118</ele>
        <time>2017-11-19T10:20:53Z</time>
      </trkpt>
      <trkpt lat="48.37306" lon="2.56346">
        <ele>118</ele>
        <time>2017-11-19T10:20:55Z</time>
      </trkpt>
      <trkpt lat="48.37315" lon="2.56338">
        <ele>117</ele>
        <time>2017-11-19T10:20:57Z</time>
      </trkpt>
      <trkpt lat="48.37323" lon="2.56332">
        <ele>117</ele>
        <time>2017-11-19T10:20:59Z</time>
      </trkpt>
      <trkpt lat="48.37332" lon="2.56332">
        <ele>116</ele>
        <time>2017-11-19T10:21:01Z</time>
      </trkpt>
      <trkpt lat="48.37339" lon="2.56336">
        <ele>116</ele>
        <time>2017-11-19T10:21:03Z</time>
      </trkpt>
      <trkpt lat="48.3735" lon="2.56345">
        <ele>115</ele>
        <time>2017-11-19T10:21:05Z</time>
      </trkpt>
      <trkpt lat="48.37359" lon="2.56353">
        <ele>115</ele>
        <time>2017-11-19T10:21:07Z</time>
      </trkpt>
      <trkpt lat="48.37368" lon="2.56363">
        <ele>115</ele>
        <time>2017-11-19T10:21:09Z</time>
      </trkpt>
      <trkpt lat="48.37377" lon="2.5637">
        <ele>115</ele>
        <time>2017-11-19T10:21:11Z</time>
      </trkpt>
      <trkpt lat="48.37386" lon="2.56378">
        <ele>115</ele>
        <time>2017-11-19T10:21:13Z</time>
      </trkpt>
      <trkpt lat="48.37396" lon="2.56386">
        <ele>114</ele>
        <time>2017-11-19T10:21:15Z</time>
      </trkpt>
      <trkpt lat="48.37405" lon="2.56395">
        <ele>114</ele>
        <time>2017-11-19T10:21:17Z</time>
      </trkpt>
      <trkpt lat="48.37415" lon="2.56403">
        <ele>113</ele>
        <time>2017-11-19T10:21:19Z</time>
      </trkpt>
      <trkpt lat="48.37424" lon="2.56412">
        <ele>113</ele>
        <time>2017-11-19T10:21:21Z</time>
      </trkpt>
      <trkpt lat="48.3743" lon="2.56422">
        <ele>113</ele>
        <time>2017-11-19T10:21:23Z</time>
      </trkpt>
      <trkpt lat="48.37439" lon="2.56429">
        <ele>113</ele>
        <time>2017-11-19T10:21:25Z</time>
      </trkpt>
      <trkpt lat="48.37447" lon="2.56439">
        <ele>114</ele>
        <time>2017-11-19T10:21:27Z</time>
      </trkpt>
      <trkpt lat="48.37455" lon="2.56447">
        <ele>114</ele>
        <time>2017-11-19T10:21:29Z</time>
      </trkpt>
      <trkpt lat="48.37463" lon="2.56455">
        <ele>114</ele>
        <time>2017-11-19T10:21:31Z</time>
      </trkpt>
      <trkpt lat="48.3747" lon="2.56462">
        <ele>114</ele>
        <time>2017-11-19T10:21:33Z</time>
      </trkpt>
      <trkpt lat="48.37476" lon="2.56468">
        <ele>114</ele>
        <time>2017-11-19T10:21:35Z</time>
      </trkpt>
      <trkpt lat="48.37481" lon="2.56474">
        <ele>114</ele>
        <time>2017-11-19T10:21:37Z</time>
      </trkpt>
      <trkpt lat="48.37486" lon="2.5648">
        <ele>114</ele>
        <time>2017-11-19T10:21:39Z</time>
      </trkpt>
      <trkpt lat="48.37493" lon="2.56485">
        <ele>114</ele>
        <time>2017-11-19T10:21:41Z</time>
      </trkpt>
      <trkpt lat="48.375" lon="2.56491">
        <ele>114</ele>
        <time>2017-11-19T10:21:43Z</time>
      </trkpt>
      <trkpt lat="48.37505" lon="2.56498">
        <ele>115</ele>
        <time>2017-11-19T10:21:45Z</time>
      </trkpt>
      <trkpt lat="48.3751" lon="2.56504">
        <ele>115</ele>
        <time>2017-11-19T10:21:47Z</time>
      </trkpt>
      <trkpt lat="48.37515" lon="2.56508">
        <ele>115</ele>
        <time>2017-11-19T10:21:49Z</time>
      </trkpt>
      <trkpt lat="48.37521" lon="2.56514">
        <ele>115</ele>
        <time>2017-11-19T10:21:51Z</time>
      </trkpt>
      <trkpt lat="48.37527" lon="2.56519">
        <ele>115</ele>
        <time>2017-11-19T10:21:53Z</time>
      </trkpt>
      <trkpt lat="48.3753" lon="2.56524">
        <ele>116</ele>
        <time>2017-11-19T10:21:55Z</time>
      </trkpt>
      <trkpt lat="48.37537" lon="2.5653">
        <ele>116</ele>
        <time>2017-11-19T10:21:57Z</time>
      </trkpt>
      <trkpt lat="48.37543" lon="2.56538">
        <ele>116</ele>
        <time>2017-11-19T10:21:59Z</time>
      </trkpt>
      <trkpt lat="48.3755" lon="2.56543">
        <ele>116</ele>
        <time>2017-11-19T10:22:01Z</time>
      </trkpt>
      <trkpt lat="48.37556" lon="2.5655">
        <ele>116</ele>
        <time>2017-11-19T10:22:03Z</time>
      </trkpt>
      <trkpt lat="48.37562" lon="2.56556">
        <ele>116</ele>
        <time>2017-11-19T10:22:05Z</time>
      </trkpt>
      <trkpt lat="48.37567" lon="2.56562">
        <ele>116</ele>
        <time>2017-11-19T10:22:07Z</time>
      </trkpt>
      <trkpt lat="48.37573" lon="2.56568">
        <ele>116</ele>
        <time>2017-11-19T10:22:09Z</time>
      </trkpt>
      <trkpt lat="48.37579" lon="2.56573">
        <ele>117</ele>
        <time>2017-11-19T10:22:11Z</time>
      </trkpt>
      <trkpt lat="48.37585" lon="2.56578">
        <ele>117</ele>
        <time>2017-11-19T10:22:13Z</time>
      </trkpt>
      <trkpt lat="48.3759" lon="2.56584">
        <ele>117</ele>
        <time>2017-11-19T10:22:15Z</time>
      </trkpt>
      <trkpt lat="48.37596" lon="2.56591">
        <ele>118</ele>
        <time>2017-11-19T10:22:17Z</time>
      </trkpt>
      <trkpt lat="48.37603" lon="2.56596">
        <ele>118</ele>
        <time>2017-11-19T10:22:19Z</time>
      </trkpt>
      <trkpt lat="48.37608" lon="2.56599">
        <ele>118</ele>
        <time>2017-11-19T10:22:21Z</time>
      </trkpt>
      <trkpt lat="48.37612" lon="2.56605">
        <ele>119</ele>
        <time>2017-11-19T10:22:23Z</time>
      </trkpt>
      <trkpt lat="48.37616" lon="2.56609">
        <ele>119</ele>
        <time>2017-11-19T10:22:25Z</time>
      </trkpt>
      <trkpt lat="48.37622" lon="2.56616">
        <ele>119</ele>
        <time>2017-11-19T10:22:27Z</time>
      </trkpt>
      <trkpt lat="48.37628" lon="2.56624">
        <ele>119</ele>
        <time>2017-11-19T10:22:31Z</time>
      </trkpt>
      <trkpt lat="48.37632" lon="2.56628">
        <ele>119</ele>
        <time>2017-11-19T10:22:33Z</time>
      </trkpt>
      <trkpt lat="48.37637" lon="2.56633">
        <ele>119</ele>
        <time>2017-11-19T10:22:35Z</time>
      </trkpt>
      <trkpt lat="48.37643" lon="2.56637">
        <ele>119</ele>
        <time>2017-11-19T10:22:37Z</time>
      </trkpt>
      <trkpt lat="48.37648" lon="2.56641">
        <ele>119</ele>
        <time>2017-11-19T10:22:39Z</time>
      </trkpt>
      <trkpt lat="48.37651" lon="2.56646">
        <ele>119</ele>
        <time>2017-11-19T10:22:41Z</time>
      </trkpt>
      <trkpt lat="48.37656" lon="2.56651">
        <ele>119</ele>
        <time>2017-11-19T10:22:43Z</time>
      </trkpt>
      <trkpt lat="48.37663" lon="2.56655">
        <ele>120</ele>
        <time>2017-11-19T10:22:45Z</time>
      </trkpt>
      <trkpt lat="48.37667" lon="2.56659">
        <ele>120</ele>
        <time>2017-11-19T10:22:47Z</time>
      </trkpt>
      <trkpt lat="48.37672" lon="2.56665">
        <ele>120</ele>
        <time>2017-11-19T10:22:49Z</time>
      </trkpt>
      <trkpt lat="48.37677" lon="2.5667">
        <ele>121</ele>
        <time>2017-11-19T10:22:51Z</time>
      </trkpt>
      <trkpt lat="48.37681" lon="2.56679">
        <ele>122</ele>
        <time>2017-11-19T10:22:55Z</time>
      </trkpt>
      <trkpt lat="48.37686" lon="2.56683">
        <ele>122</ele>
        <time>2017-11-19T10:22:59Z</time>
      </trkpt>
      <trkpt lat="48.37691" lon="2.56689">
        <ele>122</ele>
        <time>2017-11-19T10:23:03Z</time>
      </trkpt>
      <trkpt lat="48.37696" lon="2.56694">
        <ele>123</ele>
        <time>2017-11-19T10:23:07Z</time>
      </trkpt>
      <trkpt lat="48.37699" lon="2.56701">
        <ele>123</ele>
        <time>2017-11-19T10:23:11Z</time>
      </trkpt>
      <trkpt lat="48.37701" lon="2.56708">
        <ele>123</ele>
        <time>2017-11-19T10:23:15Z</time>
      </trkpt>
      <trkpt lat="48.37707" lon="2.56713">
        <ele>123</ele>
        <time>2017-11-19T10:23:19Z</time>
      </trkpt>
      <trkpt lat="48.37711" lon="2.56718">
        <ele>123</ele>
        <time>2017-11-19T10:23:23Z</time>
      </trkpt>
      <trkpt lat="48.37716" lon="2.56724">
        <ele>124</ele>
        <time>2017-11-19T10:23:27Z</time>
      </trkpt>
      <trkpt lat="48.3772" lon="2.56729">
        <ele>124</ele>
        <time>2017-11-19T10:23:31Z</time>
      </trkpt>
      <trkpt lat="48.37725" lon="2.56734">
        <ele>124</ele>
        <time>2017-11-19T10:23:35Z</time>
      </trkpt>
      <trkpt lat="48.37728" lon="2.56743">
        <ele>124</ele>
        <time>2017-11-19T10:23:41Z</time>
      </trkpt>
      <trkpt lat="48.37731" lon="2.56749">
        <ele>125</ele>
        <time>2017-11-19T10:23:45Z</time>
      </trkpt>
      <trkpt lat="48.37737" lon="2.56754">
        <ele>126</ele>
        <time>2017-11-19T10:23:49Z</time>
      </trkpt>
      <trkpt lat="48.37744" lon="2.56759">
        <ele>126</ele>
        <time>2017-11-19T10:23:53Z</time>
      </trkpt>
      <trkpt lat="48.3775" lon="2.56766">
        <ele>126</ele>
        <time>2017-11-19T10:23:57Z</time>
      </trkpt>
      <trkpt lat="48.37754" lon="2.56773">
        <ele>125</ele>
        <time>2017-11-19T10:24:01Z</time>
      </trkpt>
      <trkpt lat="48.37763" lon="2.56782">
        <ele>125</ele>
        <time>2017-11-19T10:24:05Z</time>
      </trkpt>
      <trkpt lat="48.37766" lon="2.5679">
        <ele>125</ele>
        <time>2017-11-19T10:24:07Z</time>
      </trkpt>
      <trkpt lat="48.37768" lon="2.56798">
        <ele>125</ele>
        <time>2017-11-19T10:24:09Z</time>
      </trkpt>
      <trkpt lat="48.37772" lon="2.56811">
        <ele>125</ele>
        <time>2017-11-19T10:24:11Z</time>
      </trkpt>
      <trkpt lat="48.37778" lon="2.56823">
        <ele>125</ele>
        <time>2017-11-19T10:24:13Z</time>
      </trkpt>
      <trkpt lat="48.37784" lon="2.56834">
        <ele>124</ele>
        <time>2017-11-19T10:24:15Z</time>
      </trkpt>
      <trkpt lat="48.37792" lon="2.56841">
        <ele>123</ele>
        <time>2017-11-19T10:24:17Z</time>
      </trkpt>
      <trkpt lat="48.37796" lon="2.5685">
        <ele>123</ele>
        <time>2017-11-19T10:24:19Z</time>
      </trkpt>
      <trkpt lat="48.37799" lon="2.56856">
        <ele>123</ele>
        <time>2017-11-19T10:24:21Z</time>
      </trkpt>
      <trkpt lat="48.37803" lon="2.56861">
        <ele>123</ele>
        <time>2017-11-19T10:24:23Z</time>
      </trkpt>
      <trkpt lat="48.37808" lon="2.56864">
        <ele>123</ele>
        <time>2017-11-19T10:24:25Z</time>
      </trkpt>
      <trkpt lat="48.37815" lon="2.56867">
        <ele>122</ele>
        <time>2017-11-19T10:24:27Z</time>
      </trkpt>
      <trkpt lat="48.37825" lon="2.56868">
        <ele>122</ele>
        <time>2017-11-19T10:24:29Z</time>
      </trkpt>
      <trkpt lat="48.37835" lon="2.56867">
        <ele>121</ele>
        <time>2017-11-19T10:24:31Z</time>
      </trkpt>
      <trkpt lat="48.37842" lon="2.56867">
        <ele>121</ele>
        <time>2017-11-19T10:24:33Z</time>
      </trkpt>
      <trkpt lat="48.37848" lon="2.56867">
        <ele>121</ele>
        <time>2017-11-19T10:24:35Z</time>
      </trkpt>
      <trkpt lat="48.37859" lon="2.56871">
        <ele>121</ele>
        <time>2017-11-19T10:24:37Z</time>
      </trkpt>
      <trkpt lat="48.37866" lon="2.56879">
        <ele>121</ele>
        <time>2017-11-19T10:24:39Z</time>
      </trkpt>
      <trkpt lat="48.37869" lon="2.5689">
        <ele>121</ele>
        <time>2017-11-19T10:24:41Z</time>
      </trkpt>
      <trkpt lat="48.37871" lon="2.56902">
        <ele>121</ele>
        <time>2017-11-19T10:24:43Z</time>
      </trkpt>
      <trkpt lat="48.37873" lon="2.56911">
        <ele>121</ele>
        <time>2017-11-19T10:24:45Z</time>
      </trkpt>
      <trkpt lat="48.37876" lon="2.56922">
        <ele>121</ele>
        <time>2017-11-19T10:24:47Z</time>
      </trkpt>
      <trkpt lat="48.37881" lon="2.5693">
        <ele>121</ele>
        <time>2017-11-19T10:24:49Z</time>
      </trkpt>
      <trkpt lat="48.37885" lon="2.56933">
        <ele>121</ele>
        <time>2017-11-19T10:24:51Z</time>
      </trkpt>
      <trkpt lat="48.37892" lon="2.56929">
        <ele>121</ele>
        <time>2017-11-19T10:24:55Z</time>
      </trkpt>
      <trkpt lat="48.37899" lon="2.56927">
        <ele>121</ele>
        <time>2017-11-19T10:24:59Z</time>
      </trkpt>
      <trkpt lat="48.37906" lon="2.56929">
        <ele>121</ele>
        <time>2017-11-19T10:25:03Z</time>
      </trkpt>
      <trkpt lat="48.3791" lon="2.56935">
        <ele>121</ele>
        <time>2017-11-19T10:25:09Z</time>
      </trkpt>
      <trkpt lat="48.37915" lon="2.56935">
        <ele>121</ele>
        <time>2017-11-19T10:25:27Z</time>
      </trkpt>
      <trkpt lat="48.3792" lon="2.56936">
        <ele>122</ele>
        <time>2017-11-19T10:25:37Z</time>
      </trkpt>
      <trkpt lat="48.37926" lon="2.56938">
        <ele>122</ele>
        <time>2017-11-19T10:25:47Z</time>
      </trkpt>
      <trkpt lat="48.37935" lon="2.56943">
        <ele>122</ele>
        <time>2017-11-19T10:25:51Z</time>
      </trkpt>
      <trkpt lat="48.37943" lon="2.56948">
        <ele>122</ele>
        <time>2017-11-19T10:25:55Z</time>
      </trkpt>
      <trkpt lat="48.37947" lon="2.56953">
        <ele>122</ele>
        <time>2017-11-19T10:25:57Z</time>
      </trkpt>
      <trkpt lat="48.37952" lon="2.56957">
        <ele>122</ele>
        <time>2017-11-19T10:25:59Z</time>
      </trkpt>
      <trkpt lat="48.37957" lon="2.56962">
        <ele>122</ele>
        <time>2017-11-19T10:26:01Z</time>
      </trkpt>
      <trkpt lat="48.37961" lon="2.56968">
        <ele>122</ele>
        <time>2017-11-19T10:26:03Z</time>
      </trkpt>
      <trkpt lat="48.37967" lon="2.56974">
        <ele>122</ele>
        <time>2017-11-19T10:26:05Z</time>
      </trkpt>
      <trkpt lat="48.37973" lon="2.5698">
        <ele>122</ele>
        <time>2017-11-19T10:26:07Z</time>
      </trkpt>
      <trkpt lat="48.37978" lon="2.56986">
        <ele>123</ele>
        <time>2017-11-19T10:26:09Z</time>
      </trkpt>
      <trkpt lat="48.37984" lon="2.56993">
        <ele>123</ele>
        <time>2017-11-19T10:26:11Z</time>
      </trkpt>
      <trkpt lat="48.37989" lon="2.56999">
        <ele>123</ele>
        <time>2017-11-19T10:26:13Z</time>
      </trkpt>
      <trkpt lat="48.37995" lon="2.57005">
        <ele>123</ele>
        <time>2017-11-19T10:26:15Z</time>
      </trkpt>
      <trkpt lat="48.38002" lon="2.57012">
        <ele>123</ele>
        <time>2017-11-19T10:26:17Z</time>
      </trkpt>
      <trkpt lat="48.38007" lon="2.57019">
        <ele>123</ele>
        <time>2017-11-19T10:26:19Z</time>
      </trkpt>
      <trkpt lat="48.38014" lon="2.57025">
        <ele>123</ele>
        <time>2017-11-19T10:26:21Z</time>
      </trkpt>
      <trkpt lat="48.38019" lon="2.57031">
        <ele>123</ele>
        <time>2017-11-19T10:26:23Z</time>
      </trkpt>
      <trkpt lat="48.38024" lon="2.57036">
        <ele>123</ele>
        <time>2017-11-19T10:26:25Z</time>
      </trkpt>
      <trkpt lat="48.38028" lon="2.57042">
        <ele>123</ele>
        <time>2017-11-19T10:26:27Z</time>
      </trkpt>
      <trkpt lat="48.38032" lon="2.57046">
        <ele>123</ele>
        <time>2017-11-19T10:26:29Z</time>
      </trkpt>
      <trkpt lat="48.38038" lon="2.57052">
        <ele>123</ele>
        <time>2017-11-19T10:26:31Z</time>
      </trkpt>
      <trkpt lat="48.38044" lon="2.57059">
        <ele>123</ele>
        <time>2017-11-19T10:26:33Z</time>
      </trkpt>
      <trkpt lat="48.38048" lon="2.57066">
        <ele>123</ele>
        <time>2017-11-19T10:26:35Z</time>
      </trkpt>
      <trkpt lat="48.38054" lon="2.57071">
        <ele>123</ele>
        <time>2017-11-19T10:26:37Z</time>
      </trkpt>
      <trkpt lat="48.3806" lon="2.57079">
        <ele>123</ele>
        <time>2017-11-19T10:26:39Z</time>
      </trkpt>
      <trkpt lat="48.38066" lon="2.57085">
        <ele>123</ele>
        <time>2017-11-19T10:26:41Z</time>
      </trkpt>
      <trkpt lat="48.38071" lon="2.57089">
        <ele>123</ele>
        <time>2017-11-19T10:26:43Z</time>
      </trkpt>
      <trkpt lat="48.38078" lon="2.57093">
        <ele>124</ele>
        <time>2017-11-19T10:26:45Z</time>
      </trkpt>
      <trkpt lat="48.38083" lon="2.57096">
        <ele>123</ele>
        <time>2017-11-19T10:26:47Z</time>
      </trkpt>
      <trkpt lat="48.3809" lon="2.57102">
        <ele>123</ele>
        <time>2017-11-19T10:26:49Z</time>
      </trkpt>
      <trkpt lat="48.38097" lon="2.57108">
        <ele>122</ele>
        <time>2017-11-19T10:26:51Z</time>
      </trkpt>
      <trkpt lat="48.38103" lon="2.57112">
        <ele>122</ele>
        <time>2017-11-19T10:26:53Z</time>
      </trkpt>
      <trkpt lat="48.38109" lon="2.5712">
        <ele>122</ele>
        <time>2017-11-19T10:26:55Z</time>
      </trkpt>
      <trkpt lat="48.38115" lon="2.57124">
        <ele>122</ele>
        <time>2017-11-19T10:26:59Z</time>
      </trkpt>
      <trkpt lat="48.38119" lon="2.57129">
        <ele>122</ele>
        <time>2017-11-19T10:27:01Z</time>
      </trkpt>
      <trkpt lat="48.38125" lon="2.57135">
        <ele>121</ele>
        <time>2017-11-19T10:27:03Z</time>
      </trkpt>
      <trkpt lat="48.38133" lon="2.57143">
        <ele>121</ele>
        <time>2017-11-19T10:27:05Z</time>
      </trkpt>
      <trkpt lat="48.38138" lon="2.57152">
        <ele>121</ele>
        <time>2017-11-19T10:27:07Z</time>
      </trkpt>
      <trkpt lat="48.38139" lon="2.57161">
        <ele>121</ele>
        <time>2017-11-19T10:27:11Z</time>
      </trkpt>
      <trkpt lat="48.38147" lon="2.57167">
        <ele>120</ele>
        <time>2017-11-19T10:27:13Z</time>
      </trkpt>
      <trkpt lat="48.38152" lon="2.57179">
        <ele>120</ele>
        <time>2017-11-19T10:27:15Z</time>
      </trkpt>
      <trkpt lat="48.38153" lon="2.57189">
        <ele>120</ele>
        <time>2017-11-19T10:27:17Z</time>
      </trkpt>
      <trkpt lat="48.38159" lon="2.57195">
        <ele>120</ele>
        <time>2017-11-19T10:27:19Z</time>
      </trkpt>
      <trkpt lat="48.38167" lon="2.57197">
        <ele>119</ele>
        <time>2017-11-19T10:27:21Z</time>
      </trkpt>
      <trkpt lat="48.38174" lon="2.57197">
        <ele>119</ele>
        <time>2017-11-19T10:27:23Z</time>
      </trkpt>
      <trkpt lat="48.38178" lon="2.57201">
        <ele>119</ele>
        <time>2017-11-19T10:27:25Z</time>
      </trkpt>
      <trkpt lat="48.38185" lon="2.57206">
        <ele>119</ele>
        <time>2017-11-19T10:27:27Z</time>
      </trkpt>
      <trkpt lat="48.3819" lon="2.57205">
        <ele>119</ele>
        <time>2017-11-19T10:27:33Z</time>
      </trkpt>
      <trkpt lat="48.38196" lon="2.57197">
        <ele>119</ele>
        <time>2017-11-19T10:27:37Z</time>
      </trkpt>
      <trkpt lat="48.38205" lon="2.57196">
        <ele>119</ele>
        <time>2017-11-19T10:27:39Z</time>
      </trkpt>
      <trkpt lat="48.38214" lon="2.57189">
        <ele>119</ele>
        <time>2017-11-19T10:27:41Z</time>
      </trkpt>
      <trkpt lat="48.38222" lon="2.57184">
        <ele>118</ele>
        <time>2017-11-19T10:27:43Z</time>
      </trkpt>
      <trkpt lat="48.38224" lon="2.57173">
        <ele>118</ele>
        <time>2017-11-19T10:27:45Z</time>
      </trkpt>
      <trkpt lat="48.38225" lon="2.57163">
        <ele>117</ele>
        <time>2017-11-19T10:27:47Z</time>
      </trkpt>
      <trkpt lat="48.38226" lon="2.57154">
        <ele>117</ele>
        <time>2017-11-19T10:27:49Z</time>
      </trkpt>
      <trkpt lat="48.38227" lon="2.57145">
        <ele>117</ele>
        <time>2017-11-19T10:27:51Z</time>
      </trkpt>
      <trkpt lat="48.38227" lon="2.57134">
        <ele>117</ele>
        <time>2017-11-19T10:27:53Z</time>
      </trkpt>
      <trkpt lat="48.38228" lon="2.57123">
        <ele>117</ele>
        <time>2017-11-19T10:27:55Z</time>
      </trkpt>
      <trkpt lat="48.3823" lon="2.57113">
        <ele>117</ele>
        <time>2017-11-19T10:27:57Z</time>
      </trkpt>
      <trkpt lat="48.38233" lon="2.57102">
        <ele>116</ele>
        <time>2017-11-19T10:27:59Z</time>
      </trkpt>
      <trkpt lat="48.38235" lon="2.57093">
        <ele>116</ele>
        <time>2017-11-19T10:28:01Z</time>
      </trkpt>
      <trkpt lat="48.38238" lon="2.57083">
        <ele>115</ele>
        <time>2017-11-19T10:28:03Z</time>
      </trkpt>
      <trkpt lat="48.38243" lon="2.57073">
        <ele>115</ele>
        <time>2017-11-19T10:28:05Z</time>
      </trkpt>
      <trkpt lat="48.38248" lon="2.57063">
        <ele>116</ele>
        <time>2017-11-19T10:28:07Z</time>
      </trkpt>
      <trkpt lat="48.38251" lon="2.57051">
        <ele>114</ele>
        <time>2017-11-19T10:28:09Z</time>
      </trkpt>
      <trkpt lat="48.38254" lon="2.57039">
        <ele>114</ele>
        <time>2017-11-19T10:28:11Z</time>
      </trkpt>
      <trkpt lat="48.38259" lon="2.57028">
        <ele>114</ele>
        <time>2017-11-19T10:28:13Z</time>
      </trkpt>
      <trkpt lat="48.38262" lon="2.57016">
        <ele>114</ele>
        <time>2017-11-19T10:28:15Z</time>
      </trkpt>
      <trkpt lat="48.38264" lon="2.57003">
        <ele>114</ele>
        <time>2017-11-19T10:28:17Z</time>
      </trkpt>
      <trkpt lat="48.38263" lon="2.56988">
        <ele>114</ele>
        <time>2017-11-19T10:28:19Z</time>
      </trkpt>
      <trkpt lat="48.38261" lon="2.56972">
        <ele>114</ele>
        <time>2017-11-19T10:28:21Z</time>
      </trkpt>
      <trkpt lat="48.38258" lon="2.56958">
        <ele>114</ele>
        <time>2017-11-19T10:28:23Z</time>
      </trkpt>
      <trkpt lat="48.38256" lon="2.56945">
        <ele>114</ele>
        <time>2017-11-19T10:28:25Z</time>
      </trkpt>
      <trkpt lat="48.38255" lon="2.56933">
        <ele>114</ele>
        <time>2017-11-19T10:28:27Z</time>
      </trkpt>
      <trkpt lat="48.38256" lon="2.5692">
        <ele>114</ele>
        <time>2017-11-19T10:28:29Z</time>
      </trkpt>
      <trkpt lat="48.38257" lon="2.5691">
        <ele>113</ele>
        <time>2017-11-19T10:28:31Z</time>
      </trkpt>
      <trkpt lat="48.38261" lon="2.56901">
        <ele>112</ele>
        <time>2017-11-19T10:28:33Z</time>
      </trkpt>
      <trkpt lat="48.38265" lon="2.5689">
        <ele>112</ele>
        <time>2017-11-19T10:28:35Z</time>
      </trkpt>
      <trkpt lat="48.38268" lon="2.56878">
        <ele>112</ele>
        <time>2017-11-19T10:28:37Z</time>
      </trkpt>
      <trkpt lat="48.38271" lon="2.56863">
        <ele>111</ele>
        <time>2017-11-19T10:28:39Z</time>
      </trkpt>
      <trkpt lat="48.38274" lon="2.56848">
        <ele>111</ele>
        <time>2017-11-19T10:28:41Z</time>
      </trkpt>
      <trkpt lat="48.38279" lon="2.56834">
        <ele>111</ele>
        <time>2017-11-19T10:28:43Z</time>
      </trkpt>
      <trkpt lat="48.38283" lon="2.56822">
        <ele>109</ele>
        <time>2017-11-19T10:28:45Z</time>
      </trkpt>
      <trkpt lat="48.38292" lon="2.56814">
        <ele>109</ele>
        <time>2017-11-19T10:28:47Z</time>
      </trkpt>
      <trkpt lat="48.38295" lon="2.56806">
        <ele>108</ele>
        <time>2017-11-19T10:28:49Z</time>
      </trkpt>
      <trkpt lat="48.38298" lon="2.56797">
        <ele>108</ele>
        <time>2017-11-19T10:28:51Z</time>
      </trkpt>
      <trkpt lat="48.38302" lon="2.56787">
        <ele>108</ele>
        <time>2017-11-19T10:28:53Z</time>
      </trkpt>
      <trkpt lat="48.38305" lon="2.56776">
        <ele>107</ele>
        <time>2017-11-19T10:28:55Z</time>
      </trkpt>
      <trkpt lat="48.38309" lon="2.5677">
        <ele>107</ele>
        <time>2017-11-19T10:28:57Z</time>
      </trkpt>
      <trkpt lat="48.38313" lon="2.56763">
        <ele>106</ele>
        <time>2017-11-19T10:28:59Z</time>
      </trkpt>
      <trkpt lat="48.38318" lon="2.56758">
        <ele>106</ele>
        <time>2017-11-19T10:29:01Z</time>
      </trkpt>
      <trkpt lat="48.38324" lon="2.56752">
        <ele>105</ele>
        <time>2017-11-19T10:29:03Z</time>
      </trkpt>
      <trkpt lat="48.38329" lon="2.56742">
        <ele>104</ele>
        <time>2017-11-19T10:29:05Z</time>
      </trkpt>
      <trkpt lat="48.38337" lon="2.56731">
        <ele>104</ele>
        <time>2017-11-19T10:29:07Z</time>
      </trkpt>
      <trkpt lat="48.38346" lon="2.56723">
        <ele>104</ele>
        <time>2017-11-19T10:29:09Z</time>
      </trkpt>
      <trkpt lat="48.38357" lon="2.56718">
        <ele>104</ele>
        <time>2017-11-19T10:29:11Z</time>
      </trkpt>
      <trkpt lat="48.38366" lon="2.56713">
        <ele>105</ele>
        <time>2017-11-19T10:29:13Z</time>
      </trkpt>
      <trkpt lat="48.38373" lon="2.56704">
        <ele>105</ele>
        <time>2017-11-19T10:29:15Z</time>
      </trkpt>
      <trkpt lat="48.38379" lon="2.56691">
        <ele>105</ele>
        <time>2017-11-19T10:29:17Z</time>
      </trkpt>
      <trkpt lat="48.38383" lon="2.56677">
        <ele>104</ele>
        <time>2017-11-19T10:29:19Z</time>
      </trkpt>
      <trkpt lat="48.38386" lon="2.56662">
        <ele>103</ele>
        <time>2017-11-19T10:29:21Z</time>
      </trkpt>
      <trkpt lat="48.38391" lon="2.56648">
        <ele>102</ele>
        <time>2017-11-19T10:29:23Z</time>
      </trkpt>
      <trkpt lat="48.38394" lon="2.56636">
        <ele>102</ele>
        <time>2017-11-19T10:29:25Z</time>
      </trkpt>
      <trkpt lat="48.38399" lon="2.56624">
        <ele>102</ele>
        <time>2017-11-19T10:29:27Z</time>
      </trkpt>
      <trkpt lat="48.38407" lon="2.56613">
        <ele>101</ele>
        <time>2017-11-19T10:29:29Z</time>
      </trkpt>
      <trkpt lat="48.38414" lon="2.56605">
        <ele>100</ele>
        <time>2017-11-19T10:29:31Z</time>
      </trkpt>
      <trkpt lat="48.38425" lon="2.56597">
        <ele>99</ele>
        <time>2017-11-19T10:29:33Z</time>
      </trkpt>
      <trkpt lat="48.38432" lon="2.56585">
        <ele>99</ele>
        <time>2017-11-19T10:29:35Z</time>
      </trkpt>
      <trkpt lat="48.38432" lon="2.56568">
        <ele>97</ele>
        <time>2017-11-19T10:29:37Z</time>
      </trkpt>
      <trkpt lat="48.38438" lon="2.56555">
        <ele>97</ele>
        <time>2017-11-19T10:29:39Z</time>
      </trkpt>
      <trkpt lat="48.38447" lon="2.56543">
        <ele>96</ele>
        <time>2017-11-19T10:29:41Z</time>
      </trkpt>
      <trkpt lat="48.38454" lon="2.56531">
        <ele>96</ele>
        <time>2017-11-19T10:29:43Z</time>
      </trkpt>
      <trkpt lat="48.3846" lon="2.56519">
        <ele>96</ele>
        <time>2017-11-19T10:29:45Z</time>
      </trkpt>
      <trkpt lat="48.38466" lon="2.56507">
        <ele>96</ele>
        <time>2017-11-19T10:29:47Z</time>
      </trkpt>
      <trkpt lat="48.38471" lon="2.56496">
        <ele>95</ele>
        <time>2017-11-19T10:29:49Z</time>
      </trkpt>
      <trkpt lat="48.38475" lon="2.56485">
        <ele>95</ele>
        <time>2017-11-19T10:29:51Z</time>
      </trkpt>
      <trkpt lat="48.3848" lon="2.56475">
        <ele>95</ele>
        <time>2017-11-19T10:29:53Z</time>
      </trkpt>
      <trkpt lat="48.38486" lon="2.56467">
        <ele>95</ele>
        <time>2017-11-19T10:29:55Z</time>
      </trkpt>
      <trkpt lat="48.38495" lon="2.56458">
        <ele>94</ele>
        <time>2017-11-19T10:29:57Z</time>
      </trkpt>
      <trkpt lat="48.385" lon="2.56448">
        <ele>94</ele>
        <time>2017-11-19T10:29:59Z</time>
      </trkpt>
      <trkpt lat="48.38507" lon="2.56451">
        <ele>90</ele>
        <time>2017-11-19T10:30:01Z</time>
      </trkpt>
      <trkpt lat="48.38514" lon="2.56454">
        <ele>89</ele>
        <time>2017-11-19T10:30:03Z</time>
      </trkpt>
      <trkpt lat="48.38522" lon="2.56456">
        <ele>89</ele>
        <time>2017-11-19T10:30:05Z</time>
      </trkpt>
      <trkpt lat="48.38531" lon="2.56453">
        <ele>89</ele>
        <time>2017-11-19T10:30:07Z</time>
      </trkpt>
      <trkpt lat="48.38541" lon="2.56449">
        <ele>88</ele>
        <time>2017-11-19T10:30:09Z</time>
      </trkpt>
      <trkpt lat="48.38551" lon="2.56445">
        <ele>88</ele>
        <time>2017-11-19T10:30:11Z</time>
      </trkpt>
      <trkpt lat="48.3856" lon="2.56446">
        <ele>88</ele>
        <time>2017-11-19T10:30:13Z</time>
      </trkpt>
      <trkpt lat="48.3857" lon="2.5644">
        <ele>87</ele>
        <time>2017-11-19T10:30:15Z</time>
      </trkpt>
      <trkpt lat="48.3858" lon="2.56435">
        <ele>86</ele>
        <time>2017-11-19T10:30:17Z</time>
      </trkpt>
      <trkpt lat="48.3859" lon="2.56429">
        <ele>84</ele>
        <time>2017-11-19T10:30:19Z</time>
      </trkpt>
      <trkpt lat="48.38601" lon="2.56425">
        <ele>84</ele>
        <time>2017-11-19T10:30:21Z</time>
      </trkpt>
      <trkpt lat="48.38613" lon="2.56424">
        <ele>84</ele>
        <time>2017-11-19T10:30:23Z</time>
      </trkpt>
      <trkpt lat="48.3862" lon="2.56419">
        <ele>84</ele>
        <time>2017-11-19T10:30:25Z</time>
      </trkpt>
      <trkpt lat="48.38627" lon="2.5641">
        <ele>83</ele>
        <time>2017-11-19T10:30:27Z</time>
      </trkpt>
      <trkpt lat="48.38635" lon="2.56403">
        <ele>83</ele>
        <time>2017-11-19T10:30:29Z</time>
      </trkpt>
      <trkpt lat="48.38642" lon="2.56394">
        <ele>83</ele>
        <time>2017-11-19T10:30:31Z</time>
      </trkpt>
      <trkpt lat="48.38649" lon="2.56384">
        <ele>83</ele>
        <time>2017-11-19T10:30:33Z</time>
      </trkpt>
      <trkpt lat="48.38655" lon="2.56374">
        <ele>83</ele>
        <time>2017-11-19T10:30:35Z</time>
      </trkpt>
      <trkpt lat="48.38658" lon="2.56364">
        <ele>82</ele>
        <time>2017-11-19T10:30:37Z</time>
      </trkpt>
      <trkpt lat="48.38662" lon="2.56355">
        <ele>82</ele>
        <time>2017-11-19T10:30:39Z</time>
      </trkpt>
      <trkpt lat="48.38671" lon="2.56348">
        <ele>81</ele>
        <time>2017-11-19T10:30:41Z</time>
      </trkpt>
      <trkpt lat="48.38679" lon="2.56344">
        <ele>81</ele>
        <time>2017-11-19T10:30:43Z</time>
      </trkpt>
      <trkpt lat="48.38686" lon="2.56341">
        <ele>82</ele>
        <time>2017-11-19T10:30:45Z</time>
      </trkpt>
      <trkpt lat="48.38694" lon="2.56339">
        <ele>82</ele>
        <time>2017-11-19T10:30:47Z</time>
      </trkpt>
      <trkpt lat="48.38701" lon="2.56334">
        <ele>82</ele>
        <time>2017-11-19T10:30:49Z</time>
      </trkpt>
      <trkpt lat="48.38706" lon="2.56325">
        <ele>81</ele>
        <time>2017-11-19T10:30:51Z</time>
      </trkpt>
      <trkpt lat="48.3871" lon="2.56314">
        <ele>81</ele>
        <time>2017-11-19T10:30:53Z</time>
      </trkpt>
      <trkpt lat="48.38716" lon="2.56304">
        <ele>81</ele>
        <time>2017-11-19T10:30:55Z</time>
      </trkpt>
      <trkpt lat="48.38722" lon="2.56295">
        <ele>80</ele>
        <time>2017-11-19T10:30:57Z</time>
      </trkpt>
      <trkpt lat="48.38727" lon="2.56284">
        <ele>80</ele>
        <time>2017-11-19T10:30:59Z</time>
      </trkpt>
      <trkpt lat="48.38732" lon="2.56275">
        <ele>80</ele>
        <time>2017-11-19T10:31:01Z</time>
      </trkpt>
      <trkpt lat="48.38738" lon="2.56264">
        <ele>80</ele>
        <time>2017-11-19T10:31:03Z</time>
      </trkpt>
      <trkpt lat="48.38741" lon="2.56251">
        <ele>79</ele>
        <time>2017-11-19T10:31:05Z</time>
      </trkpt>
      <trkpt lat="48.38746" lon="2.5624">
        <ele>79</ele>
        <time>2017-11-19T10:31:07Z</time>
      </trkpt>
      <trkpt lat="48.38751" lon="2.56228">
        <ele>78</ele>
        <time>2017-11-19T10:31:09Z</time>
      </trkpt>
      <trkpt lat="48.38757" lon="2.56218">
        <ele>78</ele>
        <time>2017-11-19T10:31:11Z</time>
      </trkpt>
      <trkpt lat="48.38758" lon="2.56205">
        <ele>78</ele>
        <time>2017-11-19T10:31:13Z</time>
      </trkpt>
      <trkpt lat="48.38761" lon="2.56192">
        <ele>78</ele>
        <time>2017-11-19T10:31:15Z</time>
      </trkpt>
      <trkpt lat="48.38762" lon="2.56178">
        <ele>78</ele>
        <time>2017-11-19T10:31:17Z</time>
      </trkpt>
      <trkpt lat="48.38763" lon="2.56166">
        <ele>79</ele>
        <time>2017-11-19T10:31:19Z</time>
      </trkpt>
      <trkpt lat="48.38764" lon="2.56158">
        <ele>78</ele>
        <time>2017-11-19T10:31:21Z</time>
      </trkpt>
      <trkpt lat="48.38765" lon="2.56148">
        <ele>78</ele>
        <time>2017-11-19T10:31:23Z</time>
      </trkpt>
      <trkpt lat="48.38767" lon="2.56135">
        <ele>78</ele>
        <time>2017-11-19T10:31:25Z</time>
      </trkpt>
      <trkpt lat="48.38768" lon="2.5612">
        <ele>78</ele>
        <time>2017-11-19T10:31:27Z</time>
      </trkpt>
      <trkpt lat="48.38767" lon="2.56104">
        <ele>78</ele>
        <time>2017-11-19T10:31:29Z</time>
      </trkpt>
      <trkpt lat="48.38768" lon="2.56088">
        <ele>79</ele>
        <time>2017-11-19T10:31:31Z</time>
      </trkpt>
      <trkpt lat="48.38769" lon="2.56073">
        <ele>79</ele>
        <time>2017-11-19T10:31:33Z</time>
      </trkpt>
      <trkpt lat="48.38769" lon="2.56057">
        <ele>79</ele>
        <time>2017-11-19T10:31:35Z</time>
      </trkpt>
      <trkpt lat="48.3877" lon="2.56043">
        <ele>79</ele>
        <time>2017-11-19T10:31:37Z</time>
      </trkpt>
      <trkpt lat="48.38768" lon="2.5603">
        <ele>79</ele>
        <time>2017-11-19T10:31:39Z</time>
      </trkpt>
      <trkpt lat="48.38763" lon="2.56021">
        <ele>79</ele>
        <time>2017-11-19T10:31:41Z</time>
      </trkpt>
      <trkpt lat="48.38758" lon="2.56013">
        <ele>80</ele>
        <time>2017-11-19T10:31:43Z</time>
      </trkpt>
      <trkpt lat="48.38752" lon="2.56005">
        <ele>80</ele>
        <time>2017-11-19T10:31:45Z</time>
      </trkpt>
      <trkpt lat="48.38747" lon="2.55999">
        <ele>80</ele>
        <time>2017-11-19T10:31:47Z</time>
      </trkpt>
      <trkpt lat="48.38743" lon="2.55993">
        <ele>81</ele>
        <time>2017-11-19T10:31:49Z</time>
      </trkpt>
      <trkpt lat="48.3874" lon="2.55984">
        <ele>82</ele>
        <time>2017-11-19T10:31:51Z</time>
      </trkpt>
      <trkpt lat="48.38735" lon="2.55974">
        <ele>83</ele>
        <time>2017-11-19T10:31:53Z</time>
      </trkpt>
      <trkpt lat="48.38732" lon="2.55964">
        <ele>83</ele>
        <time>2017-11-19T10:31:55Z</time>
      </trkpt>
      <trkpt lat="48.3873" lon="2.55953">
        <ele>84</ele>
        <time>2017-11-19T10:31:57Z</time>
      </trkpt>
      <trkpt lat="48.3873" lon="2.55943">
        <ele>84</ele>
        <time>2017-11-19T10:31:59Z</time>
      </trkpt>
      <trkpt lat="48.3873" lon="2.55933">
        <ele>84</ele>
        <time>2017-11-19T10:32:01Z</time>
      </trkpt>
      <trkpt lat="48.38731" lon="2.55921">
        <ele>83</ele>
        <time>2017-11-19T10:32:03Z</time>
      </trkpt>
      <trkpt lat="48.38733" lon="2.55907">
        <ele>85</ele>
        <time>2017-11-19T10:32:05Z</time>
      </trkpt>
      <trkpt lat="48.38735" lon="2.55892">
        <ele>85</ele>
        <time>2017-11-19T10:32:07Z</time>
      </trkpt>
      <trkpt lat="48.38736" lon="2.55878">
        <ele>86</ele>
        <time>2017-11-19T10:32:09Z</time>
      </trkpt>
      <trkpt lat="48.38738" lon="2.55866">
        <ele>86</ele>
        <time>2017-11-19T10:32:11Z</time>
      </trkpt>
      <trkpt lat="48.38739" lon="2.55854">
        <ele>86</ele>
        <time>2017-11-19T10:32:13Z</time>
      </trkpt>
      <trkpt lat="48.38741" lon="2.55842">
        <ele>85</ele>
        <time>2017-11-19T10:32:15Z</time>
      </trkpt>
      <trkpt lat="48.38743" lon="2.55829">
        <ele>85</ele>
        <time>2017-11-19T10:32:17Z</time>
      </trkpt>
      <trkpt lat="48.38744" lon="2.55817">
        <ele>86</ele>
        <time>2017-11-19T10:32:19Z</time>
      </trkpt>
      <trkpt lat="48.38746" lon="2.55805">
        <ele>87</ele>
        <time>2017-11-19T10:32:21Z</time>
      </trkpt>
      <trkpt lat="48.38747" lon="2.55793">
        <ele>87</ele>
        <time>2017-11-19T10:32:23Z</time>
      </trkpt>
      <trkpt lat="48.38748" lon="2.55781">
        <ele>87</ele>
        <time>2017-11-19T10:32:25Z</time>
      </trkpt>
      <trkpt lat="48.3875" lon="2.55769">
        <ele>87</ele>
        <time>2017-11-19T10:32:27Z</time>
      </trkpt>
      <trkpt lat="48.38751" lon="2.55757">
        <ele>85</ele>
        <time>2017-11-19T10:32:29Z</time>
      </trkpt>
      <trkpt lat="48.38753" lon="2.55746">
        <ele>85</ele>
        <time>2017-11-19T10:32:31Z</time>
      </trkpt>
      <trkpt lat="48.38756" lon="2.55735">
        <ele>84</ele>
        <time>2017-11-19T10:32:33Z</time>
      </trkpt>
      <trkpt lat="48.38759" lon="2.55724">
        <ele>84</ele>
        <time>2017-11-19T10:32:35Z</time>
      </trkpt>
      <trkpt lat="48.38765" lon="2.55719">
        <ele>84</ele>
        <time>2017-11-19T10:32:37Z</time>
      </trkpt>
      <trkpt lat="48.38773" lon="2.55715">
        <ele>84</ele>
        <time>2017-11-19T10:32:39Z</time>
      </trkpt>
      <trkpt lat="48.38781" lon="2.55712">
        <ele>84</ele>
        <time>2017-11-19T10:32:41Z</time>
      </trkpt>
      <trkpt lat="48.38788" lon="2.5571">
        <ele>84</ele>
        <time>2017-11-19T10:32:43Z</time>
      </trkpt>
      <trkpt lat="48.38795" lon="2.55708">
        <ele>84</ele>
        <time>2017-11-19T10:32:45Z</time>
      </trkpt>
      <trkpt lat="48.388" lon="2.55704">
        <ele>84</ele>
        <time>2017-11-19T10:32:47Z</time>
      </trkpt>
      <trkpt lat="48.38805" lon="2.55699">
        <ele>83</ele>
        <time>2017-11-19T10:32:49Z</time>
      </trkpt>
      <trkpt lat="48.38815" lon="2.55689">
        <ele>83</ele>
        <time>2017-11-19T10:32:53Z</time>
      </trkpt>
      <trkpt lat="48.38823" lon="2.55685">
        <ele>83</ele>
        <time>2017-11-19T10:32:55Z</time>
      </trkpt>
      <trkpt lat="48.38832" lon="2.5568">
        <ele>83</ele>
        <time>2017-11-19T10:32:57Z</time>
      </trkpt>
      <trkpt lat="48.38838" lon="2.55677">
        <ele>82</ele>
        <time>2017-11-19T10:32:59Z</time>
      </trkpt>
      <trkpt lat="48.38844" lon="2.55674">
        <ele>82</ele>
        <time>2017-11-19T10:33:01Z</time>
      </trkpt>
      <trkpt lat="48.38849" lon="2.55669">
        <ele>81</ele>
        <time>2017-11-19T10:33:03Z</time>
      </trkpt>
      <trkpt lat="48.38854" lon="2.55669">
        <ele>81</ele>
        <time>2017-11-19T10:33:05Z</time>
      </trkpt>
      <trkpt lat="48.3886" lon="2.55664">
        <ele>81</ele>
        <time>2017-11-19T10:33:07Z</time>
      </trkpt>
      <trkpt lat="48.38867" lon="2.55658">
        <ele>81</ele>
        <time>2017-11-19T10:33:09Z</time>
      </trkpt>
      <trkpt lat="48.38874" lon="2.55652">
        <ele>81</ele>
        <time>2017-11-19T10:33:11Z</time>
      </trkpt>
      <trkpt lat="48.38882" lon="2.55649">
        <ele>81</ele>
        <time>2017-11-19T10:33:13Z</time>
      </trkpt>
      <trkpt lat="48.38891" lon="2.55646">
        <ele>81</ele>
        <time>2017-11-19T10:33:15Z</time>
      </trkpt>
      <trkpt lat="48.38897" lon="2.55643">
        <ele>81</ele>
        <time>2017-11-19T10:33:17Z</time>
      </trkpt>
      <trkpt lat="48.38906" lon="2.55642">
        <ele>81</ele>
        <time>2017-11-19T10:33:19Z</time>
      </trkpt>
      <trkpt lat="48.38916" lon="2.55643">
        <ele>81</ele>
        <time>2017-11-19T10:33:21Z</time>
      </trkpt>
      <trkpt lat="48.38922" lon="2.55637">
        <ele>79</ele>
        <time>2017-11-19T10:33:23Z</time>
      </trkpt>
      <trkpt lat="48.38931" lon="2.55638">
        <ele>79</ele>
        <time>2017-11-19T10:33:25Z</time>
      </trkpt>
      <trkpt lat="48.3894" lon="2.55635">
        <ele>79</ele>
        <time>2017-11-19T10:33:27Z</time>
      </trkpt>
      <trkpt lat="48.38948" lon="2.55632">
        <ele>79</ele>
        <time>2017-11-19T10:33:29Z</time>
      </trkpt>
      <trkpt lat="48.38954" lon="2.5563">
        <ele>79</ele>
        <time>2017-11-19T10:33:31Z</time>
      </trkpt>
      <trkpt lat="48.3896" lon="2.55628">
        <ele>78</ele>
        <time>2017-11-19T10:33:33Z</time>
      </trkpt>
      <trkpt lat="48.38967" lon="2.55623">
        <ele>78</ele>
        <time>2017-11-19T10:33:35Z</time>
      </trkpt>
      <trkpt lat="48.38971" lon="2.55614">
        <ele>78</ele>
        <time>2017-11-19T10:33:37Z</time>
      </trkpt>
      <trkpt lat="48.38974" lon="2.55602">
        <ele>78</ele>
        <time>2017-11-19T10:33:39Z</time>
      </trkpt>
      <trkpt lat="48.38978" lon="2.55593">
        <ele>78</ele>
        <time>2017-11-19T10:33:41Z</time>
      </trkpt>
      <trkpt lat="48.38984" lon="2.55586">
        <ele>78</ele>
        <time>2017-11-19T10:33:43Z</time>
      </trkpt>
      <trkpt lat="48.38991" lon="2.5558">
        <ele>77</ele>
        <time>2017-11-19T10:33:45Z</time>
      </trkpt>
      <trkpt lat="48.38997" lon="2.55574">
        <ele>77</ele>
        <time>2017-11-19T10:33:47Z</time>
      </trkpt>
      <trkpt lat="48.39001" lon="2.55567">
        <ele>76</ele>
        <time>2017-11-19T10:33:49Z</time>
      </trkpt>
      <trkpt lat="48.39003" lon="2.55558">
        <ele>76</ele>
        <time>2017-11-19T10:33:51Z</time>
      </trkpt>
      <trkpt lat="48.39003" lon="2.55548">
        <ele>76</ele>
        <time>2017-11-19T10:33:53Z</time>
      </trkpt>
      <trkpt lat="48.39001" lon="2.55537">
        <ele>76</ele>
        <time>2017-11-19T10:33:55Z</time>
      </trkpt>
      <trkpt lat="48.38994" lon="2.55527">
        <ele>77</ele>
        <time>2017-11-19T10:33:59Z</time>
      </trkpt>
      <trkpt lat="48.38991" lon="2.5552">
        <ele>77</ele>
        <time>2017-11-19T10:34:01Z</time>
      </trkpt>
      <trkpt lat="48.38989" lon="2.55507">
        <ele>77</ele>
        <time>2017-11-19T10:34:03Z</time>
      </trkpt>
      <trkpt lat="48.38989" lon="2.55492">
        <ele>76</ele>
        <time>2017-11-19T10:34:05Z</time>
      </trkpt>
      <trkpt lat="48.38987" lon="2.55479">
        <ele>76</ele>
        <time>2017-11-19T10:34:07Z</time>
      </trkpt>
      <trkpt lat="48.38983" lon="2.5547">
        <ele>77</ele>
        <time>2017-11-19T10:34:09Z</time>
      </trkpt>
      <trkpt lat="48.38976" lon="2.55469">
        <ele>77</ele>
        <time>2017-11-19T10:34:11Z</time>
      </trkpt>
      <trkpt lat="48.38966" lon="2.55468">
        <ele>77</ele>
        <time>2017-11-19T10:34:13Z</time>
      </trkpt>
      <trkpt lat="48.38958" lon="2.5547">
        <ele>77</ele>
        <time>2017-11-19T10:34:15Z</time>
      </trkpt>
      <trkpt lat="48.38951" lon="2.55473">
        <ele>77</ele>
        <time>2017-11-19T10:34:17Z</time>
      </trkpt>
      <trkpt lat="48.38942" lon="2.55475">
        <ele>77</ele>
        <time>2017-11-19T10:34:19Z</time>
      </trkpt>
      <trkpt lat="48.38933" lon="2.55477">
        <ele>77</ele>
        <time>2017-11-19T10:34:21Z</time>
      </trkpt>
      <trkpt lat="48.38925" lon="2.55481">
        <ele>77</ele>
        <time>2017-11-19T10:34:23Z</time>
      </trkpt>
      <trkpt lat="48.38917" lon="2.55485">
        <ele>77</ele>
        <time>2017-11-19T10:34:25Z</time>
      </trkpt>
      <trkpt lat="48.38909" lon="2.55488">
        <ele>79</ele>
        <time>2017-11-19T10:34:27Z</time>
      </trkpt>
      <trkpt lat="48.38902" lon="2.55491">
        <ele>79</ele>
        <time>2017-11-19T10:34:29Z</time>
      </trkpt>
      <trkpt lat="48.38895" lon="2.55494">
        <ele>79</ele>
        <time>2017-11-19T10:34:31Z</time>
      </trkpt>
      <trkpt lat="48.38888" lon="2.55497">
        <ele>79</ele>
        <time>2017-11-19T10:34:33Z</time>
      </trkpt>
      <trkpt lat="48.38881" lon="2.55499">
        <ele>79</ele>
        <time>2017-11-19T10:34:35Z</time>
      </trkpt>
      <trkpt lat="48.38873" lon="2.55502">
        <ele>80</ele>
        <time>2017-11-19T10:34:37Z</time>
      </trkpt>
      <trkpt lat="48.38865" lon="2.55504">
        <ele>80</ele>
        <time>2017-11-19T10:34:39Z</time>
      </trkpt>
      <trkpt lat="48.38857" lon="2.55507">
        <ele>80</ele>
        <time>2017-11-19T10:34:41Z</time>
      </trkpt>
      <trkpt lat="48.3885" lon="2.5551">
        <ele>80</ele>
        <time>2017-11-19T10:34:43Z</time>
      </trkpt>
      <trkpt lat="48.38841" lon="2.55514">
        <ele>80</ele>
        <time>2017-11-19T10:34:45Z</time>
      </trkpt>
      <trkpt lat="48.38833" lon="2.55518">
        <ele>83</ele>
        <time>2017-11-19T10:34:47Z</time>
      </trkpt>
      <trkpt lat="48.38826" lon="2.55522">
        <ele>83</ele>
        <time>2017-11-19T10:34:49Z</time>
      </trkpt>
      <trkpt lat="48.38816" lon="2.55523">
        <ele>84</ele>
        <time>2017-11-19T10:34:51Z</time>
      </trkpt>
      <trkpt lat="48.38809" lon="2.55519">
        <ele>84</ele>
        <time>2017-11-19T10:34:53Z</time>
      </trkpt>
      <trkpt lat="48.38801" lon="2.5551">
        <ele>85</ele>
        <time>2017-11-19T10:34:55Z</time>
      </trkpt>
      <trkpt lat="48.38799" lon="2.55498">
        <ele>87</ele>
        <time>2017-11-19T10:34:57Z</time>
      </trkpt>
      <trkpt lat="48.38797" lon="2.55489">
        <ele>87</ele>
        <time>2017-11-19T10:34:59Z</time>
      </trkpt>
      <trkpt lat="48.38796" lon="2.5548">
        <ele>87</ele>
        <time>2017-11-19T10:35:01Z</time>
      </trkpt>
      <trkpt lat="48.38796" lon="2.55472">
        <ele>88</ele>
        <time>2017-11-19T10:35:03Z</time>
      </trkpt>
      <trkpt lat="48.38796" lon="2.55463">
        <ele>88</ele>
        <time>2017-11-19T10:35:05Z</time>
      </trkpt>
      <trkpt lat="48.38797" lon="2.55452">
        <ele>88</ele>
        <time>2017-11-19T10:35:07Z</time>
      </trkpt>
      <trkpt lat="48.38798" lon="2.5544">
        <ele>88</ele>
        <time>2017-11-19T10:35:09Z</time>
      </trkpt>
      <trkpt lat="48.388" lon="2.55429">
        <ele>88</ele>
        <time>2017-11-19T10:35:11Z</time>
      </trkpt>
      <trkpt lat="48.38802" lon="2.55419">
        <ele>88</ele>
        <time>2017-11-19T10:35:13Z</time>
      </trkpt>
      <trkpt lat="48.38804" lon="2.55408">
        <ele>89</ele>
        <time>2017-11-19T10:35:15Z</time>
      </trkpt>
      <trkpt lat="48.38806" lon="2.55397">
        <ele>89</ele>
        <time>2017-11-19T10:35:17Z</time>
      </trkpt>
      <trkpt lat="48.38809" lon="2.55385">
        <ele>90</ele>
        <time>2017-11-19T10:35:19Z</time>
      </trkpt>
      <trkpt lat="48.38811" lon="2.55375">
        <ele>89</ele>
        <time>2017-11-19T10:35:21Z</time>
      </trkpt>
      <trkpt lat="48.38812" lon="2.55365">
        <ele>89</ele>
        <time>2017-11-19T10:35:23Z</time>
      </trkpt>
      <trkpt lat="48.38813" lon="2.55354">
        <ele>89</ele>
        <time>2017-11-19T10:35:25Z</time>
      </trkpt>
      <trkpt lat="48.38814" lon="2.55343">
        <ele>88</ele>
        <time>2017-11-19T10:35:27Z</time>
      </trkpt>
      <trkpt lat="48.38815" lon="2.5533">
        <ele>88</ele>
        <time>2017-11-19T10:35:29Z</time>
      </trkpt>
      <trkpt lat="48.38817" lon="2.55319">
        <ele>89</ele>
        <time>2017-11-19T10:35:31Z</time>
      </trkpt>
      <trkpt lat="48.38818" lon="2.55308">
        <ele>89</ele>
        <time>2017-11-19T10:35:33Z</time>
      </trkpt>
      <trkpt lat="48.38818" lon="2.55297">
        <ele>89</ele>
        <time>2017-11-19T10:35:35Z</time>
      </trkpt>
      <trkpt lat="48.3882" lon="2.55286">
        <ele>89</ele>
        <time>2017-11-19T10:35:37Z</time>
      </trkpt>
      <trkpt lat="48.38822" lon="2.55276">
        <ele>89</ele>
        <time>2017-11-19T10:35:39Z</time>
      </trkpt>
      <trkpt lat="48.38823" lon="2.55267">
        <ele>88</ele>
        <time>2017-11-19T10:35:41Z</time>
      </trkpt>
      <trkpt lat="48.38824" lon="2.55258">
        <ele>87</ele>
        <time>2017-11-19T10:35:43Z</time>
      </trkpt>
      <trkpt lat="48.38826" lon="2.55249">
        <ele>87</ele>
        <time>2017-11-19T10:35:45Z</time>
      </trkpt>
      <trkpt lat="48.38827" lon="2.5524">
        <ele>88</ele>
        <time>2017-11-19T10:35:47Z</time>
      </trkpt>
      <trkpt lat="48.38828" lon="2.55231">
        <ele>89</ele>
        <time>2017-11-19T10:35:49Z</time>
      </trkpt>
      <trkpt lat="48.38828" lon="2.55221">
        <ele>90</ele>
        <time>2017-11-19T10:35:51Z</time>
      </trkpt>
      <trkpt lat="48.38828" lon="2.55213">
        <ele>90</ele>
        <time>2017-11-19T10:35:53Z</time>
      </trkpt>
      <trkpt lat="48.38829" lon="2.55205">
        <ele>91</ele>
        <time>2017-11-19T10:35:55Z</time>
      </trkpt>
      <trkpt lat="48.3883" lon="2.55197">
        <ele>90</ele>
        <time>2017-11-19T10:35:57Z</time>
      </trkpt>
      <trkpt lat="48.38832" lon="2.55189">
        <ele>90</ele>
        <time>2017-11-19T10:35:59Z</time>
      </trkpt>
      <trkpt lat="48.38833" lon="2.5518">
        <ele>89</ele>
        <time>2017-11-19T10:36:01Z</time>
      </trkpt>
      <trkpt lat="48.38834" lon="2.55171">
        <ele>86</ele>
        <time>2017-11-19T10:36:03Z</time>
      </trkpt>
      <trkpt lat="48.38836" lon="2.55162">
        <ele>87</ele>
        <time>2017-11-19T10:36:05Z</time>
      </trkpt>
      <trkpt lat="48.38838" lon="2.55153">
        <ele>86</ele>
        <time>2017-11-19T10:36:07Z</time>
      </trkpt>
      <trkpt lat="48.3884" lon="2.55143">
        <ele>86</ele>
        <time>2017-11-19T10:36:09Z</time>
      </trkpt>
      <trkpt lat="48.38842" lon="2.55134">
        <ele>86</ele>
        <time>2017-11-19T10:36:11Z</time>
      </trkpt>
      <trkpt lat="48.38843" lon="2.55125">
        <ele>86</ele>
        <time>2017-11-19T10:36:13Z</time>
      </trkpt>
      <trkpt lat="48.38845" lon="2.55116">
        <ele>86</ele>
        <time>2017-11-19T10:36:15Z</time>
      </trkpt>
      <trkpt lat="48.38845" lon="2.55107">
        <ele>86</ele>
        <time>2017-11-19T10:36:17Z</time>
      </trkpt>
      <trkpt lat="48.38848" lon="2.55098">
        <ele>87</ele>
        <time>2017-11-19T10:36:19Z</time>
      </trkpt>
      <trkpt lat="48.38849" lon="2.55089">
        <ele>87</ele>
        <time>2017-11-19T10:36:21Z</time>
      </trkpt>
      <trkpt lat="48.3885" lon="2.5508">
        <ele>87</ele>
        <time>2017-11-19T10:36:23Z</time>
      </trkpt>
      <trkpt lat="48.38851" lon="2.55073">
        <ele>87</ele>
        <time>2017-11-19T10:36:25Z</time>
      </trkpt>
      <trkpt lat="48.38853" lon="2.55063">
        <ele>87</ele>
        <time>2017-11-19T10:36:27Z</time>
      </trkpt>
      <trkpt lat="48.38853" lon="2.55055">
        <ele>87</ele>
        <time>2017-11-19T10:36:29Z</time>
      </trkpt>
      <trkpt lat="48.38853" lon="2.55046">
        <ele>86</ele>
        <time>2017-11-19T10:36:31Z</time>
      </trkpt>
      <trkpt lat="48.38852" lon="2.55039">
        <ele>87</ele>
        <time>2017-11-19T10:36:33Z</time>
      </trkpt>
      <trkpt lat="48.3885" lon="2.55031">
        <ele>87</ele>
        <time>2017-11-19T10:36:35Z</time>
      </trkpt>
      <trkpt lat="48.38848" lon="2.55026">
        <ele>87</ele>
        <time>2017-11-19T10:36:37Z</time>
      </trkpt>
      <trkpt lat="48.38846" lon="2.55013">
        <ele>88</ele>
        <time>2017-11-19T10:36:41Z</time>
      </trkpt>
      <trkpt lat="48.38845" lon="2.55003">
        <ele>88</ele>
        <time>2017-11-19T10:36:45Z</time>
      </trkpt>
      <trkpt lat="48.38844" lon="2.54993">
        <ele>88</ele>
        <time>2017-11-19T10:36:49Z</time>
      </trkpt>
      <trkpt lat="48.38844" lon="2.54983">
        <ele>88</ele>
        <time>2017-11-19T10:36:53Z</time>
      </trkpt>
      <trkpt lat="48.38844" lon="2.54975">
        <ele>88</ele>
        <time>2017-11-19T10:36:55Z</time>
      </trkpt>
      <trkpt lat="48.38843" lon="2.54968">
        <ele>87</ele>
        <time>2017-11-19T10:36:57Z</time>
      </trkpt>
      <trkpt lat="48.38842" lon="2.54954">
        <ele>88</ele>
        <time>2017-11-19T10:37:01Z</time>
      </trkpt>
      <trkpt lat="48.38843" lon="2.54945">
        <ele>88</ele>
        <time>2017-11-19T10:37:03Z</time>
      </trkpt>
      <trkpt lat="48.38843" lon="2.54937">
        <ele>88</ele>
        <time>2017-11-19T10:37:05Z</time>
      </trkpt>
      <trkpt lat="48.38842" lon="2.54928">
        <ele>89</ele>
        <time>2017-11-19T10:37:07Z</time>
      </trkpt>
      <trkpt lat="48.38843" lon="2.5492">
        <ele>90</ele>
        <time>2017-11-19T10:37:09Z</time>
      </trkpt>
      <trkpt lat="48.38842" lon="2.54913">
        <ele>90</ele>
        <time>2017-11-19T10:37:11Z</time>
      </trkpt>
      <trkpt lat="48.38842" lon="2.54905">
        <ele>90</ele>
        <time>2017-11-19T10:37:13Z</time>
      </trkpt>
      <trkpt lat="48.38841" lon="2.54895">
        <ele>89</ele>
        <time>2017-11-19T10:37:17Z</time>
      </trkpt>
      <trkpt lat="48.38842" lon="2.54884">
        <ele>89</ele>
        <time>2017-11-19T10:37:21Z</time>
      </trkpt>
      <trkpt lat="48.38844" lon="2.54868">
        <ele>89</ele>
        <time>2017-11-19T10:37:25Z</time>
      </trkpt>
      <trkpt lat="48.38845" lon="2.54859">
        <ele>89</ele>
        <time>2017-11-19T10:37:27Z</time>
      </trkpt>
      <trkpt lat="48.38846" lon="2.54852">
        <ele>90</ele>
        <time>2017-11-19T10:37:29Z</time>
      </trkpt>
      <trkpt lat="48.38847" lon="2.54844">
        <ele>90</ele>
        <time>2017-11-19T10:37:31Z</time>
      </trkpt>
      <trkpt lat="48.38848" lon="2.54836">
        <ele>91</ele>
        <time>2017-11-19T10:37:33Z</time>
      </trkpt>
      <trkpt lat="48.38849" lon="2.54828">
        <ele>91</ele>
        <time>2017-11-19T10:37:35Z</time>
      </trkpt>
      <trkpt lat="48.38851" lon="2.54822">
        <ele>91</ele>
        <time>2017-11-19T10:37:37Z</time>
      </trkpt>
      <trkpt lat="48.38852" lon="2.54815">
        <ele>91</ele>
        <time>2017-11-19T10:37:39Z</time>
      </trkpt>
      <trkpt lat="48.38853" lon="2.54806">
        <ele>90</ele>
        <time>2017-11-19T10:37:41Z</time>
      </trkpt>
      <trkpt lat="48.38853" lon="2.54797">
        <ele>90</ele>
        <time>2017-11-19T10:37:43Z</time>
      </trkpt>
      <trkpt lat="48.38855" lon="2.54786">
        <ele>90</ele>
        <time>2017-11-19T10:37:47Z</time>
      </trkpt>
      <trkpt lat="48.38857" lon="2.54777">
        <ele>90</ele>
        <time>2017-11-19T10:37:51Z</time>
      </trkpt>
      <trkpt lat="48.38861" lon="2.54769">
        <ele>90</ele>
        <time>2017-11-19T10:37:55Z</time>
      </trkpt>
      <trkpt lat="48.38872" lon="2.5477">
        <ele>89</ele>
        <time>2017-11-19T10:37:59Z</time>
      </trkpt>
      <trkpt lat="48.38882" lon="2.54775">
        <ele>88</ele>
        <time>2017-11-19T10:38:01Z</time>
      </trkpt>
      <trkpt lat="48.38892" lon="2.54779">
        <ele>88</ele>
        <time>2017-11-19T10:38:03Z</time>
      </trkpt>
      <trkpt lat="48.38903" lon="2.54782">
        <ele>87</ele>
        <time>2017-11-19T10:38:05Z</time>
      </trkpt>
      <trkpt lat="48.38917" lon="2.54786">
        <ele>82</ele>
        <time>2017-11-19T10:38:07Z</time>
      </trkpt>
      <trkpt lat="48.38929" lon="2.54793">
        <ele>82</ele>
        <time>2017-11-19T10:38:09Z</time>
      </trkpt>
      <trkpt lat="48.38942" lon="2.54801">
        <ele>81</ele>
        <time>2017-11-19T10:38:11Z</time>
      </trkpt>
      <trkpt lat="48.38951" lon="2.54809">
        <ele>81</ele>
        <time>2017-11-19T10:38:13Z</time>
      </trkpt>
      <trkpt lat="48.38961" lon="2.54818">
        <ele>81</ele>
        <time>2017-11-19T10:38:15Z</time>
      </trkpt>
      <trkpt lat="48.38971" lon="2.54823">
        <ele>81</ele>
        <time>2017-11-19T10:38:17Z</time>
      </trkpt>
      <trkpt lat="48.38981" lon="2.54828">
        <ele>80</ele>
        <time>2017-11-19T10:38:19Z</time>
      </trkpt>
      <trkpt lat="48.38991" lon="2.5483">
        <ele>80</ele>
        <time>2017-11-19T10:38:21Z</time>
      </trkpt>
      <trkpt lat="48.39001" lon="2.54831">
        <ele>79</ele>
        <time>2017-11-19T10:38:23Z</time>
      </trkpt>
      <trkpt lat="48.3901" lon="2.54833">
        <ele>79</ele>
        <time>2017-11-19T10:38:25Z</time>
      </trkpt>
      <trkpt lat="48.39019" lon="2.54836">
        <ele>79</ele>
        <time>2017-11-19T10:38:27Z</time>
      </trkpt>
      <trkpt lat="48.39028" lon="2.54839">
        <ele>79</ele>
        <time>2017-11-19T10:38:29Z</time>
      </trkpt>
      <trkpt lat="48.39038" lon="2.54842">
        <ele>79</ele>
        <time>2017-11-19T10:38:31Z</time>
      </trkpt>
      <trkpt lat="48.39045" lon="2.54849">
        <ele>79</ele>
        <time>2017-11-19T10:38:33Z</time>
      </trkpt>
      <trkpt lat="48.39054" lon="2.54853">
        <ele>79</ele>
        <time>2017-11-19T10:38:35Z</time>
      </trkpt>
      <trkpt lat="48.39062" lon="2.54855">
        <ele>79</ele>
        <time>2017-11-19T10:38:37Z</time>
      </trkpt>
      <trkpt lat="48.39074" lon="2.5486">
        <ele>79</ele>
        <time>2017-11-19T10:38:39Z</time>
      </trkpt>
      <trkpt lat="48.39084" lon="2.54862">
        <ele>79</ele>
        <time>2017-11-19T10:38:41Z</time>
      </trkpt>
      <trkpt lat="48.39089" lon="2.54857">
        <ele>80</ele>
        <time>2017-11-19T10:38:43Z</time>
      </trkpt>
      <trkpt lat="48.39093" lon="2.5485">
        <ele>80</ele>
        <time>2017-11-19T10:38:45Z</time>
      </trkpt>
      <trkpt lat="48.39094" lon="2.54842">
        <ele>80</ele>
        <time>2017-11-19T10:38:47Z</time>
      </trkpt>
      <trkpt lat="48.39093" lon="2.54833">
        <ele>80</ele>
        <time>2017-11-19T10:38:49Z</time>
      </trkpt>
      <trkpt lat="48.39091" lon="2.54824">
        <ele>80</ele>
        <time>2017-11-19T10:38:51Z</time>
      </trkpt>
      <trkpt lat="48.39089" lon="2.54816">
        <ele>81</ele>
        <time>2017-11-19T10:38:53Z</time>
      </trkpt>
      <trkpt lat="48.39087" lon="2.54806">
        <ele>81</ele>
        <time>2017-11-19T10:38:55Z</time>
      </trkpt>
      <trkpt lat="48.39086" lon="2.54795">
        <ele>81</ele>
        <time>2017-11-19T10:38:57Z</time>
      </trkpt>
      <trkpt lat="48.39084" lon="2.54786">
        <ele>81</ele>
        <time>2017-11-19T10:38:59Z</time>
      </trkpt>
      <trkpt lat="48.39083" lon="2.54776">
        <ele>81</ele>
        <time>2017-11-19T10:39:01Z</time>
      </trkpt>
      <trkpt lat="48.39081" lon="2.54765">
        <ele>81</ele>
        <time>2017-11-19T10:39:03Z</time>
      </trkpt>
      <trkpt lat="48.3908" lon="2.54757">
        <ele>82</ele>
        <time>2017-11-19T10:39:05Z</time>
      </trkpt>
      <trkpt lat="48.39078" lon="2.54746">
        <ele>82</ele>
        <time>2017-11-19T10:39:07Z</time>
      </trkpt>
      <trkpt lat="48.39076" lon="2.54737">
        <ele>82</ele>
        <time>2017-11-19T10:39:09Z</time>
      </trkpt>
      <trkpt lat="48.39074" lon="2.54727">
        <ele>82</ele>
        <time>2017-11-19T10:39:11Z</time>
      </trkpt>
      <trkpt lat="48.39072" lon="2.54718">
        <ele>82</ele>
        <time>2017-11-19T10:39:13Z</time>
      </trkpt>
      <trkpt lat="48.39071" lon="2.54709">
        <ele>82</ele>
        <time>2017-11-19T10:39:15Z</time>
      </trkpt>
      <trkpt lat="48.39068" lon="2.54701">
        <ele>82</ele>
        <time>2017-11-19T10:39:17Z</time>
      </trkpt>
      <trkpt lat="48.39066" lon="2.54693">
        <ele>82</ele>
        <time>2017-11-19T10:39:19Z</time>
      </trkpt>
      <trkpt lat="48.39064" lon="2.54685">
        <ele>82</ele>
        <time>2017-11-19T10:39:21Z</time>
      </trkpt>
      <trkpt lat="48.39061" lon="2.54677">
        <ele>82</ele>
        <time>2017-11-19T10:39:23Z</time>
      </trkpt>
      <trkpt lat="48.39059" lon="2.54663">
        <ele>82</ele>
        <time>2017-11-19T10:39:27Z</time>
      </trkpt>
      <trkpt lat="48.39059" lon="2.54655">
        <ele>82</ele>
        <time>2017-11-19T10:39:29Z</time>
      </trkpt>
      <trkpt lat="48.39058" lon="2.54641">
        <ele>82</ele>
        <time>2017-11-19T10:39:33Z</time>
      </trkpt>
      <trkpt lat="48.39059" lon="2.54633">
        <ele>82</ele>
        <time>2017-11-19T10:39:35Z</time>
      </trkpt>
      <trkpt lat="48.39061" lon="2.54625">
        <ele>82</ele>
        <time>2017-11-19T10:39:37Z</time>
      </trkpt>
      <trkpt lat="48.39061" lon="2.54618">
        <ele>82</ele>
        <time>2017-11-19T10:39:39Z</time>
      </trkpt>
      <trkpt lat="48.39064" lon="2.54606">
        <ele>82</ele>
        <time>2017-11-19T10:39:43Z</time>
      </trkpt>
      <trkpt lat="48.39066" lon="2.54598">
        <ele>83</ele>
        <time>2017-11-19T10:39:45Z</time>
      </trkpt>
      <trkpt lat="48.39067" lon="2.5459">
        <ele>83</ele>
        <time>2017-11-19T10:39:47Z</time>
      </trkpt>
      <trkpt lat="48.39068" lon="2.54581">
        <ele>83</ele>
        <time>2017-11-19T10:39:49Z</time>
      </trkpt>
      <trkpt lat="48.39068" lon="2.54574">
        <ele>84</ele>
        <time>2017-11-19T10:39:51Z</time>
      </trkpt>
      <trkpt lat="48.3907" lon="2.54567">
        <ele>84</ele>
        <time>2017-11-19T10:39:53Z</time>
      </trkpt>
      <trkpt lat="48.3907" lon="2.54559">
        <ele>84</ele>
        <time>2017-11-19T10:39:55Z</time>
      </trkpt>
      <trkpt lat="48.39071" lon="2.5455">
        <ele>84</ele>
        <time>2017-11-19T10:39:57Z</time>
      </trkpt>
      <trkpt lat="48.39071" lon="2.54541">
        <ele>84</ele>
        <time>2017-11-19T10:39:59Z</time>
      </trkpt>
      <trkpt lat="48.39072" lon="2.54533">
        <ele>85</ele>
        <time>2017-11-19T10:40:01Z</time>
      </trkpt>
      <trkpt lat="48.39073" lon="2.54525">
        <ele>85</ele>
        <time>2017-11-19T10:40:03Z</time>
      </trkpt>
      <trkpt lat="48.39074" lon="2.54518">
        <ele>85</ele>
        <time>2017-11-19T10:40:05Z</time>
      </trkpt>
      <trkpt lat="48.39075" lon="2.5451">
        <ele>86</ele>
        <time>2017-11-19T10:40:07Z</time>
      </trkpt>
      <trkpt lat="48.39076" lon="2.54503">
        <ele>86</ele>
        <time>2017-11-19T10:40:09Z</time>
      </trkpt>
      <trkpt lat="48.39077" lon="2.54495">
        <ele>87</ele>
        <time>2017-11-19T10:40:11Z</time>
      </trkpt>
      <trkpt lat="48.39078" lon="2.54488">
        <ele>87</ele>
        <time>2017-11-19T10:40:13Z</time>
      </trkpt>
      <trkpt lat="48.39078" lon="2.54481">
        <ele>87</ele>
        <time>2017-11-19T10:40:15Z</time>
      </trkpt>
      <trkpt lat="48.3908" lon="2.54468">
        <ele>87</ele>
        <time>2017-11-19T10:40:19Z</time>
      </trkpt>
      <trkpt lat="48.39081" lon="2.54455">
        <ele>88</ele>
        <time>2017-11-19T10:40:23Z</time>
      </trkpt>
      <trkpt lat="48.39081" lon="2.54443">
        <ele>88</ele>
        <time>2017-11-19T10:40:27Z</time>
      </trkpt>
      <trkpt lat="48.39084" lon="2.54431">
        <ele>91</ele>
        <time>2017-11-19T10:40:31Z</time>
      </trkpt>
      <trkpt lat="48.39084" lon="2.54423">
        <ele>90</ele>
        <time>2017-11-19T10:40:33Z</time>
      </trkpt>
      <trkpt lat="48.39085" lon="2.54416">
        <ele>90</ele>
        <time>2017-11-19T10:40:35Z</time>
      </trkpt>
      <trkpt lat="48.39086" lon="2.54403">
        <ele>92</ele>
        <time>2017-11-19T10:40:39Z</time>
      </trkpt>
      <trkpt lat="48.39089" lon="2.5439">
        <ele>93</ele>
        <time>2017-11-19T10:40:43Z</time>
      </trkpt>
      <trkpt lat="48.3909" lon="2.54382">
        <ele>94</ele>
        <time>2017-11-19T10:40:45Z</time>
      </trkpt>
      <trkpt lat="48.39092" lon="2.54376">
        <ele>94</ele>
        <time>2017-11-19T10:40:47Z</time>
      </trkpt>
      <trkpt lat="48.39093" lon="2.54369">
        <ele>94</ele>
        <time>2017-11-19T10:40:49Z</time>
      </trkpt>
      <trkpt lat="48.39094" lon="2.54362">
        <ele>94</ele>
        <time>2017-11-19T10:40:51Z</time>
      </trkpt>
      <trkpt lat="48.39096" lon="2.54355">
        <ele>94</ele>
        <time>2017-11-19T10:40:53Z</time>
      </trkpt>
      <trkpt lat="48.39097" lon="2.54347">
        <ele>94</ele>
        <time>2017-11-19T10:40:55Z</time>
      </trkpt>
      <trkpt lat="48.39098" lon="2.54341">
        <ele>94</ele>
        <time>2017-11-19T10:40:57Z</time>
      </trkpt>
      <trkpt lat="48.391" lon="2.54334">
        <ele>94</ele>
        <time>2017-11-19T10:40:59Z</time>
      </trkpt>
      <trkpt lat="48.39101" lon="2.54327">
        <ele>95</ele>
        <time>2017-11-19T10:41:01Z</time>
      </trkpt>
      <trkpt lat="48.39103" lon="2.54319">
        <ele>95</ele>
        <time>2017-11-19T10:41:03Z</time>
      </trkpt>
      <trkpt lat="48.39104" lon="2.54312">
        <ele>96</ele>
        <time>2017-11-19T10:41:05Z</time>
      </trkpt>
      <trkpt lat="48.39105" lon="2.54304">
        <ele>96</ele>
        <time>2017-11-19T10:41:07Z</time>
      </trkpt>
      <trkpt lat="48.39106" lon="2.54296">
        <ele>96</ele>
        <time>2017-11-19T10:41:09Z</time>
      </trkpt>
      <trkpt lat="48.39107" lon="2.54288">
        <ele>96</ele>
        <time>2017-11-19T10:41:11Z</time>
      </trkpt>
      <trkpt lat="48.39108" lon="2.54281">
        <ele>96</ele>
        <time>2017-11-19T10:41:13Z</time>
      </trkpt>
      <trkpt lat="48.39109" lon="2.54274">
        <ele>96</ele>
        <time>2017-11-19T10:41:15Z</time>
      </trkpt>
      <trkpt lat="48.39109" lon="2.54266">
        <ele>96</ele>
        <time>2017-11-19T10:41:17Z</time>
      </trkpt>
      <trkpt lat="48.39111" lon="2.54258">
        <ele>96</ele>
        <time>2017-11-19T10:41:19Z</time>
      </trkpt>
      <trkpt lat="48.39112" lon="2.5425">
        <ele>96</ele>
        <time>2017-11-19T10:41:21Z</time>
      </trkpt>
      <trkpt lat="48.39112" lon="2.54241">
        <ele>96</ele>
        <time>2017-11-19T10:41:23Z</time>
      </trkpt>
      <trkpt lat="48.39115" lon="2.54233">
        <ele>96</ele>
        <time>2017-11-19T10:41:25Z</time>
      </trkpt>
      <trkpt lat="48.39115" lon="2.54221">
        <ele>96</ele>
        <time>2017-11-19T10:41:27Z</time>
      </trkpt>
      <trkpt lat="48.39117" lon="2.54208">
        <ele>96</ele>
        <time>2017-11-19T10:41:29Z</time>
      </trkpt>
      <trkpt lat="48.3912" lon="2.54195">
        <ele>96</ele>
        <time>2017-11-19T10:41:31Z</time>
      </trkpt>
      <trkpt lat="48.39123" lon="2.54183">
        <ele>97</ele>
        <time>2017-11-19T10:41:33Z</time>
      </trkpt>
      <trkpt lat="48.39125" lon="2.54172">
        <ele>97</ele>
        <time>2017-11-19T10:41:35Z</time>
      </trkpt>
      <trkpt lat="48.39126" lon="2.54162">
        <ele>96</ele>
        <time>2017-11-19T10:41:37Z</time>
      </trkpt>
      <trkpt lat="48.39128" lon="2.54153">
        <ele>96</ele>
        <time>2017-11-19T10:41:39Z</time>
      </trkpt>
      <trkpt lat="48.3913" lon="2.54143">
        <ele>97</ele>
        <time>2017-11-19T10:41:41Z</time>
      </trkpt>
      <trkpt lat="48.39131" lon="2.54132">
        <ele>96</ele>
        <time>2017-11-19T10:41:43Z</time>
      </trkpt>
      <trkpt lat="48.39132" lon="2.54123">
        <ele>96</ele>
        <time>2017-11-19T10:41:45Z</time>
      </trkpt>
      <trkpt lat="48.39134" lon="2.54114">
        <ele>97</ele>
        <time>2017-11-19T10:41:47Z</time>
      </trkpt>
      <trkpt lat="48.39136" lon="2.54104">
        <ele>97</ele>
        <time>2017-11-19T10:41:49Z</time>
      </trkpt>
      <trkpt lat="48.39137" lon="2.54094">
        <ele>97</ele>
        <time>2017-11-19T10:41:51Z</time>
      </trkpt>
      <trkpt lat="48.39138" lon="2.54085">
        <ele>97</ele>
        <time>2017-11-19T10:41:53Z</time>
      </trkpt>
      <trkpt lat="48.3914" lon="2.54075">
        <ele>97</ele>
        <time>2017-11-19T10:41:55Z</time>
      </trkpt>
      <trkpt lat="48.39141" lon="2.54065">
        <ele>98</ele>
        <time>2017-11-19T10:41:57Z</time>
      </trkpt>
      <trkpt lat="48.39143" lon="2.54055">
        <ele>98</ele>
        <time>2017-11-19T10:41:59Z</time>
      </trkpt>
      <trkpt lat="48.39144" lon="2.54044">
        <ele>98</ele>
        <time>2017-11-19T10:42:01Z</time>
      </trkpt>
      <trkpt lat="48.39145" lon="2.54034">
        <ele>98</ele>
        <time>2017-11-19T10:42:03Z</time>
      </trkpt>
      <trkpt lat="48.39146" lon="2.54024">
        <ele>98</ele>
        <time>2017-11-19T10:42:05Z</time>
      </trkpt>
      <trkpt lat="48.39148" lon="2.54014">
        <ele>99</ele>
        <time>2017-11-19T10:42:07Z</time>
      </trkpt>
      <trkpt lat="48.39149" lon="2.54005">
        <ele>99</ele>
        <time>2017-11-19T10:42:09Z</time>
      </trkpt>
      <trkpt lat="48.39151" lon="2.53996">
        <ele>101</ele>
        <time>2017-11-19T10:42:11Z</time>
      </trkpt>
      <trkpt lat="48.39152" lon="2.53987">
        <ele>101</ele>
        <time>2017-11-19T10:42:13Z</time>
      </trkpt>
      <trkpt lat="48.39153" lon="2.53976">
        <ele>101</ele>
        <time>2017-11-19T10:42:15Z</time>
      </trkpt>
      <trkpt lat="48.39155" lon="2.53967">
        <ele>101</ele>
        <time>2017-11-19T10:42:17Z</time>
      </trkpt>
      <trkpt lat="48.39158" lon="2.53957">
        <ele>101</ele>
        <time>2017-11-19T10:42:19Z</time>
      </trkpt>
      <trkpt lat="48.3916" lon="2.53947">
        <ele>101</ele>
        <time>2017-11-19T10:42:21Z</time>
      </trkpt>
      <trkpt lat="48.39162" lon="2.53938">
        <ele>102</ele>
        <time>2017-11-19T10:42:23Z</time>
      </trkpt>
      <trkpt lat="48.39164" lon="2.53929">
        <ele>102</ele>
        <time>2017-11-19T10:42:25Z</time>
      </trkpt>
      <trkpt lat="48.39165" lon="2.53919">
        <ele>103</ele>
        <time>2017-11-19T10:42:27Z</time>
      </trkpt>
      <trkpt lat="48.39167" lon="2.53911">
        <ele>104</ele>
        <time>2017-11-19T10:42:29Z</time>
      </trkpt>
      <trkpt lat="48.39168" lon="2.53901">
        <ele>106</ele>
        <time>2017-11-19T10:42:31Z</time>
      </trkpt>
      <trkpt lat="48.39169" lon="2.53892">
        <ele>107</ele>
        <time>2017-11-19T10:42:33Z</time>
      </trkpt>
      <trkpt lat="48.3917" lon="2.53883">
        <ele>107</ele>
        <time>2017-11-19T10:42:35Z</time>
      </trkpt>
      <trkpt lat="48.3917" lon="2.53874">
        <ele>108</ele>
        <time>2017-11-19T10:42:37Z</time>
      </trkpt>
      <trkpt lat="48.39171" lon="2.53865">
        <ele>108</ele>
        <time>2017-11-19T10:42:39Z</time>
      </trkpt>
      <trkpt lat="48.39171" lon="2.53856">
        <ele>108</ele>
        <time>2017-11-19T10:42:41Z</time>
      </trkpt>
      <trkpt lat="48.39172" lon="2.53848">
        <ele>108</ele>
        <time>2017-11-19T10:42:43Z</time>
      </trkpt>
      <trkpt lat="48.39174" lon="2.5384">
        <ele>108</ele>
        <time>2017-11-19T10:42:45Z</time>
      </trkpt>
      <trkpt lat="48.39176" lon="2.53833">
        <ele>109</ele>
        <time>2017-11-19T10:42:47Z</time>
      </trkpt>
      <trkpt lat="48.39178" lon="2.53826">
        <ele>109</ele>
        <time>2017-11-19T10:42:49Z</time>
      </trkpt>
      <trkpt lat="48.3918" lon="2.5382">
        <ele>110</ele>
        <time>2017-11-19T10:42:51Z</time>
      </trkpt>
      <trkpt lat="48.39182" lon="2.53813">
        <ele>110</ele>
        <time>2017-11-19T10:42:53Z</time>
      </trkpt>
      <trkpt lat="48.39185" lon="2.53807">
        <ele>111</ele>
        <time>2017-11-19T10:42:55Z</time>
      </trkpt>
      <trkpt lat="48.39186" lon="2.538">
        <ele>111</ele>
        <time>2017-11-19T10:42:57Z</time>
      </trkpt>
      <trkpt lat="48.39187" lon="2.53793">
        <ele>111</ele>
        <time>2017-11-19T10:42:59Z</time>
      </trkpt>
      <trkpt lat="48.39189" lon="2.53781">
        <ele>112</ele>
        <time>2017-11-19T10:43:03Z</time>
      </trkpt>
      <trkpt lat="48.3919" lon="2.53774">
        <ele>112</ele>
        <time>2017-11-19T10:43:05Z</time>
      </trkpt>
      <trkpt lat="48.3919" lon="2.53767">
        <ele>112</ele>
        <time>2017-11-19T10:43:07Z</time>
      </trkpt>
      <trkpt lat="48.3919" lon="2.5376">
        <ele>112</ele>
        <time>2017-11-19T10:43:09Z</time>
      </trkpt>
      <trkpt lat="48.39191" lon="2.53752">
        <ele>112</ele>
        <time>2017-11-19T10:43:11Z</time>
      </trkpt>
      <trkpt lat="48.39193" lon="2.53745">
        <ele>114</ele>
        <time>2017-11-19T10:43:13Z</time>
      </trkpt>
      <trkpt lat="48.39195" lon="2.53737">
        <ele>114</ele>
        <time>2017-11-19T10:43:15Z</time>
      </trkpt>
      <trkpt lat="48.39196" lon="2.5373">
        <ele>114</ele>
        <time>2017-11-19T10:43:17Z</time>
      </trkpt>
      <trkpt lat="48.39198" lon="2.53723">
        <ele>115</ele>
        <time>2017-11-19T10:43:19Z</time>
      </trkpt>
      <trkpt lat="48.392" lon="2.53716">
        <ele>115</ele>
        <time>2017-11-19T10:43:21Z</time>
      </trkpt>
      <trkpt lat="48.39201" lon="2.53709">
        <ele>115</ele>
        <time>2017-11-19T10:43:23Z</time>
      </trkpt>
      <trkpt lat="48.39203" lon="2.53696">
        <ele>115</ele>
        <time>2017-11-19T10:43:27Z</time>
      </trkpt>
      <trkpt lat="48.39205" lon="2.53686">
        <ele>115</ele>
        <time>2017-11-19T10:43:31Z</time>
      </trkpt>
      <trkpt lat="48.39208" lon="2.53678">
        <ele>115</ele>
        <time>2017-11-19T10:43:35Z</time>
      </trkpt>
      <trkpt lat="48.3921" lon="2.53668">
        <ele>115</ele>
        <time>2017-11-19T10:43:39Z</time>
      </trkpt>
      <trkpt lat="48.39212" lon="2.53656">
        <ele>117</ele>
        <time>2017-11-19T10:43:43Z</time>
      </trkpt>
      <trkpt lat="48.39212" lon="2.53643">
        <ele>117</ele>
        <time>2017-11-19T10:43:47Z</time>
      </trkpt>
      <trkpt lat="48.39214" lon="2.53631">
        <ele>117</ele>
        <time>2017-11-19T10:43:51Z</time>
      </trkpt>
      <trkpt lat="48.39215" lon="2.53618">
        <ele>117</ele>
        <time>2017-11-19T10:43:55Z</time>
      </trkpt>
      <trkpt lat="48.39216" lon="2.53606">
        <ele>118</ele>
        <time>2017-11-19T10:43:59Z</time>
      </trkpt>
      <trkpt lat="48.39217" lon="2.53595">
        <ele>118</ele>
        <time>2017-11-19T10:44:03Z</time>
      </trkpt>
      <trkpt lat="48.39218" lon="2.53584">
        <ele>118</ele>
        <time>2017-11-19T10:44:07Z</time>
      </trkpt>
      <trkpt lat="48.39219" lon="2.53574">
        <ele>120</ele>
        <time>2017-11-19T10:44:11Z</time>
      </trkpt>
      <trkpt lat="48.3922" lon="2.53563">
        <ele>120</ele>
        <time>2017-11-19T10:44:15Z</time>
      </trkpt>
      <trkpt lat="48.39221" lon="2.53553">
        <ele>120</ele>
        <time>2017-11-19T10:44:19Z</time>
      </trkpt>
      <trkpt lat="48.39221" lon="2.53543">
        <ele>120</ele>
        <time>2017-11-19T10:44:23Z</time>
      </trkpt>
      <trkpt lat="48.39223" lon="2.53536">
        <ele>120</ele>
        <time>2017-11-19T10:44:27Z</time>
      </trkpt>
      <trkpt lat="48.39224" lon="2.53529">
        <ele>120</ele>
        <time>2017-11-19T10:44:31Z</time>
      </trkpt>
      <trkpt lat="48.39225" lon="2.53521">
        <ele>121</ele>
        <time>2017-11-19T10:44:35Z</time>
      </trkpt>
      <trkpt lat="48.39225" lon="2.53513">
        <ele>121</ele>
        <time>2017-11-19T10:44:39Z</time>
      </trkpt>
      <trkpt lat="48.39224" lon="2.53505">
        <ele>121</ele>
        <time>2017-11-19T10:44:43Z</time>
      </trkpt>
      <trkpt lat="48.39223" lon="2.53495">
        <ele>122</ele>
        <time>2017-11-19T10:44:47Z</time>
      </trkpt>
      <trkpt lat="48.39221" lon="2.53485">
        <ele>122</ele>
        <time>2017-11-19T10:44:51Z</time>
      </trkpt>
      <trkpt lat="48.3922" lon="2.53476">
        <ele>122</ele>
        <time>2017-11-19T10:44:55Z</time>
      </trkpt>
      <trkpt lat="48.39219" lon="2.53467">
        <ele>122</ele>
        <time>2017-11-19T10:44:59Z</time>
      </trkpt>
      <trkpt lat="48.39218" lon="2.53457">
        <ele>122</ele>
        <time>2017-11-19T10:45:03Z</time>
      </trkpt>
      <trkpt lat="48.39218" lon="2.53448">
        <ele>122</ele>
        <time>2017-11-19T10:45:07Z</time>
      </trkpt>
      <trkpt lat="48.39219" lon="2.53435">
        <ele>122</ele>
        <time>2017-11-19T10:45:11Z</time>
      </trkpt>
      <trkpt lat="48.3922" lon="2.53428">
        <ele>122</ele>
        <time>2017-11-19T10:45:13Z</time>
      </trkpt>
      <trkpt lat="48.39222" lon="2.53414">
        <ele>123</ele>
        <time>2017-11-19T10:45:17Z</time>
      </trkpt>
      <trkpt lat="48.39223" lon="2.53406">
        <ele>123</ele>
        <time>2017-11-19T10:45:19Z</time>
      </trkpt>
      <trkpt lat="48.39224" lon="2.53398">
        <ele>123</ele>
        <time>2017-11-19T10:45:21Z</time>
      </trkpt>
      <trkpt lat="48.39225" lon="2.53391">
        <ele>123</ele>
        <time>2017-11-19T10:45:23Z</time>
      </trkpt>
      <trkpt lat="48.39226" lon="2.53384">
        <ele>123</ele>
        <time>2017-11-19T10:45:25Z</time>
      </trkpt>
      <trkpt lat="48.39226" lon="2.53376">
        <ele>123</ele>
        <time>2017-11-19T10:45:27Z</time>
      </trkpt>
      <trkpt lat="48.39226" lon="2.53369">
        <ele>123</ele>
        <time>2017-11-19T10:45:29Z</time>
      </trkpt>
      <trkpt lat="48.39225" lon="2.53362">
        <ele>123</ele>
        <time>2017-11-19T10:45:31Z</time>
      </trkpt>
      <trkpt lat="48.39227" lon="2.53354">
        <ele>123</ele>
        <time>2017-11-19T10:45:35Z</time>
      </trkpt>
      <trkpt lat="48.39228" lon="2.53345">
        <ele>123</ele>
        <time>2017-11-19T10:45:43Z</time>
      </trkpt>
      <trkpt lat="48.39228" lon="2.53337">
        <ele>123</ele>
        <time>2017-11-19T10:45:45Z</time>
      </trkpt>
      <trkpt lat="48.39229" lon="2.53327">
        <ele>123</ele>
        <time>2017-11-19T10:45:47Z</time>
      </trkpt>
      <trkpt lat="48.39228" lon="2.53316">
        <ele>122</ele>
        <time>2017-11-19T10:45:49Z</time>
      </trkpt>
      <trkpt lat="48.39228" lon="2.53304">
        <ele>122</ele>
        <time>2017-11-19T10:45:51Z</time>
      </trkpt>
      <trkpt lat="48.39227" lon="2.53292">
        <ele>122</ele>
        <time>2017-11-19T10:45:53Z</time>
      </trkpt>
      <trkpt lat="48.39224" lon="2.53281">
        <ele>122</ele>
        <time>2017-11-19T10:45:55Z</time>
      </trkpt>
      <trkpt lat="48.39223" lon="2.53267">
        <ele>122</ele>
        <time>2017-11-19T10:45:57Z</time>
      </trkpt>
      <trkpt lat="48.39224" lon="2.53253">
        <ele>122</ele>
        <time>2017-11-19T10:45:59Z</time>
      </trkpt>
      <trkpt lat="48.39226" lon="2.5324">
        <ele>121</ele>
        <time>2017-11-19T10:46:01Z</time>
      </trkpt>
      <trkpt lat="48.39226" lon="2.53228">
        <ele>121</ele>
        <time>2017-11-19T10:46:03Z</time>
      </trkpt>
      <trkpt lat="48.39228" lon="2.53215">
        <ele>121</ele>
        <time>2017-11-19T10:46:05Z</time>
      </trkpt>
      <trkpt lat="48.39229" lon="2.53204">
        <ele>120</ele>
        <time>2017-11-19T10:46:07Z</time>
      </trkpt>
      <trkpt lat="48.39232" lon="2.53194">
        <ele>120</ele>
        <time>2017-11-19T10:46:09Z</time>
      </trkpt>
      <trkpt lat="48.39234" lon="2.53183">
        <ele>120</ele>
        <time>2017-11-19T10:46:11Z</time>
      </trkpt>
      <trkpt lat="48.39236" lon="2.53172">
        <ele>121</ele>
        <time>2017-11-19T10:46:13Z</time>
      </trkpt>
      <trkpt lat="48.39237" lon="2.53161">
        <ele>120</ele>
        <time>2017-11-19T10:46:15Z</time>
      </trkpt>
      <trkpt lat="48.3924" lon="2.53151">
        <ele>120</ele>
        <time>2017-11-19T10:46:17Z</time>
      </trkpt>
      <trkpt lat="48.39241" lon="2.53141">
        <ele>119</ele>
        <time>2017-11-19T10:46:19Z</time>
      </trkpt>
      <trkpt lat="48.39243" lon="2.5313">
        <ele>119</ele>
        <time>2017-11-19T10:46:21Z</time>
      </trkpt>
      <trkpt lat="48.39245" lon="2.53119">
        <ele>119</ele>
        <time>2017-11-19T10:46:23Z</time>
      </trkpt>
      <trkpt lat="48.39248" lon="2.53107">
        <ele>119</ele>
        <time>2017-11-19T10:46:25Z</time>
      </trkpt>
      <trkpt lat="48.3925" lon="2.53095">
        <ele>121</ele>
        <time>2017-11-19T10:46:27Z</time>
      </trkpt>
      <trkpt lat="48.39252" lon="2.53083">
        <ele>120</ele>
        <time>2017-11-19T10:46:29Z</time>
      </trkpt>
      <trkpt lat="48.39252" lon="2.53071">
        <ele>121</ele>
        <time>2017-11-19T10:46:31Z</time>
      </trkpt>
      <trkpt lat="48.39251" lon="2.53058">
        <ele>122</ele>
        <time>2017-11-19T10:46:33Z</time>
      </trkpt>
      <trkpt lat="48.39252" lon="2.53045">
        <ele>122</ele>
        <time>2017-11-19T10:46:35Z</time>
      </trkpt>
      <trkpt lat="48.39253" lon="2.53033">
        <ele>122</ele>
        <time>2017-11-19T10:46:37Z</time>
      </trkpt>
      <trkpt lat="48.39256" lon="2.53022">
        <ele>122</ele>
        <time>2017-11-19T10:46:39Z</time>
      </trkpt>
      <trkpt lat="48.39258" lon="2.5301">
        <ele>121</ele>
        <time>2017-11-19T10:46:41Z</time>
      </trkpt>
      <trkpt lat="48.3926" lon="2.52999">
        <ele>120</ele>
        <time>2017-11-19T10:46:43Z</time>
      </trkpt>
      <trkpt lat="48.39263" lon="2.52988">
        <ele>121</ele>
        <time>2017-11-19T10:46:45Z</time>
      </trkpt>
      <trkpt lat="48.39265" lon="2.52977">
        <ele>122</ele>
        <time>2017-11-19T10:46:47Z</time>
      </trkpt>
      <trkpt lat="48.39268" lon="2.52967">
        <ele>122</ele>
        <time>2017-11-19T10:46:49Z</time>
      </trkpt>
      <trkpt lat="48.39273" lon="2.52958">
        <ele>122</ele>
        <time>2017-11-19T10:46:51Z</time>
      </trkpt>
      <trkpt lat="48.39276" lon="2.52952">
        <ele>122</ele>
        <time>2017-11-19T10:46:53Z</time>
      </trkpt>
      <trkpt lat="48.39281" lon="2.52948">
        <ele>122</ele>
        <time>2017-11-19T10:46:55Z</time>
      </trkpt>
      <trkpt lat="48.39286" lon="2.52945">
        <ele>123</ele>
        <time>2017-11-19T10:46:57Z</time>
      </trkpt>
      <trkpt lat="48.39291" lon="2.52942">
        <ele>123</ele>
        <time>2017-11-19T10:46:59Z</time>
      </trkpt>
      <trkpt lat="48.39295" lon="2.52939">
        <ele>123</ele>
        <time>2017-11-19T10:47:01Z</time>
      </trkpt>
      <trkpt lat="48.39299" lon="2.52934">
        <ele>123</ele>
        <time>2017-11-19T10:47:03Z</time>
      </trkpt>
      <trkpt lat="48.39306" lon="2.5293">
        <ele>123</ele>
        <time>2017-11-19T10:47:05Z</time>
      </trkpt>
      <trkpt lat="48.39312" lon="2.52927">
        <ele>124</ele>
        <time>2017-11-19T10:47:07Z</time>
      </trkpt>
      <trkpt lat="48.39319" lon="2.52924">
        <ele>124</ele>
        <time>2017-11-19T10:47:09Z</time>
      </trkpt>
      <trkpt lat="48.39323" lon="2.5292">
        <ele>124</ele>
        <time>2017-11-19T10:47:11Z</time>
      </trkpt>
      <trkpt lat="48.39328" lon="2.52919">
        <ele>125</ele>
        <time>2017-11-19T10:47:13Z</time>
      </trkpt>
      <trkpt lat="48.39336" lon="2.52919">
        <ele>125</ele>
        <time>2017-11-19T10:47:15Z</time>
      </trkpt>
      <trkpt lat="48.39343" lon="2.52918">
        <ele>126</ele>
        <time>2017-11-19T10:47:17Z</time>
      </trkpt>
      <trkpt lat="48.39348" lon="2.52916">
        <ele>125</ele>
        <time>2017-11-19T10:47:19Z</time>
      </trkpt>
      <trkpt lat="48.39356" lon="2.52911">
        <ele>125</ele>
        <time>2017-11-19T10:47:21Z</time>
      </trkpt>
      <trkpt lat="48.39362" lon="2.52906">
        <ele>125</ele>
        <time>2017-11-19T10:47:23Z</time>
      </trkpt>
      <trkpt lat="48.39366" lon="2.52897">
        <ele>125</ele>
        <time>2017-11-19T10:47:25Z</time>
      </trkpt>
      <trkpt lat="48.39373" lon="2.52888">
        <ele>125</ele>
        <time>2017-11-19T10:47:27Z</time>
      </trkpt>
      <trkpt lat="48.39376" lon="2.52877">
        <ele>125</ele>
        <time>2017-11-19T10:47:29Z</time>
      </trkpt>
      <trkpt lat="48.39381" lon="2.52868">
        <ele>125</ele>
        <time>2017-11-19T10:47:31Z</time>
      </trkpt>
      <trkpt lat="48.39388" lon="2.5286">
        <ele>125</ele>
        <time>2017-11-19T10:47:33Z</time>
      </trkpt>
      <trkpt lat="48.39394" lon="2.5285">
        <ele>125</ele>
        <time>2017-11-19T10:47:35Z</time>
      </trkpt>
      <trkpt lat="48.394" lon="2.52838">
        <ele>125</ele>
        <time>2017-11-19T10:47:37Z</time>
      </trkpt>
      <trkpt lat="48.39406" lon="2.52828">
        <ele>124</ele>
        <time>2017-11-19T10:47:39Z</time>
      </trkpt>
      <trkpt lat="48.3941" lon="2.52817">
        <ele>124</ele>
        <time>2017-11-19T10:47:41Z</time>
      </trkpt>
      <trkpt lat="48.39415" lon="2.52806">
        <ele>123</ele>
        <time>2017-11-19T10:47:43Z</time>
      </trkpt>
      <trkpt lat="48.39421" lon="2.52794">
        <ele>126</ele>
        <time>2017-11-19T10:47:45Z</time>
      </trkpt>
      <trkpt lat="48.39428" lon="2.52783">
        <ele>125</ele>
        <time>2017-11-19T10:47:47Z</time>
      </trkpt>
      <trkpt lat="48.39435" lon="2.52771">
        <ele>125</ele>
        <time>2017-11-19T10:47:49Z</time>
      </trkpt>
      <trkpt lat="48.39441" lon="2.52764">
        <ele>125</ele>
        <time>2017-11-19T10:47:51Z</time>
      </trkpt>
      <trkpt lat="48.39447" lon="2.52752">
        <ele>126</ele>
        <time>2017-11-19T10:47:53Z</time>
      </trkpt>
      <trkpt lat="48.39448" lon="2.52738">
        <ele>125</ele>
        <time>2017-11-19T10:47:55Z</time>
      </trkpt>
      <trkpt lat="48.3945" lon="2.52727">
        <ele>125</ele>
        <time>2017-11-19T10:47:57Z</time>
      </trkpt>
      <trkpt lat="48.39451" lon="2.52715">
        <ele>125</ele>
        <time>2017-11-19T10:47:59Z</time>
      </trkpt>
      <trkpt lat="48.3945" lon="2.52703">
        <ele>124</ele>
        <time>2017-11-19T10:48:01Z</time>
      </trkpt>
      <trkpt lat="48.39452" lon="2.52693">
        <ele>124</ele>
        <time>2017-11-19T10:48:03Z</time>
      </trkpt>
      <trkpt lat="48.39453" lon="2.52682">
        <ele>124</ele>
        <time>2017-11-19T10:48:05Z</time>
      </trkpt>
      <trkpt lat="48.39454" lon="2.52671">
        <ele>124</ele>
        <time>2017-11-19T10:48:07Z</time>
      </trkpt>
      <trkpt lat="48.39454" lon="2.52657">
        <ele>123</ele>
        <time>2017-11-19T10:48:09Z</time>
      </trkpt>
      <trkpt lat="48.39454" lon="2.52645">
        <ele>123</ele>
        <time>2017-11-19T10:48:11Z</time>
      </trkpt>
      <trkpt lat="48.39455" lon="2.52633">
        <ele>123</ele>
        <time>2017-11-19T10:48:13Z</time>
      </trkpt>
      <trkpt lat="48.39456" lon="2.5262">
        <ele>123</ele>
        <time>2017-11-19T10:48:15Z</time>
      </trkpt>
      <trkpt lat="48.39457" lon="2.52608">
        <ele>123</ele>
        <time>2017-11-19T10:48:17Z</time>
      </trkpt>
      <trkpt lat="48.39458" lon="2.52595">
        <ele>123</ele>
        <time>2017-11-19T10:48:19Z</time>
      </trkpt>
      <trkpt lat="48.39459" lon="2.52582">
        <ele>122</ele>
        <time>2017-11-19T10:48:21Z</time>
      </trkpt>
      <trkpt lat="48.39462" lon="2.5257">
        <ele>123</ele>
        <time>2017-11-19T10:48:23Z</time>
      </trkpt>
      <trkpt lat="48.39462" lon="2.52558">
        <ele>122</ele>
        <time>2017-11-19T10:48:25Z</time>
      </trkpt>
      <trkpt lat="48.39463" lon="2.52546">
        <ele>122</ele>
        <time>2017-11-19T10:48:27Z</time>
      </trkpt>
      <trkpt lat="48.39463" lon="2.52535">
        <ele>122</ele>
        <time>2017-11-19T10:48:29Z</time>
      </trkpt>
      <trkpt lat="48.39463" lon="2.52522">
        <ele>122</ele>
        <time>2017-11-19T10:48:31Z</time>
      </trkpt>
      <trkpt lat="48.39465" lon="2.5251">
        <ele>122</ele>
        <time>2017-11-19T10:48:33Z</time>
      </trkpt>
      <trkpt lat="48.39465" lon="2.52496">
        <ele>121</ele>
        <time>2017-11-19T10:48:35Z</time>
      </trkpt>
      <trkpt lat="48.39465" lon="2.52482">
        <ele>120</ele>
        <time>2017-11-19T10:48:37Z</time>
      </trkpt>
      <trkpt lat="48.39467" lon="2.52471">
        <ele>120</ele>
        <time>2017-11-19T10:48:39Z</time>
      </trkpt>
      <trkpt lat="48.39468" lon="2.5246">
        <ele>120</ele>
        <time>2017-11-19T10:48:41Z</time>
      </trkpt>
      <trkpt lat="48.39469" lon="2.52449">
        <ele>120</ele>
        <time>2017-11-19T10:48:43Z</time>
      </trkpt>
      <trkpt lat="48.39467" lon="2.52437">
        <ele>120</ele>
        <time>2017-11-19T10:48:45Z</time>
      </trkpt>
      <trkpt lat="48.39468" lon="2.52424">
        <ele>120</ele>
        <time>2017-11-19T10:48:47Z</time>
      </trkpt>
      <trkpt lat="48.39462" lon="2.52407">
        <ele>118</ele>
        <time>2017-11-19T10:48:49Z</time>
      </trkpt>
      <trkpt lat="48.39457" lon="2.52394">
        <ele>118</ele>
        <time>2017-11-19T10:48:51Z</time>
      </trkpt>
      <trkpt lat="48.39451" lon="2.52381">
        <ele>118</ele>
        <time>2017-11-19T10:48:53Z</time>
      </trkpt>
      <trkpt lat="48.39444" lon="2.52368">
        <ele>118</ele>
        <time>2017-11-19T10:48:55Z</time>
      </trkpt>
      <trkpt lat="48.39438" lon="2.52352">
        <ele>117</ele>
        <time>2017-11-19T10:48:57Z</time>
      </trkpt>
      <trkpt lat="48.39434" lon="2.52336">
        <ele>117</ele>
        <time>2017-11-19T10:48:59Z</time>
      </trkpt>
      <trkpt lat="48.39429" lon="2.52322">
        <ele>117</ele>
        <time>2017-11-19T10:49:01Z</time>
      </trkpt>
      <trkpt lat="48.39425" lon="2.52307">
        <ele>117</ele>
        <time>2017-11-19T10:49:03Z</time>
      </trkpt>
      <trkpt lat="48.39422" lon="2.52291">
        <ele>117</ele>
        <time>2017-11-19T10:49:05Z</time>
      </trkpt>
      <trkpt lat="48.39418" lon="2.52274">
        <ele>117</ele>
        <time>2017-11-19T10:49:07Z</time>
      </trkpt>
      <trkpt lat="48.39417" lon="2.52259">
        <ele>116</ele>
        <time>2017-11-19T10:49:09Z</time>
      </trkpt>
      <trkpt lat="48.39417" lon="2.52246">
        <ele>115</ele>
        <time>2017-11-19T10:49:11Z</time>
      </trkpt>
      <trkpt lat="48.39418" lon="2.52232">
        <ele>116</ele>
        <time>2017-11-19T10:49:13Z</time>
      </trkpt>
      <trkpt lat="48.39419" lon="2.52218">
        <ele>116</ele>
        <time>2017-11-19T10:49:15Z</time>
      </trkpt>
      <trkpt lat="48.39423" lon="2.52206">
        <ele>116</ele>
        <time>2017-11-19T10:49:17Z</time>
      </trkpt>
      <trkpt lat="48.39426" lon="2.52191">
        <ele>116</ele>
        <time>2017-11-19T10:49:19Z</time>
      </trkpt>
      <trkpt lat="48.39428" lon="2.52174">
        <ele>115</ele>
        <time>2017-11-19T10:49:21Z</time>
      </trkpt>
      <trkpt lat="48.3943" lon="2.52157">
        <ele>115</ele>
        <time>2017-11-19T10:49:23Z</time>
      </trkpt>
      <trkpt lat="48.39431" lon="2.52142">
        <ele>116</ele>
        <time>2017-11-19T10:49:25Z</time>
      </trkpt>
      <trkpt lat="48.39432" lon="2.52125">
        <ele>116</ele>
        <time>2017-11-19T10:49:27Z</time>
      </trkpt>
      <trkpt lat="48.39434" lon="2.52109">
        <ele>116</ele>
        <time>2017-11-19T10:49:29Z</time>
      </trkpt>
      <trkpt lat="48.39439" lon="2.52094">
        <ele>116</ele>
        <time>2017-11-19T10:49:31Z</time>
      </trkpt>
      <trkpt lat="48.39441" lon="2.52076">
        <ele>115</ele>
        <time>2017-11-19T10:49:33Z</time>
      </trkpt>
      <trkpt lat="48.39439" lon="2.52057">
        <ele>114</ele>
        <time>2017-11-19T10:49:35Z</time>
      </trkpt>
      <trkpt lat="48.39439" lon="2.52039">
        <ele>114</ele>
        <time>2017-11-19T10:49:37Z</time>
      </trkpt>
      <trkpt lat="48.39441" lon="2.52022">
        <ele>114</ele>
        <time>2017-11-19T10:49:39Z</time>
      </trkpt>
      <trkpt lat="48.39447" lon="2.52005">
        <ele>114</ele>
        <time>2017-11-19T10:49:41Z</time>
      </trkpt>
      <trkpt lat="48.39453" lon="2.51989">
        <ele>111</ele>
        <time>2017-11-19T10:49:43Z</time>
      </trkpt>
      <trkpt lat="48.39456" lon="2.51972">
        <ele>111</ele>
        <time>2017-11-19T10:49:45Z</time>
      </trkpt>
      <trkpt lat="48.39461" lon="2.51957">
        <ele>111</ele>
        <time>2017-11-19T10:49:47Z</time>
      </trkpt>
      <trkpt lat="48.39467" lon="2.51944">
        <ele>110</ele>
        <time>2017-11-19T10:49:49Z</time>
      </trkpt>
      <trkpt lat="48.39472" lon="2.51932">
        <ele>110</ele>
        <time>2017-11-19T10:49:51Z</time>
      </trkpt>
      <trkpt lat="48.39475" lon="2.51917">
        <ele>107</ele>
        <time>2017-11-19T10:49:53Z</time>
      </trkpt>
      <trkpt lat="48.39481" lon="2.51905">
        <ele>107</ele>
        <time>2017-11-19T10:49:55Z</time>
      </trkpt>
      <trkpt lat="48.39486" lon="2.51895">
        <ele>107</ele>
        <time>2017-11-19T10:49:57Z</time>
      </trkpt>
      <trkpt lat="48.39489" lon="2.51884">
        <ele>107</ele>
        <time>2017-11-19T10:49:59Z</time>
      </trkpt>
      <trkpt lat="48.39493" lon="2.51875">
        <ele>106</ele>
        <time>2017-11-19T10:50:01Z</time>
      </trkpt>
      <trkpt lat="48.39498" lon="2.51864">
        <ele>106</ele>
        <time>2017-11-19T10:50:03Z</time>
      </trkpt>
      <trkpt lat="48.39501" lon="2.51851">
        <ele>106</ele>
        <time>2017-11-19T10:50:05Z</time>
      </trkpt>
      <trkpt lat="48.39501" lon="2.51837">
        <ele>103</ele>
        <time>2017-11-19T10:50:07Z</time>
      </trkpt>
      <trkpt lat="48.39504" lon="2.51823">
        <ele>103</ele>
        <time>2017-11-19T10:50:09Z</time>
      </trkpt>
      <trkpt lat="48.39507" lon="2.5181">
        <ele>103</ele>
        <time>2017-11-19T10:50:11Z</time>
      </trkpt>
      <trkpt lat="48.39511" lon="2.51797">
        <ele>103</ele>
        <time>2017-11-19T10:50:13Z</time>
      </trkpt>
      <trkpt lat="48.39512" lon="2.51785">
        <ele>102</ele>
        <time>2017-11-19T10:50:15Z</time>
      </trkpt>
      <trkpt lat="48.39515" lon="2.51774">
        <ele>102</ele>
        <time>2017-11-19T10:50:17Z</time>
      </trkpt>
      <trkpt lat="48.39516" lon="2.51766">
        <ele>101</ele>
        <time>2017-11-19T10:50:19Z</time>
      </trkpt>
      <trkpt lat="48.39514" lon="2.5176">
        <ele>100</ele>
        <time>2017-11-19T10:50:21Z</time>
      </trkpt>
      <trkpt lat="48.39512" lon="2.51753">
        <ele>99</ele>
        <time>2017-11-19T10:50:23Z</time>
      </trkpt>
      <trkpt lat="48.3951" lon="2.51746">
        <ele>97</ele>
        <time>2017-11-19T10:50:25Z</time>
      </trkpt>
      <trkpt lat="48.39508" lon="2.51738">
        <ele>97</ele>
        <time>2017-11-19T10:50:27Z</time>
      </trkpt>
      <trkpt lat="48.39508" lon="2.51727">
        <ele>98</ele>
        <time>2017-11-19T10:50:29Z</time>
      </trkpt>
      <trkpt lat="48.39509" lon="2.51716">
        <ele>98</ele>
        <time>2017-11-19T10:50:31Z</time>
      </trkpt>
      <trkpt lat="48.39511" lon="2.51707">
        <ele>98</ele>
        <time>2017-11-19T10:50:33Z</time>
      </trkpt>
      <trkpt lat="48.39512" lon="2.51696">
        <ele>98</ele>
        <time>2017-11-19T10:50:35Z</time>
      </trkpt>
      <trkpt lat="48.39513" lon="2.51686">
        <ele>97</ele>
        <time>2017-11-19T10:50:37Z</time>
      </trkpt>
      <trkpt lat="48.39514" lon="2.51674">
        <ele>97</ele>
        <time>2017-11-19T10:50:39Z</time>
      </trkpt>
      <trkpt lat="48.39515" lon="2.51662">
        <ele>95</ele>
        <time>2017-11-19T10:50:41Z</time>
      </trkpt>
      <trkpt lat="48.39517" lon="2.5165">
        <ele>95</ele>
        <time>2017-11-19T10:50:43Z</time>
      </trkpt>
      <trkpt lat="48.39518" lon="2.51639">
        <ele>95</ele>
        <time>2017-11-19T10:50:45Z</time>
      </trkpt>
      <trkpt lat="48.39518" lon="2.51628">
        <ele>95</ele>
        <time>2017-11-19T10:50:47Z</time>
      </trkpt>
      <trkpt lat="48.39517" lon="2.51621">
        <ele>95</ele>
        <time>2017-11-19T10:50:49Z</time>
      </trkpt>
      <trkpt lat="48.39519" lon="2.51609">
        <ele>94</ele>
        <time>2017-11-19T10:50:53Z</time>
      </trkpt>
      <trkpt lat="48.39519" lon="2.51602">
        <ele>94</ele>
        <time>2017-11-19T10:50:55Z</time>
      </trkpt>
      <trkpt lat="48.39519" lon="2.51593">
        <ele>94</ele>
        <time>2017-11-19T10:50:57Z</time>
      </trkpt>
      <trkpt lat="48.39519" lon="2.51584">
        <ele>94</ele>
        <time>2017-11-19T10:50:59Z</time>
      </trkpt>
      <trkpt lat="48.39518" lon="2.51574">
        <ele>91</ele>
        <time>2017-11-19T10:51:01Z</time>
      </trkpt>
      <trkpt lat="48.39519" lon="2.51563">
        <ele>91</ele>
        <time>2017-11-19T10:51:03Z</time>
      </trkpt>
      <trkpt lat="48.39521" lon="2.5155">
        <ele>90</ele>
        <time>2017-11-19T10:51:05Z</time>
      </trkpt>
      <trkpt lat="48.39523" lon="2.51532">
        <ele>90</ele>
        <time>2017-11-19T10:51:07Z</time>
      </trkpt>
      <trkpt lat="48.39527" lon="2.51519">
        <ele>89</ele>
        <time>2017-11-19T10:51:09Z</time>
      </trkpt>
      <trkpt lat="48.39529" lon="2.51502">
        <ele>89</ele>
        <time>2017-11-19T10:51:11Z</time>
      </trkpt>
      <trkpt lat="48.39531" lon="2.51484">
        <ele>85</ele>
        <time>2017-11-19T10:51:13Z</time>
      </trkpt>
      <trkpt lat="48.39538" lon="2.51463">
        <ele>84</ele>
        <time>2017-11-19T10:51:15Z</time>
      </trkpt>
      <trkpt lat="48.39546" lon="2.51445">
        <ele>83</ele>
        <time>2017-11-19T10:51:17Z</time>
      </trkpt>
      <trkpt lat="48.39551" lon="2.51433">
        <ele>83</ele>
        <time>2017-11-19T10:51:19Z</time>
      </trkpt>
      <trkpt lat="48.39561" lon="2.51425">
        <ele>82</ele>
        <time>2017-11-19T10:51:21Z</time>
      </trkpt>
      <trkpt lat="48.39574" lon="2.51419">
        <ele>81</ele>
        <time>2017-11-19T10:51:23Z</time>
      </trkpt>
      <trkpt lat="48.39586" lon="2.51417">
        <ele>79</ele>
        <time>2017-11-19T10:51:25Z</time>
      </trkpt>
      <trkpt lat="48.39596" lon="2.51423">
        <ele>80</ele>
        <time>2017-11-19T10:51:27Z</time>
      </trkpt>
      <trkpt lat="48.39607" lon="2.51431">
        <ele>80</ele>
        <time>2017-11-19T10:51:29Z</time>
      </trkpt>
      <trkpt lat="48.39616" lon="2.51429">
        <ele>80</ele>
        <time>2017-11-19T10:51:31Z</time>
      </trkpt>
      <trkpt lat="48.39622" lon="2.51419">
        <ele>80</ele>
        <time>2017-11-19T10:51:33Z</time>
      </trkpt>
      <trkpt lat="48.39629" lon="2.5141">
        <ele>79</ele>
        <time>2017-11-19T10:51:35Z</time>
      </trkpt>
      <trkpt lat="48.39637" lon="2.514">
        <ele>79</ele>
        <time>2017-11-19T10:51:37Z</time>
      </trkpt>
      <trkpt lat="48.39646" lon="2.51391">
        <ele>79</ele>
        <time>2017-11-19T10:51:39Z</time>
      </trkpt>
      <trkpt lat="48.39654" lon="2.51385">
        <ele>79</ele>
        <time>2017-11-19T10:51:41Z</time>
      </trkpt>
      <trkpt lat="48.3966" lon="2.51374">
        <ele>79</ele>
        <time>2017-11-19T10:51:43Z</time>
      </trkpt>
      <trkpt lat="48.39665" lon="2.51362">
        <ele>79</ele>
        <time>2017-11-19T10:51:45Z</time>
      </trkpt>
      <trkpt lat="48.39667" lon="2.51347">
        <ele>79</ele>
        <time>2017-11-19T10:51:47Z</time>
      </trkpt>
      <trkpt lat="48.39669" lon="2.51331">
        <ele>79</ele>
        <time>2017-11-19T10:51:49Z</time>
      </trkpt>
      <trkpt lat="48.39672" lon="2.51315">
        <ele>79</ele>
        <time>2017-11-19T10:51:51Z</time>
      </trkpt>
      <trkpt lat="48.39676" lon="2.51299">
        <ele>79</ele>
        <time>2017-11-19T10:51:53Z</time>
      </trkpt>
      <trkpt lat="48.3968" lon="2.51283">
        <ele>79</ele>
        <time>2017-11-19T10:51:55Z</time>
      </trkpt>
      <trkpt lat="48.39683" lon="2.51266">
        <ele>79</ele>
        <time>2017-11-19T10:51:57Z</time>
      </trkpt>
      <trkpt lat="48.39687" lon="2.51253">
        <ele>79</ele>
        <time>2017-11-19T10:51:59Z</time>
      </trkpt>
      <trkpt lat="48.3969" lon="2.51239">
        <ele>79</ele>
        <time>2017-11-19T10:52:01Z</time>
      </trkpt>
      <trkpt lat="48.39693" lon="2.51226">
        <ele>79</ele>
        <time>2017-11-19T10:52:03Z</time>
      </trkpt>
      <trkpt lat="48.39696" lon="2.51213">
        <ele>79</ele>
        <time>2017-11-19T10:52:05Z</time>
      </trkpt>
      <trkpt lat="48.397" lon="2.51204">
        <ele>79</ele>
        <time>2017-11-19T10:52:07Z</time>
      </trkpt>
      <trkpt lat="48.39702" lon="2.51194">
        <ele>79</ele>
        <time>2017-11-19T10:52:09Z</time>
      </trkpt>
      <trkpt lat="48.39704" lon="2.51187">
        <ele>79</ele>
        <time>2017-11-19T10:52:11Z</time>
      </trkpt>
      <trkpt lat="48.39709" lon="2.51179">
        <ele>78</ele>
        <time>2017-11-19T10:52:15Z</time>
      </trkpt>
      <trkpt lat="48.39707" lon="2.51166">
        <ele>79</ele>
        <time>2017-11-19T10:52:19Z</time>
      </trkpt>
      <trkpt lat="48.39703" lon="2.5116">
        <ele>79</ele>
        <time>2017-11-19T10:52:21Z</time>
      </trkpt>
      <trkpt lat="48.39699" lon="2.51153">
        <ele>79</ele>
        <time>2017-11-19T10:52:23Z</time>
      </trkpt>
      <trkpt lat="48.39695" lon="2.51144">
        <ele>79</ele>
        <time>2017-11-19T10:52:25Z</time>
      </trkpt>
      <trkpt lat="48.39689" lon="2.51135">
        <ele>79</ele>
        <time>2017-11-19T10:52:27Z</time>
      </trkpt>
      <trkpt lat="48.39685" lon="2.51126">
        <ele>79</ele>
        <time>2017-11-19T10:52:29Z</time>
      </trkpt>
      <trkpt lat="48.39681" lon="2.51117">
        <ele>80</ele>
        <time>2017-11-19T10:52:31Z</time>
      </trkpt>
      <trkpt lat="48.39675" lon="2.5111">
        <ele>80</ele>
        <time>2017-11-19T10:52:33Z</time>
      </trkpt>
      <trkpt lat="48.39669" lon="2.51102">
        <ele>80</ele>
        <time>2017-11-19T10:52:35Z</time>
      </trkpt>
      <trkpt lat="48.39664" lon="2.51092">
        <ele>81</ele>
        <time>2017-11-19T10:52:37Z</time>
      </trkpt>
      <trkpt lat="48.39658" lon="2.51082">
        <ele>81</ele>
        <time>2017-11-19T10:52:39Z</time>
      </trkpt>
      <trkpt lat="48.39653" lon="2.51072">
        <ele>82</ele>
        <time>2017-11-19T10:52:41Z</time>
      </trkpt>
      <trkpt lat="48.39648" lon="2.5106">
        <ele>82</ele>
        <time>2017-11-19T10:52:43Z</time>
      </trkpt>
      <trkpt lat="48.39644" lon="2.5105">
        <ele>82</ele>
        <time>2017-11-19T10:52:45Z</time>
      </trkpt>
      <trkpt lat="48.39639" lon="2.51039">
        <ele>82</ele>
        <time>2017-11-19T10:52:47Z</time>
      </trkpt>
      <trkpt lat="48.39634" lon="2.51029">
        <ele>82</ele>
        <time>2017-11-19T10:52:49Z</time>
      </trkpt>
      <trkpt lat="48.39629" lon="2.51019">
        <ele>82</ele>
        <time>2017-11-19T10:52:51Z</time>
      </trkpt>
      <trkpt lat="48.39626" lon="2.51008">
        <ele>82</ele>
        <time>2017-11-19T10:52:53Z</time>
      </trkpt>
      <trkpt lat="48.39623" lon="2.50999">
        <ele>82</ele>
        <time>2017-11-19T10:52:55Z</time>
      </trkpt>
      <trkpt lat="48.3962" lon="2.50989">
        <ele>82</ele>
        <time>2017-11-19T10:52:57Z</time>
      </trkpt>
      <trkpt lat="48.39616" lon="2.5098">
        <ele>82</ele>
        <time>2017-11-19T10:52:59Z</time>
      </trkpt>
      <trkpt lat="48.39613" lon="2.50971">
        <ele>82</ele>
        <time>2017-11-19T10:53:01Z</time>
      </trkpt>
      <trkpt lat="48.3961" lon="2.50961">
        <ele>82</ele>
        <time>2017-11-19T10:53:03Z</time>
      </trkpt>
      <trkpt lat="48.39607" lon="2.50953">
        <ele>82</ele>
        <time>2017-11-19T10:53:05Z</time>
      </trkpt>
      <trkpt lat="48.39604" lon="2.50946">
        <ele>82</ele>
        <time>2017-11-19T10:53:07Z</time>
      </trkpt>
      <trkpt lat="48.396" lon="2.50937">
        <ele>83</ele>
        <time>2017-11-19T10:53:09Z</time>
      </trkpt>
      <trkpt lat="48.39597" lon="2.50929">
        <ele>83</ele>
        <time>2017-11-19T10:53:11Z</time>
      </trkpt>
      <trkpt lat="48.39594" lon="2.5092">
        <ele>83</ele>
        <time>2017-11-19T10:53:13Z</time>
      </trkpt>
      <trkpt lat="48.3959" lon="2.50907">
        <ele>83</ele>
        <time>2017-11-19T10:53:17Z</time>
      </trkpt>
      <trkpt lat="48.39587" lon="2.50899">
        <ele>83</ele>
        <time>2017-11-19T10:53:19Z</time>
      </trkpt>
      <trkpt lat="48.39584" lon="2.50892">
        <ele>83</ele>
        <time>2017-11-19T10:53:21Z</time>
      </trkpt>
      <trkpt lat="48.39582" lon="2.50886">
        <ele>87</ele>
        <time>2017-11-19T10:53:23Z</time>
      </trkpt>
      <trkpt lat="48.39578" lon="2.50878">
        <ele>87</ele>
        <time>2017-11-19T10:53:25Z</time>
      </trkpt>
      <trkpt lat="48.39575" lon="2.50872">
        <ele>87</ele>
        <time>2017-11-19T10:53:27Z</time>
      </trkpt>
      <trkpt lat="48.39572" lon="2.50865">
        <ele>87</ele>
        <time>2017-11-19T10:53:29Z</time>
      </trkpt>
      <trkpt lat="48.39569" lon="2.5086">
        <ele>87</ele>
        <time>2017-11-19T10:53:31Z</time>
      </trkpt>
      <trkpt lat="48.39565" lon="2.5085">
        <ele>87</ele>
        <time>2017-11-19T10:53:35Z</time>
      </trkpt>
      <trkpt lat="48.39559" lon="2.50839">
        <ele>87</ele>
        <time>2017-11-19T10:53:39Z</time>
      </trkpt>
      <trkpt lat="48.39555" lon="2.50834">
        <ele>87</ele>
        <time>2017-11-19T10:53:41Z</time>
      </trkpt>
      <trkpt lat="48.39551" lon="2.50828">
        <ele>87</ele>
        <time>2017-11-19T10:53:43Z</time>
      </trkpt>
      <trkpt lat="48.39545" lon="2.50819">
        <ele>88</ele>
        <time>2017-11-19T10:53:47Z</time>
      </trkpt>
      <trkpt lat="48.39537" lon="2.5081">
        <ele>88</ele>
        <time>2017-11-19T10:53:51Z</time>
      </trkpt>
      <trkpt lat="48.39534" lon="2.50804">
        <ele>88</ele>
        <time>2017-11-19T10:53:53Z</time>
      </trkpt>
      <trkpt lat="48.39527" lon="2.50796">
        <ele>88</ele>
        <time>2017-11-19T10:53:57Z</time>
      </trkpt>
      <trkpt lat="48.39523" lon="2.5079">
        <ele>88</ele>
        <time>2017-11-19T10:53:59Z</time>
      </trkpt>
      <trkpt lat="48.39518" lon="2.50785">
        <ele>88</ele>
        <time>2017-11-19T10:54:01Z</time>
      </trkpt>
      <trkpt lat="48.39514" lon="2.50777">
        <ele>88</ele>
        <time>2017-11-19T10:54:03Z</time>
      </trkpt>
      <trkpt lat="48.39509" lon="2.50771">
        <ele>88</ele>
        <time>2017-11-19T10:54:05Z</time>
      </trkpt>
      <trkpt lat="48.39502" lon="2.50759">
        <ele>89</ele>
        <time>2017-11-19T10:54:09Z</time>
      </trkpt>
      <trkpt lat="48.39496" lon="2.50754">
        <ele>89</ele>
        <time>2017-11-19T10:54:11Z</time>
      </trkpt>
      <trkpt lat="48.39492" lon="2.50748">
        <ele>88</ele>
        <time>2017-11-19T10:54:13Z</time>
      </trkpt>
      <trkpt lat="48.39486" lon="2.50742">
        <ele>88</ele>
        <time>2017-11-19T10:54:15Z</time>
      </trkpt>
      <trkpt lat="48.3948" lon="2.50737">
        <ele>87</ele>
        <time>2017-11-19T10:54:17Z</time>
      </trkpt>
      <trkpt lat="48.39475" lon="2.50731">
        <ele>87</ele>
        <time>2017-11-19T10:54:19Z</time>
      </trkpt>
      <trkpt lat="48.39468" lon="2.50724">
        <ele>87</ele>
        <time>2017-11-19T10:54:21Z</time>
      </trkpt>
      <trkpt lat="48.39462" lon="2.50717">
        <ele>87</ele>
        <time>2017-11-19T10:54:23Z</time>
      </trkpt>
      <trkpt lat="48.39457" lon="2.50706">
        <ele>86</ele>
        <time>2017-11-19T10:54:25Z</time>
      </trkpt>
      <trkpt lat="48.39451" lon="2.50697">
        <ele>86</ele>
        <time>2017-11-19T10:54:27Z</time>
      </trkpt>
      <trkpt lat="48.39444" lon="2.5069">
        <ele>86</ele>
        <time>2017-11-19T10:54:29Z</time>
      </trkpt>
      <trkpt lat="48.39439" lon="2.50682">
        <ele>85</ele>
        <time>2017-11-19T10:54:31Z</time>
      </trkpt>
      <trkpt lat="48.39433" lon="2.50677">
        <ele>85</ele>
        <time>2017-11-19T10:54:33Z</time>
      </trkpt>
      <trkpt lat="48.39427" lon="2.50672">
        <ele>84</ele>
        <time>2017-11-19T10:54:35Z</time>
      </trkpt>
      <trkpt lat="48.39423" lon="2.50662">
        <ele>83</ele>
        <time>2017-11-19T10:54:37Z</time>
      </trkpt>
      <trkpt lat="48.39419" lon="2.50654">
        <ele>83</ele>
        <time>2017-11-19T10:54:39Z</time>
      </trkpt>
      <trkpt lat="48.39414" lon="2.50646">
        <ele>83</ele>
        <time>2017-11-19T10:54:41Z</time>
      </trkpt>
      <trkpt lat="48.39409" lon="2.50636">
        <ele>83</ele>
        <time>2017-11-19T10:54:43Z</time>
      </trkpt>
      <trkpt lat="48.39404" lon="2.50625">
        <ele>83</ele>
        <time>2017-11-19T10:54:45Z</time>
      </trkpt>
      <trkpt lat="48.394" lon="2.50614">
        <ele>83</ele>
        <time>2017-11-19T10:54:47Z</time>
      </trkpt>
      <trkpt lat="48.39395" lon="2.50604">
        <ele>82</ele>
        <time>2017-11-19T10:54:49Z</time>
      </trkpt>
      <trkpt lat="48.39389" lon="2.50593">
        <ele>82</ele>
        <time>2017-11-19T10:54:51Z</time>
      </trkpt>
      <trkpt lat="48.39385" lon="2.50579">
        <ele>81</ele>
        <time>2017-11-19T10:54:53Z</time>
      </trkpt>
      <trkpt lat="48.3938" lon="2.50564">
        <ele>81</ele>
        <time>2017-11-19T10:54:55Z</time>
      </trkpt>
      <trkpt lat="48.39374" lon="2.50549">
        <ele>80</ele>
        <time>2017-11-19T10:54:57Z</time>
      </trkpt>
      <trkpt lat="48.39369" lon="2.50533">
        <ele>80</ele>
        <time>2017-11-19T10:54:59Z</time>
      </trkpt>
      <trkpt lat="48.39364" lon="2.50518">
        <ele>80</ele>
        <time>2017-11-19T10:55:01Z</time>
      </trkpt>
      <trkpt lat="48.39359" lon="2.50504">
        <ele>79</ele>
        <time>2017-11-19T10:55:03Z</time>
      </trkpt>
      <trkpt lat="48.39354" lon="2.50491">
        <ele>78</ele>
        <time>2017-11-19T10:55:05Z</time>
      </trkpt>
      <trkpt lat="48.39349" lon="2.50478">
        <ele>78</ele>
        <time>2017-11-19T10:55:07Z</time>
      </trkpt>
      <trkpt lat="48.39345" lon="2.50467">
        <ele>78</ele>
        <time>2017-11-19T10:55:09Z</time>
      </trkpt>
      <trkpt lat="48.39339" lon="2.50455">
        <ele>77</ele>
        <time>2017-11-19T10:55:11Z</time>
      </trkpt>
      <trkpt lat="48.39334" lon="2.50442">
        <ele>77</ele>
        <time>2017-11-19T10:55:13Z</time>
      </trkpt>
      <trkpt lat="48.39331" lon="2.50429">
        <ele>77</ele>
        <time>2017-11-19T10:55:15Z</time>
      </trkpt>
      <trkpt lat="48.39328" lon="2.5042">
        <ele>77</ele>
        <time>2017-11-19T10:55:17Z</time>
      </trkpt>
      <trkpt lat="48.39325" lon="2.50411">
        <ele>77</ele>
        <time>2017-11-19T10:55:19Z</time>
      </trkpt>
      <trkpt lat="48.39322" lon="2.50401">
        <ele>77</ele>
        <time>2017-11-19T10:55:21Z</time>
      </trkpt>
      <trkpt lat="48.39319" lon="2.50389">
        <ele>77</ele>
        <time>2017-11-19T10:55:23Z</time>
      </trkpt>
      <trkpt lat="48.39315" lon="2.50375">
        <ele>77</ele>
        <time>2017-11-19T10:55:25Z</time>
      </trkpt>
      <trkpt lat="48.3931" lon="2.50361">
        <ele>76</ele>
        <time>2017-11-19T10:55:27Z</time>
      </trkpt>
      <trkpt lat="48.39305" lon="2.50346">
        <ele>76</ele>
        <time>2017-11-19T10:55:29Z</time>
      </trkpt>
      <trkpt lat="48.393" lon="2.50333">
        <ele>76</ele>
        <time>2017-11-19T10:55:31Z</time>
      </trkpt>
      <trkpt lat="48.39296" lon="2.50321">
        <ele>75</ele>
        <time>2017-11-19T10:55:33Z</time>
      </trkpt>
      <trkpt lat="48.39293" lon="2.5031">
        <ele>75</ele>
        <time>2017-11-19T10:55:35Z</time>
      </trkpt>
      <trkpt lat="48.39289" lon="2.50296">
        <ele>75</ele>
        <time>2017-11-19T10:55:37Z</time>
      </trkpt>
      <trkpt lat="48.39289" lon="2.5028">
        <ele>74</ele>
        <time>2017-11-19T10:55:39Z</time>
      </trkpt>
      <trkpt lat="48.39296" lon="2.50268">
        <ele>74</ele>
        <time>2017-11-19T10:55:41Z</time>
      </trkpt>
      <trkpt lat="48.39305" lon="2.50259">
        <ele>74</ele>
        <time>2017-11-19T10:55:43Z</time>
      </trkpt>
      <trkpt lat="48.39314" lon="2.50251">
        <ele>74</ele>
        <time>2017-11-19T10:55:45Z</time>
      </trkpt>
      <trkpt lat="48.39323" lon="2.50241">
        <ele>74</ele>
        <time>2017-11-19T10:55:47Z</time>
      </trkpt>
      <trkpt lat="48.39333" lon="2.50232">
        <ele>74</ele>
        <time>2017-11-19T10:55:49Z</time>
      </trkpt>
      <trkpt lat="48.39342" lon="2.50222">
        <ele>75</ele>
        <time>2017-11-19T10:55:51Z</time>
      </trkpt>
      <trkpt lat="48.39351" lon="2.50213">
        <ele>75</ele>
        <time>2017-11-19T10:55:53Z</time>
      </trkpt>
      <trkpt lat="48.39361" lon="2.50205">
        <ele>75</ele>
        <time>2017-11-19T10:55:55Z</time>
      </trkpt>
      <trkpt lat="48.39369" lon="2.50198">
        <ele>75</ele>
        <time>2017-11-19T10:55:57Z</time>
      </trkpt>
      <trkpt lat="48.39376" lon="2.50189">
        <ele>75</ele>
        <time>2017-11-19T10:55:59Z</time>
      </trkpt>
      <trkpt lat="48.39378" lon="2.5018">
        <ele>75</ele>
        <time>2017-11-19T10:56:01Z</time>
      </trkpt>
      <trkpt lat="48.39377" lon="2.50173">
        <ele>75</ele>
        <time>2017-11-19T10:56:03Z</time>
      </trkpt>
      <trkpt lat="48.3938" lon="2.50166">
        <ele>75</ele>
        <time>2017-11-19T10:56:05Z</time>
      </trkpt>
      <trkpt lat="48.39386" lon="2.50162">
        <ele>76</ele>
        <time>2017-11-19T10:56:07Z</time>
      </trkpt>
      <trkpt lat="48.39392" lon="2.50154">
        <ele>76</ele>
        <time>2017-11-19T10:56:09Z</time>
      </trkpt>
      <trkpt lat="48.394" lon="2.50149">
        <ele>76</ele>
        <time>2017-11-19T10:56:11Z</time>
      </trkpt>
      <trkpt lat="48.39404" lon="2.50142">
        <ele>76</ele>
        <time>2017-11-19T10:56:13Z</time>
      </trkpt>
      <trkpt lat="48.39404" lon="2.50135">
        <ele>76</ele>
        <time>2017-11-19T10:56:15Z</time>
      </trkpt>
      <trkpt lat="48.39409" lon="2.50131">
        <ele>76</ele>
        <time>2017-11-19T10:56:17Z</time>
      </trkpt>
      <trkpt lat="48.39415" lon="2.50123">
        <ele>76</ele>
        <time>2017-11-19T10:56:19Z</time>
      </trkpt>
      <trkpt lat="48.39419" lon="2.50115">
        <ele>77</ele>
        <time>2017-11-19T10:56:21Z</time>
      </trkpt>
      <trkpt lat="48.39424" lon="2.50111">
        <ele>77</ele>
        <time>2017-11-19T10:56:23Z</time>
      </trkpt>
      <trkpt lat="48.39426" lon="2.50102">
        <ele>76</ele>
        <time>2017-11-19T10:56:25Z</time>
      </trkpt>
      <trkpt lat="48.39429" lon="2.50093">
        <ele>76</ele>
        <time>2017-11-19T10:56:27Z</time>
      </trkpt>
      <trkpt lat="48.39432" lon="2.50082">
        <ele>77</ele>
        <time>2017-11-19T10:56:29Z</time>
      </trkpt>
      <trkpt lat="48.39437" lon="2.50077">
        <ele>77</ele>
        <time>2017-11-19T10:56:31Z</time>
      </trkpt>
      <trkpt lat="48.39445" lon="2.50077">
        <ele>77</ele>
        <time>2017-11-19T10:56:33Z</time>
      </trkpt>
      <trkpt lat="48.39451" lon="2.50074">
        <ele>77</ele>
        <time>2017-11-19T10:56:35Z</time>
      </trkpt>
      <trkpt lat="48.39455" lon="2.50068">
        <ele>77</ele>
        <time>2017-11-19T10:56:37Z</time>
      </trkpt>
      <trkpt lat="48.39462" lon="2.50069">
        <ele>77</ele>
        <time>2017-11-19T10:56:41Z</time>
      </trkpt>
      <trkpt lat="48.39465" lon="2.50058">
        <ele>77</ele>
        <time>2017-11-19T10:56:45Z</time>
      </trkpt>
      <trkpt lat="48.3947" lon="2.50052">
        <ele>77</ele>
        <time>2017-11-19T10:56:47Z</time>
      </trkpt>
      <trkpt lat="48.39475" lon="2.50047">
        <ele>77</ele>
        <time>2017-11-19T10:56:49Z</time>
      </trkpt>
      <trkpt lat="48.39479" lon="2.50041">
        <ele>77</ele>
        <time>2017-11-19T10:56:51Z</time>
      </trkpt>
      <trkpt lat="48.39483" lon="2.50037">
        <ele>77</ele>
        <time>2017-11-19T10:56:53Z</time>
      </trkpt>
      <trkpt lat="48.39488" lon="2.50031">
        <ele>77</ele>
        <time>2017-11-19T10:56:55Z</time>
      </trkpt>
      <trkpt lat="48.39493" lon="2.50027">
        <ele>77</ele>
        <time>2017-11-19T10:56:57Z</time>
      </trkpt>
      <trkpt lat="48.39498" lon="2.50023">
        <ele>77</ele>
        <time>2017-11-19T10:56:59Z</time>
      </trkpt>
      <trkpt lat="48.39502" lon="2.50016">
        <ele>77</ele>
        <time>2017-11-19T10:57:01Z</time>
      </trkpt>
      <trkpt lat="48.39508" lon="2.50012">
        <ele>77</ele>
        <time>2017-11-19T10:57:03Z</time>
      </trkpt>
      <trkpt lat="48.39512" lon="2.50008">
        <ele>77</ele>
        <time>2017-11-19T10:57:05Z</time>
      </trkpt>
      <trkpt lat="48.39517" lon="2.50003">
        <ele>77</ele>
        <time>2017-11-19T10:57:07Z</time>
      </trkpt>
      <trkpt lat="48.39523" lon="2.49997">
        <ele>76</ele>
        <time>2017-11-19T10:57:09Z</time>
      </trkpt>
      <trkpt lat="48.39528" lon="2.49988">
        <ele>76</ele>
        <time>2017-11-19T10:57:11Z</time>
      </trkpt>
      <trkpt lat="48.39531" lon="2.4998">
        <ele>76</ele>
        <time>2017-11-19T10:57:13Z</time>
      </trkpt>
      <trkpt lat="48.39539" lon="2.49972">
        <ele>76</ele>
        <time>2017-11-19T10:57:17Z</time>
      </trkpt>
      <trkpt lat="48.39544" lon="2.49967">
        <ele>76</ele>
        <time>2017-11-19T10:57:19Z</time>
      </trkpt>
      <trkpt lat="48.39547" lon="2.49961">
        <ele>75</ele>
        <time>2017-11-19T10:57:21Z</time>
      </trkpt>
      <trkpt lat="48.39551" lon="2.49954">
        <ele>75</ele>
        <time>2017-11-19T10:57:23Z</time>
      </trkpt>
      <trkpt lat="48.39553" lon="2.49947">
        <ele>75</ele>
        <time>2017-11-19T10:57:25Z</time>
      </trkpt>
      <trkpt lat="48.39556" lon="2.49938">
        <ele>75</ele>
        <time>2017-11-19T10:57:29Z</time>
      </trkpt>
      <trkpt lat="48.39561" lon="2.4994">
        <ele>75</ele>
        <time>2017-11-19T10:57:33Z</time>
      </trkpt>
      <trkpt lat="48.39566" lon="2.49944">
        <ele>75</ele>
        <time>2017-11-19T10:57:35Z</time>
      </trkpt>
      <trkpt lat="48.39572" lon="2.4995">
        <ele>75</ele>
        <time>2017-11-19T10:57:37Z</time>
      </trkpt>
      <trkpt lat="48.39578" lon="2.49957">
        <ele>75</ele>
        <time>2017-11-19T10:57:39Z</time>
      </trkpt>
      <trkpt lat="48.39582" lon="2.49963">
        <ele>75</ele>
        <time>2017-11-19T10:57:41Z</time>
      </trkpt>
      <trkpt lat="48.39585" lon="2.49968">
        <ele>74</ele>
        <time>2017-11-19T10:57:43Z</time>
      </trkpt>
      <trkpt lat="48.39589" lon="2.49974">
        <ele>74</ele>
        <time>2017-11-19T10:57:53Z</time>
      </trkpt>
      <trkpt lat="48.39589" lon="2.49981">
        <ele>75</ele>
        <time>2017-11-19T10:58:03Z</time>
      </trkpt>
      <trkpt lat="48.39586" lon="2.49985">
        <ele>75</ele>
        <time>2017-11-19T11:01:19Z</time>
      </trkpt>
      <trkpt lat="48.39587" lon="2.49978">
        <ele>75</ele>
        <time>2017-11-19T11:05:11Z</time>
      </trkpt>
      <trkpt lat="48.3959" lon="2.49973">
        <ele>74</ele>
        <time>2017-11-19T11:05:15Z</time>
      </trkpt>
      <trkpt lat="48.39595" lon="2.49967">
        <ele>74</ele>
        <time>2017-11-19T11:05:19Z</time>
      </trkpt>
      <trkpt lat="48.39599" lon="2.49962">
        <ele>74</ele>
        <time>2017-11-19T11:05:21Z</time>
      </trkpt>
      <trkpt lat="48.39604" lon="2.49956">
        <ele>73</ele>
        <time>2017-11-19T11:05:23Z</time>
      </trkpt>
      <trkpt lat="48.39611" lon="2.49948">
        <ele>73</ele>
        <time>2017-11-19T11:05:25Z</time>
      </trkpt>
      <trkpt lat="48.39617" lon="2.49941">
        <ele>73</ele>
        <time>2017-11-19T11:05:27Z</time>
      </trkpt>
      <trkpt lat="48.39622" lon="2.49932">
        <ele>73</ele>
        <time>2017-11-19T11:05:29Z</time>
      </trkpt>
      <trkpt lat="48.39628" lon="2.49925">
        <ele>72</ele>
        <time>2017-11-19T11:05:31Z</time>
      </trkpt>
      <trkpt lat="48.39634" lon="2.49918">
        <ele>72</ele>
        <time>2017-11-19T11:05:33Z</time>
      </trkpt>
      <trkpt lat="48.3964" lon="2.49909">
        <ele>70</ele>
        <time>2017-11-19T11:05:35Z</time>
      </trkpt>
      <trkpt lat="48.39645" lon="2.49901">
        <ele>70</ele>
        <time>2017-11-19T11:05:37Z</time>
      </trkpt>
      <trkpt lat="48.39649" lon="2.49892">
        <ele>70</ele>
        <time>2017-11-19T11:05:39Z</time>
      </trkpt>
      <trkpt lat="48.39654" lon="2.49884">
        <ele>70</ele>
        <time>2017-11-19T11:05:41Z</time>
      </trkpt>
      <trkpt lat="48.3966" lon="2.49875">
        <ele>70</ele>
        <time>2017-11-19T11:05:43Z</time>
      </trkpt>
      <trkpt lat="48.39665" lon="2.49865">
        <ele>69</ele>
        <time>2017-11-19T11:05:45Z</time>
      </trkpt>
      <trkpt lat="48.39667" lon="2.49852">
        <ele>68</ele>
        <time>2017-11-19T11:05:47Z</time>
      </trkpt>
      <trkpt lat="48.39664" lon="2.49841">
        <ele>69</ele>
        <time>2017-11-19T11:05:49Z</time>
      </trkpt>
      <trkpt lat="48.3966" lon="2.4983">
        <ele>68</ele>
        <time>2017-11-19T11:05:51Z</time>
      </trkpt>
      <trkpt lat="48.39657" lon="2.49819">
        <ele>68</ele>
        <time>2017-11-19T11:05:53Z</time>
      </trkpt>
      <trkpt lat="48.39654" lon="2.49807">
        <ele>68</ele>
        <time>2017-11-19T11:05:55Z</time>
      </trkpt>
      <trkpt lat="48.39651" lon="2.49796">
        <ele>68</ele>
        <time>2017-11-19T11:05:57Z</time>
      </trkpt>
      <trkpt lat="48.39649" lon="2.49785">
        <ele>68</ele>
        <time>2017-11-19T11:05:59Z</time>
      </trkpt>
      <trkpt lat="48.39646" lon="2.49775">
        <ele>68</ele>
        <time>2017-11-19T11:06:01Z</time>
      </trkpt>
      <trkpt lat="48.39643" lon="2.49764">
        <ele>68</ele>
        <time>2017-11-19T11:06:03Z</time>
      </trkpt>
      <trkpt lat="48.3964" lon="2.49753">
        <ele>68</ele>
        <time>2017-11-19T11:06:05Z</time>
      </trkpt>
      <trkpt lat="48.39637" lon="2.49742">
        <ele>68</ele>
        <time>2017-11-19T11:06:07Z</time>
      </trkpt>
      <trkpt lat="48.39633" lon="2.49731">
        <ele>68</ele>
        <time>2017-11-19T11:06:09Z</time>
      </trkpt>
      <trkpt lat="48.3963" lon="2.49719">
        <ele>68</ele>
        <time>2017-11-19T11:06:11Z</time>
      </trkpt>
      <trkpt lat="48.39628" lon="2.49708">
        <ele>68</ele>
        <time>2017-11-19T11:06:13Z</time>
      </trkpt>
      <trkpt lat="48.39624" lon="2.49697">
        <ele>68</ele>
        <time>2017-11-19T11:06:15Z</time>
      </trkpt>
      <trkpt lat="48.3962" lon="2.49686">
        <ele>68</ele>
        <time>2017-11-19T11:06:17Z</time>
      </trkpt>
      <trkpt lat="48.39617" lon="2.49673">
        <ele>68</ele>
        <time>2017-11-19T11:06:19Z</time>
      </trkpt>
      <trkpt lat="48.39614" lon="2.49661">
        <ele>68</ele>
        <time>2017-11-19T11:06:21Z</time>
      </trkpt>
      <trkpt lat="48.39611" lon="2.49651">
        <ele>67</ele>
        <time>2017-11-19T11:06:23Z</time>
      </trkpt>
      <trkpt lat="48.39609" lon="2.49641">
        <ele>67</ele>
        <time>2017-11-19T11:06:25Z</time>
      </trkpt>
      <trkpt lat="48.39607" lon="2.49631">
        <ele>67</ele>
        <time>2017-11-19T11:06:27Z</time>
      </trkpt>
      <trkpt lat="48.39605" lon="2.49622">
        <ele>67</ele>
        <time>2017-11-19T11:06:29Z</time>
      </trkpt>
      <trkpt lat="48.39602" lon="2.49612">
        <ele>67</ele>
        <time>2017-11-19T11:06:31Z</time>
      </trkpt>
      <trkpt lat="48.39601" lon="2.49602">
        <ele>67</ele>
        <time>2017-11-19T11:06:33Z</time>
      </trkpt>
      <trkpt lat="48.39598" lon="2.49591">
        <ele>67</ele>
        <time>2017-11-19T11:06:35Z</time>
      </trkpt>
      <trkpt lat="48.39596" lon="2.49581">
        <ele>67</ele>
        <time>2017-11-19T11:06:37Z</time>
      </trkpt>
      <trkpt lat="48.39594" lon="2.49571">
        <ele>67</ele>
        <time>2017-11-19T11:06:39Z</time>
      </trkpt>
      <trkpt lat="48.39592" lon="2.4956">
        <ele>67</ele>
        <time>2017-11-19T11:06:41Z</time>
      </trkpt>
      <trkpt lat="48.39589" lon="2.4955">
        <ele>67</ele>
        <time>2017-11-19T11:06:43Z</time>
      </trkpt>
      <trkpt lat="48.39587" lon="2.49539">
        <ele>67</ele>
        <time>2017-11-19T11:06:45Z</time>
      </trkpt>
      <trkpt lat="48.39585" lon="2.49528">
        <ele>67</ele>
        <time>2017-11-19T11:06:47Z</time>
      </trkpt>
      <trkpt lat="48.39583" lon="2.49517">
        <ele>68</ele>
        <time>2017-11-19T11:06:49Z</time>
      </trkpt>
      <trkpt lat="48.39581" lon="2.49506">
        <ele>68</ele>
        <time>2017-11-19T11:06:51Z</time>
      </trkpt>
      <trkpt lat="48.3958" lon="2.49494">
        <ele>68</ele>
        <time>2017-11-19T11:06:53Z</time>
      </trkpt>
      <trkpt lat="48.39578" lon="2.49483">
        <ele>68</ele>
        <time>2017-11-19T11:06:55Z</time>
      </trkpt>
      <trkpt lat="48.39576" lon="2.49471">
        <ele>67</ele>
        <time>2017-11-19T11:06:57Z</time>
      </trkpt>
      <trkpt lat="48.39573" lon="2.49458">
        <ele>67</ele>
        <time>2017-11-19T11:06:59Z</time>
      </trkpt>
      <trkpt lat="48.39571" lon="2.49447">
        <ele>67</ele>
        <time>2017-11-19T11:07:01Z</time>
      </trkpt>
      <trkpt lat="48.39569" lon="2.49435">
        <ele>66</ele>
        <time>2017-11-19T11:07:03Z</time>
      </trkpt>
      <trkpt lat="48.39566" lon="2.49424">
        <ele>66</ele>
        <time>2017-11-19T11:07:05Z</time>
      </trkpt>
      <trkpt lat="48.39565" lon="2.49412">
        <ele>66</ele>
        <time>2017-11-19T11:07:07Z</time>
      </trkpt>
      <trkpt lat="48.39563" lon="2.49401">
        <ele>66</ele>
        <time>2017-11-19T11:07:09Z</time>
      </trkpt>
      <trkpt lat="48.39561" lon="2.49389">
        <ele>66</ele>
        <time>2017-11-19T11:07:11Z</time>
      </trkpt>
      <trkpt lat="48.3956" lon="2.49378">
        <ele>66</ele>
        <time>2017-11-19T11:07:13Z</time>
      </trkpt>
      <trkpt lat="48.39559" lon="2.49369">
        <ele>66</ele>
        <time>2017-11-19T11:07:15Z</time>
      </trkpt>
      <trkpt lat="48.39558" lon="2.49359">
        <ele>66</ele>
        <time>2017-11-19T11:07:17Z</time>
      </trkpt>
      <trkpt lat="48.39557" lon="2.49349">
        <ele>66</ele>
        <time>2017-11-19T11:07:19Z</time>
      </trkpt>
      <trkpt lat="48.39556" lon="2.49338">
        <ele>66</ele>
        <time>2017-11-19T11:07:21Z</time>
      </trkpt>
      <trkpt lat="48.39555" lon="2.49327">
        <ele>68</ele>
        <time>2017-11-19T11:07:23Z</time>
      </trkpt>
      <trkpt lat="48.39554" lon="2.49317">
        <ele>68</ele>
        <time>2017-11-19T11:07:25Z</time>
      </trkpt>
      <trkpt lat="48.39553" lon="2.49306">
        <ele>68</ele>
        <time>2017-11-19T11:07:27Z</time>
      </trkpt>
      <trkpt lat="48.39552" lon="2.49296">
        <ele>69</ele>
        <time>2017-11-19T11:07:29Z</time>
      </trkpt>
      <trkpt lat="48.3955" lon="2.49285">
        <ele>69</ele>
        <time>2017-11-19T11:07:31Z</time>
      </trkpt>
      <trkpt lat="48.3955" lon="2.49275">
        <ele>69</ele>
        <time>2017-11-19T11:07:33Z</time>
      </trkpt>
      <trkpt lat="48.39548" lon="2.49267">
        <ele>69</ele>
        <time>2017-11-19T11:07:35Z</time>
      </trkpt>
      <trkpt lat="48.39547" lon="2.49258">
        <ele>69</ele>
        <time>2017-11-19T11:07:37Z</time>
      </trkpt>
      <trkpt lat="48.39547" lon="2.49248">
        <ele>68</ele>
        <time>2017-11-19T11:07:39Z</time>
      </trkpt>
      <trkpt lat="48.39546" lon="2.49238">
        <ele>68</ele>
        <time>2017-11-19T11:07:41Z</time>
      </trkpt>
      <trkpt lat="48.39546" lon="2.49228">
        <ele>68</ele>
        <time>2017-11-19T11:07:43Z</time>
      </trkpt>
      <trkpt lat="48.39545" lon="2.49218">
        <ele>68</ele>
        <time>2017-11-19T11:07:45Z</time>
      </trkpt>
      <trkpt lat="48.39545" lon="2.49208">
        <ele>67</ele>
        <time>2017-11-19T11:07:47Z</time>
      </trkpt>
      <trkpt lat="48.39545" lon="2.49198">
        <ele>67</ele>
        <time>2017-11-19T11:07:49Z</time>
      </trkpt>
      <trkpt lat="48.39546" lon="2.49187">
        <ele>67</ele>
        <time>2017-11-19T11:07:51Z</time>
      </trkpt>
      <trkpt lat="48.39546" lon="2.49174">
        <ele>66</ele>
        <time>2017-11-19T11:07:53Z</time>
      </trkpt>
      <trkpt lat="48.39547" lon="2.49163">
        <ele>64</ele>
        <time>2017-11-19T11:07:55Z</time>
      </trkpt>
      <trkpt lat="48.39548" lon="2.49151">
        <ele>64</ele>
        <time>2017-11-19T11:07:57Z</time>
      </trkpt>
      <trkpt lat="48.3955" lon="2.49139">
        <ele>64</ele>
        <time>2017-11-19T11:07:59Z</time>
      </trkpt>
      <trkpt lat="48.39552" lon="2.49128">
        <ele>64</ele>
        <time>2017-11-19T11:08:01Z</time>
      </trkpt>
      <trkpt lat="48.39553" lon="2.49116">
        <ele>64</ele>
        <time>2017-11-19T11:08:03Z</time>
      </trkpt>
      <trkpt lat="48.39555" lon="2.49104">
        <ele>64</ele>
        <time>2017-11-19T11:08:05Z</time>
      </trkpt>
      <trkpt lat="48.39558" lon="2.49092">
        <ele>64</ele>
        <time>2017-11-19T11:08:07Z</time>
      </trkpt>
      <trkpt lat="48.39559" lon="2.49081">
        <ele>65</ele>
        <time>2017-11-19T11:08:09Z</time>
      </trkpt>
      <trkpt lat="48.39562" lon="2.49069">
        <ele>65</ele>
        <time>2017-11-19T11:08:11Z</time>
      </trkpt>
      <trkpt lat="48.39563" lon="2.49058">
        <ele>65</ele>
        <time>2017-11-19T11:08:13Z</time>
      </trkpt>
      <trkpt lat="48.39565" lon="2.49048">
        <ele>65</ele>
        <time>2017-11-19T11:08:15Z</time>
      </trkpt>
      <trkpt lat="48.39567" lon="2.49038">
        <ele>65</ele>
        <time>2017-11-19T11:08:17Z</time>
      </trkpt>
      <trkpt lat="48.39568" lon="2.49028">
        <ele>65</ele>
        <time>2017-11-19T11:08:19Z</time>
      </trkpt>
      <trkpt lat="48.3957" lon="2.49018">
        <ele>65</ele>
        <time>2017-11-19T11:08:21Z</time>
      </trkpt>
      <trkpt lat="48.39572" lon="2.49009">
        <ele>65</ele>
        <time>2017-11-19T11:08:23Z</time>
      </trkpt>
      <trkpt lat="48.39574" lon="2.49">
        <ele>65</ele>
        <time>2017-11-19T11:08:25Z</time>
      </trkpt>
      <trkpt lat="48.39576" lon="2.4899">
        <ele>65</ele>
        <time>2017-11-19T11:08:27Z</time>
      </trkpt>
      <trkpt lat="48.39579" lon="2.4898">
        <ele>65</ele>
        <time>2017-11-19T11:08:29Z</time>
      </trkpt>
      <trkpt lat="48.39581" lon="2.4897">
        <ele>64</ele>
        <time>2017-11-19T11:08:31Z</time>
      </trkpt>
      <trkpt lat="48.39584" lon="2.48959">
        <ele>64</ele>
        <time>2017-11-19T11:08:33Z</time>
      </trkpt>
      <trkpt lat="48.39587" lon="2.48949">
        <ele>64</ele>
        <time>2017-11-19T11:08:35Z</time>
      </trkpt>
      <trkpt lat="48.39589" lon="2.4894">
        <ele>64</ele>
        <time>2017-11-19T11:08:37Z</time>
      </trkpt>
      <trkpt lat="48.39592" lon="2.48931">
        <ele>64</ele>
        <time>2017-11-19T11:08:39Z</time>
      </trkpt>
      <trkpt lat="48.39594" lon="2.48921">
        <ele>63</ele>
        <time>2017-11-19T11:08:41Z</time>
      </trkpt>
      <trkpt lat="48.39597" lon="2.48912">
        <ele>63</ele>
        <time>2017-11-19T11:08:43Z</time>
      </trkpt>
      <trkpt lat="48.39599" lon="2.48903">
        <ele>63</ele>
        <time>2017-11-19T11:08:45Z</time>
      </trkpt>
      <trkpt lat="48.39601" lon="2.48893">
        <ele>63</ele>
        <time>2017-11-19T11:08:47Z</time>
      </trkpt>
      <trkpt lat="48.39603" lon="2.48882">
        <ele>63</ele>
        <time>2017-11-19T11:08:49Z</time>
      </trkpt>
      <trkpt lat="48.39604" lon="2.48871">
        <ele>64</ele>
        <time>2017-11-19T11:08:51Z</time>
      </trkpt>
      <trkpt lat="48.39606" lon="2.48861">
        <ele>64</ele>
        <time>2017-11-19T11:08:53Z</time>
      </trkpt>
      <trkpt lat="48.39607" lon="2.48849">
        <ele>64</ele>
        <time>2017-11-19T11:08:55Z</time>
      </trkpt>
      <trkpt lat="48.39609" lon="2.48837">
        <ele>64</ele>
        <time>2017-11-19T11:08:57Z</time>
      </trkpt>
      <trkpt lat="48.3961" lon="2.48826">
        <ele>64</ele>
        <time>2017-11-19T11:08:59Z</time>
      </trkpt>
      <trkpt lat="48.39611" lon="2.48815">
        <ele>64</ele>
        <time>2017-11-19T11:09:01Z</time>
      </trkpt>
      <trkpt lat="48.39613" lon="2.48804">
        <ele>65</ele>
        <time>2017-11-19T11:09:03Z</time>
      </trkpt>
      <trkpt lat="48.39614" lon="2.48794">
        <ele>65</ele>
        <time>2017-11-19T11:09:05Z</time>
      </trkpt>
      <trkpt lat="48.39615" lon="2.48783">
        <ele>65</ele>
        <time>2017-11-19T11:09:07Z</time>
      </trkpt>
      <trkpt lat="48.39616" lon="2.48772">
        <ele>65</ele>
        <time>2017-11-19T11:09:09Z</time>
      </trkpt>
      <trkpt lat="48.39618" lon="2.48761">
        <ele>65</ele>
        <time>2017-11-19T11:09:11Z</time>
      </trkpt>
      <trkpt lat="48.39619" lon="2.4875">
        <ele>66</ele>
        <time>2017-11-19T11:09:13Z</time>
      </trkpt>
      <trkpt lat="48.39621" lon="2.48738">
        <ele>66</ele>
        <time>2017-11-19T11:09:15Z</time>
      </trkpt>
      <trkpt lat="48.39622" lon="2.48727">
        <ele>66</ele>
        <time>2017-11-19T11:09:17Z</time>
      </trkpt>
      <trkpt lat="48.39623" lon="2.48716">
        <ele>66</ele>
        <time>2017-11-19T11:09:19Z</time>
      </trkpt>
      <trkpt lat="48.39624" lon="2.48705">
        <ele>66</ele>
        <time>2017-11-19T11:09:21Z</time>
      </trkpt>
      <trkpt lat="48.39626" lon="2.48696">
        <ele>66</ele>
        <time>2017-11-19T11:09:23Z</time>
      </trkpt>
      <trkpt lat="48.39629" lon="2.48687">
        <ele>66</ele>
        <time>2017-11-19T11:09:25Z</time>
      </trkpt>
      <trkpt lat="48.39632" lon="2.48678">
        <ele>66</ele>
        <time>2017-11-19T11:09:27Z</time>
      </trkpt>
      <trkpt lat="48.39635" lon="2.48669">
        <ele>65</ele>
        <time>2017-11-19T11:09:29Z</time>
      </trkpt>
      <trkpt lat="48.39638" lon="2.48661">
        <ele>66</ele>
        <time>2017-11-19T11:09:31Z</time>
      </trkpt>
      <trkpt lat="48.39642" lon="2.48652">
        <ele>66</ele>
        <time>2017-11-19T11:09:33Z</time>
      </trkpt>
      <trkpt lat="48.39646" lon="2.48644">
        <ele>66</ele>
        <time>2017-11-19T11:09:35Z</time>
      </trkpt>
      <trkpt lat="48.3965" lon="2.48639">
        <ele>66</ele>
        <time>2017-11-19T11:09:37Z</time>
      </trkpt>
      <trkpt lat="48.39654" lon="2.48632">
        <ele>66</ele>
        <time>2017-11-19T11:09:39Z</time>
      </trkpt>
      <trkpt lat="48.39656" lon="2.48623">
        <ele>66</ele>
        <time>2017-11-19T11:09:41Z</time>
      </trkpt>
      <trkpt lat="48.39659" lon="2.48614">
        <ele>66</ele>
        <time>2017-11-19T11:09:43Z</time>
      </trkpt>
      <trkpt lat="48.39661" lon="2.48604">
        <ele>66</ele>
        <time>2017-11-19T11:09:45Z</time>
      </trkpt>
      <trkpt lat="48.39664" lon="2.48594">
        <ele>65</ele>
        <time>2017-11-19T11:09:47Z</time>
      </trkpt>
      <trkpt lat="48.39666" lon="2.48585">
        <ele>65</ele>
        <time>2017-11-19T11:09:49Z</time>
      </trkpt>
      <trkpt lat="48.39669" lon="2.48575">
        <ele>65</ele>
        <time>2017-11-19T11:09:51Z</time>
      </trkpt>
      <trkpt lat="48.39672" lon="2.48565">
        <ele>65</ele>
        <time>2017-11-19T11:09:53Z</time>
      </trkpt>
      <trkpt lat="48.39674" lon="2.48556">
        <ele>65</ele>
        <time>2017-11-19T11:09:55Z</time>
      </trkpt>
      <trkpt lat="48.39677" lon="2.48547">
        <ele>65</ele>
        <time>2017-11-19T11:09:57Z</time>
      </trkpt>
      <trkpt lat="48.3968" lon="2.48538">
        <ele>65</ele>
        <time>2017-11-19T11:09:59Z</time>
      </trkpt>
      <trkpt lat="48.39682" lon="2.48528">
        <ele>65</ele>
        <time>2017-11-19T11:10:01Z</time>
      </trkpt>
      <trkpt lat="48.39685" lon="2.48519">
        <ele>65</ele>
        <time>2017-11-19T11:10:03Z</time>
      </trkpt>
      <trkpt lat="48.39688" lon="2.48509">
        <ele>65</ele>
        <time>2017-11-19T11:10:05Z</time>
      </trkpt>
      <trkpt lat="48.3969" lon="2.48499">
        <ele>65</ele>
        <time>2017-11-19T11:10:07Z</time>
      </trkpt>
      <trkpt lat="48.39693" lon="2.4849">
        <ele>65</ele>
        <time>2017-11-19T11:10:09Z</time>
      </trkpt>
      <trkpt lat="48.39696" lon="2.48479">
        <ele>65</ele>
        <time>2017-11-19T11:10:11Z</time>
      </trkpt>
      <trkpt lat="48.39698" lon="2.48468">
        <ele>65</ele>
        <time>2017-11-19T11:10:13Z</time>
      </trkpt>
      <trkpt lat="48.39701" lon="2.48457">
        <ele>65</ele>
        <time>2017-11-19T11:10:15Z</time>
      </trkpt>
      <trkpt lat="48.39704" lon="2.48445">
        <ele>65</ele>
        <time>2017-11-19T11:10:17Z</time>
      </trkpt>
      <trkpt lat="48.39707" lon="2.48433">
        <ele>65</ele>
        <time>2017-11-19T11:10:19Z</time>
      </trkpt>
      <trkpt lat="48.3971" lon="2.48421">
        <ele>65</ele>
        <time>2017-11-19T11:10:21Z</time>
      </trkpt>
      <trkpt lat="48.39714" lon="2.48409">
        <ele>64</ele>
        <time>2017-11-19T11:10:23Z</time>
      </trkpt>
      <trkpt lat="48.39716" lon="2.48396">
        <ele>64</ele>
        <time>2017-11-19T11:10:25Z</time>
      </trkpt>
      <trkpt lat="48.39719" lon="2.48384">
        <ele>64</ele>
        <time>2017-11-19T11:10:27Z</time>
      </trkpt>
      <trkpt lat="48.39723" lon="2.48372">
        <ele>64</ele>
        <time>2017-11-19T11:10:29Z</time>
      </trkpt>
      <trkpt lat="48.39726" lon="2.4836">
        <ele>64</ele>
        <time>2017-11-19T11:10:31Z</time>
      </trkpt>
      <trkpt lat="48.39729" lon="2.48347">
        <ele>64</ele>
        <time>2017-11-19T11:10:33Z</time>
      </trkpt>
      <trkpt lat="48.39733" lon="2.48335">
        <ele>64</ele>
        <time>2017-11-19T11:10:35Z</time>
      </trkpt>
      <trkpt lat="48.39736" lon="2.48323">
        <ele>64</ele>
        <time>2017-11-19T11:10:37Z</time>
      </trkpt>
      <trkpt lat="48.3974" lon="2.48311">
        <ele>64</ele>
        <time>2017-11-19T11:10:39Z</time>
      </trkpt>
      <trkpt lat="48.39743" lon="2.48299">
        <ele>64</ele>
        <time>2017-11-19T11:10:41Z</time>
      </trkpt>
      <trkpt lat="48.39746" lon="2.48288">
        <ele>63</ele>
        <time>2017-11-19T11:10:43Z</time>
      </trkpt>
      <trkpt lat="48.39749" lon="2.48276">
        <ele>63</ele>
        <time>2017-11-19T11:10:45Z</time>
      </trkpt>
      <trkpt lat="48.39753" lon="2.48266">
        <ele>63</ele>
        <time>2017-11-19T11:10:47Z</time>
      </trkpt>
      <trkpt lat="48.39756" lon="2.48255">
        <ele>63</ele>
        <time>2017-11-19T11:10:49Z</time>
      </trkpt>
      <trkpt lat="48.39759" lon="2.48243">
        <ele>63</ele>
        <time>2017-11-19T11:10:51Z</time>
      </trkpt>
      <trkpt lat="48.39764" lon="2.48233">
        <ele>63</ele>
        <time>2017-11-19T11:10:53Z</time>
      </trkpt>
      <trkpt lat="48.39771" lon="2.48228">
        <ele>63</ele>
        <time>2017-11-19T11:10:55Z</time>
      </trkpt>
      <trkpt lat="48.39779" lon="2.48225">
        <ele>63</ele>
        <time>2017-11-19T11:10:57Z</time>
      </trkpt>
      <trkpt lat="48.39787" lon="2.48224">
        <ele>63</ele>
        <time>2017-11-19T11:10:59Z</time>
      </trkpt>
      <trkpt lat="48.39795" lon="2.48221">
        <ele>63</ele>
        <time>2017-11-19T11:11:01Z</time>
      </trkpt>
      <trkpt lat="48.39801" lon="2.48215">
        <ele>63</ele>
        <time>2017-11-19T11:11:03Z</time>
      </trkpt>
      <trkpt lat="48.39806" lon="2.48206">
        <ele>63</ele>
        <time>2017-11-19T11:11:05Z</time>
      </trkpt>
      <trkpt lat="48.39807" lon="2.48197">
        <ele>63</ele>
        <time>2017-11-19T11:11:07Z</time>
      </trkpt>
      <trkpt lat="48.39808" lon="2.48189">
        <ele>63</ele>
        <time>2017-11-19T11:11:09Z</time>
      </trkpt>
      <trkpt lat="48.39811" lon="2.48181">
        <ele>63</ele>
        <time>2017-11-19T11:11:13Z</time>
      </trkpt>
      <trkpt lat="48.39817" lon="2.48176">
        <ele>64</ele>
        <time>2017-11-19T11:11:15Z</time>
      </trkpt>
      <trkpt lat="48.39822" lon="2.48168">
        <ele>64</ele>
        <time>2017-11-19T11:11:17Z</time>
      </trkpt>
      <trkpt lat="48.39826" lon="2.48158">
        <ele>64</ele>
        <time>2017-11-19T11:11:19Z</time>
      </trkpt>
      <trkpt lat="48.39828" lon="2.48145">
        <ele>64</ele>
        <time>2017-11-19T11:11:21Z</time>
      </trkpt>
      <trkpt lat="48.39826" lon="2.48132">
        <ele>64</ele>
        <time>2017-11-19T11:11:23Z</time>
      </trkpt>
      <trkpt lat="48.39824" lon="2.4812">
        <ele>64</ele>
        <time>2017-11-19T11:11:25Z</time>
      </trkpt>
      <trkpt lat="48.39823" lon="2.48107">
        <ele>64</ele>
        <time>2017-11-19T11:11:27Z</time>
      </trkpt>
      <trkpt lat="48.39824" lon="2.48092">
        <ele>65</ele>
        <time>2017-11-19T11:11:29Z</time>
      </trkpt>
      <trkpt lat="48.39825" lon="2.48079">
        <ele>65</ele>
        <time>2017-11-19T11:11:31Z</time>
      </trkpt>
      <trkpt lat="48.39827" lon="2.48065">
        <ele>64</ele>
        <time>2017-11-19T11:11:33Z</time>
      </trkpt>
      <trkpt lat="48.3983" lon="2.48053">
        <ele>64</ele>
        <time>2017-11-19T11:11:35Z</time>
      </trkpt>
      <trkpt lat="48.39832" lon="2.48045">
        <ele>64</ele>
        <time>2017-11-19T11:11:37Z</time>
      </trkpt>
      <trkpt lat="48.39833" lon="2.48037">
        <ele>64</ele>
        <time>2017-11-19T11:11:39Z</time>
      </trkpt>
      <trkpt lat="48.39829" lon="2.4803">
        <ele>64</ele>
        <time>2017-11-19T11:11:41Z</time>
      </trkpt>
      <trkpt lat="48.3982" lon="2.48028">
        <ele>64</ele>
        <time>2017-11-19T11:11:43Z</time>
      </trkpt>
      <trkpt lat="48.39812" lon="2.48026">
        <ele>64</ele>
        <time>2017-11-19T11:11:45Z</time>
      </trkpt>
      <trkpt lat="48.39803" lon="2.48023">
        <ele>64</ele>
        <time>2017-11-19T11:11:47Z</time>
      </trkpt>
      <trkpt lat="48.39794" lon="2.48019">
        <ele>64</ele>
        <time>2017-11-19T11:11:49Z</time>
      </trkpt>
      <trkpt lat="48.39785" lon="2.48015">
        <ele>64</ele>
        <time>2017-11-19T11:11:51Z</time>
      </trkpt>
      <trkpt lat="48.39776" lon="2.48012">
        <ele>64</ele>
        <time>2017-11-19T11:11:53Z</time>
      </trkpt>
      <trkpt lat="48.39767" lon="2.48009">
        <ele>64</ele>
        <time>2017-11-19T11:11:55Z</time>
      </trkpt>
      <trkpt lat="48.39758" lon="2.48006">
        <ele>64</ele>
        <time>2017-11-19T11:11:57Z</time>
      </trkpt>
      <trkpt lat="48.39749" lon="2.48002">
        <ele>64</ele>
        <time>2017-11-19T11:11:59Z</time>
      </trkpt>
      <trkpt lat="48.3974" lon="2.47999">
        <ele>64</ele>
        <time>2017-11-19T11:12:01Z</time>
      </trkpt>
      <trkpt lat="48.39731" lon="2.47994">
        <ele>64</ele>
        <time>2017-11-19T11:12:03Z</time>
      </trkpt>
      <trkpt lat="48.39722" lon="2.4799">
        <ele>64</ele>
        <time>2017-11-19T11:12:05Z</time>
      </trkpt>
      <trkpt lat="48.39712" lon="2.47986">
        <ele>64</ele>
        <time>2017-11-19T11:12:07Z</time>
      </trkpt>
      <trkpt lat="48.39703" lon="2.47981">
        <ele>64</ele>
        <time>2017-11-19T11:12:09Z</time>
      </trkpt>
      <trkpt lat="48.39694" lon="2.47978">
        <ele>64</ele>
        <time>2017-11-19T11:12:11Z</time>
      </trkpt>
      <trkpt lat="48.39684" lon="2.47975">
        <ele>64</ele>
        <time>2017-11-19T11:12:13Z</time>
      </trkpt>
      <trkpt lat="48.39675" lon="2.47972">
        <ele>64</ele>
        <time>2017-11-19T11:12:15Z</time>
      </trkpt>
      <trkpt lat="48.39666" lon="2.47968">
        <ele>64</ele>
        <time>2017-11-19T11:12:17Z</time>
      </trkpt>
      <trkpt lat="48.39657" lon="2.47965">
        <ele>64</ele>
        <time>2017-11-19T11:12:19Z</time>
      </trkpt>
      <trkpt lat="48.39648" lon="2.4796">
        <ele>64</ele>
        <time>2017-11-19T11:12:21Z</time>
      </trkpt>
      <trkpt lat="48.39639" lon="2.47957">
        <ele>65</ele>
        <time>2017-11-19T11:12:23Z</time>
      </trkpt>
      <trkpt lat="48.39631" lon="2.47954">
        <ele>65</ele>
        <time>2017-11-19T11:12:25Z</time>
      </trkpt>
      <trkpt lat="48.39623" lon="2.4795">
        <ele>64</ele>
        <time>2017-11-19T11:12:27Z</time>
      </trkpt>
      <trkpt lat="48.39615" lon="2.47947">
        <ele>64</ele>
        <time>2017-11-19T11:12:29Z</time>
      </trkpt>
      <trkpt lat="48.39605" lon="2.47944">
        <ele>64</ele>
        <time>2017-11-19T11:12:31Z</time>
      </trkpt>
      <trkpt lat="48.39595" lon="2.4794">
        <ele>64</ele>
        <time>2017-11-19T11:12:33Z</time>
      </trkpt>
      <trkpt lat="48.39585" lon="2.47938">
        <ele>64</ele>
        <time>2017-11-19T11:12:35Z</time>
      </trkpt>
      <trkpt lat="48.39576" lon="2.47941">
        <ele>64</ele>
        <time>2017-11-19T11:12:37Z</time>
      </trkpt>
      <trkpt lat="48.3957" lon="2.47947">
        <ele>64</ele>
        <time>2017-11-19T11:12:39Z</time>
      </trkpt>
      <trkpt lat="48.39565" lon="2.47957">
        <ele>64</ele>
        <time>2017-11-19T11:12:41Z</time>
      </trkpt>
      <trkpt lat="48.39561" lon="2.47968">
        <ele>64</ele>
        <time>2017-11-19T11:12:43Z</time>
      </trkpt>
      <trkpt lat="48.39557" lon="2.4798">
        <ele>64</ele>
        <time>2017-11-19T11:12:45Z</time>
      </trkpt>
      <trkpt lat="48.39552" lon="2.47992">
        <ele>64</ele>
        <time>2017-11-19T11:12:47Z</time>
      </trkpt>
      <trkpt lat="48.39547" lon="2.48004">
        <ele>64</ele>
        <time>2017-11-19T11:12:49Z</time>
      </trkpt>
      <trkpt lat="48.39543" lon="2.48017">
        <ele>64</ele>
        <time>2017-11-19T11:12:51Z</time>
      </trkpt>
      <trkpt lat="48.39539" lon="2.4803">
        <ele>64</ele>
        <time>2017-11-19T11:12:53Z</time>
      </trkpt>
      <trkpt lat="48.39537" lon="2.48042">
        <ele>64</ele>
        <time>2017-11-19T11:12:55Z</time>
      </trkpt>
      <trkpt lat="48.39535" lon="2.48056">
        <ele>64</ele>
        <time>2017-11-19T11:12:57Z</time>
      </trkpt>
      <trkpt lat="48.39533" lon="2.4807">
        <ele>64</ele>
        <time>2017-11-19T11:12:59Z</time>
      </trkpt>
      <trkpt lat="48.39532" lon="2.48083">
        <ele>64</ele>
        <time>2017-11-19T11:13:01Z</time>
      </trkpt>
      <trkpt lat="48.39531" lon="2.48096">
        <ele>64</ele>
        <time>2017-11-19T11:13:03Z</time>
      </trkpt>
      <trkpt lat="48.39529" lon="2.48109">
        <ele>64</ele>
        <time>2017-11-19T11:13:05Z</time>
      </trkpt>
      <trkpt lat="48.39526" lon="2.48121">
        <ele>64</ele>
        <time>2017-11-19T11:13:07Z</time>
      </trkpt>
      <trkpt lat="48.39522" lon="2.48133">
        <ele>65</ele>
        <time>2017-11-19T11:13:09Z</time>
      </trkpt>
      <trkpt lat="48.39517" lon="2.48143">
        <ele>65</ele>
        <time>2017-11-19T11:13:11Z</time>
      </trkpt>
      <trkpt lat="48.39511" lon="2.48151">
        <ele>65</ele>
        <time>2017-11-19T11:13:13Z</time>
      </trkpt>
      <trkpt lat="48.39506" lon="2.48159">
        <ele>65</ele>
        <time>2017-11-19T11:13:15Z</time>
      </trkpt>
      <trkpt lat="48.39499" lon="2.48168">
        <ele>66</ele>
        <time>2017-11-19T11:13:17Z</time>
      </trkpt>
      <trkpt lat="48.39493" lon="2.48177">
        <ele>65</ele>
        <time>2017-11-19T11:13:19Z</time>
      </trkpt>
      <trkpt lat="48.39486" lon="2.48186">
        <ele>65</ele>
        <time>2017-11-19T11:13:21Z</time>
      </trkpt>
      <trkpt lat="48.39478" lon="2.48196">
        <ele>65</ele>
        <time>2017-11-19T11:13:23Z</time>
      </trkpt>
      <trkpt lat="48.3947" lon="2.48206">
        <ele>65</ele>
        <time>2017-11-19T11:13:25Z</time>
      </trkpt>
      <trkpt lat="48.39461" lon="2.48216">
        <ele>64</ele>
        <time>2017-11-19T11:13:27Z</time>
      </trkpt>
      <trkpt lat="48.39453" lon="2.48224">
        <ele>64</ele>
        <time>2017-11-19T11:13:29Z</time>
      </trkpt>
      <trkpt lat="48.39444" lon="2.48234">
        <ele>64</ele>
        <time>2017-11-19T11:13:31Z</time>
      </trkpt>
      <trkpt lat="48.39435" lon="2.48243">
        <ele>64</ele>
        <time>2017-11-19T11:13:33Z</time>
      </trkpt>
      <trkpt lat="48.39426" lon="2.48252">
        <ele>64</ele>
        <time>2017-11-19T11:13:35Z</time>
      </trkpt>
      <trkpt lat="48.39418" lon="2.48261">
        <ele>64</ele>
        <time>2017-11-19T11:13:37Z</time>
      </trkpt>
      <trkpt lat="48.39409" lon="2.48269">
        <ele>64</ele>
        <time>2017-11-19T11:13:39Z</time>
      </trkpt>
      <trkpt lat="48.39401" lon="2.48277">
        <ele>65</ele>
        <time>2017-11-19T11:13:41Z</time>
      </trkpt>
      <trkpt lat="48.39393" lon="2.48286">
        <ele>65</ele>
        <time>2017-11-19T11:13:43Z</time>
      </trkpt>
      <trkpt lat="48.39385" lon="2.48293">
        <ele>65</ele>
        <time>2017-11-19T11:13:45Z</time>
      </trkpt>
      <trkpt lat="48.39378" lon="2.483">
        <ele>65</ele>
        <time>2017-11-19T11:13:47Z</time>
      </trkpt>
      <trkpt lat="48.3937" lon="2.48307">
        <ele>65</ele>
        <time>2017-11-19T11:13:49Z</time>
      </trkpt>
      <trkpt lat="48.39363" lon="2.48315">
        <ele>65</ele>
        <time>2017-11-19T11:13:51Z</time>
      </trkpt>
      <trkpt lat="48.39356" lon="2.48323">
        <ele>65</ele>
        <time>2017-11-19T11:13:53Z</time>
      </trkpt>
      <trkpt lat="48.39349" lon="2.48331">
        <ele>65</ele>
        <time>2017-11-19T11:13:55Z</time>
      </trkpt>
      <trkpt lat="48.39341" lon="2.48338">
        <ele>65</ele>
        <time>2017-11-19T11:13:57Z</time>
      </trkpt>
      <trkpt lat="48.39334" lon="2.48345">
        <ele>65</ele>
        <time>2017-11-19T11:13:59Z</time>
      </trkpt>
      <trkpt lat="48.39327" lon="2.48351">
        <ele>65</ele>
        <time>2017-11-19T11:14:01Z</time>
      </trkpt>
      <trkpt lat="48.39319" lon="2.48358">
        <ele>65</ele>
        <time>2017-11-19T11:14:03Z</time>
      </trkpt>
      <trkpt lat="48.39311" lon="2.48365">
        <ele>66</ele>
        <time>2017-11-19T11:14:05Z</time>
      </trkpt>
      <trkpt lat="48.39303" lon="2.4837">
        <ele>66</ele>
        <time>2017-11-19T11:14:07Z</time>
      </trkpt>
      <trkpt lat="48.39295" lon="2.48377">
        <ele>66</ele>
        <time>2017-11-19T11:14:09Z</time>
      </trkpt>
      <trkpt lat="48.39286" lon="2.48382">
        <ele>66</ele>
        <time>2017-11-19T11:14:11Z</time>
      </trkpt>
      <trkpt lat="48.39276" lon="2.48388">
        <ele>66</ele>
        <time>2017-11-19T11:14:13Z</time>
      </trkpt>
      <trkpt lat="48.39266" lon="2.48392">
        <ele>66</ele>
        <time>2017-11-19T11:14:15Z</time>
      </trkpt>
      <trkpt lat="48.39257" lon="2.48396">
        <ele>66</ele>
        <time>2017-11-19T11:14:17Z</time>
      </trkpt>
      <trkpt lat="48.39248" lon="2.484">
        <ele>68</ele>
        <time>2017-11-19T11:14:19Z</time>
      </trkpt>
      <trkpt lat="48.39239" lon="2.48405">
        <ele>68</ele>
        <time>2017-11-19T11:14:21Z</time>
      </trkpt>
      <trkpt lat="48.39229" lon="2.48411">
        <ele>68</ele>
        <time>2017-11-19T11:14:23Z</time>
      </trkpt>
      <trkpt lat="48.39221" lon="2.48415">
        <ele>69</ele>
        <time>2017-11-19T11:14:25Z</time>
      </trkpt>
      <trkpt lat="48.39211" lon="2.48421">
        <ele>68</ele>
        <time>2017-11-19T11:14:27Z</time>
      </trkpt>
      <trkpt lat="48.392" lon="2.48424">
        <ele>69</ele>
        <time>2017-11-19T11:14:29Z</time>
      </trkpt>
      <trkpt lat="48.3919" lon="2.48425">
        <ele>69</ele>
        <time>2017-11-19T11:14:31Z</time>
      </trkpt>
      <trkpt lat="48.3918" lon="2.48425">
        <ele>70</ele>
        <time>2017-11-19T11:14:33Z</time>
      </trkpt>
      <trkpt lat="48.3917" lon="2.48425">
        <ele>71</ele>
        <time>2017-11-19T11:14:35Z</time>
      </trkpt>
      <trkpt lat="48.39161" lon="2.48427">
        <ele>72</ele>
        <time>2017-11-19T11:14:37Z</time>
      </trkpt>
      <trkpt lat="48.39151" lon="2.48429">
        <ele>72</ele>
        <time>2017-11-19T11:14:39Z</time>
      </trkpt>
      <trkpt lat="48.39142" lon="2.48432">
        <ele>72</ele>
        <time>2017-11-19T11:14:41Z</time>
      </trkpt>
      <trkpt lat="48.39133" lon="2.48434">
        <ele>72</ele>
        <time>2017-11-19T11:14:43Z</time>
      </trkpt>
      <trkpt lat="48.39123" lon="2.48435">
        <ele>72</ele>
        <time>2017-11-19T11:14:45Z</time>
      </trkpt>
      <trkpt lat="48.39115" lon="2.48436">
        <ele>72</ele>
        <time>2017-11-19T11:14:47Z</time>
      </trkpt>
      <trkpt lat="48.39106" lon="2.48436">
        <ele>73</ele>
        <time>2017-11-19T11:14:49Z</time>
      </trkpt>
      <trkpt lat="48.39098" lon="2.48435">
        <ele>73</ele>
        <time>2017-11-19T11:14:51Z</time>
      </trkpt>
      <trkpt lat="48.39089" lon="2.48439">
        <ele>73</ele>
        <time>2017-11-19T11:14:53Z</time>
      </trkpt>
      <trkpt lat="48.39081" lon="2.48445">
        <ele>74</ele>
        <time>2017-11-19T11:14:55Z</time>
      </trkpt>
      <trkpt lat="48.39074" lon="2.48451">
        <ele>74</ele>
        <time>2017-11-19T11:14:57Z</time>
      </trkpt>
      <trkpt lat="48.39067" lon="2.48456">
        <ele>74</ele>
        <time>2017-11-19T11:14:59Z</time>
      </trkpt>
      <trkpt lat="48.39062" lon="2.4846">
        <ele>74</ele>
        <time>2017-11-19T11:15:01Z</time>
      </trkpt>
      <trkpt lat="48.39054" lon="2.48465">
        <ele>74</ele>
        <time>2017-11-19T11:15:05Z</time>
      </trkpt>
      <trkpt lat="48.3905" lon="2.4847">
        <ele>74</ele>
        <time>2017-11-19T11:15:19Z</time>
      </trkpt>
      <trkpt lat="48.39046" lon="2.48465">
        <ele>74</ele>
        <time>2017-11-19T11:15:53Z</time>
      </trkpt>
      <trkpt lat="48.39039" lon="2.48452">
        <ele>74</ele>
        <time>2017-11-19T11:15:57Z</time>
      </trkpt>
      <trkpt lat="48.39034" lon="2.48442">
        <ele>74</ele>
        <time>2017-11-19T11:15:59Z</time>
      </trkpt>
      <trkpt lat="48.39029" lon="2.48432">
        <ele>74</ele>
        <time>2017-11-19T11:16:01Z</time>
      </trkpt>
      <trkpt lat="48.39024" lon="2.48421">
        <ele>74</ele>
        <time>2017-11-19T11:16:03Z</time>
      </trkpt>
      <trkpt lat="48.39019" lon="2.4841">
        <ele>75</ele>
        <time>2017-11-19T11:16:05Z</time>
      </trkpt>
      <trkpt lat="48.39014" lon="2.484">
        <ele>75</ele>
        <time>2017-11-19T11:16:07Z</time>
      </trkpt>
      <trkpt lat="48.39008" lon="2.48391">
        <ele>75</ele>
        <time>2017-11-19T11:16:09Z</time>
      </trkpt>
      <trkpt lat="48.39003" lon="2.48379">
        <ele>75</ele>
        <time>2017-11-19T11:16:11Z</time>
      </trkpt>
      <trkpt lat="48.38997" lon="2.48369">
        <ele>75</ele>
        <time>2017-11-19T11:16:13Z</time>
      </trkpt>
      <trkpt lat="48.38991" lon="2.48359">
        <ele>75</ele>
        <time>2017-11-19T11:16:15Z</time>
      </trkpt>
      <trkpt lat="48.38987" lon="2.48348">
        <ele>75</ele>
        <time>2017-11-19T11:16:17Z</time>
      </trkpt>
      <trkpt lat="48.38979" lon="2.48334">
        <ele>75</ele>
        <time>2017-11-19T11:16:19Z</time>
      </trkpt>
      <trkpt lat="48.38972" lon="2.48321">
        <ele>74</ele>
        <time>2017-11-19T11:16:21Z</time>
      </trkpt>
      <trkpt lat="48.38967" lon="2.48307">
        <ele>74</ele>
        <time>2017-11-19T11:16:23Z</time>
      </trkpt>
      <trkpt lat="48.3896" lon="2.48296">
        <ele>74</ele>
        <time>2017-11-19T11:16:25Z</time>
      </trkpt>
      <trkpt lat="48.38953" lon="2.48283">
        <ele>74</ele>
        <time>2017-11-19T11:16:27Z</time>
      </trkpt>
      <trkpt lat="48.38946" lon="2.48269">
        <ele>73</ele>
        <time>2017-11-19T11:16:29Z</time>
      </trkpt>
      <trkpt lat="48.38939" lon="2.48257">
        <ele>73</ele>
        <time>2017-11-19T11:16:31Z</time>
      </trkpt>
      <trkpt lat="48.38931" lon="2.48245">
        <ele>72</ele>
        <time>2017-11-19T11:16:33Z</time>
      </trkpt>
      <trkpt lat="48.38925" lon="2.48232">
        <ele>72</ele>
        <time>2017-11-19T11:16:35Z</time>
      </trkpt>
      <trkpt lat="48.3892" lon="2.4822">
        <ele>72</ele>
        <time>2017-11-19T11:16:37Z</time>
      </trkpt>
      <trkpt lat="48.38913" lon="2.48208">
        <ele>70</ele>
        <time>2017-11-19T11:16:39Z</time>
      </trkpt>
      <trkpt lat="48.38909" lon="2.48198">
        <ele>70</ele>
        <time>2017-11-19T11:16:41Z</time>
      </trkpt>
      <trkpt lat="48.38904" lon="2.48189">
        <ele>70</ele>
        <time>2017-11-19T11:16:43Z</time>
      </trkpt>
      <trkpt lat="48.38901" lon="2.48182">
        <ele>69</ele>
        <time>2017-11-19T11:16:45Z</time>
      </trkpt>
      <trkpt lat="48.38897" lon="2.48177">
        <ele>69</ele>
        <time>2017-11-19T11:16:47Z</time>
      </trkpt>
      <trkpt lat="48.38892" lon="2.48169">
        <ele>69</ele>
        <time>2017-11-19T11:16:49Z</time>
      </trkpt>
      <trkpt lat="48.38888" lon="2.48158">
        <ele>68</ele>
        <time>2017-11-19T11:16:51Z</time>
      </trkpt>
      <trkpt lat="48.38883" lon="2.48147">
        <ele>68</ele>
        <time>2017-11-19T11:16:53Z</time>
      </trkpt>
      <trkpt lat="48.38877" lon="2.48136">
        <ele>68</ele>
        <time>2017-11-19T11:16:55Z</time>
      </trkpt>
      <trkpt lat="48.38872" lon="2.48125">
        <ele>68</ele>
        <time>2017-11-19T11:16:57Z</time>
      </trkpt>
      <trkpt lat="48.38865" lon="2.48112">
        <ele>68</ele>
        <time>2017-11-19T11:16:59Z</time>
      </trkpt>
      <trkpt lat="48.38859" lon="2.481">
        <ele>68</ele>
        <time>2017-11-19T11:17:01Z</time>
      </trkpt>
      <trkpt lat="48.38852" lon="2.48087">
        <ele>68</ele>
        <time>2017-11-19T11:17:03Z</time>
      </trkpt>
      <trkpt lat="48.38846" lon="2.48074">
        <ele>68</ele>
        <time>2017-11-19T11:17:05Z</time>
      </trkpt>
      <trkpt lat="48.3884" lon="2.48061">
        <ele>68</ele>
        <time>2017-11-19T11:17:07Z</time>
      </trkpt>
      <trkpt lat="48.38833" lon="2.48048">
        <ele>69</ele>
        <time>2017-11-19T11:17:09Z</time>
      </trkpt>
      <trkpt lat="48.38827" lon="2.48035">
        <ele>68</ele>
        <time>2017-11-19T11:17:11Z</time>
      </trkpt>
      <trkpt lat="48.3882" lon="2.48023">
        <ele>68</ele>
        <time>2017-11-19T11:17:13Z</time>
      </trkpt>
      <trkpt lat="48.38813" lon="2.4801">
        <ele>68</ele>
        <time>2017-11-19T11:17:15Z</time>
      </trkpt>
      <trkpt lat="48.38807" lon="2.47998">
        <ele>68</ele>
        <time>2017-11-19T11:17:17Z</time>
      </trkpt>
      <trkpt lat="48.388" lon="2.47985">
        <ele>69</ele>
        <time>2017-11-19T11:17:19Z</time>
      </trkpt>
      <trkpt lat="48.38793" lon="2.47973">
        <ele>69</ele>
        <time>2017-11-19T11:17:21Z</time>
      </trkpt>
      <trkpt lat="48.38787" lon="2.4796">
        <ele>69</ele>
        <time>2017-11-19T11:17:23Z</time>
      </trkpt>
      <trkpt lat="48.38781" lon="2.47947">
        <ele>69</ele>
        <time>2017-11-19T11:17:25Z</time>
      </trkpt>
      <trkpt lat="48.38774" lon="2.47934">
        <ele>69</ele>
        <time>2017-11-19T11:17:27Z</time>
      </trkpt>
      <trkpt lat="48.38767" lon="2.47923">
        <ele>70</ele>
        <time>2017-11-19T11:17:29Z</time>
      </trkpt>
      <trkpt lat="48.38761" lon="2.47912">
        <ele>70</ele>
        <time>2017-11-19T11:17:31Z</time>
      </trkpt>
      <trkpt lat="48.38754" lon="2.47903">
        <ele>70</ele>
        <time>2017-11-19T11:17:33Z</time>
      </trkpt>
      <trkpt lat="48.38745" lon="2.47893">
        <ele>71</ele>
        <time>2017-11-19T11:17:35Z</time>
      </trkpt>
      <trkpt lat="48.38737" lon="2.47884">
        <ele>71</ele>
        <time>2017-11-19T11:17:37Z</time>
      </trkpt>
      <trkpt lat="48.38729" lon="2.47875">
        <ele>71</ele>
        <time>2017-11-19T11:17:39Z</time>
      </trkpt>
      <trkpt lat="48.38719" lon="2.47868">
        <ele>71</ele>
        <time>2017-11-19T11:17:41Z</time>
      </trkpt>
      <trkpt lat="48.38709" lon="2.47865">
        <ele>71</ele>
        <time>2017-11-19T11:17:43Z</time>
      </trkpt>
      <trkpt lat="48.38699" lon="2.47862">
        <ele>71</ele>
        <time>2017-11-19T11:17:45Z</time>
      </trkpt>
      <trkpt lat="48.38689" lon="2.47862">
        <ele>71</ele>
        <time>2017-11-19T11:17:47Z</time>
      </trkpt>
      <trkpt lat="48.38678" lon="2.47864">
        <ele>71</ele>
        <time>2017-11-19T11:17:49Z</time>
      </trkpt>
      <trkpt lat="48.38666" lon="2.47865">
        <ele>70</ele>
        <time>2017-11-19T11:17:51Z</time>
      </trkpt>
      <trkpt lat="48.38655" lon="2.47867">
        <ele>70</ele>
        <time>2017-11-19T11:17:53Z</time>
      </trkpt>
      <trkpt lat="48.38644" lon="2.47862">
        <ele>70</ele>
        <time>2017-11-19T11:17:55Z</time>
      </trkpt>
      <trkpt lat="48.38635" lon="2.47851">
        <ele>70</ele>
        <time>2017-11-19T11:17:57Z</time>
      </trkpt>
      <trkpt lat="48.38628" lon="2.47838">
        <ele>69</ele>
        <time>2017-11-19T11:17:59Z</time>
      </trkpt>
      <trkpt lat="48.38621" lon="2.47825">
        <ele>70</ele>
        <time>2017-11-19T11:18:01Z</time>
      </trkpt>
      <trkpt lat="48.38615" lon="2.47812">
        <ele>70</ele>
        <time>2017-11-19T11:18:03Z</time>
      </trkpt>
      <trkpt lat="48.38608" lon="2.47799">
        <ele>70</ele>
        <time>2017-11-19T11:18:05Z</time>
      </trkpt>
      <trkpt lat="48.38602" lon="2.47787">
        <ele>70</ele>
        <time>2017-11-19T11:18:07Z</time>
      </trkpt>
      <trkpt lat="48.38596" lon="2.47773">
        <ele>69</ele>
        <time>2017-11-19T11:18:09Z</time>
      </trkpt>
      <trkpt lat="48.38589" lon="2.47761">
        <ele>69</ele>
        <time>2017-11-19T11:18:11Z</time>
      </trkpt>
      <trkpt lat="48.38583" lon="2.4775">
        <ele>68</ele>
        <time>2017-11-19T11:18:13Z</time>
      </trkpt>
      <trkpt lat="48.38576" lon="2.47738">
        <ele>67</ele>
        <time>2017-11-19T11:18:15Z</time>
      </trkpt>
      <trkpt lat="48.3857" lon="2.47726">
        <ele>67</ele>
        <time>2017-11-19T11:18:17Z</time>
      </trkpt>
      <trkpt lat="48.38563" lon="2.47715">
        <ele>66</ele>
        <time>2017-11-19T11:18:19Z</time>
      </trkpt>
      <trkpt lat="48.38557" lon="2.47703">
        <ele>66</ele>
        <time>2017-11-19T11:18:21Z</time>
      </trkpt>
      <trkpt lat="48.3855" lon="2.47691">
        <ele>66</ele>
        <time>2017-11-19T11:18:23Z</time>
      </trkpt>
      <trkpt lat="48.38544" lon="2.47679">
        <ele>66</ele>
        <time>2017-11-19T11:18:25Z</time>
      </trkpt>
      <trkpt lat="48.38537" lon="2.47666">
        <ele>66</ele>
        <time>2017-11-19T11:18:27Z</time>
      </trkpt>
      <trkpt lat="48.38531" lon="2.47653">
        <ele>66</ele>
        <time>2017-11-19T11:18:29Z</time>
      </trkpt>
      <trkpt lat="48.38524" lon="2.4764">
        <ele>66</ele>
        <time>2017-11-19T11:18:31Z</time>
      </trkpt>
      <trkpt lat="48.38517" lon="2.47627">
        <ele>66</ele>
        <time>2017-11-19T11:18:33Z</time>
      </trkpt>
      <trkpt lat="48.3851" lon="2.47616">
        <ele>66</ele>
        <time>2017-11-19T11:18:35Z</time>
      </trkpt>
      <trkpt lat="48.38504" lon="2.47605">
        <ele>66</ele>
        <time>2017-11-19T11:18:37Z</time>
      </trkpt>
      <trkpt lat="48.38498" lon="2.47593">
        <ele>66</ele>
        <time>2017-11-19T11:18:39Z</time>
      </trkpt>
      <trkpt lat="48.38493" lon="2.47582">
        <ele>67</ele>
        <time>2017-11-19T11:18:41Z</time>
      </trkpt>
      <trkpt lat="48.38487" lon="2.47572">
        <ele>67</ele>
        <time>2017-11-19T11:18:43Z</time>
      </trkpt>
      <trkpt lat="48.38482" lon="2.47563">
        <ele>67</ele>
        <time>2017-11-19T11:18:45Z</time>
      </trkpt>
      <trkpt lat="48.38478" lon="2.47554">
        <ele>67</ele>
        <time>2017-11-19T11:18:47Z</time>
      </trkpt>
      <trkpt lat="48.38474" lon="2.47546">
        <ele>68</ele>
        <time>2017-11-19T11:18:49Z</time>
      </trkpt>
      <trkpt lat="48.38471" lon="2.47541">
        <ele>68</ele>
        <time>2017-11-19T11:18:51Z</time>
      </trkpt>
      <trkpt lat="48.38465" lon="2.47541">
        <ele>68</ele>
        <time>2017-11-19T11:18:53Z</time>
      </trkpt>
      <trkpt lat="48.38459" lon="2.47547">
        <ele>67</ele>
        <time>2017-11-19T11:18:55Z</time>
      </trkpt>
      <trkpt lat="48.38452" lon="2.47554">
        <ele>67</ele>
        <time>2017-11-19T11:18:57Z</time>
      </trkpt>
      <trkpt lat="48.38445" lon="2.47563">
        <ele>67</ele>
        <time>2017-11-19T11:18:59Z</time>
      </trkpt>
      <trkpt lat="48.38438" lon="2.47573">
        <ele>67</ele>
        <time>2017-11-19T11:19:01Z</time>
      </trkpt>
      <trkpt lat="48.3843" lon="2.47583">
        <ele>67</ele>
        <time>2017-11-19T11:19:03Z</time>
      </trkpt>
      <trkpt lat="48.38424" lon="2.47594">
        <ele>66</ele>
        <time>2017-11-19T11:19:05Z</time>
      </trkpt>
      <trkpt lat="48.38419" lon="2.47606">
        <ele>66</ele>
        <time>2017-11-19T11:19:07Z</time>
      </trkpt>
      <trkpt lat="48.38413" lon="2.47619">
        <ele>66</ele>
        <time>2017-11-19T11:19:09Z</time>
      </trkpt>
      <trkpt lat="48.38407" lon="2.47633">
        <ele>65</ele>
        <time>2017-11-19T11:19:11Z</time>
      </trkpt>
      <trkpt lat="48.38402" lon="2.47647">
        <ele>65</ele>
        <time>2017-11-19T11:19:13Z</time>
      </trkpt>
      <trkpt lat="48.38397" lon="2.47659">
        <ele>65</ele>
        <time>2017-11-19T11:19:15Z</time>
      </trkpt>
      <trkpt lat="48.38392" lon="2.4767">
        <ele>65</ele>
        <time>2017-11-19T11:19:17Z</time>
      </trkpt>
      <trkpt lat="48.38386" lon="2.47683">
        <ele>65</ele>
        <time>2017-11-19T11:19:19Z</time>
      </trkpt>
      <trkpt lat="48.38379" lon="2.47694">
        <ele>65</ele>
        <time>2017-11-19T11:19:21Z</time>
      </trkpt>
      <trkpt lat="48.38371" lon="2.47704">
        <ele>65</ele>
        <time>2017-11-19T11:19:23Z</time>
      </trkpt>
      <trkpt lat="48.38363" lon="2.47713">
        <ele>65</ele>
        <time>2017-11-19T11:19:25Z</time>
      </trkpt>
      <trkpt lat="48.38355" lon="2.47723">
        <ele>65</ele>
        <time>2017-11-19T11:19:27Z</time>
      </trkpt>
      <trkpt lat="48.38347" lon="2.47731">
        <ele>65</ele>
        <time>2017-11-19T11:19:29Z</time>
      </trkpt>
      <trkpt lat="48.38339" lon="2.47738">
        <ele>66</ele>
        <time>2017-11-19T11:19:31Z</time>
      </trkpt>
      <trkpt lat="48.38329" lon="2.47743">
        <ele>66</ele>
        <time>2017-11-19T11:19:33Z</time>
      </trkpt>
      <trkpt lat="48.3832" lon="2.47744">
        <ele>66</ele>
        <time>2017-11-19T11:19:35Z</time>
      </trkpt>
      <trkpt lat="48.38311" lon="2.4774">
        <ele>66</ele>
        <time>2017-11-19T11:19:37Z</time>
      </trkpt>
      <trkpt lat="48.38303" lon="2.47733">
        <ele>66</ele>
        <time>2017-11-19T11:19:39Z</time>
      </trkpt>
      <trkpt lat="48.38295" lon="2.47726">
        <ele>66</ele>
        <time>2017-11-19T11:19:41Z</time>
      </trkpt>
      <trkpt lat="48.38287" lon="2.4772">
        <ele>66</ele>
        <time>2017-11-19T11:19:43Z</time>
      </trkpt>
      <trkpt lat="48.38279" lon="2.4771">
        <ele>66</ele>
        <time>2017-11-19T11:19:45Z</time>
      </trkpt>
      <trkpt lat="48.38272" lon="2.477">
        <ele>66</ele>
        <time>2017-11-19T11:19:47Z</time>
      </trkpt>
      <trkpt lat="48.38265" lon="2.47689">
        <ele>66</ele>
        <time>2017-11-19T11:19:49Z</time>
      </trkpt>
      <trkpt lat="48.38258" lon="2.47678">
        <ele>67</ele>
        <time>2017-11-19T11:19:51Z</time>
      </trkpt>
      <trkpt lat="48.38252" lon="2.47667">
        <ele>67</ele>
        <time>2017-11-19T11:19:53Z</time>
      </trkpt>
      <trkpt lat="48.38246" lon="2.47655">
        <ele>67</ele>
        <time>2017-11-19T11:19:55Z</time>
      </trkpt>
      <trkpt lat="48.38241" lon="2.47643">
        <ele>67</ele>
        <time>2017-11-19T11:19:57Z</time>
      </trkpt>
      <trkpt lat="48.38235" lon="2.47632">
        <ele>68</ele>
        <time>2017-11-19T11:19:59Z</time>
      </trkpt>
      <trkpt lat="48.3823" lon="2.4762">
        <ele>68</ele>
        <time>2017-11-19T11:20:01Z</time>
      </trkpt>
      <trkpt lat="48.38224" lon="2.47609">
        <ele>68</ele>
        <time>2017-11-19T11:20:03Z</time>
      </trkpt>
      <trkpt lat="48.38218" lon="2.47598">
        <ele>68</ele>
        <time>2017-11-19T11:20:05Z</time>
      </trkpt>
      <trkpt lat="48.38212" lon="2.47587">
        <ele>68</ele>
        <time>2017-11-19T11:20:07Z</time>
      </trkpt>
      <trkpt lat="48.38206" lon="2.47577">
        <ele>68</ele>
        <time>2017-11-19T11:20:09Z</time>
      </trkpt>
      <trkpt lat="48.38201" lon="2.47566">
        <ele>68</ele>
        <time>2017-11-19T11:20:11Z</time>
      </trkpt>
      <trkpt lat="48.38196" lon="2.47556">
        <ele>68</ele>
        <time>2017-11-19T11:20:13Z</time>
      </trkpt>
      <trkpt lat="48.38189" lon="2.47546">
        <ele>68</ele>
        <time>2017-11-19T11:20:15Z</time>
      </trkpt>
      <trkpt lat="48.38184" lon="2.47535">
        <ele>68</ele>
        <time>2017-11-19T11:20:17Z</time>
      </trkpt>
      <trkpt lat="48.38179" lon="2.47525">
        <ele>68</ele>
        <time>2017-11-19T11:20:19Z</time>
      </trkpt>
      <trkpt lat="48.38174" lon="2.47515">
        <ele>69</ele>
        <time>2017-11-19T11:20:21Z</time>
      </trkpt>
      <trkpt lat="48.3817" lon="2.47506">
        <ele>69</ele>
        <time>2017-11-19T11:20:23Z</time>
      </trkpt>
      <trkpt lat="48.38166" lon="2.47498">
        <ele>69</ele>
        <time>2017-11-19T11:20:25Z</time>
      </trkpt>
      <trkpt lat="48.38163" lon="2.4749">
        <ele>69</ele>
        <time>2017-11-19T11:20:29Z</time>
      </trkpt>
      <trkpt lat="48.38155" lon="2.4749">
        <ele>69</ele>
        <time>2017-11-19T11:20:33Z</time>
      </trkpt>
      <trkpt lat="48.38149" lon="2.47486">
        <ele>69</ele>
        <time>2017-11-19T11:20:35Z</time>
      </trkpt>
      <trkpt lat="48.38145" lon="2.47477">
        <ele>69</ele>
        <time>2017-11-19T11:20:37Z</time>
      </trkpt>
      <trkpt lat="48.38141" lon="2.47467">
        <ele>69</ele>
        <time>2017-11-19T11:20:39Z</time>
      </trkpt>
      <trkpt lat="48.38139" lon="2.47457">
        <ele>70</ele>
        <time>2017-11-19T11:20:41Z</time>
      </trkpt>
      <trkpt lat="48.38136" lon="2.47447">
        <ele>70</ele>
        <time>2017-11-19T11:20:43Z</time>
      </trkpt>
      <trkpt lat="48.38132" lon="2.47437">
        <ele>70</ele>
        <time>2017-11-19T11:20:45Z</time>
      </trkpt>
      <trkpt lat="48.38128" lon="2.47427">
        <ele>70</ele>
        <time>2017-11-19T11:20:47Z</time>
      </trkpt>
      <trkpt lat="48.38124" lon="2.47419">
        <ele>70</ele>
        <time>2017-11-19T11:20:49Z</time>
      </trkpt>
      <trkpt lat="48.38121" lon="2.47409">
        <ele>70</ele>
        <time>2017-11-19T11:20:51Z</time>
      </trkpt>
      <trkpt lat="48.38116" lon="2.474">
        <ele>70</ele>
        <time>2017-11-19T11:20:53Z</time>
      </trkpt>
      <trkpt lat="48.38113" lon="2.47391">
        <ele>70</ele>
        <time>2017-11-19T11:20:55Z</time>
      </trkpt>
      <trkpt lat="48.38111" lon="2.47382">
        <ele>70</ele>
        <time>2017-11-19T11:20:57Z</time>
      </trkpt>
      <trkpt lat="48.38111" lon="2.47373">
        <ele>71</ele>
        <time>2017-11-19T11:20:59Z</time>
      </trkpt>
      <trkpt lat="48.38107" lon="2.47365">
        <ele>71</ele>
        <time>2017-11-19T11:21:01Z</time>
      </trkpt>
      <trkpt lat="48.38102" lon="2.47359">
        <ele>71</ele>
        <time>2017-11-19T11:21:03Z</time>
      </trkpt>
      <trkpt lat="48.38096" lon="2.47353">
        <ele>71</ele>
        <time>2017-11-19T11:21:05Z</time>
      </trkpt>
      <trkpt lat="48.38092" lon="2.47347">
        <ele>71</ele>
        <time>2017-11-19T11:21:07Z</time>
      </trkpt>
      <trkpt lat="48.38092" lon="2.47338">
        <ele>71</ele>
        <time>2017-11-19T11:21:09Z</time>
      </trkpt>
      <trkpt lat="48.38096" lon="2.47331">
        <ele>71</ele>
        <time>2017-11-19T11:21:11Z</time>
      </trkpt>
      <trkpt lat="48.381" lon="2.47326">
        <ele>72</ele>
        <time>2017-11-19T11:21:13Z</time>
      </trkpt>
      <trkpt lat="48.38104" lon="2.47319">
        <ele>72</ele>
        <time>2017-11-19T11:21:15Z</time>
      </trkpt>
      <trkpt lat="48.38108" lon="2.47314">
        <ele>72</ele>
        <time>2017-11-19T11:21:17Z</time>
      </trkpt>
      <trkpt lat="48.38112" lon="2.47308">
        <ele>72</ele>
        <time>2017-11-19T11:21:19Z</time>
      </trkpt>
      <trkpt lat="48.38115" lon="2.47302">
        <ele>72</ele>
        <time>2017-11-19T11:21:21Z</time>
      </trkpt>
      <trkpt lat="48.38119" lon="2.47297">
        <ele>72</ele>
        <time>2017-11-19T11:21:23Z</time>
      </trkpt>
      <trkpt lat="48.38122" lon="2.4729">
        <ele>72</ele>
        <time>2017-11-19T11:21:25Z</time>
      </trkpt>
      <trkpt lat="48.38126" lon="2.47284">
        <ele>72</ele>
        <time>2017-11-19T11:21:27Z</time>
      </trkpt>
      <trkpt lat="48.38131" lon="2.47277">
        <ele>72</ele>
        <time>2017-11-19T11:21:29Z</time>
      </trkpt>
      <trkpt lat="48.38135" lon="2.47269">
        <ele>72</ele>
        <time>2017-11-19T11:21:31Z</time>
      </trkpt>
      <trkpt lat="48.38139" lon="2.47262">
        <ele>72</ele>
        <time>2017-11-19T11:21:33Z</time>
      </trkpt>
      <trkpt lat="48.38143" lon="2.47255">
        <ele>72</ele>
        <time>2017-11-19T11:21:35Z</time>
      </trkpt>
      <trkpt lat="48.38147" lon="2.47247">
        <ele>73</ele>
        <time>2017-11-19T11:21:37Z</time>
      </trkpt>
      <trkpt lat="48.38151" lon="2.4724">
        <ele>73</ele>
        <time>2017-11-19T11:21:39Z</time>
      </trkpt>
      <trkpt lat="48.38154" lon="2.47232">
        <ele>73</ele>
        <time>2017-11-19T11:21:41Z</time>
      </trkpt>
      <trkpt lat="48.38159" lon="2.47227">
        <ele>73</ele>
        <time>2017-11-19T11:21:43Z</time>
      </trkpt>
      <trkpt lat="48.38163" lon="2.4722">
        <ele>73</ele>
        <time>2017-11-19T11:21:45Z</time>
      </trkpt>
      <trkpt lat="48.38167" lon="2.47215">
        <ele>74</ele>
        <time>2017-11-19T11:21:47Z</time>
      </trkpt>
      <trkpt lat="48.38171" lon="2.47208">
        <ele>74</ele>
        <time>2017-11-19T11:21:49Z</time>
      </trkpt>
      <trkpt lat="48.38174" lon="2.47202">
        <ele>74</ele>
        <time>2017-11-19T11:21:51Z</time>
      </trkpt>
      <trkpt lat="48.38178" lon="2.47196">
        <ele>74</ele>
        <time>2017-11-19T11:21:53Z</time>
      </trkpt>
      <trkpt lat="48.38181" lon="2.47189">
        <ele>74</ele>
        <time>2017-11-19T11:21:55Z</time>
      </trkpt>
      <trkpt lat="48.38184" lon="2.47183">
        <ele>74</ele>
        <time>2017-11-19T11:21:57Z</time>
      </trkpt>
      <trkpt lat="48.38187" lon="2.47176">
        <ele>74</ele>
        <time>2017-11-19T11:21:59Z</time>
      </trkpt>
      <trkpt lat="48.38191" lon="2.47169">
        <ele>74</ele>
        <time>2017-11-19T11:22:01Z</time>
      </trkpt>
      <trkpt lat="48.38195" lon="2.47164">
        <ele>75</ele>
        <time>2017-11-19T11:22:03Z</time>
      </trkpt>
      <trkpt lat="48.382" lon="2.47155">
        <ele>76</ele>
        <time>2017-11-19T11:22:07Z</time>
      </trkpt>
      <trkpt lat="48.38201" lon="2.47145">
        <ele>76</ele>
        <time>2017-11-19T11:22:11Z</time>
      </trkpt>
      <trkpt lat="48.38197" lon="2.47139">
        <ele>76</ele>
        <time>2017-11-19T11:22:13Z</time>
      </trkpt>
      <trkpt lat="48.38192" lon="2.47133">
        <ele>76</ele>
        <time>2017-11-19T11:22:15Z</time>
      </trkpt>
      <trkpt lat="48.38187" lon="2.47128">
        <ele>76</ele>
        <time>2017-11-19T11:22:17Z</time>
      </trkpt>
      <trkpt lat="48.38181" lon="2.47124">
        <ele>76</ele>
        <time>2017-11-19T11:22:19Z</time>
      </trkpt>
      <trkpt lat="48.38175" lon="2.47119">
        <ele>76</ele>
        <time>2017-11-19T11:22:21Z</time>
      </trkpt>
      <trkpt lat="48.3817" lon="2.47112">
        <ele>76</ele>
        <time>2017-11-19T11:22:23Z</time>
      </trkpt>
      <trkpt lat="48.38166" lon="2.47105">
        <ele>75</ele>
        <time>2017-11-19T11:22:25Z</time>
      </trkpt>
      <trkpt lat="48.38164" lon="2.47096">
        <ele>75</ele>
        <time>2017-11-19T11:22:27Z</time>
      </trkpt>
      <trkpt lat="48.38165" lon="2.47087">
        <ele>76</ele>
        <time>2017-11-19T11:22:29Z</time>
      </trkpt>
      <trkpt lat="48.38168" lon="2.47079">
        <ele>76</ele>
        <time>2017-11-19T11:22:31Z</time>
      </trkpt>
      <trkpt lat="48.38172" lon="2.4707">
        <ele>77</ele>
        <time>2017-11-19T11:22:33Z</time>
      </trkpt>
      <trkpt lat="48.38175" lon="2.47062">
        <ele>78</ele>
        <time>2017-11-19T11:22:35Z</time>
      </trkpt>
      <trkpt lat="48.38178" lon="2.47055">
        <ele>78</ele>
        <time>2017-11-19T11:22:37Z</time>
      </trkpt>
      <trkpt lat="48.38182" lon="2.47048">
        <ele>78</ele>
        <time>2017-11-19T11:22:39Z</time>
      </trkpt>
      <trkpt lat="48.38185" lon="2.4704">
        <ele>78</ele>
        <time>2017-11-19T11:22:41Z</time>
      </trkpt>
      <trkpt lat="48.38189" lon="2.47032">
        <ele>79</ele>
        <time>2017-11-19T11:22:43Z</time>
      </trkpt>
      <trkpt lat="48.38192" lon="2.47025">
        <ele>79</ele>
        <time>2017-11-19T11:22:45Z</time>
      </trkpt>
      <trkpt lat="48.38195" lon="2.47017">
        <ele>79</ele>
        <time>2017-11-19T11:22:47Z</time>
      </trkpt>
      <trkpt lat="48.38197" lon="2.4701">
        <ele>79</ele>
        <time>2017-11-19T11:22:49Z</time>
      </trkpt>
      <trkpt lat="48.38199" lon="2.47003">
        <ele>79</ele>
        <time>2017-11-19T11:22:51Z</time>
      </trkpt>
      <trkpt lat="48.382" lon="2.46996">
        <ele>81</ele>
        <time>2017-11-19T11:22:53Z</time>
      </trkpt>
      <trkpt lat="48.38202" lon="2.46989">
        <ele>81</ele>
        <time>2017-11-19T11:22:55Z</time>
      </trkpt>
      <trkpt lat="48.38205" lon="2.46983">
        <ele>81</ele>
        <time>2017-11-19T11:22:57Z</time>
      </trkpt>
      <trkpt lat="48.3821" lon="2.46973">
        <ele>81</ele>
        <time>2017-11-19T11:23:01Z</time>
      </trkpt>
      <trkpt lat="48.38217" lon="2.46968">
        <ele>82</ele>
        <time>2017-11-19T11:23:05Z</time>
      </trkpt>
      <trkpt lat="48.38224" lon="2.46968">
        <ele>82</ele>
        <time>2017-11-19T11:23:09Z</time>
      </trkpt>
      <trkpt lat="48.38227" lon="2.46972">
        <ele>82</ele>
        <time>2017-11-19T11:23:11Z</time>
      </trkpt>
      <trkpt lat="48.38233" lon="2.46978">
        <ele>82</ele>
        <time>2017-11-19T11:23:15Z</time>
      </trkpt>
      <trkpt lat="48.38239" lon="2.46982">
        <ele>82</ele>
        <time>2017-11-19T11:23:21Z</time>
      </trkpt>
      <trkpt lat="48.38244" lon="2.46983">
        <ele>82</ele>
        <time>2017-11-19T11:23:25Z</time>
      </trkpt>
      <trkpt lat="48.3825" lon="2.46986">
        <ele>82</ele>
        <time>2017-11-19T11:23:29Z</time>
      </trkpt>
      <trkpt lat="48.38256" lon="2.46989">
        <ele>84</ele>
        <time>2017-11-19T11:23:33Z</time>
      </trkpt>
      <trkpt lat="48.38262" lon="2.46989">
        <ele>84</ele>
        <time>2017-11-19T11:23:37Z</time>
      </trkpt>
      <trkpt lat="48.38268" lon="2.4699">
        <ele>85</ele>
        <time>2017-11-19T11:23:41Z</time>
      </trkpt>
      <trkpt lat="48.38273" lon="2.46988">
        <ele>85</ele>
        <time>2017-11-19T11:23:45Z</time>
      </trkpt>
      <trkpt lat="48.38277" lon="2.46986">
        <ele>85</ele>
        <time>2017-11-19T11:24:01Z</time>
      </trkpt>
      <trkpt lat="48.38283" lon="2.46987">
        <ele>85</ele>
        <time>2017-11-19T11:24:09Z</time>
      </trkpt>
      <trkpt lat="48.38288" lon="2.46985">
        <ele>85</ele>
        <time>2017-11-19T11:24:15Z</time>
      </trkpt>
      <trkpt lat="48.3829" lon="2.46979">
        <ele>86</ele>
        <time>2017-11-19T11:24:21Z</time>
      </trkpt>
    </trkseg>
  </trk>
</gpx>